<?xml version="1.0" encoding="UTF-8" standalone="no" ?>
<gpx xmlns="http://www.topografix.com/GPX/1/1" xmlns:xsi="http://www.w3.org/2001/XMLSchema-instance" xsi:schemaLocation="http://www.topografix.com/GPX/1/1 http://www.topografix.com/GPX/1/1/gpx.xsd" version="1.1" creator="VisuGPX - https://www.visugpx.com">
  <metadata>
    <name>boucle vtt autour du job</name>
    <desc><![CDATA[Jolie boucle sur les chemins de l'espace vtt et d'autres en plus.
Tonique.
De beaux paysages , de belles montées et descentes.
]]></desc>
  </metadata>
  <trk>
    <name><![CDATA[boucle vtt autour du job_1]]></name>
    <trkseg>
      <trkpt lat="43.00083" lon="0.74528">
        <ele>615.134</ele>
        <time>2021-07-21T12:31:09Z</time>
      </trkpt>
      <trkpt lat="43.00074" lon="0.74531">
        <ele>615.808</ele>
        <time>2021-07-21T12:31:07Z</time>
      </trkpt>
      <trkpt lat="43.00065" lon="0.74533">
        <ele>616.114</ele>
        <time>2021-07-21T12:31:05Z</time>
      </trkpt>
      <trkpt lat="43.00061" lon="0.74533">
        <ele>616.313</ele>
        <time>2021-07-21T12:31:04Z</time>
      </trkpt>
      <trkpt lat="43.00052" lon="0.74534">
        <ele>616.672</ele>
        <time>2021-07-21T12:31:02Z</time>
      </trkpt>
      <trkpt lat="43.00044" lon="0.74533">
        <ele>616.75</ele>
        <time>2021-07-21T12:31:00Z</time>
      </trkpt>
      <trkpt lat="43.00035" lon="0.74531">
        <ele>617.045</ele>
        <time>2021-07-21T12:30:58Z</time>
      </trkpt>
      <trkpt lat="43.00028" lon="0.74529">
        <ele>617.461</ele>
        <time>2021-07-21T12:30:56Z</time>
      </trkpt>
      <trkpt lat="43.00023" lon="0.74526">
        <ele>618.863</ele>
        <time>2021-07-21T12:30:55Z</time>
      </trkpt>
      <trkpt lat="43.00014" lon="0.74521">
        <ele>620.539</ele>
        <time>2021-07-21T12:30:53Z</time>
      </trkpt>
      <trkpt lat="43.0001" lon="0.74519">
        <ele>621.038</ele>
        <time>2021-07-21T12:30:52Z</time>
      </trkpt>
      <trkpt lat="43.00003" lon="0.74512">
        <ele>621.589</ele>
        <time>2021-07-21T12:30:50Z</time>
      </trkpt>
      <trkpt lat="42.99999" lon="0.74508">
        <ele>621.858</ele>
        <time>2021-07-21T12:30:49Z</time>
      </trkpt>
      <trkpt lat="42.99993" lon="0.745">
        <ele>621.708</ele>
        <time>2021-07-21T12:30:47Z</time>
      </trkpt>
      <trkpt lat="42.99989" lon="0.74494">
        <ele>620.919</ele>
        <time>2021-07-21T12:30:45Z</time>
      </trkpt>
      <trkpt lat="42.99983" lon="0.74487">
        <ele>620.509</ele>
        <time>2021-07-21T12:30:43Z</time>
      </trkpt>
      <trkpt lat="42.99978" lon="0.74483">
        <ele>620.019</ele>
        <time>2021-07-21T12:30:41Z</time>
      </trkpt>
      <trkpt lat="42.99972" lon="0.74478">
        <ele>620.022</ele>
        <time>2021-07-21T12:30:39Z</time>
      </trkpt>
      <trkpt lat="42.99965" lon="0.74475">
        <ele>620.237</ele>
        <time>2021-07-21T12:30:37Z</time>
      </trkpt>
      <trkpt lat="42.99958" lon="0.74473">
        <ele>620.793</ele>
        <time>2021-07-21T12:30:35Z</time>
      </trkpt>
      <trkpt lat="42.99951" lon="0.74473">
        <ele>621.345</ele>
        <time>2021-07-21T12:30:33Z</time>
      </trkpt>
      <trkpt lat="42.99943" lon="0.74473">
        <ele>621.881</ele>
        <time>2021-07-21T12:30:31Z</time>
      </trkpt>
      <trkpt lat="42.99935" lon="0.74474">
        <ele>622.04</ele>
        <time>2021-07-21T12:30:29Z</time>
      </trkpt>
      <trkpt lat="42.99929" lon="0.74475">
        <ele>621.451</ele>
        <time>2021-07-21T12:30:27Z</time>
      </trkpt>
      <trkpt lat="42.99923" lon="0.74475">
        <ele>620.74</ele>
        <time>2021-07-21T12:30:25Z</time>
      </trkpt>
      <trkpt lat="42.99918" lon="0.74475">
        <ele>620.108</ele>
        <time>2021-07-21T12:30:23Z</time>
      </trkpt>
      <trkpt lat="42.99913" lon="0.74475">
        <ele>619.618</ele>
        <time>2021-07-21T12:30:21Z</time>
      </trkpt>
      <trkpt lat="42.99907" lon="0.74476">
        <ele>618.917</ele>
        <time>2021-07-21T12:30:19Z</time>
      </trkpt>
      <trkpt lat="42.99902" lon="0.74476">
        <ele>618.336</ele>
        <time>2021-07-21T12:30:17Z</time>
      </trkpt>
      <trkpt lat="42.99897" lon="0.74477">
        <ele>617.788</ele>
        <time>2021-07-21T12:30:15Z</time>
      </trkpt>
      <trkpt lat="42.99892" lon="0.74478">
        <ele>616.843</ele>
        <time>2021-07-21T12:30:13Z</time>
      </trkpt>
      <trkpt lat="42.99887" lon="0.74479">
        <ele>616.039</ele>
        <time>2021-07-21T12:30:11Z</time>
      </trkpt>
      <trkpt lat="42.9988" lon="0.7448">
        <ele>614.741</ele>
        <time>2021-07-21T12:30:08Z</time>
      </trkpt>
      <trkpt lat="42.99874" lon="0.7448">
        <ele>613.397</ele>
        <time>2021-07-21T12:30:05Z</time>
      </trkpt>
      <trkpt lat="42.99868" lon="0.74479">
        <ele>612.086</ele>
        <time>2021-07-21T12:30:02Z</time>
      </trkpt>
      <trkpt lat="42.99863" lon="0.74476">
        <ele>611.057</ele>
        <time>2021-07-21T12:29:59Z</time>
      </trkpt>
      <trkpt lat="42.99858" lon="0.74474">
        <ele>610.416</ele>
        <time>2021-07-21T12:29:57Z</time>
      </trkpt>
      <trkpt lat="42.99854" lon="0.74472">
        <ele>610.008</ele>
        <time>2021-07-21T12:29:55Z</time>
      </trkpt>
      <trkpt lat="42.9985" lon="0.74469">
        <ele>609.822</ele>
        <time>2021-07-21T12:29:53Z</time>
      </trkpt>
      <trkpt lat="42.99846" lon="0.74465">
        <ele>609.857</ele>
        <time>2021-07-21T12:29:51Z</time>
      </trkpt>
      <trkpt lat="42.99843" lon="0.7446">
        <ele>610.094</ele>
        <time>2021-07-21T12:29:49Z</time>
      </trkpt>
      <trkpt lat="42.9984" lon="0.74455">
        <ele>610.574</ele>
        <time>2021-07-21T12:29:47Z</time>
      </trkpt>
      <trkpt lat="42.99836" lon="0.7445">
        <ele>610.879</ele>
        <time>2021-07-21T12:29:45Z</time>
      </trkpt>
      <trkpt lat="42.99833" lon="0.74445">
        <ele>611.325</ele>
        <time>2021-07-21T12:29:43Z</time>
      </trkpt>
      <trkpt lat="42.99829" lon="0.7444">
        <ele>611.937</ele>
        <time>2021-07-21T12:29:41Z</time>
      </trkpt>
      <trkpt lat="42.99825" lon="0.74435">
        <ele>612.163</ele>
        <time>2021-07-21T12:29:39Z</time>
      </trkpt>
      <trkpt lat="42.99822" lon="0.74431">
        <ele>611.882</ele>
        <time>2021-07-21T12:29:37Z</time>
      </trkpt>
      <trkpt lat="42.99817" lon="0.74429">
        <ele>611.683</ele>
        <time>2021-07-21T12:29:35Z</time>
      </trkpt>
      <trkpt lat="42.99812" lon="0.74426">
        <ele>611.442</ele>
        <time>2021-07-21T12:29:32Z</time>
      </trkpt>
      <trkpt lat="42.99806" lon="0.74425">
        <ele>611.108</ele>
        <time>2021-07-21T12:29:29Z</time>
      </trkpt>
      <trkpt lat="42.99801" lon="0.74426">
        <ele>610.908</ele>
        <time>2021-07-21T12:29:27Z</time>
      </trkpt>
      <trkpt lat="42.99796" lon="0.74427">
        <ele>610.453</ele>
        <time>2021-07-21T12:29:25Z</time>
      </trkpt>
      <trkpt lat="42.99791" lon="0.74428">
        <ele>609.652</ele>
        <time>2021-07-21T12:29:23Z</time>
      </trkpt>
      <trkpt lat="42.99786" lon="0.74429">
        <ele>608.476</ele>
        <time>2021-07-21T12:29:20Z</time>
      </trkpt>
      <trkpt lat="42.99781" lon="0.74429">
        <ele>607.261</ele>
        <time>2021-07-21T12:29:17Z</time>
      </trkpt>
      <trkpt lat="42.99776" lon="0.7443">
        <ele>606.147</ele>
        <time>2021-07-21T12:29:14Z</time>
      </trkpt>
      <trkpt lat="42.99771" lon="0.74431">
        <ele>605.049</ele>
        <time>2021-07-21T12:29:11Z</time>
      </trkpt>
      <trkpt lat="42.99766" lon="0.74431">
        <ele>603.855</ele>
        <time>2021-07-21T12:29:08Z</time>
      </trkpt>
      <trkpt lat="42.9976" lon="0.74434">
        <ele>602.434</ele>
        <time>2021-07-21T12:29:04Z</time>
      </trkpt>
      <trkpt lat="42.99755" lon="0.74437">
        <ele>601.475</ele>
        <time>2021-07-21T12:29:01Z</time>
      </trkpt>
      <trkpt lat="42.9975" lon="0.7444">
        <ele>600.124</ele>
        <time>2021-07-21T12:28:58Z</time>
      </trkpt>
      <trkpt lat="42.99746" lon="0.74442">
        <ele>598.708</ele>
        <time>2021-07-21T12:28:55Z</time>
      </trkpt>
      <trkpt lat="42.99741" lon="0.74446">
        <ele>597.821</ele>
        <time>2021-07-21T12:28:52Z</time>
      </trkpt>
      <trkpt lat="42.99736" lon="0.7445">
        <ele>596.856</ele>
        <time>2021-07-21T12:28:49Z</time>
      </trkpt>
      <trkpt lat="42.99731" lon="0.74453">
        <ele>596.174</ele>
        <time>2021-07-21T12:28:46Z</time>
      </trkpt>
      <trkpt lat="42.99726" lon="0.74456">
        <ele>595.651</ele>
        <time>2021-07-21T12:28:43Z</time>
      </trkpt>
      <trkpt lat="42.9972" lon="0.74459">
        <ele>595.236</ele>
        <time>2021-07-21T12:28:40Z</time>
      </trkpt>
      <trkpt lat="42.99715" lon="0.74461">
        <ele>594.772</ele>
        <time>2021-07-21T12:28:38Z</time>
      </trkpt>
      <trkpt lat="42.99711" lon="0.74462">
        <ele>594.374</ele>
        <time>2021-07-21T12:28:36Z</time>
      </trkpt>
      <trkpt lat="42.99706" lon="0.74462">
        <ele>594.09</ele>
        <time>2021-07-21T12:28:33Z</time>
      </trkpt>
      <trkpt lat="42.99702" lon="0.7446">
        <ele>594.189</ele>
        <time>2021-07-21T12:28:30Z</time>
      </trkpt>
      <trkpt lat="42.99697" lon="0.74459">
        <ele>594.87</ele>
        <time>2021-07-21T12:28:26Z</time>
      </trkpt>
      <trkpt lat="42.99695" lon="0.74452">
        <ele>595.969</ele>
        <time>2021-07-21T12:28:23Z</time>
      </trkpt>
      <trkpt lat="42.99693" lon="0.74445">
        <ele>597.208</ele>
        <time>2021-07-21T12:28:21Z</time>
      </trkpt>
      <trkpt lat="42.99691" lon="0.74434">
        <ele>597.911</ele>
        <time>2021-07-21T12:28:19Z</time>
      </trkpt>
      <trkpt lat="42.99691" lon="0.74418">
        <ele>598.483</ele>
        <time>2021-07-21T12:28:17Z</time>
      </trkpt>
      <trkpt lat="42.99692" lon="0.7441">
        <ele>598.223</ele>
        <time>2021-07-21T12:28:16Z</time>
      </trkpt>
      <trkpt lat="42.99693" lon="0.74395">
        <ele>597.921</ele>
        <time>2021-07-21T12:28:14Z</time>
      </trkpt>
      <trkpt lat="42.99692" lon="0.74389">
        <ele>597.646</ele>
        <time>2021-07-21T12:28:13Z</time>
      </trkpt>
      <trkpt lat="42.99691" lon="0.74383">
        <ele>597.212</ele>
        <time>2021-07-21T12:28:12Z</time>
      </trkpt>
      <trkpt lat="42.99688" lon="0.74372">
        <ele>596.944</ele>
        <time>2021-07-21T12:28:10Z</time>
      </trkpt>
      <trkpt lat="42.99686" lon="0.74366">
        <ele>597.03</ele>
        <time>2021-07-21T12:28:09Z</time>
      </trkpt>
      <trkpt lat="42.99684" lon="0.74352">
        <ele>597.139</ele>
        <time>2021-07-21T12:28:07Z</time>
      </trkpt>
      <trkpt lat="42.99683" lon="0.74338">
        <ele>597.37</ele>
        <time>2021-07-21T12:28:05Z</time>
      </trkpt>
      <trkpt lat="42.99682" lon="0.74331">
        <ele>597.749</ele>
        <time>2021-07-21T12:28:04Z</time>
      </trkpt>
      <trkpt lat="42.99679" lon="0.74313">
        <ele>598.308</ele>
        <time>2021-07-21T12:28:02Z</time>
      </trkpt>
      <trkpt lat="42.99678" lon="0.74303">
        <ele>599.417</ele>
        <time>2021-07-21T12:28:01Z</time>
      </trkpt>
      <trkpt lat="42.99676" lon="0.74281">
        <ele>601.089</ele>
        <time>2021-07-21T12:27:59Z</time>
      </trkpt>
      <trkpt lat="42.99675" lon="0.74271">
        <ele>602.628</ele>
        <time>2021-07-21T12:27:58Z</time>
      </trkpt>
      <trkpt lat="42.99674" lon="0.74253">
        <ele>604.826</ele>
        <time>2021-07-21T12:27:56Z</time>
      </trkpt>
      <trkpt lat="42.99674" lon="0.74245">
        <ele>606.621</ele>
        <time>2021-07-21T12:27:55Z</time>
      </trkpt>
      <trkpt lat="42.99673" lon="0.74229">
        <ele>608.617</ele>
        <time>2021-07-21T12:27:53Z</time>
      </trkpt>
      <trkpt lat="42.99672" lon="0.74214">
        <ele>610.339</ele>
        <time>2021-07-21T12:27:51Z</time>
      </trkpt>
      <trkpt lat="42.99672" lon="0.74198">
        <ele>611.615</ele>
        <time>2021-07-21T12:27:49Z</time>
      </trkpt>
      <trkpt lat="42.99671" lon="0.7418">
        <ele>612.384</ele>
        <time>2021-07-21T12:27:47Z</time>
      </trkpt>
      <trkpt lat="42.99672" lon="0.74163">
        <ele>612.995</ele>
        <time>2021-07-21T12:27:45Z</time>
      </trkpt>
      <trkpt lat="42.99672" lon="0.74155">
        <ele>613.674</ele>
        <time>2021-07-21T12:27:44Z</time>
      </trkpt>
      <trkpt lat="42.99673" lon="0.74147">
        <ele>614.308</ele>
        <time>2021-07-21T12:27:43Z</time>
      </trkpt>
      <trkpt lat="42.99675" lon="0.74132">
        <ele>614.727</ele>
        <time>2021-07-21T12:27:41Z</time>
      </trkpt>
      <trkpt lat="42.99678" lon="0.74119">
        <ele>614.861</ele>
        <time>2021-07-21T12:27:39Z</time>
      </trkpt>
      <trkpt lat="42.9968" lon="0.74108">
        <ele>614.777</ele>
        <time>2021-07-21T12:27:37Z</time>
      </trkpt>
      <trkpt lat="42.99681" lon="0.741">
        <ele>614.621</ele>
        <time>2021-07-21T12:27:35Z</time>
      </trkpt>
      <trkpt lat="42.99683" lon="0.74094">
        <ele>614.586</ele>
        <time>2021-07-21T12:27:33Z</time>
      </trkpt>
      <trkpt lat="42.99687" lon="0.74085">
        <ele>614.622</ele>
        <time>2021-07-21T12:27:31Z</time>
      </trkpt>
      <trkpt lat="42.99691" lon="0.74074">
        <ele>615.044</ele>
        <time>2021-07-21T12:27:29Z</time>
      </trkpt>
      <trkpt lat="42.99693" lon="0.74068">
        <ele>615.48</ele>
        <time>2021-07-21T12:27:28Z</time>
      </trkpt>
      <trkpt lat="42.99699" lon="0.74054">
        <ele>616.249</ele>
        <time>2021-07-21T12:27:26Z</time>
      </trkpt>
      <trkpt lat="42.99702" lon="0.74047">
        <ele>617.18</ele>
        <time>2021-07-21T12:27:25Z</time>
      </trkpt>
      <trkpt lat="42.9971" lon="0.74033">
        <ele>618.329</ele>
        <time>2021-07-21T12:27:23Z</time>
      </trkpt>
      <trkpt lat="42.99714" lon="0.74026">
        <ele>619.608</ele>
        <time>2021-07-21T12:27:22Z</time>
      </trkpt>
      <trkpt lat="42.99723" lon="0.74013">
        <ele>620.811</ele>
        <time>2021-07-21T12:27:20Z</time>
      </trkpt>
      <trkpt lat="42.99726" lon="0.74007">
        <ele>621.883</ele>
        <time>2021-07-21T12:27:19Z</time>
      </trkpt>
      <trkpt lat="42.99734" lon="0.73992">
        <ele>622.923</ele>
        <time>2021-07-21T12:27:17Z</time>
      </trkpt>
      <trkpt lat="42.99743" lon="0.73977">
        <ele>623.987</ele>
        <time>2021-07-21T12:27:15Z</time>
      </trkpt>
      <trkpt lat="42.99747" lon="0.7397">
        <ele>625.212</ele>
        <time>2021-07-21T12:27:14Z</time>
      </trkpt>
      <trkpt lat="42.99751" lon="0.73962">
        <ele>626.668</ele>
        <time>2021-07-21T12:27:13Z</time>
      </trkpt>
      <trkpt lat="42.99757" lon="0.73946">
        <ele>628.25</ele>
        <time>2021-07-21T12:27:11Z</time>
      </trkpt>
      <trkpt lat="42.99761" lon="0.73938">
        <ele>629.666</ele>
        <time>2021-07-21T12:27:10Z</time>
      </trkpt>
      <trkpt lat="42.99765" lon="0.7393">
        <ele>631.215</ele>
        <time>2021-07-21T12:27:09Z</time>
      </trkpt>
      <trkpt lat="42.99773" lon="0.73913">
        <ele>633.586</ele>
        <time>2021-07-21T12:27:07Z</time>
      </trkpt>
      <trkpt lat="42.99782" lon="0.73897">
        <ele>635.475</ele>
        <time>2021-07-21T12:27:05Z</time>
      </trkpt>
      <trkpt lat="42.99792" lon="0.73879">
        <ele>636.908</ele>
        <time>2021-07-21T12:27:03Z</time>
      </trkpt>
      <trkpt lat="42.99797" lon="0.73871">
        <ele>637.726</ele>
        <time>2021-07-21T12:27:02Z</time>
      </trkpt>
      <trkpt lat="42.99802" lon="0.73862">
        <ele>638.76</ele>
        <time>2021-07-21T12:27:01Z</time>
      </trkpt>
      <trkpt lat="42.99812" lon="0.73846">
        <ele>639.686</ele>
        <time>2021-07-21T12:26:59Z</time>
      </trkpt>
      <trkpt lat="42.99817" lon="0.73834">
        <ele>639.856</ele>
        <time>2021-07-21T12:26:58Z</time>
      </trkpt>
      <trkpt lat="42.99828" lon="0.73816">
        <ele>639.971</ele>
        <time>2021-07-21T12:26:56Z</time>
      </trkpt>
      <trkpt lat="42.99832" lon="0.73807">
        <ele>639.657</ele>
        <time>2021-07-21T12:26:55Z</time>
      </trkpt>
      <trkpt lat="42.99836" lon="0.73789">
        <ele>639.349</ele>
        <time>2021-07-21T12:26:53Z</time>
      </trkpt>
      <trkpt lat="42.99837" lon="0.73778">
        <ele>639.315</ele>
        <time>2021-07-21T12:26:52Z</time>
      </trkpt>
      <trkpt lat="42.99834" lon="0.73759">
        <ele>639.464</ele>
        <time>2021-07-21T12:26:50Z</time>
      </trkpt>
      <trkpt lat="42.99832" lon="0.73749">
        <ele>639.495</ele>
        <time>2021-07-21T12:26:49Z</time>
      </trkpt>
      <trkpt lat="42.99828" lon="0.73727">
        <ele>639.594</ele>
        <time>2021-07-21T12:26:47Z</time>
      </trkpt>
      <trkpt lat="42.99826" lon="0.73715">
        <ele>640.008</ele>
        <time>2021-07-21T12:26:46Z</time>
      </trkpt>
      <trkpt lat="42.99823" lon="0.73702">
        <ele>640.62</ele>
        <time>2021-07-21T12:26:45Z</time>
      </trkpt>
      <trkpt lat="42.99821" lon="0.73691">
        <ele>641.328</ele>
        <time>2021-07-21T12:26:44Z</time>
      </trkpt>
      <trkpt lat="42.99819" lon="0.73681">
        <ele>642.175</ele>
        <time>2021-07-21T12:26:43Z</time>
      </trkpt>
      <trkpt lat="42.99815" lon="0.73666">
        <ele>643.261</ele>
        <time>2021-07-21T12:26:41Z</time>
      </trkpt>
      <trkpt lat="42.9981" lon="0.73653">
        <ele>644.316</ele>
        <time>2021-07-21T12:26:39Z</time>
      </trkpt>
      <trkpt lat="42.99804" lon="0.73642">
        <ele>645.752</ele>
        <time>2021-07-21T12:26:37Z</time>
      </trkpt>
      <trkpt lat="42.99794" lon="0.73632">
        <ele>647.094</ele>
        <time>2021-07-21T12:26:35Z</time>
      </trkpt>
      <trkpt lat="42.99784" lon="0.73621">
        <ele>648.66</ele>
        <time>2021-07-21T12:26:33Z</time>
      </trkpt>
      <trkpt lat="42.99779" lon="0.73613">
        <ele>650.049</ele>
        <time>2021-07-21T12:26:32Z</time>
      </trkpt>
      <trkpt lat="42.99775" lon="0.73605">
        <ele>651.15</ele>
        <time>2021-07-21T12:26:31Z</time>
      </trkpt>
      <trkpt lat="42.99768" lon="0.7359">
        <ele>652.079</ele>
        <time>2021-07-21T12:26:29Z</time>
      </trkpt>
      <trkpt lat="42.99765" lon="0.73582">
        <ele>652.808</ele>
        <time>2021-07-21T12:26:28Z</time>
      </trkpt>
      <trkpt lat="42.99759" lon="0.73569">
        <ele>654.011</ele>
        <time>2021-07-21T12:26:26Z</time>
      </trkpt>
      <trkpt lat="42.99755" lon="0.73563">
        <ele>655.047</ele>
        <time>2021-07-21T12:26:25Z</time>
      </trkpt>
      <trkpt lat="42.99749" lon="0.7355">
        <ele>656.226</ele>
        <time>2021-07-21T12:26:23Z</time>
      </trkpt>
      <trkpt lat="42.99743" lon="0.73533">
        <ele>657.716</ele>
        <time>2021-07-21T12:26:21Z</time>
      </trkpt>
      <trkpt lat="42.99741" lon="0.73522">
        <ele>659.041</ele>
        <time>2021-07-21T12:26:20Z</time>
      </trkpt>
      <trkpt lat="42.99739" lon="0.7351">
        <ele>660.567</ele>
        <time>2021-07-21T12:26:19Z</time>
      </trkpt>
      <trkpt lat="42.99736" lon="0.73488">
        <ele>662.739</ele>
        <time>2021-07-21T12:26:17Z</time>
      </trkpt>
      <trkpt lat="42.99735" lon="0.73471">
        <ele>665.545</ele>
        <time>2021-07-21T12:26:15Z</time>
      </trkpt>
      <trkpt lat="42.99733" lon="0.73456">
        <ele>668.884</ele>
        <time>2021-07-21T12:26:13Z</time>
      </trkpt>
      <trkpt lat="42.99731" lon="0.73437">
        <ele>672.295</ele>
        <time>2021-07-21T12:26:11Z</time>
      </trkpt>
      <trkpt lat="42.99727" lon="0.73416">
        <ele>675.554</ele>
        <time>2021-07-21T12:26:09Z</time>
      </trkpt>
      <trkpt lat="42.99725" lon="0.73397">
        <ele>678.708</ele>
        <time>2021-07-21T12:26:07Z</time>
      </trkpt>
      <trkpt lat="42.99723" lon="0.73377">
        <ele>681.826</ele>
        <time>2021-07-21T12:26:05Z</time>
      </trkpt>
      <trkpt lat="42.99721" lon="0.73357">
        <ele>684.833</ele>
        <time>2021-07-21T12:26:03Z</time>
      </trkpt>
      <trkpt lat="42.99721" lon="0.73347">
        <ele>687.278</ele>
        <time>2021-07-21T12:26:02Z</time>
      </trkpt>
      <trkpt lat="42.99722" lon="0.73337">
        <ele>689.91</ele>
        <time>2021-07-21T12:26:01Z</time>
      </trkpt>
      <trkpt lat="42.99721" lon="0.73315">
        <ele>693.295</ele>
        <time>2021-07-21T12:25:59Z</time>
      </trkpt>
      <trkpt lat="42.99721" lon="0.73305">
        <ele>696.041</ele>
        <time>2021-07-21T12:25:58Z</time>
      </trkpt>
      <trkpt lat="42.9972" lon="0.73287">
        <ele>699.273</ele>
        <time>2021-07-21T12:25:56Z</time>
      </trkpt>
      <trkpt lat="42.9972" lon="0.73279">
        <ele>701.929</ele>
        <time>2021-07-21T12:25:55Z</time>
      </trkpt>
      <trkpt lat="42.99724" lon="0.73266">
        <ele>704.968</ele>
        <time>2021-07-21T12:25:53Z</time>
      </trkpt>
      <trkpt lat="42.99727" lon="0.73253">
        <ele>707.629</ele>
        <time>2021-07-21T12:25:51Z</time>
      </trkpt>
      <trkpt lat="42.9973" lon="0.7324">
        <ele>709.698</ele>
        <time>2021-07-21T12:25:49Z</time>
      </trkpt>
      <trkpt lat="42.99733" lon="0.73226">
        <ele>710.908</ele>
        <time>2021-07-21T12:25:47Z</time>
      </trkpt>
      <trkpt lat="42.99737" lon="0.7321">
        <ele>711.709</ele>
        <time>2021-07-21T12:25:45Z</time>
      </trkpt>
      <trkpt lat="42.99738" lon="0.73202">
        <ele>712.054</ele>
        <time>2021-07-21T12:25:44Z</time>
      </trkpt>
      <trkpt lat="42.99739" lon="0.73194">
        <ele>712.114</ele>
        <time>2021-07-21T12:25:43Z</time>
      </trkpt>
      <trkpt lat="42.99743" lon="0.73177">
        <ele>712.384</ele>
        <time>2021-07-21T12:25:41Z</time>
      </trkpt>
      <trkpt lat="42.99745" lon="0.7317">
        <ele>712.469</ele>
        <time>2021-07-21T12:25:40Z</time>
      </trkpt>
      <trkpt lat="42.99749" lon="0.73159">
        <ele>712.525</ele>
        <time>2021-07-21T12:25:38Z</time>
      </trkpt>
      <trkpt lat="42.99751" lon="0.73148">
        <ele>713.057</ele>
        <time>2021-07-21T12:25:36Z</time>
      </trkpt>
      <trkpt lat="42.99752" lon="0.7314">
        <ele>713.923</ele>
        <time>2021-07-21T12:25:34Z</time>
      </trkpt>
      <trkpt lat="42.99752" lon="0.73134">
        <ele>715.642</ele>
        <time>2021-07-21T12:25:31Z</time>
      </trkpt>
      <trkpt lat="42.99749" lon="0.73119">
        <ele>718.693</ele>
        <time>2021-07-21T12:24:53Z</time>
      </trkpt>
      <trkpt lat="42.99748" lon="0.73108">
        <ele>720.852</ele>
        <time>2021-07-21T12:24:51Z</time>
      </trkpt>
      <trkpt lat="42.99746" lon="0.73101">
        <ele>722.908</ele>
        <time>2021-07-21T12:24:50Z</time>
      </trkpt>
      <trkpt lat="42.99748" lon="0.73089">
        <ele>725.211</ele>
        <time>2021-07-21T12:24:48Z</time>
      </trkpt>
      <trkpt lat="42.99752" lon="0.73082">
        <ele>727.156</ele>
        <time>2021-07-21T12:24:46Z</time>
      </trkpt>
      <trkpt lat="42.99758" lon="0.73077">
        <ele>728.854</ele>
        <time>2021-07-21T12:24:44Z</time>
      </trkpt>
      <trkpt lat="42.99763" lon="0.73076">
        <ele>730.082</ele>
        <time>2021-07-21T12:24:43Z</time>
      </trkpt>
      <trkpt lat="42.99772" lon="0.73075">
        <ele>731.937</ele>
        <time>2021-07-21T12:24:41Z</time>
      </trkpt>
      <trkpt lat="42.99776" lon="0.73073">
        <ele>733.313</ele>
        <time>2021-07-21T12:24:40Z</time>
      </trkpt>
      <trkpt lat="42.99786" lon="0.73066">
        <ele>734.615</ele>
        <time>2021-07-21T12:24:38Z</time>
      </trkpt>
      <trkpt lat="42.99791" lon="0.73061">
        <ele>735.841</ele>
        <time>2021-07-21T12:24:37Z</time>
      </trkpt>
      <trkpt lat="42.99801" lon="0.73052">
        <ele>737.12</ele>
        <time>2021-07-21T12:24:35Z</time>
      </trkpt>
      <trkpt lat="42.99806" lon="0.73049">
        <ele>738.081</ele>
        <time>2021-07-21T12:24:34Z</time>
      </trkpt>
      <trkpt lat="42.99813" lon="0.73046">
        <ele>739.09</ele>
        <time>2021-07-21T12:24:32Z</time>
      </trkpt>
      <trkpt lat="42.99821" lon="0.73044">
        <ele>739.908</ele>
        <time>2021-07-21T12:24:30Z</time>
      </trkpt>
      <trkpt lat="42.99825" lon="0.73035">
        <ele>741.218</ele>
        <time>2021-07-21T12:24:28Z</time>
      </trkpt>
      <trkpt lat="42.9983" lon="0.73015">
        <ele>742.917</ele>
        <time>2021-07-21T12:24:22Z</time>
      </trkpt>
      <trkpt lat="42.99835" lon="0.73021">
        <ele>743.936</ele>
        <time>2021-07-21T12:24:20Z</time>
      </trkpt>
      <trkpt lat="42.99841" lon="0.73033">
        <ele>745.275</ele>
        <time>2021-07-21T12:24:18Z</time>
      </trkpt>
      <trkpt lat="42.99844" lon="0.73039">
        <ele>746.61</ele>
        <time>2021-07-21T12:24:17Z</time>
      </trkpt>
      <trkpt lat="42.99846" lon="0.73046">
        <ele>748.556</ele>
        <time>2021-07-21T12:24:16Z</time>
      </trkpt>
      <trkpt lat="42.99851" lon="0.73054">
        <ele>751.228</ele>
        <time>2021-07-21T12:24:13Z</time>
      </trkpt>
      <trkpt lat="42.99855" lon="0.7305">
        <ele>753.754</ele>
        <time>2021-07-21T12:24:11Z</time>
      </trkpt>
      <trkpt lat="42.9986" lon="0.73036">
        <ele>756.173</ele>
        <time>2021-07-21T12:24:09Z</time>
      </trkpt>
      <trkpt lat="42.99866" lon="0.73021">
        <ele>758.384</ele>
        <time>2021-07-21T12:24:07Z</time>
      </trkpt>
      <trkpt lat="42.99872" lon="0.73006">
        <ele>760.473</ele>
        <time>2021-07-21T12:24:05Z</time>
      </trkpt>
      <trkpt lat="42.99875" lon="0.72991">
        <ele>762.608</ele>
        <time>2021-07-21T12:24:03Z</time>
      </trkpt>
      <trkpt lat="42.99881" lon="0.72979">
        <ele>764.824</ele>
        <time>2021-07-21T12:24:01Z</time>
      </trkpt>
      <trkpt lat="42.99884" lon="0.72973">
        <ele>766.604</ele>
        <time>2021-07-21T12:24:00Z</time>
      </trkpt>
      <trkpt lat="42.99892" lon="0.72968">
        <ele>768.469</ele>
        <time>2021-07-21T12:23:58Z</time>
      </trkpt>
      <trkpt lat="42.99901" lon="0.72968">
        <ele>769.833</ele>
        <time>2021-07-21T12:23:56Z</time>
      </trkpt>
      <trkpt lat="42.99907" lon="0.72967">
        <ele>770.648</ele>
        <time>2021-07-21T12:23:55Z</time>
      </trkpt>
      <trkpt lat="42.99919" lon="0.72962">
        <ele>771.334</ele>
        <time>2021-07-21T12:23:53Z</time>
      </trkpt>
      <trkpt lat="42.99926" lon="0.72957">
        <ele>771.886</ele>
        <time>2021-07-21T12:23:52Z</time>
      </trkpt>
      <trkpt lat="42.99929" lon="0.72951">
        <ele>772.542</ele>
        <time>2021-07-21T12:23:51Z</time>
      </trkpt>
      <trkpt lat="42.9993" lon="0.72939">
        <ele>773.521</ele>
        <time>2021-07-21T12:23:49Z</time>
      </trkpt>
      <trkpt lat="42.99929" lon="0.72931">
        <ele>774.482</ele>
        <time>2021-07-21T12:23:47Z</time>
      </trkpt>
      <trkpt lat="42.99933" lon="0.72927">
        <ele>775.851</ele>
        <time>2021-07-21T12:23:45Z</time>
      </trkpt>
      <trkpt lat="42.99941" lon="0.72924">
        <ele>777.208</ele>
        <time>2021-07-21T12:23:43Z</time>
      </trkpt>
      <trkpt lat="42.99952" lon="0.72921">
        <ele>778.61</ele>
        <time>2021-07-21T12:23:41Z</time>
      </trkpt>
      <trkpt lat="42.99957" lon="0.72918">
        <ele>779.664</ele>
        <time>2021-07-21T12:23:40Z</time>
      </trkpt>
      <trkpt lat="42.99967" lon="0.72919">
        <ele>780.843</ele>
        <time>2021-07-21T12:23:38Z</time>
      </trkpt>
      <trkpt lat="42.99969" lon="0.72924">
        <ele>781.376</ele>
        <time>2021-07-21T12:23:37Z</time>
      </trkpt>
      <trkpt lat="42.99974" lon="0.7294">
        <ele>781.751</ele>
        <time>2021-07-21T12:23:35Z</time>
      </trkpt>
      <trkpt lat="42.99975" lon="0.72951">
        <ele>782.027</ele>
        <time>2021-07-21T12:23:34Z</time>
      </trkpt>
      <trkpt lat="42.99976" lon="0.72962">
        <ele>782.549</ele>
        <time>2021-07-21T12:23:33Z</time>
      </trkpt>
      <trkpt lat="42.99976" lon="0.7297">
        <ele>783.145</ele>
        <time>2021-07-21T12:23:32Z</time>
      </trkpt>
      <trkpt lat="42.99977" lon="0.72977">
        <ele>784.164</ele>
        <time>2021-07-21T12:23:31Z</time>
      </trkpt>
      <trkpt lat="42.99979" lon="0.72987">
        <ele>785.735</ele>
        <time>2021-07-21T12:23:29Z</time>
      </trkpt>
      <trkpt lat="42.99984" lon="0.72984">
        <ele>787.664</ele>
        <time>2021-07-21T12:23:27Z</time>
      </trkpt>
      <trkpt lat="42.99991" lon="0.72971">
        <ele>789.708</ele>
        <time>2021-07-21T12:23:25Z</time>
      </trkpt>
      <trkpt lat="42.99998" lon="0.72952">
        <ele>791.52</ele>
        <time>2021-07-21T12:23:23Z</time>
      </trkpt>
      <trkpt lat="43.00005" lon="0.72934">
        <ele>792.928</ele>
        <time>2021-07-21T12:23:21Z</time>
      </trkpt>
      <trkpt lat="43.0001" lon="0.72925">
        <ele>793.875</ele>
        <time>2021-07-21T12:23:20Z</time>
      </trkpt>
      <trkpt lat="43.00014" lon="0.72917">
        <ele>795.058</ele>
        <time>2021-07-21T12:23:19Z</time>
      </trkpt>
      <trkpt lat="43.00024" lon="0.72901">
        <ele>796.273</ele>
        <time>2021-07-21T12:23:17Z</time>
      </trkpt>
      <trkpt lat="43.00029" lon="0.72893">
        <ele>797.349</ele>
        <time>2021-07-21T12:23:16Z</time>
      </trkpt>
      <trkpt lat="43.00034" lon="0.72874">
        <ele>798.411</ele>
        <time>2021-07-21T12:23:14Z</time>
      </trkpt>
      <trkpt lat="43.00033" lon="0.7286">
        <ele>799.147</ele>
        <time>2021-07-21T12:23:12Z</time>
      </trkpt>
      <trkpt lat="43.00029" lon="0.72849">
        <ele>799.856</ele>
        <time>2021-07-21T12:23:10Z</time>
      </trkpt>
      <trkpt lat="43.00027" lon="0.72841">
        <ele>801.477</ele>
        <time>2021-07-21T12:23:07Z</time>
      </trkpt>
      <trkpt lat="43.00033" lon="0.72837">
        <ele>803.136</ele>
        <time>2021-07-21T12:23:05Z</time>
      </trkpt>
      <trkpt lat="43.00037" lon="0.72835">
        <ele>804.708</ele>
        <time>2021-07-21T12:23:04Z</time>
      </trkpt>
      <trkpt lat="43.00042" lon="0.72831">
        <ele>806.423</ele>
        <time>2021-07-21T12:23:03Z</time>
      </trkpt>
      <trkpt lat="43.00046" lon="0.72827">
        <ele>808.249</ele>
        <time>2021-07-21T12:23:02Z</time>
      </trkpt>
      <trkpt lat="43.0005" lon="0.72823">
        <ele>809.795</ele>
        <time>2021-07-21T12:23:01Z</time>
      </trkpt>
      <trkpt lat="43.0006" lon="0.72817">
        <ele>811.491</ele>
        <time>2021-07-21T12:22:59Z</time>
      </trkpt>
      <trkpt lat="43.00066" lon="0.72819">
        <ele>812.616</ele>
        <time>2021-07-21T12:22:58Z</time>
      </trkpt>
      <trkpt lat="43.00077" lon="0.72826">
        <ele>813.812</ele>
        <time>2021-07-21T12:22:56Z</time>
      </trkpt>
      <trkpt lat="43.00083" lon="0.72829">
        <ele>814.754</ele>
        <time>2021-07-21T12:22:55Z</time>
      </trkpt>
      <trkpt lat="43.00094" lon="0.72832">
        <ele>815.99</ele>
        <time>2021-07-21T12:22:53Z</time>
      </trkpt>
      <trkpt lat="43.00099" lon="0.72833">
        <ele>816.849</ele>
        <time>2021-07-21T12:22:52Z</time>
      </trkpt>
      <trkpt lat="43.00104" lon="0.72833">
        <ele>817.87</ele>
        <time>2021-07-21T12:22:51Z</time>
      </trkpt>
      <trkpt lat="43.00111" lon="0.7283">
        <ele>818.889</ele>
        <time>2021-07-21T12:22:49Z</time>
      </trkpt>
      <trkpt lat="43.00115" lon="0.72823">
        <ele>819.508</ele>
        <time>2021-07-21T12:22:47Z</time>
      </trkpt>
      <trkpt lat="43.00117" lon="0.72814">
        <ele>819.714</ele>
        <time>2021-07-21T12:22:45Z</time>
      </trkpt>
      <trkpt lat="43.00118" lon="0.72807">
        <ele>819.668</ele>
        <time>2021-07-21T12:22:43Z</time>
      </trkpt>
      <trkpt lat="43.0012" lon="0.72798">
        <ele>819.327</ele>
        <time>2021-07-21T12:22:40Z</time>
      </trkpt>
      <trkpt lat="43.00123" lon="0.72792">
        <ele>819.053</ele>
        <time>2021-07-21T12:22:33Z</time>
      </trkpt>
      <trkpt lat="43.00126" lon="0.72787">
        <ele>818.628</ele>
        <time>2021-07-21T12:22:30Z</time>
      </trkpt>
      <trkpt lat="43.00124" lon="0.72776">
        <ele>818.214</ele>
        <time>2021-07-21T12:17:28Z</time>
      </trkpt>
      <trkpt lat="43.00125" lon="0.72767">
        <ele>817.986</ele>
        <time>2021-07-21T12:17:26Z</time>
      </trkpt>
      <trkpt lat="43.00127" lon="0.72754">
        <ele>817.782</ele>
        <time>2021-07-21T12:17:24Z</time>
      </trkpt>
      <trkpt lat="43.00127" lon="0.72747">
        <ele>817.681</ele>
        <time>2021-07-21T12:17:23Z</time>
      </trkpt>
      <trkpt lat="43.00127" lon="0.7273">
        <ele>817.892</ele>
        <time>2021-07-21T12:17:21Z</time>
      </trkpt>
      <trkpt lat="43.00127" lon="0.72712">
        <ele>818.251</ele>
        <time>2021-07-21T12:17:19Z</time>
      </trkpt>
      <trkpt lat="43.00126" lon="0.72691">
        <ele>818.908</ele>
        <time>2021-07-21T12:17:17Z</time>
      </trkpt>
      <trkpt lat="43.00124" lon="0.72682">
        <ele>819.017</ele>
        <time>2021-07-21T12:17:16Z</time>
      </trkpt>
      <trkpt lat="43.0012" lon="0.72665">
        <ele>819.161</ele>
        <time>2021-07-21T12:17:14Z</time>
      </trkpt>
      <trkpt lat="43.00118" lon="0.72659">
        <ele>818.948</ele>
        <time>2021-07-21T12:17:13Z</time>
      </trkpt>
      <trkpt lat="43.00114" lon="0.72646">
        <ele>818.648</ele>
        <time>2021-07-21T12:17:11Z</time>
      </trkpt>
      <trkpt lat="43.00112" lon="0.72639">
        <ele>819.083</ele>
        <time>2021-07-21T12:17:10Z</time>
      </trkpt>
      <trkpt lat="43.00108" lon="0.72627">
        <ele>819.489</ele>
        <time>2021-07-21T12:17:08Z</time>
      </trkpt>
      <trkpt lat="43.00106" lon="0.72617">
        <ele>819.411</ele>
        <time>2021-07-21T12:17:06Z</time>
      </trkpt>
      <trkpt lat="43.00104" lon="0.72607">
        <ele>819.287</ele>
        <time>2021-07-21T12:17:04Z</time>
      </trkpt>
      <trkpt lat="43.00102" lon="0.72597">
        <ele>818.776</ele>
        <time>2021-07-21T12:17:02Z</time>
      </trkpt>
      <trkpt lat="43.00099" lon="0.72589">
        <ele>818.077</ele>
        <time>2021-07-21T12:17:00Z</time>
      </trkpt>
      <trkpt lat="43.00097" lon="0.7258">
        <ele>817.466</ele>
        <time>2021-07-21T12:16:58Z</time>
      </trkpt>
      <trkpt lat="43.00094" lon="0.72571">
        <ele>816.908</ele>
        <time>2021-07-21T12:16:56Z</time>
      </trkpt>
      <trkpt lat="43.00094" lon="0.72559">
        <ele>816.02</ele>
        <time>2021-07-21T12:16:54Z</time>
      </trkpt>
      <trkpt lat="43.00095" lon="0.72548">
        <ele>814.973</ele>
        <time>2021-07-21T12:16:52Z</time>
      </trkpt>
      <trkpt lat="43.00098" lon="0.72538">
        <ele>813.892</ele>
        <time>2021-07-21T12:16:50Z</time>
      </trkpt>
      <trkpt lat="43.00102" lon="0.72527">
        <ele>813.191</ele>
        <time>2021-07-21T12:16:48Z</time>
      </trkpt>
      <trkpt lat="43.00105" lon="0.72516">
        <ele>812.166</ele>
        <time>2021-07-21T12:16:46Z</time>
      </trkpt>
      <trkpt lat="43.00106" lon="0.72504">
        <ele>811.082</ele>
        <time>2021-07-21T12:16:44Z</time>
      </trkpt>
      <trkpt lat="43.00107" lon="0.7249">
        <ele>809.934</ele>
        <time>2021-07-21T12:16:42Z</time>
      </trkpt>
      <trkpt lat="43.00106" lon="0.72483">
        <ele>809.38</ele>
        <time>2021-07-21T12:16:41Z</time>
      </trkpt>
      <trkpt lat="43.00105" lon="0.72476">
        <ele>809.199</ele>
        <time>2021-07-21T12:16:40Z</time>
      </trkpt>
      <trkpt lat="43.00099" lon="0.72462">
        <ele>808.96</ele>
        <time>2021-07-21T12:16:38Z</time>
      </trkpt>
      <trkpt lat="43.00095" lon="0.72455">
        <ele>809.199</ele>
        <time>2021-07-21T12:16:37Z</time>
      </trkpt>
      <trkpt lat="43.00087" lon="0.72438">
        <ele>809.208</ele>
        <time>2021-07-21T12:16:35Z</time>
      </trkpt>
      <trkpt lat="43.00084" lon="0.72429">
        <ele>809.314</ele>
        <time>2021-07-21T12:16:34Z</time>
      </trkpt>
      <trkpt lat="43.00082" lon="0.7242">
        <ele>809.868</ele>
        <time>2021-07-21T12:16:33Z</time>
      </trkpt>
      <trkpt lat="43.00079" lon="0.72411">
        <ele>810.227</ele>
        <time>2021-07-21T12:16:32Z</time>
      </trkpt>
      <trkpt lat="43.00076" lon="0.72403">
        <ele>811.011</ele>
        <time>2021-07-21T12:16:31Z</time>
      </trkpt>
      <trkpt lat="43.00064" lon="0.72393">
        <ele>811.976</ele>
        <time>2021-07-21T12:16:29Z</time>
      </trkpt>
      <trkpt lat="43.00057" lon="0.72392">
        <ele>812.892</ele>
        <time>2021-07-21T12:16:28Z</time>
      </trkpt>
      <trkpt lat="43.00044" lon="0.72392">
        <ele>813.924</ele>
        <time>2021-07-21T12:16:26Z</time>
      </trkpt>
      <trkpt lat="43.00038" lon="0.72388">
        <ele>815.19</ele>
        <time>2021-07-21T12:16:25Z</time>
      </trkpt>
      <trkpt lat="43.00033" lon="0.72381">
        <ele>816.569</ele>
        <time>2021-07-21T12:16:24Z</time>
      </trkpt>
      <trkpt lat="43.00022" lon="0.72362">
        <ele>818.49</ele>
        <time>2021-07-21T12:16:22Z</time>
      </trkpt>
      <trkpt lat="43.0001" lon="0.72338">
        <ele>820.559</ele>
        <time>2021-07-21T12:16:20Z</time>
      </trkpt>
      <trkpt lat="43.00004" lon="0.72327">
        <ele>822.308</ele>
        <time>2021-07-21T12:16:19Z</time>
      </trkpt>
      <trkpt lat="42.99993" lon="0.72306">
        <ele>824.314</ele>
        <time>2021-07-21T12:16:17Z</time>
      </trkpt>
      <trkpt lat="42.99988" lon="0.72295">
        <ele>825.268</ele>
        <time>2021-07-21T12:16:16Z</time>
      </trkpt>
      <trkpt lat="42.9998" lon="0.72276">
        <ele>825.827</ele>
        <time>2021-07-21T12:16:14Z</time>
      </trkpt>
      <trkpt lat="42.99978" lon="0.72266">
        <ele>826.136</ele>
        <time>2021-07-21T12:16:13Z</time>
      </trkpt>
      <trkpt lat="42.99977" lon="0.72248">
        <ele>826.591</ele>
        <time>2021-07-21T12:16:11Z</time>
      </trkpt>
      <trkpt lat="42.99978" lon="0.7224">
        <ele>826.967</ele>
        <time>2021-07-21T12:16:10Z</time>
      </trkpt>
      <trkpt lat="42.99978" lon="0.72233">
        <ele>827.359</ele>
        <time>2021-07-21T12:16:09Z</time>
      </trkpt>
      <trkpt lat="42.99979" lon="0.72226">
        <ele>827.665</ele>
        <time>2021-07-21T12:16:08Z</time>
      </trkpt>
      <trkpt lat="42.9998" lon="0.72219">
        <ele>828.014</ele>
        <time>2021-07-21T12:16:07Z</time>
      </trkpt>
      <trkpt lat="42.99983" lon="0.72206">
        <ele>828.425</ele>
        <time>2021-07-21T12:16:05Z</time>
      </trkpt>
      <trkpt lat="42.99989" lon="0.72195">
        <ele>828.684</ele>
        <time>2021-07-21T12:16:03Z</time>
      </trkpt>
      <trkpt lat="42.99993" lon="0.72191">
        <ele>828.808</ele>
        <time>2021-07-21T12:16:02Z</time>
      </trkpt>
      <trkpt lat="42.99998" lon="0.72186">
        <ele>829.126</ele>
        <time>2021-07-21T12:16:01Z</time>
      </trkpt>
      <trkpt lat="43.00006" lon="0.72178">
        <ele>829.433</ele>
        <time>2021-07-21T12:15:59Z</time>
      </trkpt>
      <trkpt lat="43.0001" lon="0.72173">
        <ele>829.278</ele>
        <time>2021-07-21T12:15:58Z</time>
      </trkpt>
      <trkpt lat="43.00018" lon="0.72165">
        <ele>828.938</ele>
        <time>2021-07-21T12:15:56Z</time>
      </trkpt>
      <trkpt lat="43.00021" lon="0.72159">
        <ele>828.423</ele>
        <time>2021-07-21T12:15:55Z</time>
      </trkpt>
      <trkpt lat="43.00026" lon="0.72146">
        <ele>827.749</ele>
        <time>2021-07-21T12:15:53Z</time>
      </trkpt>
      <trkpt lat="43.00028" lon="0.7214">
        <ele>827.571</ele>
        <time>2021-07-21T12:15:52Z</time>
      </trkpt>
      <trkpt lat="43.0003" lon="0.72134">
        <ele>827.217</ele>
        <time>2021-07-21T12:15:51Z</time>
      </trkpt>
      <trkpt lat="43.00031" lon="0.72127">
        <ele>826.866</ele>
        <time>2021-07-21T12:15:50Z</time>
      </trkpt>
      <trkpt lat="43.00032" lon="0.72119">
        <ele>826.357</ele>
        <time>2021-07-21T12:15:49Z</time>
      </trkpt>
      <trkpt lat="43.00032" lon="0.72105">
        <ele>825.826</ele>
        <time>2021-07-21T12:15:47Z</time>
      </trkpt>
      <trkpt lat="43.00031" lon="0.72092">
        <ele>825.608</ele>
        <time>2021-07-21T12:15:45Z</time>
      </trkpt>
      <trkpt lat="43.00031" lon="0.72078">
        <ele>825.524</ele>
        <time>2021-07-21T12:15:43Z</time>
      </trkpt>
      <trkpt lat="43.0003" lon="0.72064">
        <ele>825.531</ele>
        <time>2021-07-21T12:15:41Z</time>
      </trkpt>
      <trkpt lat="43.00029" lon="0.7205">
        <ele>825.696</ele>
        <time>2021-07-21T12:15:39Z</time>
      </trkpt>
      <trkpt lat="43.00028" lon="0.72043">
        <ele>825.893</ele>
        <time>2021-07-21T12:15:38Z</time>
      </trkpt>
      <trkpt lat="43.00028" lon="0.72036">
        <ele>826.368</ele>
        <time>2021-07-21T12:15:37Z</time>
      </trkpt>
      <trkpt lat="43.00027" lon="0.72021">
        <ele>827.024</ele>
        <time>2021-07-21T12:15:35Z</time>
      </trkpt>
      <trkpt lat="43.00026" lon="0.72013">
        <ele>827.856</ele>
        <time>2021-07-21T12:15:34Z</time>
      </trkpt>
      <trkpt lat="43.00023" lon="0.71996">
        <ele>828.882</ele>
        <time>2021-07-21T12:15:32Z</time>
      </trkpt>
      <trkpt lat="43.00021" lon="0.71987">
        <ele>829.731</ele>
        <time>2021-07-21T12:15:31Z</time>
      </trkpt>
      <trkpt lat="43.00017" lon="0.7197">
        <ele>830.782</ele>
        <time>2021-07-21T12:15:29Z</time>
      </trkpt>
      <trkpt lat="43.00015" lon="0.71962">
        <ele>831.351</ele>
        <time>2021-07-21T12:15:28Z</time>
      </trkpt>
      <trkpt lat="43.00013" lon="0.71954">
        <ele>832.008</ele>
        <time>2021-07-21T12:15:27Z</time>
      </trkpt>
      <trkpt lat="43.00011" lon="0.71946">
        <ele>832.821</ele>
        <time>2021-07-21T12:15:26Z</time>
      </trkpt>
      <trkpt lat="43.00008" lon="0.71939">
        <ele>833.729</ele>
        <time>2021-07-21T12:15:25Z</time>
      </trkpt>
      <trkpt lat="43.00003" lon="0.71926">
        <ele>835.047</ele>
        <time>2021-07-21T12:15:23Z</time>
      </trkpt>
      <trkpt lat="43" lon="0.71921">
        <ele>835.79</ele>
        <time>2021-07-21T12:15:22Z</time>
      </trkpt>
      <trkpt lat="42.99994" lon="0.71912">
        <ele>836.555</ele>
        <time>2021-07-21T12:15:20Z</time>
      </trkpt>
      <trkpt lat="42.9999" lon="0.71905">
        <ele>836.551</ele>
        <time>2021-07-21T12:15:18Z</time>
      </trkpt>
      <trkpt lat="42.99986" lon="0.71898">
        <ele>835.763</ele>
        <time>2021-07-21T12:15:15Z</time>
      </trkpt>
      <trkpt lat="42.99982" lon="0.71891">
        <ele>834.449</ele>
        <time>2021-07-21T12:15:12Z</time>
      </trkpt>
      <trkpt lat="42.99977" lon="0.71885">
        <ele>833.368</ele>
        <time>2021-07-21T12:15:09Z</time>
      </trkpt>
      <trkpt lat="42.99974" lon="0.7188">
        <ele>832.279</ele>
        <time>2021-07-21T12:15:07Z</time>
      </trkpt>
      <trkpt lat="42.99971" lon="0.71875">
        <ele>831.248</ele>
        <time>2021-07-21T12:15:05Z</time>
      </trkpt>
      <trkpt lat="42.99968" lon="0.71869">
        <ele>830.208</ele>
        <time>2021-07-21T12:15:03Z</time>
      </trkpt>
      <trkpt lat="42.99966" lon="0.71863">
        <ele>829.219</ele>
        <time>2021-07-21T12:15:01Z</time>
      </trkpt>
      <trkpt lat="42.99963" lon="0.71855">
        <ele>828.209</ele>
        <time>2021-07-21T12:14:59Z</time>
      </trkpt>
      <trkpt lat="42.9996" lon="0.71846">
        <ele>827.219</ele>
        <time>2021-07-21T12:14:57Z</time>
      </trkpt>
      <trkpt lat="42.99958" lon="0.71838">
        <ele>826.221</ele>
        <time>2021-07-21T12:14:55Z</time>
      </trkpt>
      <trkpt lat="42.99956" lon="0.7183">
        <ele>825.676</ele>
        <time>2021-07-21T12:14:53Z</time>
      </trkpt>
      <trkpt lat="42.99954" lon="0.7182">
        <ele>825.362</ele>
        <time>2021-07-21T12:14:51Z</time>
      </trkpt>
      <trkpt lat="42.99953" lon="0.71809">
        <ele>825.264</ele>
        <time>2021-07-21T12:14:49Z</time>
      </trkpt>
      <trkpt lat="42.99952" lon="0.71795">
        <ele>825.56</ele>
        <time>2021-07-21T12:14:47Z</time>
      </trkpt>
      <trkpt lat="42.99952" lon="0.71789">
        <ele>826.119</ele>
        <time>2021-07-21T12:14:46Z</time>
      </trkpt>
      <trkpt lat="42.99952" lon="0.71782">
        <ele>826.95</ele>
        <time>2021-07-21T12:14:45Z</time>
      </trkpt>
      <trkpt lat="42.99952" lon="0.71775">
        <ele>828.269</ele>
        <time>2021-07-21T12:14:44Z</time>
      </trkpt>
      <trkpt lat="42.99952" lon="0.71768">
        <ele>829.308</ele>
        <time>2021-07-21T12:14:43Z</time>
      </trkpt>
      <trkpt lat="42.99953" lon="0.71754">
        <ele>831.211</ele>
        <time>2021-07-21T12:14:41Z</time>
      </trkpt>
      <trkpt lat="42.99954" lon="0.71739">
        <ele>832.947</ele>
        <time>2021-07-21T12:14:39Z</time>
      </trkpt>
      <trkpt lat="42.99954" lon="0.71732">
        <ele>834.326</ele>
        <time>2021-07-21T12:14:38Z</time>
      </trkpt>
      <trkpt lat="42.99954" lon="0.71725">
        <ele>835.857</ele>
        <time>2021-07-21T12:14:37Z</time>
      </trkpt>
      <trkpt lat="42.99951" lon="0.71711">
        <ele>837.512</ele>
        <time>2021-07-21T12:14:35Z</time>
      </trkpt>
      <trkpt lat="42.99949" lon="0.71705">
        <ele>838.928</ele>
        <time>2021-07-21T12:14:34Z</time>
      </trkpt>
      <trkpt lat="42.99946" lon="0.7169">
        <ele>840.67</ele>
        <time>2021-07-21T12:14:32Z</time>
      </trkpt>
      <trkpt lat="42.99944" lon="0.71684">
        <ele>842.416</ele>
        <time>2021-07-21T12:14:31Z</time>
      </trkpt>
      <trkpt lat="42.9994" lon="0.71673">
        <ele>845.225</ele>
        <time>2021-07-21T12:14:29Z</time>
      </trkpt>
      <trkpt lat="42.99936" lon="0.71666">
        <ele>848.686</ele>
        <time>2021-07-21T12:14:28Z</time>
      </trkpt>
      <trkpt lat="42.99927" lon="0.71648">
        <ele>852.655</ele>
        <time>2021-07-21T12:14:26Z</time>
      </trkpt>
      <trkpt lat="42.99924" lon="0.71642">
        <ele>853.308</ele>
        <time>2021-07-21T12:14:25Z</time>
      </trkpt>
      <trkpt lat="42.99917" lon="0.71632">
        <ele>854.517</ele>
        <time>2021-07-21T12:14:23Z</time>
      </trkpt>
      <trkpt lat="42.99911" lon="0.71621">
        <ele>855.243</ele>
        <time>2021-07-21T12:14:21Z</time>
      </trkpt>
      <trkpt lat="42.99906" lon="0.7161">
        <ele>855.782</ele>
        <time>2021-07-21T12:14:19Z</time>
      </trkpt>
      <trkpt lat="42.99901" lon="0.71603">
        <ele>856.191</ele>
        <time>2021-07-21T12:14:17Z</time>
      </trkpt>
      <trkpt lat="42.99897" lon="0.71595">
        <ele>856.486</ele>
        <time>2021-07-21T12:14:15Z</time>
      </trkpt>
      <trkpt lat="42.99893" lon="0.71589">
        <ele>856.852</ele>
        <time>2021-07-21T12:14:13Z</time>
      </trkpt>
      <trkpt lat="42.99888" lon="0.71582">
        <ele>857.164</ele>
        <time>2021-07-21T12:14:11Z</time>
      </trkpt>
      <trkpt lat="42.99884" lon="0.71573">
        <ele>857.41</ele>
        <time>2021-07-21T12:14:09Z</time>
      </trkpt>
      <trkpt lat="42.99881" lon="0.71568">
        <ele>857.559</ele>
        <time>2021-07-21T12:14:08Z</time>
      </trkpt>
      <trkpt lat="42.99878" lon="0.71562">
        <ele>857.87</ele>
        <time>2021-07-21T12:14:07Z</time>
      </trkpt>
      <trkpt lat="42.99871" lon="0.71553">
        <ele>858.459</ele>
        <time>2021-07-21T12:14:05Z</time>
      </trkpt>
      <trkpt lat="42.99866" lon="0.7155">
        <ele>859.208</ele>
        <time>2021-07-21T12:14:04Z</time>
      </trkpt>
      <trkpt lat="42.99858" lon="0.71551">
        <ele>860.311</ele>
        <time>2021-07-21T12:14:02Z</time>
      </trkpt>
      <trkpt lat="42.99851" lon="0.71556">
        <ele>861.247</ele>
        <time>2021-07-21T12:14:00Z</time>
      </trkpt>
      <trkpt lat="42.99844" lon="0.71563">
        <ele>862.326</ele>
        <time>2021-07-21T12:13:58Z</time>
      </trkpt>
      <trkpt lat="42.99837" lon="0.71572">
        <ele>863.122</ele>
        <time>2021-07-21T12:13:56Z</time>
      </trkpt>
      <trkpt lat="42.99832" lon="0.71577">
        <ele>863.277</ele>
        <time>2021-07-21T12:13:55Z</time>
      </trkpt>
      <trkpt lat="42.99822" lon="0.71587">
        <ele>863.213</ele>
        <time>2021-07-21T12:13:53Z</time>
      </trkpt>
      <trkpt lat="42.99814" lon="0.71595">
        <ele>863.145</ele>
        <time>2021-07-21T12:13:51Z</time>
      </trkpt>
      <trkpt lat="42.99805" lon="0.71601">
        <ele>863.161</ele>
        <time>2021-07-21T12:13:49Z</time>
      </trkpt>
      <trkpt lat="42.99797" lon="0.7161">
        <ele>863.12</ele>
        <time>2021-07-21T12:13:47Z</time>
      </trkpt>
      <trkpt lat="42.99787" lon="0.71619">
        <ele>863.251</ele>
        <time>2021-07-21T12:13:45Z</time>
      </trkpt>
      <trkpt lat="42.99777" lon="0.71625">
        <ele>863.42</ele>
        <time>2021-07-21T12:13:43Z</time>
      </trkpt>
      <trkpt lat="42.9977" lon="0.71627">
        <ele>863.708</ele>
        <time>2021-07-21T12:13:41Z</time>
      </trkpt>
      <trkpt lat="42.99763" lon="0.71623">
        <ele>864.511</ele>
        <time>2021-07-21T12:13:39Z</time>
      </trkpt>
      <trkpt lat="42.99759" lon="0.71612">
        <ele>865.892</ele>
        <time>2021-07-21T12:13:37Z</time>
      </trkpt>
      <trkpt lat="42.99758" lon="0.716">
        <ele>866.832</ele>
        <time>2021-07-21T12:13:35Z</time>
      </trkpt>
      <trkpt lat="42.99756" lon="0.7159">
        <ele>867.782</ele>
        <time>2021-07-21T12:13:34Z</time>
      </trkpt>
      <trkpt lat="42.99755" lon="0.71584">
        <ele>868.327</ele>
        <time>2021-07-21T12:13:33Z</time>
      </trkpt>
      <trkpt lat="42.99756" lon="0.71571">
        <ele>869.463</ele>
        <time>2021-07-21T12:13:31Z</time>
      </trkpt>
      <trkpt lat="42.99758" lon="0.71556">
        <ele>871.175</ele>
        <time>2021-07-21T12:13:29Z</time>
      </trkpt>
      <trkpt lat="42.99759" lon="0.71549">
        <ele>872.681</ele>
        <time>2021-07-21T12:13:28Z</time>
      </trkpt>
      <trkpt lat="42.99761" lon="0.71542">
        <ele>874.55</ele>
        <time>2021-07-21T12:13:27Z</time>
      </trkpt>
      <trkpt lat="42.99765" lon="0.7153">
        <ele>876.871</ele>
        <time>2021-07-21T12:13:25Z</time>
      </trkpt>
      <trkpt lat="42.9977" lon="0.71518">
        <ele>878.81</ele>
        <time>2021-07-21T12:13:23Z</time>
      </trkpt>
      <trkpt lat="42.99772" lon="0.71513">
        <ele>880.408</ele>
        <time>2021-07-21T12:13:22Z</time>
      </trkpt>
      <trkpt lat="42.99775" lon="0.71508">
        <ele>882.018</ele>
        <time>2021-07-21T12:13:21Z</time>
      </trkpt>
      <trkpt lat="42.99779" lon="0.71496">
        <ele>883.917</ele>
        <time>2021-07-21T12:13:19Z</time>
      </trkpt>
      <trkpt lat="42.99782" lon="0.71485">
        <ele>885.636</ele>
        <time>2021-07-21T12:13:17Z</time>
      </trkpt>
      <trkpt lat="42.99781" lon="0.71475">
        <ele>887.353</ele>
        <time>2021-07-21T12:13:15Z</time>
      </trkpt>
      <trkpt lat="42.99779" lon="0.71466">
        <ele>888.518</ele>
        <time>2021-07-21T12:13:13Z</time>
      </trkpt>
      <trkpt lat="42.99779" lon="0.71455">
        <ele>889.444</ele>
        <time>2021-07-21T12:13:11Z</time>
      </trkpt>
      <trkpt lat="42.99779" lon="0.71448">
        <ele>890.036</ele>
        <time>2021-07-21T12:13:10Z</time>
      </trkpt>
      <trkpt lat="42.99779" lon="0.71435">
        <ele>890.912</ele>
        <time>2021-07-21T12:13:08Z</time>
      </trkpt>
      <trkpt lat="42.9978" lon="0.71421">
        <ele>891.831</ele>
        <time>2021-07-21T12:13:06Z</time>
      </trkpt>
      <trkpt lat="42.99784" lon="0.7141">
        <ele>892.422</ele>
        <time>2021-07-21T12:13:04Z</time>
      </trkpt>
      <trkpt lat="42.99787" lon="0.71401">
        <ele>892.631</ele>
        <time>2021-07-21T12:13:02Z</time>
      </trkpt>
      <trkpt lat="42.99789" lon="0.71394">
        <ele>892.908</ele>
        <time>2021-07-21T12:13:00Z</time>
      </trkpt>
      <trkpt lat="42.99792" lon="0.71387">
        <ele>893.117</ele>
        <time>2021-07-21T12:12:58Z</time>
      </trkpt>
      <trkpt lat="42.99793" lon="0.7138">
        <ele>893.161</ele>
        <time>2021-07-21T12:12:56Z</time>
      </trkpt>
      <trkpt lat="42.99794" lon="0.71374">
        <ele>892.948</ele>
        <time>2021-07-21T12:12:54Z</time>
      </trkpt>
      <trkpt lat="42.99794" lon="0.71362">
        <ele>892.475</ele>
        <time>2021-07-21T12:12:49Z</time>
      </trkpt>
      <trkpt lat="42.99795" lon="0.71354">
        <ele>892.26</ele>
        <time>2021-07-21T12:12:46Z</time>
      </trkpt>
      <trkpt lat="42.99796" lon="0.71347">
        <ele>892.036</ele>
        <time>2021-07-21T12:12:43Z</time>
      </trkpt>
      <trkpt lat="42.99796" lon="0.71338">
        <ele>891.948</ele>
        <time>2021-07-21T12:12:40Z</time>
      </trkpt>
      <trkpt lat="42.99796" lon="0.71331">
        <ele>891.754</ele>
        <time>2021-07-21T12:12:37Z</time>
      </trkpt>
      <trkpt lat="42.99795" lon="0.71324">
        <ele>891.643</ele>
        <time>2021-07-21T12:12:35Z</time>
      </trkpt>
      <trkpt lat="42.99794" lon="0.71314">
        <ele>891.224</ele>
        <time>2021-07-21T12:12:32Z</time>
      </trkpt>
      <trkpt lat="42.99794" lon="0.71304">
        <ele>890.783</ele>
        <time>2021-07-21T12:12:28Z</time>
      </trkpt>
      <trkpt lat="42.99795" lon="0.71295">
        <ele>890.308</ele>
        <time>2021-07-21T12:12:25Z</time>
      </trkpt>
      <trkpt lat="42.99797" lon="0.71287">
        <ele>890.318</ele>
        <time>2021-07-21T12:12:22Z</time>
      </trkpt>
      <trkpt lat="42.99797" lon="0.71276">
        <ele>890.644</ele>
        <time>2021-07-21T12:12:20Z</time>
      </trkpt>
      <trkpt lat="42.99797" lon="0.7127">
        <ele>890.263</ele>
        <time>2021-07-21T12:12:18Z</time>
      </trkpt>
      <trkpt lat="42.99798" lon="0.7126">
        <ele>889.397</ele>
        <time>2021-07-21T12:12:13Z</time>
      </trkpt>
      <trkpt lat="42.99798" lon="0.71252">
        <ele>888.632</ele>
        <time>2021-07-21T12:12:09Z</time>
      </trkpt>
      <trkpt lat="42.99797" lon="0.71245">
        <ele>888.428</ele>
        <time>2021-07-21T12:12:07Z</time>
      </trkpt>
      <trkpt lat="42.99797" lon="0.71237">
        <ele>887.44</ele>
        <time>2021-07-21T12:12:04Z</time>
      </trkpt>
      <trkpt lat="42.99793" lon="0.71226">
        <ele>885.986</ele>
        <time>2021-07-21T12:11:56Z</time>
      </trkpt>
      <trkpt lat="42.9979" lon="0.71221">
        <ele>883.775</ele>
        <time>2021-07-21T12:11:50Z</time>
      </trkpt>
      <trkpt lat="42.99784" lon="0.71222">
        <ele>881.596</ele>
        <time>2021-07-21T12:11:46Z</time>
      </trkpt>
      <trkpt lat="42.99779" lon="0.71221">
        <ele>879.295</ele>
        <time>2021-07-21T12:11:43Z</time>
      </trkpt>
      <trkpt lat="42.9977" lon="0.71217">
        <ele>876.608</ele>
        <time>2021-07-21T12:11:35Z</time>
      </trkpt>
      <trkpt lat="42.99766" lon="0.71213">
        <ele>875.717</ele>
        <time>2021-07-21T12:11:32Z</time>
      </trkpt>
      <trkpt lat="42.99761" lon="0.7121">
        <ele>875.643</ele>
        <time>2021-07-21T12:11:29Z</time>
      </trkpt>
      <trkpt lat="42.99756" lon="0.71208">
        <ele>876.482</ele>
        <time>2021-07-21T12:11:25Z</time>
      </trkpt>
      <trkpt lat="42.99751" lon="0.71202">
        <ele>877.848</ele>
        <time>2021-07-21T12:11:22Z</time>
      </trkpt>
      <trkpt lat="42.99748" lon="0.71194">
        <ele>879.383</ele>
        <time>2021-07-21T12:11:20Z</time>
      </trkpt>
      <trkpt lat="42.99745" lon="0.71185">
        <ele>880.849</ele>
        <time>2021-07-21T12:11:18Z</time>
      </trkpt>
      <trkpt lat="42.99741" lon="0.71179">
        <ele>882.151</ele>
        <time>2021-07-21T12:11:16Z</time>
      </trkpt>
      <trkpt lat="42.99736" lon="0.71175">
        <ele>883.367</ele>
        <time>2021-07-21T12:11:14Z</time>
      </trkpt>
      <trkpt lat="42.99732" lon="0.71171">
        <ele>884.726</ele>
        <time>2021-07-21T12:11:12Z</time>
      </trkpt>
      <trkpt lat="42.99728" lon="0.71164">
        <ele>886.097</ele>
        <time>2021-07-21T12:11:10Z</time>
      </trkpt>
      <trkpt lat="42.99726" lon="0.71158">
        <ele>887.246</ele>
        <time>2021-07-21T12:11:08Z</time>
      </trkpt>
      <trkpt lat="42.99723" lon="0.71152">
        <ele>888.508</ele>
        <time>2021-07-21T12:11:06Z</time>
      </trkpt>
      <trkpt lat="42.9972" lon="0.71146">
        <ele>890.02</ele>
        <time>2021-07-21T12:11:04Z</time>
      </trkpt>
      <trkpt lat="42.99717" lon="0.71139">
        <ele>891.773</ele>
        <time>2021-07-21T12:11:02Z</time>
      </trkpt>
      <trkpt lat="42.99714" lon="0.71133">
        <ele>892.692</ele>
        <time>2021-07-21T12:11:00Z</time>
      </trkpt>
      <trkpt lat="42.99711" lon="0.71127">
        <ele>893.433</ele>
        <time>2021-07-21T12:10:58Z</time>
      </trkpt>
      <trkpt lat="42.99708" lon="0.71121">
        <ele>893.858</ele>
        <time>2021-07-21T12:10:56Z</time>
      </trkpt>
      <trkpt lat="42.99705" lon="0.71116">
        <ele>894.364</ele>
        <time>2021-07-21T12:10:54Z</time>
      </trkpt>
      <trkpt lat="42.99701" lon="0.7111">
        <ele>894.626</ele>
        <time>2021-07-21T12:10:52Z</time>
      </trkpt>
      <trkpt lat="42.99697" lon="0.71105">
        <ele>894.322</ele>
        <time>2021-07-21T12:10:50Z</time>
      </trkpt>
      <trkpt lat="42.99693" lon="0.71098">
        <ele>893.991</ele>
        <time>2021-07-21T12:10:47Z</time>
      </trkpt>
      <trkpt lat="42.99688" lon="0.71094">
        <ele>893.372</ele>
        <time>2021-07-21T12:10:44Z</time>
      </trkpt>
      <trkpt lat="42.99682" lon="0.7109">
        <ele>892.341</ele>
        <time>2021-07-21T12:10:41Z</time>
      </trkpt>
      <trkpt lat="42.99678" lon="0.71087">
        <ele>891.008</ele>
        <time>2021-07-21T12:10:39Z</time>
      </trkpt>
      <trkpt lat="42.99669" lon="0.7108">
        <ele>889.022</ele>
        <time>2021-07-21T12:10:32Z</time>
      </trkpt>
      <trkpt lat="42.99665" lon="0.71077">
        <ele>887.502</ele>
        <time>2021-07-21T12:10:29Z</time>
      </trkpt>
      <trkpt lat="42.9966" lon="0.71075">
        <ele>885.749</ele>
        <time>2021-07-21T12:10:26Z</time>
      </trkpt>
      <trkpt lat="42.99653" lon="0.7107">
        <ele>883.471</ele>
        <time>2021-07-21T12:10:21Z</time>
      </trkpt>
      <trkpt lat="42.99647" lon="0.7106">
        <ele>881.516</ele>
        <time>2021-07-21T12:10:13Z</time>
      </trkpt>
      <trkpt lat="42.99643" lon="0.71058">
        <ele>880.942</ele>
        <time>2021-07-21T12:10:10Z</time>
      </trkpt>
      <trkpt lat="42.99637" lon="0.71055">
        <ele>880.084</ele>
        <time>2021-07-21T12:10:06Z</time>
      </trkpt>
      <trkpt lat="42.99628" lon="0.71056">
        <ele>879.05</ele>
        <time>2021-07-21T12:10:00Z</time>
      </trkpt>
      <trkpt lat="42.99623" lon="0.71058">
        <ele>878.429</ele>
        <time>2021-07-21T12:09:57Z</time>
      </trkpt>
      <trkpt lat="42.99616" lon="0.7106">
        <ele>877.55</ele>
        <time>2021-07-21T12:09:52Z</time>
      </trkpt>
      <trkpt lat="42.99608" lon="0.71062">
        <ele>877.169</ele>
        <time>2021-07-21T12:09:46Z</time>
      </trkpt>
      <trkpt lat="42.99603" lon="0.71065">
        <ele>876.608</ele>
        <time>2021-07-21T12:09:42Z</time>
      </trkpt>
      <trkpt lat="42.99597" lon="0.71068">
        <ele>875.62</ele>
        <time>2021-07-21T12:09:38Z</time>
      </trkpt>
      <trkpt lat="42.99583" lon="0.71074">
        <ele>874.1</ele>
        <time>2021-07-21T12:09:25Z</time>
      </trkpt>
      <trkpt lat="42.99577" lon="0.71075">
        <ele>873.129</ele>
        <time>2021-07-21T12:09:21Z</time>
      </trkpt>
      <trkpt lat="42.99561" lon="0.71076">
        <ele>871.186</ele>
        <time>2021-07-21T12:09:04Z</time>
      </trkpt>
      <trkpt lat="42.99557" lon="0.71075">
        <ele>870.281</ele>
        <time>2021-07-21T12:09:01Z</time>
      </trkpt>
      <trkpt lat="42.99542" lon="0.71069">
        <ele>868.847</ele>
        <time>2021-07-21T12:08:49Z</time>
      </trkpt>
      <trkpt lat="42.99532" lon="0.71062">
        <ele>867.369</ele>
        <time>2021-07-21T12:08:38Z</time>
      </trkpt>
      <trkpt lat="42.99527" lon="0.71062">
        <ele>866.475</ele>
        <time>2021-07-21T12:08:35Z</time>
      </trkpt>
      <trkpt lat="42.99521" lon="0.71062">
        <ele>865.444</ele>
        <time>2021-07-21T12:08:33Z</time>
      </trkpt>
      <trkpt lat="42.99515" lon="0.71059">
        <ele>864.365</ele>
        <time>2021-07-21T12:08:31Z</time>
      </trkpt>
      <trkpt lat="42.99506" lon="0.71056">
        <ele>863.484</ele>
        <time>2021-07-21T12:08:29Z</time>
      </trkpt>
      <trkpt lat="42.99502" lon="0.71053">
        <ele>862.708</ele>
        <time>2021-07-21T12:08:28Z</time>
      </trkpt>
      <trkpt lat="42.99499" lon="0.71049">
        <ele>861.913</ele>
        <time>2021-07-21T12:08:27Z</time>
      </trkpt>
      <trkpt lat="42.99494" lon="0.71041">
        <ele>860.985</ele>
        <time>2021-07-21T12:08:25Z</time>
      </trkpt>
      <trkpt lat="42.99489" lon="0.71033">
        <ele>859.773</ele>
        <time>2021-07-21T12:08:23Z</time>
      </trkpt>
      <trkpt lat="42.99486" lon="0.71027">
        <ele>858.025</ele>
        <time>2021-07-21T12:08:21Z</time>
      </trkpt>
      <trkpt lat="42.99482" lon="0.71022">
        <ele>856.48</ele>
        <time>2021-07-21T12:08:18Z</time>
      </trkpt>
      <trkpt lat="42.99476" lon="0.71018">
        <ele>855.356</ele>
        <time>2021-07-21T12:08:16Z</time>
      </trkpt>
      <trkpt lat="42.99469" lon="0.71013">
        <ele>854.368</ele>
        <time>2021-07-21T12:08:14Z</time>
      </trkpt>
      <trkpt lat="42.99463" lon="0.71008">
        <ele>853.224</ele>
        <time>2021-07-21T12:08:12Z</time>
      </trkpt>
      <trkpt lat="42.99459" lon="0.71003">
        <ele>852.273</ele>
        <time>2021-07-21T12:08:10Z</time>
      </trkpt>
      <trkpt lat="42.99454" lon="0.70998">
        <ele>851.144</ele>
        <time>2021-07-21T12:08:08Z</time>
      </trkpt>
      <trkpt lat="42.9945" lon="0.70994">
        <ele>849.913</ele>
        <time>2021-07-21T12:08:05Z</time>
      </trkpt>
      <trkpt lat="42.99447" lon="0.70987">
        <ele>848.208</ele>
        <time>2021-07-21T12:08:01Z</time>
      </trkpt>
      <trkpt lat="42.99442" lon="0.70983">
        <ele>846.319</ele>
        <time>2021-07-21T12:07:57Z</time>
      </trkpt>
      <trkpt lat="42.99437" lon="0.70979">
        <ele>844.581</ele>
        <time>2021-07-21T12:07:54Z</time>
      </trkpt>
      <trkpt lat="42.99431" lon="0.70972">
        <ele>842.567</ele>
        <time>2021-07-21T12:07:48Z</time>
      </trkpt>
      <trkpt lat="42.99425" lon="0.70966">
        <ele>840.965</ele>
        <time>2021-07-21T12:07:43Z</time>
      </trkpt>
      <trkpt lat="42.9942" lon="0.70961">
        <ele>839.63</ele>
        <time>2021-07-21T12:07:39Z</time>
      </trkpt>
      <trkpt lat="42.99415" lon="0.70957">
        <ele>837.926</ele>
        <time>2021-07-21T12:07:36Z</time>
      </trkpt>
      <trkpt lat="42.99405" lon="0.70947">
        <ele>835.578</ele>
        <time>2021-07-21T12:07:24Z</time>
      </trkpt>
      <trkpt lat="42.99396" lon="0.70935">
        <ele>833.344</ele>
        <time>2021-07-21T12:07:11Z</time>
      </trkpt>
      <trkpt lat="42.99393" lon="0.70922">
        <ele>831.363</ele>
        <time>2021-07-21T12:07:02Z</time>
      </trkpt>
      <trkpt lat="42.99391" lon="0.70916">
        <ele>830.064</ele>
        <time>2021-07-21T12:07:00Z</time>
      </trkpt>
      <trkpt lat="42.99389" lon="0.70897">
        <ele>827.683</ele>
        <time>2021-07-21T12:06:52Z</time>
      </trkpt>
      <trkpt lat="42.99386" lon="0.70873">
        <ele>824.108</ele>
        <time>2021-07-21T12:06:37Z</time>
      </trkpt>
      <trkpt lat="42.99385" lon="0.70855">
        <ele>821.024</ele>
        <time>2021-07-21T12:06:27Z</time>
      </trkpt>
      <trkpt lat="42.99384" lon="0.70843">
        <ele>818.504</ele>
        <time>2021-07-21T12:06:21Z</time>
      </trkpt>
      <trkpt lat="42.99381" lon="0.70827">
        <ele>815.769</ele>
        <time>2021-07-21T12:06:10Z</time>
      </trkpt>
      <trkpt lat="42.9938" lon="0.70812">
        <ele>812.812</ele>
        <time>2021-07-21T12:05:37Z</time>
      </trkpt>
      <trkpt lat="42.99377" lon="0.70793">
        <ele>809.437</ele>
        <time>2021-07-21T12:05:25Z</time>
      </trkpt>
      <trkpt lat="42.99375" lon="0.70779">
        <ele>806.413</ele>
        <time>2021-07-21T12:05:15Z</time>
      </trkpt>
      <trkpt lat="42.99374" lon="0.70772">
        <ele>803.895</ele>
        <time>2021-07-21T12:05:11Z</time>
      </trkpt>
      <trkpt lat="42.99374" lon="0.70766">
        <ele>801.211</ele>
        <time>2021-07-21T12:05:07Z</time>
      </trkpt>
      <trkpt lat="42.99375" lon="0.70759">
        <ele>799.08</ele>
        <time>2021-07-21T12:05:04Z</time>
      </trkpt>
      <trkpt lat="42.99374" lon="0.70751">
        <ele>797.241</ele>
        <time>2021-07-21T12:05:00Z</time>
      </trkpt>
      <trkpt lat="42.99374" lon="0.70745">
        <ele>796.09</ele>
        <time>2021-07-21T12:04:57Z</time>
      </trkpt>
      <trkpt lat="42.99374" lon="0.70737">
        <ele>795.008</ele>
        <time>2021-07-21T12:04:54Z</time>
      </trkpt>
      <trkpt lat="42.99373" lon="0.70729">
        <ele>794.415</ele>
        <time>2021-07-21T12:04:51Z</time>
      </trkpt>
      <trkpt lat="42.99372" lon="0.70721">
        <ele>794.023</ele>
        <time>2021-07-21T12:04:48Z</time>
      </trkpt>
      <trkpt lat="42.99371" lon="0.70714">
        <ele>793.933</ele>
        <time>2021-07-21T12:04:46Z</time>
      </trkpt>
      <trkpt lat="42.9937" lon="0.70708">
        <ele>793.575</ele>
        <time>2021-07-21T12:04:44Z</time>
      </trkpt>
      <trkpt lat="42.99371" lon="0.707">
        <ele>793.18</ele>
        <time>2021-07-21T12:04:42Z</time>
      </trkpt>
      <trkpt lat="42.99372" lon="0.70692">
        <ele>792.456</ele>
        <time>2021-07-21T12:04:39Z</time>
      </trkpt>
      <trkpt lat="42.99372" lon="0.70686">
        <ele>792.278</ele>
        <time>2021-07-21T12:04:37Z</time>
      </trkpt>
      <trkpt lat="42.99372" lon="0.70677">
        <ele>792.264</ele>
        <time>2021-07-21T12:04:34Z</time>
      </trkpt>
      <trkpt lat="42.99372" lon="0.7067">
        <ele>792.143</ele>
        <time>2021-07-21T12:04:32Z</time>
      </trkpt>
      <trkpt lat="42.99373" lon="0.70663">
        <ele>792.024</ele>
        <time>2021-07-21T12:04:30Z</time>
      </trkpt>
      <trkpt lat="42.99373" lon="0.70655">
        <ele>792.143</ele>
        <time>2021-07-21T12:04:28Z</time>
      </trkpt>
      <trkpt lat="42.99373" lon="0.70646">
        <ele>792.408</ele>
        <time>2021-07-21T12:04:26Z</time>
      </trkpt>
      <trkpt lat="42.99373" lon="0.70636">
        <ele>792.918</ele>
        <time>2021-07-21T12:04:24Z</time>
      </trkpt>
      <trkpt lat="42.99372" lon="0.70628">
        <ele>793.444</ele>
        <time>2021-07-21T12:04:22Z</time>
      </trkpt>
      <trkpt lat="42.99372" lon="0.70621">
        <ele>793.863</ele>
        <time>2021-07-21T12:04:20Z</time>
      </trkpt>
      <trkpt lat="42.99372" lon="0.70615">
        <ele>794.43</ele>
        <time>2021-07-21T12:04:18Z</time>
      </trkpt>
      <trkpt lat="42.99372" lon="0.70607">
        <ele>795.295</ele>
        <time>2021-07-21T12:04:16Z</time>
      </trkpt>
      <trkpt lat="42.9937" lon="0.70597">
        <ele>795.891</ele>
        <time>2021-07-21T12:04:13Z</time>
      </trkpt>
      <trkpt lat="42.99369" lon="0.70591">
        <ele>796.053</ele>
        <time>2021-07-21T12:04:10Z</time>
      </trkpt>
      <trkpt lat="42.99369" lon="0.70584">
        <ele>796.259</ele>
        <time>2021-07-21T12:04:08Z</time>
      </trkpt>
      <trkpt lat="42.99367" lon="0.70577">
        <ele>796.798</ele>
        <time>2021-07-21T12:04:06Z</time>
      </trkpt>
      <trkpt lat="42.99366" lon="0.70571">
        <ele>797.549</ele>
        <time>2021-07-21T12:04:04Z</time>
      </trkpt>
      <trkpt lat="42.99365" lon="0.70565">
        <ele>798.638</ele>
        <time>2021-07-21T12:04:02Z</time>
      </trkpt>
      <trkpt lat="42.99364" lon="0.70559">
        <ele>799.808</ele>
        <time>2021-07-21T12:04:00Z</time>
      </trkpt>
      <trkpt lat="42.99363" lon="0.7055">
        <ele>800.919</ele>
        <time>2021-07-21T12:03:58Z</time>
      </trkpt>
      <trkpt lat="42.9936" lon="0.7054">
        <ele>801.709</ele>
        <time>2021-07-21T12:03:56Z</time>
      </trkpt>
      <trkpt lat="42.99361" lon="0.70532">
        <ele>801.819</ele>
        <time>2021-07-21T12:03:54Z</time>
      </trkpt>
      <trkpt lat="42.99358" lon="0.70525">
        <ele>801.772</ele>
        <time>2021-07-21T12:03:52Z</time>
      </trkpt>
      <trkpt lat="42.99357" lon="0.70517">
        <ele>801.167</ele>
        <time>2021-07-21T12:03:49Z</time>
      </trkpt>
      <trkpt lat="42.99356" lon="0.70509">
        <ele>800.683</ele>
        <time>2021-07-21T12:03:46Z</time>
      </trkpt>
      <trkpt lat="42.99355" lon="0.705">
        <ele>799.935</ele>
        <time>2021-07-21T12:03:43Z</time>
      </trkpt>
      <trkpt lat="42.99353" lon="0.70492">
        <ele>799.541</ele>
        <time>2021-07-21T12:03:40Z</time>
      </trkpt>
      <trkpt lat="42.99352" lon="0.70485">
        <ele>799.39</ele>
        <time>2021-07-21T12:03:37Z</time>
      </trkpt>
      <trkpt lat="42.99351" lon="0.70477">
        <ele>799.241</ele>
        <time>2021-07-21T12:03:34Z</time>
      </trkpt>
      <trkpt lat="42.99349" lon="0.70468">
        <ele>799.21</ele>
        <time>2021-07-21T12:03:31Z</time>
      </trkpt>
      <trkpt lat="42.99348" lon="0.70462">
        <ele>798.608</ele>
        <time>2021-07-21T12:03:29Z</time>
      </trkpt>
      <trkpt lat="42.99347" lon="0.70455">
        <ele>797.518</ele>
        <time>2021-07-21T12:03:26Z</time>
      </trkpt>
      <trkpt lat="42.99345" lon="0.70449">
        <ele>796.417</ele>
        <time>2021-07-21T12:03:23Z</time>
      </trkpt>
      <trkpt lat="42.99344" lon="0.70443">
        <ele>795.336</ele>
        <time>2021-07-21T12:03:20Z</time>
      </trkpt>
      <trkpt lat="42.99343" lon="0.70435">
        <ele>793.978</ele>
        <time>2021-07-21T12:03:17Z</time>
      </trkpt>
      <trkpt lat="42.99343" lon="0.70427">
        <ele>791.923</ele>
        <time>2021-07-21T12:03:14Z</time>
      </trkpt>
      <trkpt lat="42.99337" lon="0.70413">
        <ele>788.759</ele>
        <time>2021-07-21T12:03:03Z</time>
      </trkpt>
      <trkpt lat="42.9933" lon="0.70395">
        <ele>785.731</ele>
        <time>2021-07-21T12:02:48Z</time>
      </trkpt>
      <trkpt lat="42.99326" lon="0.70389">
        <ele>783.927</ele>
        <time>2021-07-21T12:02:45Z</time>
      </trkpt>
      <trkpt lat="42.99323" lon="0.70384">
        <ele>780.516</ele>
        <time>2021-07-21T12:02:43Z</time>
      </trkpt>
      <trkpt lat="42.99311" lon="0.70369">
        <ele>776.537</ele>
        <time>2021-07-21T12:02:29Z</time>
      </trkpt>
      <trkpt lat="42.99305" lon="0.7036">
        <ele>772.556</ele>
        <time>2021-07-21T12:02:20Z</time>
      </trkpt>
      <trkpt lat="42.99301" lon="0.70356">
        <ele>769.008</ele>
        <time>2021-07-21T12:02:16Z</time>
      </trkpt>
      <trkpt lat="42.99295" lon="0.70347">
        <ele>765.019</ele>
        <time>2021-07-21T12:02:05Z</time>
      </trkpt>
      <trkpt lat="42.99292" lon="0.70341">
        <ele>762.681</ele>
        <time>2021-07-21T12:02:01Z</time>
      </trkpt>
      <trkpt lat="42.99289" lon="0.70337">
        <ele>760.591</ele>
        <time>2021-07-21T12:01:57Z</time>
      </trkpt>
      <trkpt lat="42.99286" lon="0.70332">
        <ele>758.794</ele>
        <time>2021-07-21T12:01:53Z</time>
      </trkpt>
      <trkpt lat="42.99283" lon="0.70326">
        <ele>757.169</ele>
        <time>2021-07-21T12:01:49Z</time>
      </trkpt>
      <trkpt lat="42.99279" lon="0.70322">
        <ele>755.625</ele>
        <time>2021-07-21T12:01:45Z</time>
      </trkpt>
      <trkpt lat="42.99274" lon="0.70318">
        <ele>754.537</ele>
        <time>2021-07-21T12:01:41Z</time>
      </trkpt>
      <trkpt lat="42.99269" lon="0.70314">
        <ele>753.813</ele>
        <time>2021-07-21T12:01:37Z</time>
      </trkpt>
      <trkpt lat="42.99265" lon="0.70311">
        <ele>753.232</ele>
        <time>2021-07-21T12:01:34Z</time>
      </trkpt>
      <trkpt lat="42.99261" lon="0.70308">
        <ele>752.473</ele>
        <time>2021-07-21T12:01:31Z</time>
      </trkpt>
      <trkpt lat="42.99256" lon="0.70305">
        <ele>751.342</ele>
        <time>2021-07-21T12:01:27Z</time>
      </trkpt>
      <trkpt lat="42.99251" lon="0.70302">
        <ele>750.308</ele>
        <time>2021-07-21T12:01:23Z</time>
      </trkpt>
      <trkpt lat="42.99246" lon="0.70301">
        <ele>749.517</ele>
        <time>2021-07-21T12:01:18Z</time>
      </trkpt>
      <trkpt lat="42.99241" lon="0.70301">
        <ele>749.252</ele>
        <time>2021-07-21T12:01:13Z</time>
      </trkpt>
      <trkpt lat="42.99236" lon="0.70303">
        <ele>748.958</ele>
        <time>2021-07-21T12:01:09Z</time>
      </trkpt>
      <trkpt lat="42.99231" lon="0.70302">
        <ele>748.315</ele>
        <time>2021-07-21T12:01:05Z</time>
      </trkpt>
      <trkpt lat="42.99225" lon="0.70302">
        <ele>747.36</ele>
        <time>2021-07-21T12:01:02Z</time>
      </trkpt>
      <trkpt lat="42.99211" lon="0.70298">
        <ele>745.636</ele>
        <time>2021-07-21T12:00:44Z</time>
      </trkpt>
      <trkpt lat="42.99203" lon="0.70301">
        <ele>744.978</ele>
        <time>2021-07-21T12:00:34Z</time>
      </trkpt>
      <trkpt lat="42.99201" lon="0.70309">
        <ele>744.354</ele>
        <time>2021-07-21T12:00:28Z</time>
      </trkpt>
      <trkpt lat="42.992" lon="0.70316">
        <ele>744.023</ele>
        <time>2021-07-21T12:00:24Z</time>
      </trkpt>
      <trkpt lat="42.992" lon="0.70323">
        <ele>743.774</ele>
        <time>2021-07-21T12:00:20Z</time>
      </trkpt>
      <trkpt lat="42.99199" lon="0.70329">
        <ele>743.353</ele>
        <time>2021-07-21T12:00:16Z</time>
      </trkpt>
      <trkpt lat="42.99198" lon="0.70336">
        <ele>743.208</ele>
        <time>2021-07-21T12:00:11Z</time>
      </trkpt>
      <trkpt lat="42.99196" lon="0.70343">
        <ele>743.113</ele>
        <time>2021-07-21T12:00:07Z</time>
      </trkpt>
      <trkpt lat="42.99193" lon="0.70348">
        <ele>742.421</ele>
        <time>2021-07-21T12:00:03Z</time>
      </trkpt>
      <trkpt lat="42.99188" lon="0.70352">
        <ele>741.361</ele>
        <time>2021-07-21T11:59:59Z</time>
      </trkpt>
      <trkpt lat="42.99185" lon="0.70357">
        <ele>740.698</ele>
        <time>2021-07-21T11:59:56Z</time>
      </trkpt>
      <trkpt lat="42.99181" lon="0.70362">
        <ele>740.053</ele>
        <time>2021-07-21T11:59:53Z</time>
      </trkpt>
      <trkpt lat="42.99179" lon="0.70369">
        <ele>739.389</ele>
        <time>2021-07-21T11:59:49Z</time>
      </trkpt>
      <trkpt lat="42.99169" lon="0.70379">
        <ele>738.531</ele>
        <time>2021-07-21T11:59:35Z</time>
      </trkpt>
      <trkpt lat="42.99162" lon="0.70391">
        <ele>738.317</ele>
        <time>2021-07-21T11:59:22Z</time>
      </trkpt>
      <trkpt lat="42.99153" lon="0.70403">
        <ele>738.466</ele>
        <time>2021-07-21T11:59:02Z</time>
      </trkpt>
      <trkpt lat="42.99145" lon="0.70407">
        <ele>738.557</ele>
        <time>2021-07-21T11:58:51Z</time>
      </trkpt>
      <trkpt lat="42.99142" lon="0.70413">
        <ele>738.096</ele>
        <time>2021-07-21T11:58:47Z</time>
      </trkpt>
      <trkpt lat="42.99141" lon="0.70428">
        <ele>736.908</ele>
        <time>2021-07-21T11:58:21Z</time>
      </trkpt>
      <trkpt lat="42.99141" lon="0.70435">
        <ele>736.225</ele>
        <time>2021-07-21T11:58:17Z</time>
      </trkpt>
      <trkpt lat="42.9914" lon="0.70446">
        <ele>735.923</ele>
        <time>2021-07-21T11:58:11Z</time>
      </trkpt>
      <trkpt lat="42.99138" lon="0.70452">
        <ele>736.297</ele>
        <time>2021-07-21T11:58:08Z</time>
      </trkpt>
      <trkpt lat="42.99137" lon="0.70459">
        <ele>736.791</ele>
        <time>2021-07-21T11:58:05Z</time>
      </trkpt>
      <trkpt lat="42.99135" lon="0.70467">
        <ele>736.946</ele>
        <time>2021-07-21T11:58:02Z</time>
      </trkpt>
      <trkpt lat="42.99133" lon="0.70473">
        <ele>737.222</ele>
        <time>2021-07-21T11:57:59Z</time>
      </trkpt>
      <trkpt lat="42.9913" lon="0.7048">
        <ele>736.834</ele>
        <time>2021-07-21T11:57:56Z</time>
      </trkpt>
      <trkpt lat="42.99128" lon="0.70487">
        <ele>736.07</ele>
        <time>2021-07-21T11:57:53Z</time>
      </trkpt>
      <trkpt lat="42.99126" lon="0.70494">
        <ele>734.939</ele>
        <time>2021-07-21T11:57:50Z</time>
      </trkpt>
      <trkpt lat="42.99123" lon="0.70502">
        <ele>733.95</ele>
        <time>2021-07-21T11:57:47Z</time>
      </trkpt>
      <trkpt lat="42.9912" lon="0.70508">
        <ele>732.679</ele>
        <time>2021-07-21T11:57:44Z</time>
      </trkpt>
      <trkpt lat="42.99117" lon="0.70515">
        <ele>731.508</ele>
        <time>2021-07-21T11:57:41Z</time>
      </trkpt>
      <trkpt lat="42.99114" lon="0.70521">
        <ele>729.811</ele>
        <time>2021-07-21T11:57:38Z</time>
      </trkpt>
      <trkpt lat="42.99111" lon="0.70528">
        <ele>728.583</ele>
        <time>2021-07-21T11:57:35Z</time>
      </trkpt>
      <trkpt lat="42.99109" lon="0.70534">
        <ele>727.723</ele>
        <time>2021-07-21T11:57:33Z</time>
      </trkpt>
      <trkpt lat="42.99107" lon="0.70542">
        <ele>726.525</ele>
        <time>2021-07-21T11:57:30Z</time>
      </trkpt>
      <trkpt lat="42.99107" lon="0.7055">
        <ele>725.62</ele>
        <time>2021-07-21T11:57:27Z</time>
      </trkpt>
      <trkpt lat="42.99107" lon="0.70557">
        <ele>724.876</ele>
        <time>2021-07-21T11:57:25Z</time>
      </trkpt>
      <trkpt lat="42.99108" lon="0.70566">
        <ele>724.078</ele>
        <time>2021-07-21T11:57:23Z</time>
      </trkpt>
      <trkpt lat="42.99108" lon="0.70572">
        <ele>723.514</ele>
        <time>2021-07-21T11:57:22Z</time>
      </trkpt>
      <trkpt lat="42.99107" lon="0.70586">
        <ele>723.213</ele>
        <time>2021-07-21T11:57:20Z</time>
      </trkpt>
      <trkpt lat="42.99106" lon="0.70594">
        <ele>723.094</ele>
        <time>2021-07-21T11:57:19Z</time>
      </trkpt>
      <trkpt lat="42.99104" lon="0.7061">
        <ele>723.043</ele>
        <time>2021-07-21T11:57:17Z</time>
      </trkpt>
      <trkpt lat="42.99101" lon="0.70623">
        <ele>723.008</ele>
        <time>2021-07-21T11:57:15Z</time>
      </trkpt>
      <trkpt lat="42.991" lon="0.70635">
        <ele>723.116</ele>
        <time>2021-07-21T11:57:13Z</time>
      </trkpt>
      <trkpt lat="42.99099" lon="0.70647">
        <ele>723.506</ele>
        <time>2021-07-21T11:57:11Z</time>
      </trkpt>
      <trkpt lat="42.99096" lon="0.70659">
        <ele>724.064</ele>
        <time>2021-07-21T11:57:09Z</time>
      </trkpt>
      <trkpt lat="42.99094" lon="0.70665">
        <ele>724.79</ele>
        <time>2021-07-21T11:57:08Z</time>
      </trkpt>
      <trkpt lat="42.99092" lon="0.70672">
        <ele>725.595</ele>
        <time>2021-07-21T11:57:07Z</time>
      </trkpt>
      <trkpt lat="42.99089" lon="0.70686">
        <ele>726.441</ele>
        <time>2021-07-21T11:57:05Z</time>
      </trkpt>
      <trkpt lat="42.99088" lon="0.70693">
        <ele>726.623</ele>
        <time>2021-07-21T11:57:04Z</time>
      </trkpt>
      <trkpt lat="42.99086" lon="0.70699">
        <ele>726.799</ele>
        <time>2021-07-21T11:57:03Z</time>
      </trkpt>
      <trkpt lat="42.99084" lon="0.7071">
        <ele>726.478</ele>
        <time>2021-07-21T11:57:01Z</time>
      </trkpt>
      <trkpt lat="42.99082" lon="0.70719">
        <ele>725.619</ele>
        <time>2021-07-21T11:56:59Z</time>
      </trkpt>
      <trkpt lat="42.99079" lon="0.70728">
        <ele>725.248</ele>
        <time>2021-07-21T11:56:57Z</time>
      </trkpt>
      <trkpt lat="42.99077" lon="0.70736">
        <ele>725.408</ele>
        <time>2021-07-21T11:56:55Z</time>
      </trkpt>
      <trkpt lat="42.99076" lon="0.70742">
        <ele>725.713</ele>
        <time>2021-07-21T11:56:53Z</time>
      </trkpt>
      <trkpt lat="42.99074" lon="0.70749">
        <ele>725.876</ele>
        <time>2021-07-21T11:56:51Z</time>
      </trkpt>
      <trkpt lat="42.99073" lon="0.70756">
        <ele>725.716</ele>
        <time>2021-07-21T11:56:49Z</time>
      </trkpt>
      <trkpt lat="42.99071" lon="0.70762">
        <ele>725.38</ele>
        <time>2021-07-21T11:56:47Z</time>
      </trkpt>
      <trkpt lat="42.9907" lon="0.70769">
        <ele>724.755</ele>
        <time>2021-07-21T11:56:45Z</time>
      </trkpt>
      <trkpt lat="42.99069" lon="0.70776">
        <ele>723.671</ele>
        <time>2021-07-21T11:56:43Z</time>
      </trkpt>
      <trkpt lat="42.99068" lon="0.70782">
        <ele>721.873</ele>
        <time>2021-07-21T11:56:41Z</time>
      </trkpt>
      <trkpt lat="42.99068" lon="0.70789">
        <ele>719.479</ele>
        <time>2021-07-21T11:56:39Z</time>
      </trkpt>
      <trkpt lat="42.99066" lon="0.70797">
        <ele>716.548</ele>
        <time>2021-07-21T11:56:36Z</time>
      </trkpt>
      <trkpt lat="42.99065" lon="0.70804">
        <ele>714.439</ele>
        <time>2021-07-21T11:56:34Z</time>
      </trkpt>
      <trkpt lat="42.99063" lon="0.7081">
        <ele>712.388</ele>
        <time>2021-07-21T11:56:32Z</time>
      </trkpt>
      <trkpt lat="42.99061" lon="0.70816">
        <ele>710.608</ele>
        <time>2021-07-21T11:56:30Z</time>
      </trkpt>
      <trkpt lat="42.9906" lon="0.70823">
        <ele>708.915</ele>
        <time>2021-07-21T11:56:28Z</time>
      </trkpt>
      <trkpt lat="42.99057" lon="0.70829">
        <ele>707.287</ele>
        <time>2021-07-21T11:56:26Z</time>
      </trkpt>
      <trkpt lat="42.99055" lon="0.70836">
        <ele>705.917</ele>
        <time>2021-07-21T11:56:24Z</time>
      </trkpt>
      <trkpt lat="42.99053" lon="0.70843">
        <ele>704.585</ele>
        <time>2021-07-21T11:56:22Z</time>
      </trkpt>
      <trkpt lat="42.9905" lon="0.70849">
        <ele>703.15</ele>
        <time>2021-07-21T11:56:20Z</time>
      </trkpt>
      <trkpt lat="42.99047" lon="0.70855">
        <ele>702.066</ele>
        <time>2021-07-21T11:56:18Z</time>
      </trkpt>
      <trkpt lat="42.99044" lon="0.70862">
        <ele>701.018</ele>
        <time>2021-07-21T11:56:16Z</time>
      </trkpt>
      <trkpt lat="42.9904" lon="0.70869">
        <ele>699.954</ele>
        <time>2021-07-21T11:56:14Z</time>
      </trkpt>
      <trkpt lat="42.99036" lon="0.70877">
        <ele>699.253</ele>
        <time>2021-07-21T11:56:12Z</time>
      </trkpt>
      <trkpt lat="42.99033" lon="0.70883">
        <ele>698.914</ele>
        <time>2021-07-21T11:56:10Z</time>
      </trkpt>
      <trkpt lat="42.99029" lon="0.7089">
        <ele>698.733</ele>
        <time>2021-07-21T11:56:08Z</time>
      </trkpt>
      <trkpt lat="42.99026" lon="0.70899">
        <ele>699.008</ele>
        <time>2021-07-21T11:56:06Z</time>
      </trkpt>
      <trkpt lat="42.99021" lon="0.70909">
        <ele>699.713</ele>
        <time>2021-07-21T11:56:04Z</time>
      </trkpt>
      <trkpt lat="42.99019" lon="0.70914">
        <ele>700.421</ele>
        <time>2021-07-21T11:56:03Z</time>
      </trkpt>
      <trkpt lat="42.99017" lon="0.7092">
        <ele>701.361</ele>
        <time>2021-07-21T11:56:02Z</time>
      </trkpt>
      <trkpt lat="42.99014" lon="0.70926">
        <ele>702.535</ele>
        <time>2021-07-21T11:56:01Z</time>
      </trkpt>
      <trkpt lat="42.9901" lon="0.70939">
        <ele>704.12</ele>
        <time>2021-07-21T11:55:59Z</time>
      </trkpt>
      <trkpt lat="42.99005" lon="0.70955">
        <ele>705.986</ele>
        <time>2021-07-21T11:55:57Z</time>
      </trkpt>
      <trkpt lat="42.99004" lon="0.70964">
        <ele>707.488</ele>
        <time>2021-07-21T11:55:56Z</time>
      </trkpt>
      <trkpt lat="42.99002" lon="0.70974">
        <ele>708.874</ele>
        <time>2021-07-21T11:55:55Z</time>
      </trkpt>
      <trkpt lat="42.99002" lon="0.70995">
        <ele>710.283</ele>
        <time>2021-07-21T11:55:53Z</time>
      </trkpt>
      <trkpt lat="42.98999" lon="0.71015">
        <ele>711.494</ele>
        <time>2021-07-21T11:55:51Z</time>
      </trkpt>
      <trkpt lat="42.98996" lon="0.71035">
        <ele>712.583</ele>
        <time>2021-07-21T11:55:49Z</time>
      </trkpt>
      <trkpt lat="42.98993" lon="0.71055">
        <ele>713.408</ele>
        <time>2021-07-21T11:55:47Z</time>
      </trkpt>
      <trkpt lat="42.98991" lon="0.71064">
        <ele>713.916</ele>
        <time>2021-07-21T11:55:46Z</time>
      </trkpt>
      <trkpt lat="42.9899" lon="0.71073">
        <ele>714.606</ele>
        <time>2021-07-21T11:55:45Z</time>
      </trkpt>
      <trkpt lat="42.98988" lon="0.71081">
        <ele>715.364</ele>
        <time>2021-07-21T11:55:44Z</time>
      </trkpt>
      <trkpt lat="42.98986" lon="0.7109">
        <ele>716.153</ele>
        <time>2021-07-21T11:55:43Z</time>
      </trkpt>
      <trkpt lat="42.98982" lon="0.71107">
        <ele>717.388</ele>
        <time>2021-07-21T11:55:41Z</time>
      </trkpt>
      <trkpt lat="42.9898" lon="0.71116">
        <ele>718.114</ele>
        <time>2021-07-21T11:55:40Z</time>
      </trkpt>
      <trkpt lat="42.98975" lon="0.71132">
        <ele>719.076</ele>
        <time>2021-07-21T11:55:38Z</time>
      </trkpt>
      <trkpt lat="42.98973" lon="0.7114">
        <ele>719.672</ele>
        <time>2021-07-21T11:55:37Z</time>
      </trkpt>
      <trkpt lat="42.98967" lon="0.71156">
        <ele>720.121</ele>
        <time>2021-07-21T11:55:35Z</time>
      </trkpt>
      <trkpt lat="42.98965" lon="0.71165">
        <ele>720.582</ele>
        <time>2021-07-21T11:55:34Z</time>
      </trkpt>
      <trkpt lat="42.98962" lon="0.71172">
        <ele>720.981</ele>
        <time>2021-07-21T11:55:33Z</time>
      </trkpt>
      <trkpt lat="42.98957" lon="0.71187">
        <ele>721.508</ele>
        <time>2021-07-21T11:55:31Z</time>
      </trkpt>
      <trkpt lat="42.9895" lon="0.712">
        <ele>722.414</ele>
        <time>2021-07-21T11:55:29Z</time>
      </trkpt>
      <trkpt lat="42.98944" lon="0.71211">
        <ele>723.422</ele>
        <time>2021-07-21T11:55:27Z</time>
      </trkpt>
      <trkpt lat="42.98937" lon="0.71221">
        <ele>724.342</ele>
        <time>2021-07-21T11:55:25Z</time>
      </trkpt>
      <trkpt lat="42.98929" lon="0.71229">
        <ele>725.033</ele>
        <time>2021-07-21T11:55:23Z</time>
      </trkpt>
      <trkpt lat="42.98925" lon="0.71234">
        <ele>725.438</ele>
        <time>2021-07-21T11:55:22Z</time>
      </trkpt>
      <trkpt lat="42.98921" lon="0.71239">
        <ele>725.854</ele>
        <time>2021-07-21T11:55:21Z</time>
      </trkpt>
      <trkpt lat="42.98917" lon="0.71245">
        <ele>726.276</ele>
        <time>2021-07-21T11:55:20Z</time>
      </trkpt>
      <trkpt lat="42.98913" lon="0.71252">
        <ele>726.722</ele>
        <time>2021-07-21T11:55:19Z</time>
      </trkpt>
      <trkpt lat="42.98905" lon="0.71267">
        <ele>727.451</ele>
        <time>2021-07-21T11:55:17Z</time>
      </trkpt>
      <trkpt lat="42.98898" lon="0.71282">
        <ele>727.742</ele>
        <time>2021-07-21T11:55:15Z</time>
      </trkpt>
      <trkpt lat="42.98893" lon="0.71293">
        <ele>728.031</ele>
        <time>2021-07-21T11:55:13Z</time>
      </trkpt>
      <trkpt lat="42.98889" lon="0.71302">
        <ele>728.208</ele>
        <time>2021-07-21T11:55:11Z</time>
      </trkpt>
      <trkpt lat="42.98885" lon="0.71309">
        <ele>728.414</ele>
        <time>2021-07-21T11:55:09Z</time>
      </trkpt>
      <trkpt lat="42.98879" lon="0.71312">
        <ele>728.922</ele>
        <time>2021-07-21T11:55:04Z</time>
      </trkpt>
      <trkpt lat="42.98877" lon="0.71306">
        <ele>729.842</ele>
        <time>2021-07-21T11:55:01Z</time>
      </trkpt>
      <trkpt lat="42.98874" lon="0.71299">
        <ele>730.662</ele>
        <time>2021-07-21T11:54:59Z</time>
      </trkpt>
      <trkpt lat="42.9887" lon="0.71293">
        <ele>731.337</ele>
        <time>2021-07-21T11:54:57Z</time>
      </trkpt>
      <trkpt lat="42.98863" lon="0.7129">
        <ele>732.513</ele>
        <time>2021-07-21T11:54:55Z</time>
      </trkpt>
      <trkpt lat="42.98857" lon="0.71288">
        <ele>733.865</ele>
        <time>2021-07-21T11:54:53Z</time>
      </trkpt>
      <trkpt lat="42.98852" lon="0.71286">
        <ele>734.291</ele>
        <time>2021-07-21T11:54:51Z</time>
      </trkpt>
      <trkpt lat="42.98847" lon="0.71286">
        <ele>734.54</ele>
        <time>2021-07-21T11:54:49Z</time>
      </trkpt>
      <trkpt lat="42.98841" lon="0.71287">
        <ele>734.791</ele>
        <time>2021-07-21T11:54:47Z</time>
      </trkpt>
      <trkpt lat="42.98835" lon="0.71288">
        <ele>734.83</ele>
        <time>2021-07-21T11:54:45Z</time>
      </trkpt>
      <trkpt lat="42.98829" lon="0.71289">
        <ele>735.008</ele>
        <time>2021-07-21T11:54:43Z</time>
      </trkpt>
      <trkpt lat="42.98822" lon="0.7129">
        <ele>734.918</ele>
        <time>2021-07-21T11:54:41Z</time>
      </trkpt>
      <trkpt lat="42.98816" lon="0.71291">
        <ele>734.617</ele>
        <time>2021-07-21T11:54:39Z</time>
      </trkpt>
      <trkpt lat="42.9881" lon="0.7129">
        <ele>734.136</ele>
        <time>2021-07-21T11:54:37Z</time>
      </trkpt>
      <trkpt lat="42.98802" lon="0.71289">
        <ele>733.578</ele>
        <time>2021-07-21T11:54:35Z</time>
      </trkpt>
      <trkpt lat="42.98795" lon="0.71287">
        <ele>732.793</ele>
        <time>2021-07-21T11:54:33Z</time>
      </trkpt>
      <trkpt lat="42.98788" lon="0.71285">
        <ele>731.789</ele>
        <time>2021-07-21T11:54:31Z</time>
      </trkpt>
      <trkpt lat="42.98781" lon="0.71285">
        <ele>730.861</ele>
        <time>2021-07-21T11:54:29Z</time>
      </trkpt>
      <trkpt lat="42.98774" lon="0.71284">
        <ele>729.867</ele>
        <time>2021-07-21T11:54:27Z</time>
      </trkpt>
      <trkpt lat="42.98767" lon="0.71284">
        <ele>729.086</ele>
        <time>2021-07-21T11:54:25Z</time>
      </trkpt>
      <trkpt lat="42.9876" lon="0.71285">
        <ele>728.857</ele>
        <time>2021-07-21T11:54:23Z</time>
      </trkpt>
      <trkpt lat="42.98752" lon="0.71286">
        <ele>729.246</ele>
        <time>2021-07-21T11:54:21Z</time>
      </trkpt>
      <trkpt lat="42.98744" lon="0.71288">
        <ele>729.608</ele>
        <time>2021-07-21T11:54:19Z</time>
      </trkpt>
      <trkpt lat="42.98736" lon="0.71291">
        <ele>729.82</ele>
        <time>2021-07-21T11:54:17Z</time>
      </trkpt>
      <trkpt lat="42.98728" lon="0.71292">
        <ele>729.973</ele>
        <time>2021-07-21T11:54:15Z</time>
      </trkpt>
      <trkpt lat="42.9872" lon="0.71293">
        <ele>730.192</ele>
        <time>2021-07-21T11:54:13Z</time>
      </trkpt>
      <trkpt lat="42.98711" lon="0.71294">
        <ele>730.01</ele>
        <time>2021-07-21T11:54:11Z</time>
      </trkpt>
      <trkpt lat="42.98704" lon="0.71294">
        <ele>729.835</ele>
        <time>2021-07-21T11:54:09Z</time>
      </trkpt>
      <trkpt lat="42.98695" lon="0.71293">
        <ele>729.441</ele>
        <time>2021-07-21T11:54:07Z</time>
      </trkpt>
      <trkpt lat="42.98687" lon="0.71292">
        <ele>728.723</ele>
        <time>2021-07-21T11:54:05Z</time>
      </trkpt>
      <trkpt lat="42.98679" lon="0.71293">
        <ele>728.169</ele>
        <time>2021-07-21T11:54:03Z</time>
      </trkpt>
      <trkpt lat="42.98671" lon="0.71292">
        <ele>727.788</ele>
        <time>2021-07-21T11:54:01Z</time>
      </trkpt>
      <trkpt lat="42.98664" lon="0.71292">
        <ele>727.599</ele>
        <time>2021-07-21T11:53:59Z</time>
      </trkpt>
      <trkpt lat="42.98657" lon="0.71292">
        <ele>727.548</ele>
        <time>2021-07-21T11:53:57Z</time>
      </trkpt>
      <trkpt lat="42.9865" lon="0.71292">
        <ele>727.308</ele>
        <time>2021-07-21T11:53:55Z</time>
      </trkpt>
      <trkpt lat="42.98642" lon="0.71291">
        <ele>727.019</ele>
        <time>2021-07-21T11:53:53Z</time>
      </trkpt>
      <trkpt lat="42.98635" lon="0.71291">
        <ele>726.709</ele>
        <time>2021-07-21T11:53:51Z</time>
      </trkpt>
      <trkpt lat="42.98627" lon="0.71288">
        <ele>726.319</ele>
        <time>2021-07-21T11:53:49Z</time>
      </trkpt>
      <trkpt lat="42.98619" lon="0.71286">
        <ele>726.187</ele>
        <time>2021-07-21T11:53:47Z</time>
      </trkpt>
      <trkpt lat="42.98612" lon="0.71282">
        <ele>725.912</ele>
        <time>2021-07-21T11:53:45Z</time>
      </trkpt>
      <trkpt lat="42.98605" lon="0.71278">
        <ele>725.688</ele>
        <time>2021-07-21T11:53:43Z</time>
      </trkpt>
      <trkpt lat="42.98597" lon="0.71272">
        <ele>725.56</ele>
        <time>2021-07-21T11:53:41Z</time>
      </trkpt>
      <trkpt lat="42.98591" lon="0.71267">
        <ele>725.086</ele>
        <time>2021-07-21T11:53:39Z</time>
      </trkpt>
      <trkpt lat="42.98584" lon="0.71263">
        <ele>724.195</ele>
        <time>2021-07-21T11:53:37Z</time>
      </trkpt>
      <trkpt lat="42.98577" lon="0.71258">
        <ele>722.956</ele>
        <time>2021-07-21T11:53:35Z</time>
      </trkpt>
      <trkpt lat="42.98569" lon="0.71253">
        <ele>721.665</ele>
        <time>2021-07-21T11:53:33Z</time>
      </trkpt>
      <trkpt lat="42.98562" lon="0.71249">
        <ele>720.308</ele>
        <time>2021-07-21T11:53:31Z</time>
      </trkpt>
      <trkpt lat="42.98556" lon="0.71245">
        <ele>718.717</ele>
        <time>2021-07-21T11:53:29Z</time>
      </trkpt>
      <trkpt lat="42.9855" lon="0.71241">
        <ele>716.943</ele>
        <time>2021-07-21T11:53:27Z</time>
      </trkpt>
      <trkpt lat="42.98544" lon="0.71235">
        <ele>715.182</ele>
        <time>2021-07-21T11:53:25Z</time>
      </trkpt>
      <trkpt lat="42.98538" lon="0.71231">
        <ele>713.73</ele>
        <time>2021-07-21T11:53:23Z</time>
      </trkpt>
      <trkpt lat="42.98531" lon="0.71227">
        <ele>712.485</ele>
        <time>2021-07-21T11:53:21Z</time>
      </trkpt>
      <trkpt lat="42.98525" lon="0.71222">
        <ele>711.021</ele>
        <time>2021-07-21T11:53:19Z</time>
      </trkpt>
      <trkpt lat="42.98519" lon="0.71218">
        <ele>709.753</ele>
        <time>2021-07-21T11:53:17Z</time>
      </trkpt>
      <trkpt lat="42.98512" lon="0.71214">
        <ele>708.249</ele>
        <time>2021-07-21T11:53:15Z</time>
      </trkpt>
      <trkpt lat="42.98506" lon="0.7121">
        <ele>706.768</ele>
        <time>2021-07-21T11:53:13Z</time>
      </trkpt>
      <trkpt lat="42.985" lon="0.71205">
        <ele>706.029</ele>
        <time>2021-07-21T11:53:11Z</time>
      </trkpt>
      <trkpt lat="42.98494" lon="0.71199">
        <ele>706.088</ele>
        <time>2021-07-21T11:53:09Z</time>
      </trkpt>
      <trkpt lat="42.98488" lon="0.71192">
        <ele>706.708</ele>
        <time>2021-07-21T11:53:07Z</time>
      </trkpt>
      <trkpt lat="42.98483" lon="0.71185">
        <ele>708.009</ele>
        <time>2021-07-21T11:53:05Z</time>
      </trkpt>
      <trkpt lat="42.98477" lon="0.71177">
        <ele>709.454</ele>
        <time>2021-07-21T11:53:03Z</time>
      </trkpt>
      <trkpt lat="42.98472" lon="0.71168">
        <ele>710.714</ele>
        <time>2021-07-21T11:53:01Z</time>
      </trkpt>
      <trkpt lat="42.98466" lon="0.71159">
        <ele>711.83</ele>
        <time>2021-07-21T11:52:59Z</time>
      </trkpt>
      <trkpt lat="42.98461" lon="0.71151">
        <ele>712.695</ele>
        <time>2021-07-21T11:52:57Z</time>
      </trkpt>
      <trkpt lat="42.98455" lon="0.71143">
        <ele>713.341</ele>
        <time>2021-07-21T11:52:55Z</time>
      </trkpt>
      <trkpt lat="42.9845" lon="0.71135">
        <ele>713.363</ele>
        <time>2021-07-21T11:52:53Z</time>
      </trkpt>
      <trkpt lat="42.98445" lon="0.71127">
        <ele>712.939</ele>
        <time>2021-07-21T11:52:51Z</time>
      </trkpt>
      <trkpt lat="42.98439" lon="0.7112">
        <ele>712.148</ele>
        <time>2021-07-21T11:52:49Z</time>
      </trkpt>
      <trkpt lat="42.98433" lon="0.71114">
        <ele>711.319</ele>
        <time>2021-07-21T11:52:47Z</time>
      </trkpt>
      <trkpt lat="42.98427" lon="0.71107">
        <ele>710.268</ele>
        <time>2021-07-21T11:52:45Z</time>
      </trkpt>
      <trkpt lat="42.98421" lon="0.711">
        <ele>708.408</ele>
        <time>2021-07-21T11:52:43Z</time>
      </trkpt>
      <trkpt lat="42.98415" lon="0.71094">
        <ele>706.409</ele>
        <time>2021-07-21T11:52:41Z</time>
      </trkpt>
      <trkpt lat="42.9841" lon="0.71088">
        <ele>704.354</ele>
        <time>2021-07-21T11:52:39Z</time>
      </trkpt>
      <trkpt lat="42.98405" lon="0.71082">
        <ele>702.614</ele>
        <time>2021-07-21T11:52:37Z</time>
      </trkpt>
      <trkpt lat="42.984" lon="0.71075">
        <ele>701.027</ele>
        <time>2021-07-21T11:52:35Z</time>
      </trkpt>
      <trkpt lat="42.98394" lon="0.7107">
        <ele>699.762</ele>
        <time>2021-07-21T11:52:33Z</time>
      </trkpt>
      <trkpt lat="42.98388" lon="0.71063">
        <ele>698.658</ele>
        <time>2021-07-21T11:52:31Z</time>
      </trkpt>
      <trkpt lat="42.98382" lon="0.71057">
        <ele>697.72</ele>
        <time>2021-07-21T11:52:29Z</time>
      </trkpt>
      <trkpt lat="42.98375" lon="0.71054">
        <ele>696.376</ele>
        <time>2021-07-21T11:52:27Z</time>
      </trkpt>
      <trkpt lat="42.98367" lon="0.71054">
        <ele>695.015</ele>
        <time>2021-07-21T11:52:25Z</time>
      </trkpt>
      <trkpt lat="42.9836" lon="0.71055">
        <ele>693.696</ele>
        <time>2021-07-21T11:52:23Z</time>
      </trkpt>
      <trkpt lat="42.98353" lon="0.71053">
        <ele>692.545</ele>
        <time>2021-07-21T11:52:21Z</time>
      </trkpt>
      <trkpt lat="42.98346" lon="0.7105">
        <ele>691.508</ele>
        <time>2021-07-21T11:52:19Z</time>
      </trkpt>
      <trkpt lat="42.9834" lon="0.71043">
        <ele>691.026</ele>
        <time>2021-07-21T11:52:17Z</time>
      </trkpt>
      <trkpt lat="42.98335" lon="0.71035">
        <ele>691.06</ele>
        <time>2021-07-21T11:52:15Z</time>
      </trkpt>
      <trkpt lat="42.98331" lon="0.71027">
        <ele>691.686</ele>
        <time>2021-07-21T11:52:13Z</time>
      </trkpt>
      <trkpt lat="42.98328" lon="0.71016">
        <ele>692.854</ele>
        <time>2021-07-21T11:52:11Z</time>
      </trkpt>
      <trkpt lat="42.98326" lon="0.71005">
        <ele>694.929</ele>
        <time>2021-07-21T11:52:09Z</time>
      </trkpt>
      <trkpt lat="42.98325" lon="0.70994">
        <ele>697.635</ele>
        <time>2021-07-21T11:52:07Z</time>
      </trkpt>
      <trkpt lat="42.98324" lon="0.70982">
        <ele>700.817</ele>
        <time>2021-07-21T11:52:05Z</time>
      </trkpt>
      <trkpt lat="42.98322" lon="0.70969">
        <ele>704.063</ele>
        <time>2021-07-21T11:52:03Z</time>
      </trkpt>
      <trkpt lat="42.98321" lon="0.70957">
        <ele>706.362</ele>
        <time>2021-07-21T11:52:01Z</time>
      </trkpt>
      <trkpt lat="42.98318" lon="0.70946">
        <ele>707.713</ele>
        <time>2021-07-21T11:51:59Z</time>
      </trkpt>
      <trkpt lat="42.98315" lon="0.70934">
        <ele>708.572</ele>
        <time>2021-07-21T11:51:57Z</time>
      </trkpt>
      <trkpt lat="42.98313" lon="0.70922">
        <ele>708.308</ele>
        <time>2021-07-21T11:51:55Z</time>
      </trkpt>
      <trkpt lat="42.9831" lon="0.70912">
        <ele>706.911</ele>
        <time>2021-07-21T11:51:53Z</time>
      </trkpt>
      <trkpt lat="42.98305" lon="0.70904">
        <ele>704.901</ele>
        <time>2021-07-21T11:51:51Z</time>
      </trkpt>
      <trkpt lat="42.98298" lon="0.70894">
        <ele>702.651</ele>
        <time>2021-07-21T11:51:49Z</time>
      </trkpt>
      <trkpt lat="42.98292" lon="0.70889">
        <ele>699.793</ele>
        <time>2021-07-21T11:51:47Z</time>
      </trkpt>
      <trkpt lat="42.98286" lon="0.70884">
        <ele>697.298</ele>
        <time>2021-07-21T11:51:45Z</time>
      </trkpt>
      <trkpt lat="42.98281" lon="0.7088">
        <ele>694.844</ele>
        <time>2021-07-21T11:51:43Z</time>
      </trkpt>
      <trkpt lat="42.98276" lon="0.70875">
        <ele>692.656</ele>
        <time>2021-07-21T11:51:41Z</time>
      </trkpt>
      <trkpt lat="42.98271" lon="0.70871">
        <ele>690.622</ele>
        <time>2021-07-21T11:51:39Z</time>
      </trkpt>
      <trkpt lat="42.98264" lon="0.70866">
        <ele>689.021</ele>
        <time>2021-07-21T11:51:37Z</time>
      </trkpt>
      <trkpt lat="42.98259" lon="0.7086">
        <ele>687.632</ele>
        <time>2021-07-21T11:51:35Z</time>
      </trkpt>
      <trkpt lat="42.98254" lon="0.70856">
        <ele>686.271</ele>
        <time>2021-07-21T11:51:33Z</time>
      </trkpt>
      <trkpt lat="42.98249" lon="0.70853">
        <ele>685.108</ele>
        <time>2021-07-21T11:51:31Z</time>
      </trkpt>
      <trkpt lat="42.98244" lon="0.70849">
        <ele>684.117</ele>
        <time>2021-07-21T11:51:29Z</time>
      </trkpt>
      <trkpt lat="42.98239" lon="0.70843">
        <ele>683.861</ele>
        <time>2021-07-21T11:51:27Z</time>
      </trkpt>
      <trkpt lat="42.98234" lon="0.70835">
        <ele>684.048</ele>
        <time>2021-07-21T11:51:25Z</time>
      </trkpt>
      <trkpt lat="42.9823" lon="0.70827">
        <ele>684.632</ele>
        <time>2021-07-21T11:51:23Z</time>
      </trkpt>
      <trkpt lat="42.98227" lon="0.70818">
        <ele>685.647</ele>
        <time>2021-07-21T11:51:21Z</time>
      </trkpt>
      <trkpt lat="42.98224" lon="0.70809">
        <ele>686.853</ele>
        <time>2021-07-21T11:51:19Z</time>
      </trkpt>
      <trkpt lat="42.98222" lon="0.70799">
        <ele>687.945</ele>
        <time>2021-07-21T11:51:17Z</time>
      </trkpt>
      <trkpt lat="42.9822" lon="0.70791">
        <ele>689.351</ele>
        <time>2021-07-21T11:51:15Z</time>
      </trkpt>
      <trkpt lat="42.98218" lon="0.70782">
        <ele>691.11</ele>
        <time>2021-07-21T11:51:13Z</time>
      </trkpt>
      <trkpt lat="42.98216" lon="0.7077">
        <ele>692.871</ele>
        <time>2021-07-21T11:51:11Z</time>
      </trkpt>
      <trkpt lat="42.98215" lon="0.7076">
        <ele>694.04</ele>
        <time>2021-07-21T11:51:09Z</time>
      </trkpt>
      <trkpt lat="42.98215" lon="0.70752">
        <ele>695.008</ele>
        <time>2021-07-21T11:51:07Z</time>
      </trkpt>
      <trkpt lat="42.98214" lon="0.70745">
        <ele>695.917</ele>
        <time>2021-07-21T11:51:05Z</time>
      </trkpt>
      <trkpt lat="42.98214" lon="0.70738">
        <ele>697.07</ele>
        <time>2021-07-21T11:51:03Z</time>
      </trkpt>
      <trkpt lat="42.98213" lon="0.70728">
        <ele>698.138</ele>
        <time>2021-07-21T11:51:01Z</time>
      </trkpt>
      <trkpt lat="42.98211" lon="0.70717">
        <ele>699.176</ele>
        <time>2021-07-21T11:50:59Z</time>
      </trkpt>
      <trkpt lat="42.98209" lon="0.70708">
        <ele>699.681</ele>
        <time>2021-07-21T11:50:57Z</time>
      </trkpt>
      <trkpt lat="42.98207" lon="0.70699">
        <ele>699.977</ele>
        <time>2021-07-21T11:50:55Z</time>
      </trkpt>
      <trkpt lat="42.98206" lon="0.7069">
        <ele>700.289</ele>
        <time>2021-07-21T11:50:53Z</time>
      </trkpt>
      <trkpt lat="42.98203" lon="0.70679">
        <ele>700.225</ele>
        <time>2021-07-21T11:50:51Z</time>
      </trkpt>
      <trkpt lat="42.982" lon="0.70673">
        <ele>699.724</ele>
        <time>2021-07-21T11:50:50Z</time>
      </trkpt>
      <trkpt lat="42.98195" lon="0.70663">
        <ele>698.685</ele>
        <time>2021-07-21T11:50:48Z</time>
      </trkpt>
      <trkpt lat="42.98189" lon="0.70656">
        <ele>696.984</ele>
        <time>2021-07-21T11:50:46Z</time>
      </trkpt>
      <trkpt lat="42.98184" lon="0.70651">
        <ele>694.908</ele>
        <time>2021-07-21T11:50:44Z</time>
      </trkpt>
      <trkpt lat="42.98179" lon="0.70647">
        <ele>692.819</ele>
        <time>2021-07-21T11:50:42Z</time>
      </trkpt>
      <trkpt lat="42.98175" lon="0.70643">
        <ele>689.99</ele>
        <time>2021-07-21T11:50:40Z</time>
      </trkpt>
      <trkpt lat="42.98169" lon="0.7064">
        <ele>686.876</ele>
        <time>2021-07-21T11:50:38Z</time>
      </trkpt>
      <trkpt lat="42.98163" lon="0.70638">
        <ele>683.735</ele>
        <time>2021-07-21T11:50:36Z</time>
      </trkpt>
      <trkpt lat="42.98157" lon="0.70637">
        <ele>680.69</ele>
        <time>2021-07-21T11:50:34Z</time>
      </trkpt>
      <trkpt lat="42.98152" lon="0.70637">
        <ele>677.656</ele>
        <time>2021-07-21T11:50:32Z</time>
      </trkpt>
      <trkpt lat="42.98147" lon="0.70637">
        <ele>674.428</ele>
        <time>2021-07-21T11:50:30Z</time>
      </trkpt>
      <trkpt lat="42.98141" lon="0.70635">
        <ele>670.464</ele>
        <time>2021-07-21T11:50:27Z</time>
      </trkpt>
      <trkpt lat="42.98136" lon="0.70633">
        <ele>667.383</ele>
        <time>2021-07-21T11:50:25Z</time>
      </trkpt>
      <trkpt lat="42.98132" lon="0.70629">
        <ele>665.154</ele>
        <time>2021-07-21T11:50:23Z</time>
      </trkpt>
      <trkpt lat="42.98127" lon="0.70623">
        <ele>663.673</ele>
        <time>2021-07-21T11:50:20Z</time>
      </trkpt>
      <trkpt lat="42.98125" lon="0.70616">
        <ele>663.208</ele>
        <time>2021-07-21T11:50:18Z</time>
      </trkpt>
      <trkpt lat="42.98122" lon="0.70608">
        <ele>662.921</ele>
        <time>2021-07-21T11:50:16Z</time>
      </trkpt>
      <trkpt lat="42.98119" lon="0.706">
        <ele>662.729</ele>
        <time>2021-07-21T11:50:14Z</time>
      </trkpt>
      <trkpt lat="42.98117" lon="0.7059">
        <ele>662.466</ele>
        <time>2021-07-21T11:50:12Z</time>
      </trkpt>
      <trkpt lat="42.98114" lon="0.70582">
        <ele>662.08</ele>
        <time>2021-07-21T11:50:10Z</time>
      </trkpt>
      <trkpt lat="42.98112" lon="0.70574">
        <ele>661.525</ele>
        <time>2021-07-21T11:50:08Z</time>
      </trkpt>
      <trkpt lat="42.98109" lon="0.70566">
        <ele>661.141</ele>
        <time>2021-07-21T11:50:06Z</time>
      </trkpt>
      <trkpt lat="42.98107" lon="0.70558">
        <ele>660.563</ele>
        <time>2021-07-21T11:50:04Z</time>
      </trkpt>
      <trkpt lat="42.98105" lon="0.70551">
        <ele>660.069</ele>
        <time>2021-07-21T11:50:02Z</time>
      </trkpt>
      <trkpt lat="42.98102" lon="0.70542">
        <ele>659.698</ele>
        <time>2021-07-21T11:50:00Z</time>
      </trkpt>
      <trkpt lat="42.981" lon="0.70532">
        <ele>658.939</ele>
        <time>2021-07-21T11:49:58Z</time>
      </trkpt>
      <trkpt lat="42.98099" lon="0.70523">
        <ele>658.078</ele>
        <time>2021-07-21T11:49:56Z</time>
      </trkpt>
      <trkpt lat="42.98098" lon="0.70514">
        <ele>657.208</ele>
        <time>2021-07-21T11:49:54Z</time>
      </trkpt>
      <trkpt lat="42.98098" lon="0.70507">
        <ele>656.409</ele>
        <time>2021-07-21T11:49:52Z</time>
      </trkpt>
      <trkpt lat="42.98098" lon="0.70498">
        <ele>656.054</ele>
        <time>2021-07-21T11:49:50Z</time>
      </trkpt>
      <trkpt lat="42.98097" lon="0.70489">
        <ele>655.714</ele>
        <time>2021-07-21T11:49:48Z</time>
      </trkpt>
      <trkpt lat="42.98096" lon="0.70481">
        <ele>655.576</ele>
        <time>2021-07-21T11:49:46Z</time>
      </trkpt>
      <trkpt lat="42.98095" lon="0.70471">
        <ele>655.461</ele>
        <time>2021-07-21T11:49:44Z</time>
      </trkpt>
      <trkpt lat="42.98093" lon="0.70463">
        <ele>655.157</ele>
        <time>2021-07-21T11:49:42Z</time>
      </trkpt>
      <trkpt lat="42.98091" lon="0.70453">
        <ele>654.939</ele>
        <time>2021-07-21T11:49:40Z</time>
      </trkpt>
      <trkpt lat="42.98089" lon="0.70445">
        <ele>654.495</ele>
        <time>2021-07-21T11:49:38Z</time>
      </trkpt>
      <trkpt lat="42.98087" lon="0.70437">
        <ele>654.084</ele>
        <time>2021-07-21T11:49:36Z</time>
      </trkpt>
      <trkpt lat="42.98085" lon="0.70429">
        <ele>653.845</ele>
        <time>2021-07-21T11:49:34Z</time>
      </trkpt>
      <trkpt lat="42.98082" lon="0.7042">
        <ele>653.794</ele>
        <time>2021-07-21T11:49:32Z</time>
      </trkpt>
      <trkpt lat="42.98079" lon="0.70411">
        <ele>653.708</ele>
        <time>2021-07-21T11:49:30Z</time>
      </trkpt>
      <trkpt lat="42.98077" lon="0.70403">
        <ele>653.314</ele>
        <time>2021-07-21T11:49:28Z</time>
      </trkpt>
      <trkpt lat="42.98075" lon="0.70394">
        <ele>653.013</ele>
        <time>2021-07-21T11:49:26Z</time>
      </trkpt>
      <trkpt lat="42.98072" lon="0.70385">
        <ele>652.672</ele>
        <time>2021-07-21T11:49:24Z</time>
      </trkpt>
      <trkpt lat="42.98069" lon="0.70376">
        <ele>652.054</ele>
        <time>2021-07-21T11:49:22Z</time>
      </trkpt>
      <trkpt lat="42.98066" lon="0.70368">
        <ele>651.689</ele>
        <time>2021-07-21T11:49:20Z</time>
      </trkpt>
      <trkpt lat="42.98064" lon="0.70358">
        <ele>651.225</ele>
        <time>2021-07-21T11:49:18Z</time>
      </trkpt>
      <trkpt lat="42.98061" lon="0.7035">
        <ele>650.797</ele>
        <time>2021-07-21T11:49:16Z</time>
      </trkpt>
      <trkpt lat="42.98059" lon="0.70342">
        <ele>649.933</ele>
        <time>2021-07-21T11:49:14Z</time>
      </trkpt>
      <trkpt lat="42.98056" lon="0.70334">
        <ele>649.382</ele>
        <time>2021-07-21T11:49:12Z</time>
      </trkpt>
      <trkpt lat="42.98055" lon="0.70326">
        <ele>648.843</ele>
        <time>2021-07-21T11:49:10Z</time>
      </trkpt>
      <trkpt lat="42.98052" lon="0.70317">
        <ele>648.372</ele>
        <time>2021-07-21T11:49:08Z</time>
      </trkpt>
      <trkpt lat="42.9805" lon="0.7031">
        <ele>647.908</ele>
        <time>2021-07-21T11:49:06Z</time>
      </trkpt>
      <trkpt lat="42.98047" lon="0.70302">
        <ele>647.42</ele>
        <time>2021-07-21T11:49:04Z</time>
      </trkpt>
      <trkpt lat="42.98044" lon="0.70294">
        <ele>646.9</ele>
        <time>2021-07-21T11:49:02Z</time>
      </trkpt>
      <trkpt lat="42.98041" lon="0.70286">
        <ele>646.557</ele>
        <time>2021-07-21T11:49:00Z</time>
      </trkpt>
      <trkpt lat="42.98037" lon="0.70279">
        <ele>646.182</ele>
        <time>2021-07-21T11:48:58Z</time>
      </trkpt>
      <trkpt lat="42.98034" lon="0.70271">
        <ele>645.887</ele>
        <time>2021-07-21T11:48:56Z</time>
      </trkpt>
      <trkpt lat="42.98031" lon="0.70263">
        <ele>645.933</ele>
        <time>2021-07-21T11:48:54Z</time>
      </trkpt>
      <trkpt lat="42.98028" lon="0.70254">
        <ele>646.485</ele>
        <time>2021-07-21T11:48:52Z</time>
      </trkpt>
      <trkpt lat="42.98025" lon="0.70245">
        <ele>647.291</ele>
        <time>2021-07-21T11:48:50Z</time>
      </trkpt>
      <trkpt lat="42.98022" lon="0.70238">
        <ele>648.37</ele>
        <time>2021-07-21T11:48:48Z</time>
      </trkpt>
      <trkpt lat="42.98018" lon="0.70229">
        <ele>649.661</ele>
        <time>2021-07-21T11:48:46Z</time>
      </trkpt>
      <trkpt lat="42.98013" lon="0.7022">
        <ele>651.01</ele>
        <time>2021-07-21T11:48:44Z</time>
      </trkpt>
      <trkpt lat="42.98006" lon="0.70213">
        <ele>652.408</ele>
        <time>2021-07-21T11:48:42Z</time>
      </trkpt>
      <trkpt lat="42.97999" lon="0.70205">
        <ele>653.717</ele>
        <time>2021-07-21T11:48:40Z</time>
      </trkpt>
      <trkpt lat="42.97995" lon="0.70193">
        <ele>655.37</ele>
        <time>2021-07-21T11:48:38Z</time>
      </trkpt>
      <trkpt lat="42.97992" lon="0.70179">
        <ele>657.438</ele>
        <time>2021-07-21T11:48:36Z</time>
      </trkpt>
      <trkpt lat="42.97991" lon="0.7017">
        <ele>659.39</ele>
        <time>2021-07-21T11:48:35Z</time>
      </trkpt>
      <trkpt lat="42.9799" lon="0.70159">
        <ele>661.445</ele>
        <time>2021-07-21T11:48:34Z</time>
      </trkpt>
      <trkpt lat="42.97988" lon="0.70146">
        <ele>663.651</ele>
        <time>2021-07-21T11:48:33Z</time>
      </trkpt>
      <trkpt lat="42.97986" lon="0.70133">
        <ele>666.043</ele>
        <time>2021-07-21T11:48:32Z</time>
      </trkpt>
      <trkpt lat="42.97984" lon="0.70105">
        <ele>668.969</ele>
        <time>2021-07-21T11:48:30Z</time>
      </trkpt>
      <trkpt lat="42.97984" lon="0.70092">
        <ele>671.358</ele>
        <time>2021-07-21T11:48:29Z</time>
      </trkpt>
      <trkpt lat="42.97984" lon="0.70078">
        <ele>674.059</ele>
        <time>2021-07-21T11:48:28Z</time>
      </trkpt>
      <trkpt lat="42.97984" lon="0.70051">
        <ele>677.278</ele>
        <time>2021-07-21T11:48:26Z</time>
      </trkpt>
      <trkpt lat="42.97984" lon="0.70037">
        <ele>680.108</ele>
        <time>2021-07-21T11:48:25Z</time>
      </trkpt>
      <trkpt lat="42.97984" lon="0.70011">
        <ele>683.715</ele>
        <time>2021-07-21T11:48:23Z</time>
      </trkpt>
      <trkpt lat="42.97984" lon="0.69985">
        <ele>687.187</ele>
        <time>2021-07-21T11:48:21Z</time>
      </trkpt>
      <trkpt lat="42.97986" lon="0.69959">
        <ele>690.217</ele>
        <time>2021-07-21T11:48:19Z</time>
      </trkpt>
      <trkpt lat="42.97989" lon="0.69934">
        <ele>692.733</ele>
        <time>2021-07-21T11:48:17Z</time>
      </trkpt>
      <trkpt lat="42.9799" lon="0.69921">
        <ele>694.188</ele>
        <time>2021-07-21T11:48:16Z</time>
      </trkpt>
      <trkpt lat="42.97992" lon="0.69907">
        <ele>695.594</ele>
        <time>2021-07-21T11:48:15Z</time>
      </trkpt>
      <trkpt lat="42.97994" lon="0.69894">
        <ele>696.856</ele>
        <time>2021-07-21T11:48:14Z</time>
      </trkpt>
      <trkpt lat="42.97996" lon="0.6987">
        <ele>698.152</ele>
        <time>2021-07-21T11:48:12Z</time>
      </trkpt>
      <trkpt lat="42.97998" lon="0.69858">
        <ele>698.971</ele>
        <time>2021-07-21T11:48:11Z</time>
      </trkpt>
      <trkpt lat="42.98001" lon="0.69834">
        <ele>699.692</ele>
        <time>2021-07-21T11:48:09Z</time>
      </trkpt>
      <trkpt lat="42.98006" lon="0.6981">
        <ele>699.831</ele>
        <time>2021-07-21T11:48:07Z</time>
      </trkpt>
      <trkpt lat="42.98005" lon="0.69788">
        <ele>699.708</ele>
        <time>2021-07-21T11:48:05Z</time>
      </trkpt>
      <trkpt lat="42.97998" lon="0.69772">
        <ele>699.511</ele>
        <time>2021-07-21T11:48:03Z</time>
      </trkpt>
      <trkpt lat="42.97992" lon="0.69765">
        <ele>699.347</ele>
        <time>2021-07-21T11:48:02Z</time>
      </trkpt>
      <trkpt lat="42.97987" lon="0.6976">
        <ele>699.045</ele>
        <time>2021-07-21T11:48:01Z</time>
      </trkpt>
      <trkpt lat="42.97975" lon="0.69754">
        <ele>698.561</ele>
        <time>2021-07-21T11:47:59Z</time>
      </trkpt>
      <trkpt lat="42.97964" lon="0.69749">
        <ele>697.966</ele>
        <time>2021-07-21T11:47:57Z</time>
      </trkpt>
      <trkpt lat="42.97959" lon="0.69746">
        <ele>697.292</ele>
        <time>2021-07-21T11:47:56Z</time>
      </trkpt>
      <trkpt lat="42.97953" lon="0.69744">
        <ele>696.364</ele>
        <time>2021-07-21T11:47:55Z</time>
      </trkpt>
      <trkpt lat="42.97942" lon="0.6974">
        <ele>695.12</ele>
        <time>2021-07-21T11:47:53Z</time>
      </trkpt>
      <trkpt lat="42.9793" lon="0.6974">
        <ele>694.039</ele>
        <time>2021-07-21T11:47:51Z</time>
      </trkpt>
      <trkpt lat="42.97924" lon="0.6974">
        <ele>693.21</ele>
        <time>2021-07-21T11:47:50Z</time>
      </trkpt>
      <trkpt lat="42.97914" lon="0.69736">
        <ele>692.589</ele>
        <time>2021-07-21T11:47:48Z</time>
      </trkpt>
      <trkpt lat="42.9791" lon="0.69732">
        <ele>692.308</ele>
        <time>2021-07-21T11:47:47Z</time>
      </trkpt>
      <trkpt lat="42.97901" lon="0.69722">
        <ele>692.511</ele>
        <time>2021-07-21T11:47:45Z</time>
      </trkpt>
      <trkpt lat="42.97894" lon="0.69708">
        <ele>692.983</ele>
        <time>2021-07-21T11:47:43Z</time>
      </trkpt>
      <trkpt lat="42.97886" lon="0.69693">
        <ele>693.323</ele>
        <time>2021-07-21T11:47:41Z</time>
      </trkpt>
      <trkpt lat="42.97879" lon="0.69676">
        <ele>693.464</ele>
        <time>2021-07-21T11:47:39Z</time>
      </trkpt>
      <trkpt lat="42.97874" lon="0.69668">
        <ele>693.419</ele>
        <time>2021-07-21T11:47:38Z</time>
      </trkpt>
      <trkpt lat="42.97869" lon="0.6966">
        <ele>693.435</ele>
        <time>2021-07-21T11:47:37Z</time>
      </trkpt>
      <trkpt lat="42.97856" lon="0.6964">
        <ele>693.527</ele>
        <time>2021-07-21T11:47:35Z</time>
      </trkpt>
      <trkpt lat="42.97851" lon="0.6963">
        <ele>693.183</ele>
        <time>2021-07-21T11:47:34Z</time>
      </trkpt>
      <trkpt lat="42.97846" lon="0.69621">
        <ele>692.412</ele>
        <time>2021-07-21T11:47:33Z</time>
      </trkpt>
      <trkpt lat="42.97839" lon="0.69611">
        <ele>691.683</ele>
        <time>2021-07-21T11:47:31Z</time>
      </trkpt>
      <trkpt lat="42.97832" lon="0.69611">
        <ele>691.082</ele>
        <time>2021-07-21T11:47:29Z</time>
      </trkpt>
      <trkpt lat="42.97824" lon="0.69616">
        <ele>690.608</ele>
        <time>2021-07-21T11:47:27Z</time>
      </trkpt>
      <trkpt lat="42.97821" lon="0.69621">
        <ele>690.323</ele>
        <time>2021-07-21T11:47:26Z</time>
      </trkpt>
      <trkpt lat="42.97817" lon="0.69634">
        <ele>690.003</ele>
        <time>2021-07-21T11:47:24Z</time>
      </trkpt>
      <trkpt lat="42.97816" lon="0.6964">
        <ele>689.859</ele>
        <time>2021-07-21T11:47:23Z</time>
      </trkpt>
      <trkpt lat="42.97815" lon="0.69646">
        <ele>689.784</ele>
        <time>2021-07-21T11:47:22Z</time>
      </trkpt>
      <trkpt lat="42.97814" lon="0.69653">
        <ele>689.919</ele>
        <time>2021-07-21T11:47:21Z</time>
      </trkpt>
      <trkpt lat="42.97812" lon="0.69659">
        <ele>690.345</ele>
        <time>2021-07-21T11:47:20Z</time>
      </trkpt>
      <trkpt lat="42.97809" lon="0.69671">
        <ele>691.017</ele>
        <time>2021-07-21T11:47:18Z</time>
      </trkpt>
      <trkpt lat="42.97806" lon="0.69677">
        <ele>691.633</ele>
        <time>2021-07-21T11:47:17Z</time>
      </trkpt>
      <trkpt lat="42.97798" lon="0.69685">
        <ele>692.582</ele>
        <time>2021-07-21T11:47:15Z</time>
      </trkpt>
      <trkpt lat="42.97794" lon="0.69687">
        <ele>693.263</ele>
        <time>2021-07-21T11:47:14Z</time>
      </trkpt>
      <trkpt lat="42.9779" lon="0.69687">
        <ele>694.332</ele>
        <time>2021-07-21T11:47:13Z</time>
      </trkpt>
      <trkpt lat="42.97781" lon="0.69686">
        <ele>695.808</ele>
        <time>2021-07-21T11:47:11Z</time>
      </trkpt>
      <trkpt lat="42.97777" lon="0.69685">
        <ele>696.911</ele>
        <time>2021-07-21T11:47:10Z</time>
      </trkpt>
      <trkpt lat="42.97765" lon="0.69683">
        <ele>698.101</ele>
        <time>2021-07-21T11:47:08Z</time>
      </trkpt>
      <trkpt lat="42.97759" lon="0.69683">
        <ele>698.651</ele>
        <time>2021-07-21T11:47:07Z</time>
      </trkpt>
      <trkpt lat="42.97747" lon="0.69682">
        <ele>699.143</ele>
        <time>2021-07-21T11:47:05Z</time>
      </trkpt>
      <trkpt lat="42.9774" lon="0.69682">
        <ele>699.488</ele>
        <time>2021-07-21T11:47:04Z</time>
      </trkpt>
      <trkpt lat="42.97729" lon="0.69681">
        <ele>699.834</ele>
        <time>2021-07-21T11:47:02Z</time>
      </trkpt>
      <trkpt lat="42.97717" lon="0.6968">
        <ele>699.896</ele>
        <time>2021-07-21T11:47:00Z</time>
      </trkpt>
      <trkpt lat="42.97712" lon="0.6968">
        <ele>699.952</ele>
        <time>2021-07-21T11:46:59Z</time>
      </trkpt>
      <trkpt lat="42.97706" lon="0.6968">
        <ele>699.911</ele>
        <time>2021-07-21T11:46:58Z</time>
      </trkpt>
      <trkpt lat="42.97696" lon="0.6968">
        <ele>700.242</ele>
        <time>2021-07-21T11:46:56Z</time>
      </trkpt>
      <trkpt lat="42.97691" lon="0.69682">
        <ele>700.671</ele>
        <time>2021-07-21T11:46:55Z</time>
      </trkpt>
      <trkpt lat="42.97682" lon="0.69687">
        <ele>701.008</ele>
        <time>2021-07-21T11:46:53Z</time>
      </trkpt>
      <trkpt lat="42.97678" lon="0.6969">
        <ele>701.521</ele>
        <time>2021-07-21T11:46:52Z</time>
      </trkpt>
      <trkpt lat="42.9767" lon="0.69698">
        <ele>702.229</ele>
        <time>2021-07-21T11:46:50Z</time>
      </trkpt>
      <trkpt lat="42.97665" lon="0.69709">
        <ele>702.647</ele>
        <time>2021-07-21T11:46:48Z</time>
      </trkpt>
      <trkpt lat="42.97662" lon="0.69714">
        <ele>702.814</ele>
        <time>2021-07-21T11:46:47Z</time>
      </trkpt>
      <trkpt lat="42.97656" lon="0.69722">
        <ele>702.739</ele>
        <time>2021-07-21T11:46:45Z</time>
      </trkpt>
      <trkpt lat="42.97652" lon="0.6973">
        <ele>701.985</ele>
        <time>2021-07-21T11:46:43Z</time>
      </trkpt>
      <trkpt lat="42.97647" lon="0.69737">
        <ele>700.997</ele>
        <time>2021-07-21T11:46:41Z</time>
      </trkpt>
      <trkpt lat="42.97642" lon="0.69743">
        <ele>700.223</ele>
        <time>2021-07-21T11:46:39Z</time>
      </trkpt>
      <trkpt lat="42.97638" lon="0.69752">
        <ele>700.292</ele>
        <time>2021-07-21T11:46:37Z</time>
      </trkpt>
      <trkpt lat="42.97632" lon="0.69764">
        <ele>700.563</ele>
        <time>2021-07-21T11:46:35Z</time>
      </trkpt>
      <trkpt lat="42.97629" lon="0.69771">
        <ele>701.152</ele>
        <time>2021-07-21T11:46:34Z</time>
      </trkpt>
      <trkpt lat="42.97625" lon="0.69777">
        <ele>701.708</ele>
        <time>2021-07-21T11:46:33Z</time>
      </trkpt>
      <trkpt lat="42.97618" lon="0.69791">
        <ele>702.423</ele>
        <time>2021-07-21T11:46:31Z</time>
      </trkpt>
      <trkpt lat="42.9761" lon="0.69804">
        <ele>702.603</ele>
        <time>2021-07-21T11:46:29Z</time>
      </trkpt>
      <trkpt lat="42.97607" lon="0.69809">
        <ele>702.459</ele>
        <time>2021-07-21T11:46:28Z</time>
      </trkpt>
      <trkpt lat="42.97601" lon="0.69817">
        <ele>702.164</ele>
        <time>2021-07-21T11:46:26Z</time>
      </trkpt>
      <trkpt lat="42.97598" lon="0.69823">
        <ele>701.839</ele>
        <time>2021-07-21T11:46:25Z</time>
      </trkpt>
      <trkpt lat="42.97591" lon="0.69834">
        <ele>701.535</ele>
        <time>2021-07-21T11:46:23Z</time>
      </trkpt>
      <trkpt lat="42.97585" lon="0.69847">
        <ele>701.537</ele>
        <time>2021-07-21T11:46:21Z</time>
      </trkpt>
      <trkpt lat="42.97582" lon="0.69853">
        <ele>701.743</ele>
        <time>2021-07-21T11:46:20Z</time>
      </trkpt>
      <trkpt lat="42.97578" lon="0.69859">
        <ele>702.132</ele>
        <time>2021-07-21T11:46:19Z</time>
      </trkpt>
      <trkpt lat="42.97572" lon="0.69869">
        <ele>702.793</ele>
        <time>2021-07-21T11:46:17Z</time>
      </trkpt>
      <trkpt lat="42.97568" lon="0.69875">
        <ele>703.252</ele>
        <time>2021-07-21T11:46:16Z</time>
      </trkpt>
      <trkpt lat="42.97561" lon="0.69884">
        <ele>703.908</ele>
        <time>2021-07-21T11:46:14Z</time>
      </trkpt>
      <trkpt lat="42.97558" lon="0.6989">
        <ele>704.608</ele>
        <time>2021-07-21T11:46:13Z</time>
      </trkpt>
      <trkpt lat="42.97551" lon="0.69901">
        <ele>705.453</ele>
        <time>2021-07-21T11:46:11Z</time>
      </trkpt>
      <trkpt lat="42.97543" lon="0.69912">
        <ele>705.852</ele>
        <time>2021-07-21T11:46:09Z</time>
      </trkpt>
      <trkpt lat="42.97535" lon="0.69924">
        <ele>706.434</ele>
        <time>2021-07-21T11:46:07Z</time>
      </trkpt>
      <trkpt lat="42.97527" lon="0.69936">
        <ele>706.969</ele>
        <time>2021-07-21T11:46:05Z</time>
      </trkpt>
      <trkpt lat="42.97518" lon="0.69946">
        <ele>707.085</ele>
        <time>2021-07-21T11:46:03Z</time>
      </trkpt>
      <trkpt lat="42.97508" lon="0.69953">
        <ele>707.097</ele>
        <time>2021-07-21T11:46:01Z</time>
      </trkpt>
      <trkpt lat="42.97498" lon="0.69958">
        <ele>706.943</ele>
        <time>2021-07-21T11:45:59Z</time>
      </trkpt>
      <trkpt lat="42.97493" lon="0.69961">
        <ele>706.772</ele>
        <time>2021-07-21T11:45:58Z</time>
      </trkpt>
      <trkpt lat="42.97483" lon="0.69968">
        <ele>706.413</ele>
        <time>2021-07-21T11:45:56Z</time>
      </trkpt>
      <trkpt lat="42.97477" lon="0.69969">
        <ele>706.332</ele>
        <time>2021-07-21T11:45:55Z</time>
      </trkpt>
      <trkpt lat="42.97469" lon="0.69976">
        <ele>706.408</ele>
        <time>2021-07-21T11:45:53Z</time>
      </trkpt>
      <trkpt lat="42.97465" lon="0.6998">
        <ele>706.514</ele>
        <time>2021-07-21T11:45:52Z</time>
      </trkpt>
      <trkpt lat="42.97457" lon="0.6999">
        <ele>706.759</ele>
        <time>2021-07-21T11:45:50Z</time>
      </trkpt>
      <trkpt lat="42.97451" lon="0.69993">
        <ele>707.056</ele>
        <time>2021-07-21T11:45:49Z</time>
      </trkpt>
      <trkpt lat="42.97441" lon="0.69998">
        <ele>706.955</ele>
        <time>2021-07-21T11:45:47Z</time>
      </trkpt>
      <trkpt lat="42.97437" lon="0.70001">
        <ele>706.86</ele>
        <time>2021-07-21T11:45:46Z</time>
      </trkpt>
      <trkpt lat="42.97424" lon="0.70004">
        <ele>706.866</ele>
        <time>2021-07-21T11:45:44Z</time>
      </trkpt>
      <trkpt lat="42.97419" lon="0.70005">
        <ele>705.738</ele>
        <time>2021-07-21T11:45:43Z</time>
      </trkpt>
      <trkpt lat="42.97408" lon="0.70007">
        <ele>704.644</ele>
        <time>2021-07-21T11:45:41Z</time>
      </trkpt>
      <trkpt lat="42.97398" lon="0.70008">
        <ele>703.693</ele>
        <time>2021-07-21T11:45:39Z</time>
      </trkpt>
      <trkpt lat="42.97385" lon="0.70006">
        <ele>702.474</ele>
        <time>2021-07-21T11:45:37Z</time>
      </trkpt>
      <trkpt lat="42.97374" lon="0.70006">
        <ele>701.323</ele>
        <time>2021-07-21T11:45:35Z</time>
      </trkpt>
      <trkpt lat="42.97369" lon="0.70007">
        <ele>700.108</ele>
        <time>2021-07-21T11:45:34Z</time>
      </trkpt>
      <trkpt lat="42.9736" lon="0.70008">
        <ele>698.521</ele>
        <time>2021-07-21T11:45:32Z</time>
      </trkpt>
      <trkpt lat="42.97355" lon="0.70009">
        <ele>697.029</ele>
        <time>2021-07-21T11:45:31Z</time>
      </trkpt>
      <trkpt lat="42.97345" lon="0.70009">
        <ele>695.066</ele>
        <time>2021-07-21T11:45:29Z</time>
      </trkpt>
      <trkpt lat="42.97338" lon="0.70009">
        <ele>693.343</ele>
        <time>2021-07-21T11:45:27Z</time>
      </trkpt>
      <trkpt lat="42.97332" lon="0.70009">
        <ele>691.848</ele>
        <time>2021-07-21T11:45:25Z</time>
      </trkpt>
      <trkpt lat="42.97327" lon="0.70011">
        <ele>691.084</ele>
        <time>2021-07-21T11:45:22Z</time>
      </trkpt>
      <trkpt lat="42.97322" lon="0.70018">
        <ele>690.776</ele>
        <time>2021-07-21T11:45:20Z</time>
      </trkpt>
      <trkpt lat="42.9732" lon="0.70024">
        <ele>690.552</ele>
        <time>2021-07-21T11:45:19Z</time>
      </trkpt>
      <trkpt lat="42.97317" lon="0.70038">
        <ele>690.391</ele>
        <time>2021-07-21T11:45:17Z</time>
      </trkpt>
      <trkpt lat="42.97317" lon="0.70051">
        <ele>690.382</ele>
        <time>2021-07-21T11:45:15Z</time>
      </trkpt>
      <trkpt lat="42.97317" lon="0.70058">
        <ele>690.551</ele>
        <time>2021-07-21T11:45:14Z</time>
      </trkpt>
      <trkpt lat="42.97315" lon="0.70064">
        <ele>690.408</ele>
        <time>2021-07-21T11:45:13Z</time>
      </trkpt>
      <trkpt lat="42.9731" lon="0.70079">
        <ele>690.416</ele>
        <time>2021-07-21T11:45:11Z</time>
      </trkpt>
      <trkpt lat="42.97303" lon="0.70091">
        <ele>690.188</ele>
        <time>2021-07-21T11:45:09Z</time>
      </trkpt>
      <trkpt lat="42.97294" lon="0.70104">
        <ele>689.446</ele>
        <time>2021-07-21T11:45:07Z</time>
      </trkpt>
      <trkpt lat="42.97286" lon="0.70116">
        <ele>688.628</ele>
        <time>2021-07-21T11:45:05Z</time>
      </trkpt>
      <trkpt lat="42.97278" lon="0.70126">
        <ele>687.613</ele>
        <time>2021-07-21T11:45:03Z</time>
      </trkpt>
      <trkpt lat="42.97274" lon="0.7013">
        <ele>687.329</ele>
        <time>2021-07-21T11:45:02Z</time>
      </trkpt>
      <trkpt lat="42.9727" lon="0.70134">
        <ele>687.431</ele>
        <time>2021-07-21T11:45:01Z</time>
      </trkpt>
      <trkpt lat="42.97263" lon="0.70144">
        <ele>687.797</ele>
        <time>2021-07-21T11:44:59Z</time>
      </trkpt>
      <trkpt lat="42.97259" lon="0.70156">
        <ele>688.366</ele>
        <time>2021-07-21T11:44:57Z</time>
      </trkpt>
      <trkpt lat="42.97257" lon="0.70162">
        <ele>689.197</ele>
        <time>2021-07-21T11:44:56Z</time>
      </trkpt>
      <trkpt lat="42.97256" lon="0.70168">
        <ele>690.016</ele>
        <time>2021-07-21T11:44:55Z</time>
      </trkpt>
      <trkpt lat="42.97253" lon="0.70181">
        <ele>691.208</ele>
        <time>2021-07-21T11:44:53Z</time>
      </trkpt>
      <trkpt lat="42.9725" lon="0.70193">
        <ele>692.619</ele>
        <time>2021-07-21T11:44:51Z</time>
      </trkpt>
      <trkpt lat="42.97248" lon="0.70206">
        <ele>693.981</ele>
        <time>2021-07-21T11:44:49Z</time>
      </trkpt>
      <trkpt lat="42.97246" lon="0.70219">
        <ele>695.391</ele>
        <time>2021-07-21T11:44:47Z</time>
      </trkpt>
      <trkpt lat="42.97246" lon="0.70232">
        <ele>696.418</ele>
        <time>2021-07-21T11:44:45Z</time>
      </trkpt>
      <trkpt lat="42.97245" lon="0.70239">
        <ele>697.283</ele>
        <time>2021-07-21T11:44:44Z</time>
      </trkpt>
      <trkpt lat="42.97244" lon="0.70246">
        <ele>698.139</ele>
        <time>2021-07-21T11:44:43Z</time>
      </trkpt>
      <trkpt lat="42.97242" lon="0.70259">
        <ele>699.141</ele>
        <time>2021-07-21T11:44:41Z</time>
      </trkpt>
      <trkpt lat="42.97242" lon="0.70271">
        <ele>700.077</ele>
        <time>2021-07-21T11:44:39Z</time>
      </trkpt>
      <trkpt lat="42.97242" lon="0.70282">
        <ele>701.196</ele>
        <time>2021-07-21T11:44:37Z</time>
      </trkpt>
      <trkpt lat="42.97242" lon="0.70295">
        <ele>702.457</ele>
        <time>2021-07-21T11:44:35Z</time>
      </trkpt>
      <trkpt lat="42.97242" lon="0.70308">
        <ele>703.366</ele>
        <time>2021-07-21T11:44:33Z</time>
      </trkpt>
      <trkpt lat="42.9724" lon="0.70321">
        <ele>703.408</ele>
        <time>2021-07-21T11:44:31Z</time>
      </trkpt>
      <trkpt lat="42.97238" lon="0.70335">
        <ele>703.027</ele>
        <time>2021-07-21T11:44:29Z</time>
      </trkpt>
      <trkpt lat="42.97236" lon="0.70349">
        <ele>702.307</ele>
        <time>2021-07-21T11:44:27Z</time>
      </trkpt>
      <trkpt lat="42.97234" lon="0.70361">
        <ele>701.699</ele>
        <time>2021-07-21T11:44:25Z</time>
      </trkpt>
      <trkpt lat="42.97235" lon="0.70374">
        <ele>701.198</ele>
        <time>2021-07-21T11:44:23Z</time>
      </trkpt>
      <trkpt lat="42.97235" lon="0.70385">
        <ele>700.933</ele>
        <time>2021-07-21T11:44:21Z</time>
      </trkpt>
      <trkpt lat="42.97236" lon="0.70394">
        <ele>701.169</ele>
        <time>2021-07-21T11:44:19Z</time>
      </trkpt>
      <trkpt lat="42.97235" lon="0.70404">
        <ele>701.181</ele>
        <time>2021-07-21T11:44:17Z</time>
      </trkpt>
      <trkpt lat="42.97237" lon="0.70411">
        <ele>700.367</ele>
        <time>2021-07-21T11:44:15Z</time>
      </trkpt>
      <trkpt lat="42.97239" lon="0.70421">
        <ele>699.426</ele>
        <time>2021-07-21T11:44:13Z</time>
      </trkpt>
      <trkpt lat="42.97242" lon="0.70433">
        <ele>698.977</ele>
        <time>2021-07-21T11:44:11Z</time>
      </trkpt>
      <trkpt lat="42.97244" lon="0.70445">
        <ele>698.686</ele>
        <time>2021-07-21T11:44:09Z</time>
      </trkpt>
      <trkpt lat="42.97246" lon="0.70451">
        <ele>698.108</ele>
        <time>2021-07-21T11:44:08Z</time>
      </trkpt>
      <trkpt lat="42.97248" lon="0.70461">
        <ele>697.321</ele>
        <time>2021-07-21T11:44:06Z</time>
      </trkpt>
      <trkpt lat="42.97249" lon="0.70471">
        <ele>696.565</ele>
        <time>2021-07-21T11:44:04Z</time>
      </trkpt>
      <trkpt lat="42.97249" lon="0.70482">
        <ele>696.293</ele>
        <time>2021-07-21T11:44:02Z</time>
      </trkpt>
      <trkpt lat="42.97249" lon="0.70494">
        <ele>695.832</ele>
        <time>2021-07-21T11:44:00Z</time>
      </trkpt>
      <trkpt lat="42.97247" lon="0.70506">
        <ele>695.697</ele>
        <time>2021-07-21T11:43:58Z</time>
      </trkpt>
      <trkpt lat="42.97244" lon="0.70516">
        <ele>695.713</ele>
        <time>2021-07-21T11:43:56Z</time>
      </trkpt>
      <trkpt lat="42.9724" lon="0.70526">
        <ele>695.855</ele>
        <time>2021-07-21T11:43:54Z</time>
      </trkpt>
      <trkpt lat="42.97236" lon="0.70536">
        <ele>696.131</ele>
        <time>2021-07-21T11:43:52Z</time>
      </trkpt>
      <trkpt lat="42.97232" lon="0.70546">
        <ele>696.49</ele>
        <time>2021-07-21T11:43:50Z</time>
      </trkpt>
      <trkpt lat="42.9723" lon="0.70551">
        <ele>696.791</ele>
        <time>2021-07-21T11:43:49Z</time>
      </trkpt>
      <trkpt lat="42.97224" lon="0.7056">
        <ele>697.18</ele>
        <time>2021-07-21T11:43:47Z</time>
      </trkpt>
      <trkpt lat="42.97218" lon="0.70568">
        <ele>697.808</ele>
        <time>2021-07-21T11:43:45Z</time>
      </trkpt>
      <trkpt lat="42.97213" lon="0.70576">
        <ele>698.221</ele>
        <time>2021-07-21T11:43:43Z</time>
      </trkpt>
      <trkpt lat="42.97208" lon="0.70584">
        <ele>698.201</ele>
        <time>2021-07-21T11:43:41Z</time>
      </trkpt>
      <trkpt lat="42.97203" lon="0.70593">
        <ele>698.339</ele>
        <time>2021-07-21T11:43:39Z</time>
      </trkpt>
      <trkpt lat="42.97199" lon="0.70601">
        <ele>698.447</ele>
        <time>2021-07-21T11:43:37Z</time>
      </trkpt>
      <trkpt lat="42.97196" lon="0.70607">
        <ele>697.992</ele>
        <time>2021-07-21T11:43:35Z</time>
      </trkpt>
      <trkpt lat="42.97191" lon="0.70612">
        <ele>697.348</ele>
        <time>2021-07-21T11:43:33Z</time>
      </trkpt>
      <trkpt lat="42.97187" lon="0.70617">
        <ele>697.31</ele>
        <time>2021-07-21T11:43:31Z</time>
      </trkpt>
      <trkpt lat="42.97183" lon="0.70624">
        <ele>698.036</ele>
        <time>2021-07-21T11:43:29Z</time>
      </trkpt>
      <trkpt lat="42.97179" lon="0.70632">
        <ele>698.865</ele>
        <time>2021-07-21T11:43:27Z</time>
      </trkpt>
      <trkpt lat="42.97175" lon="0.70641">
        <ele>699.536</ele>
        <time>2021-07-21T11:43:25Z</time>
      </trkpt>
      <trkpt lat="42.97172" lon="0.70653">
        <ele>700.055</ele>
        <time>2021-07-21T11:43:23Z</time>
      </trkpt>
      <trkpt lat="42.9717" lon="0.70659">
        <ele>699.808</ele>
        <time>2021-07-21T11:43:22Z</time>
      </trkpt>
      <trkpt lat="42.97168" lon="0.70666">
        <ele>699.426</ele>
        <time>2021-07-21T11:43:21Z</time>
      </trkpt>
      <trkpt lat="42.97165" lon="0.70678">
        <ele>698.724</ele>
        <time>2021-07-21T11:43:19Z</time>
      </trkpt>
      <trkpt lat="42.97163" lon="0.70689">
        <ele>697.188</ele>
        <time>2021-07-21T11:43:17Z</time>
      </trkpt>
      <trkpt lat="42.9716" lon="0.707">
        <ele>695.457</ele>
        <time>2021-07-21T11:43:15Z</time>
      </trkpt>
      <trkpt lat="42.97157" lon="0.70708">
        <ele>693.972</ele>
        <time>2021-07-21T11:43:13Z</time>
      </trkpt>
      <trkpt lat="42.97154" lon="0.70713">
        <ele>692.838</ele>
        <time>2021-07-21T11:43:11Z</time>
      </trkpt>
      <trkpt lat="42.97151" lon="0.7072">
        <ele>692.04</ele>
        <time>2021-07-21T11:43:09Z</time>
      </trkpt>
      <trkpt lat="42.97148" lon="0.70728">
        <ele>691.566</ele>
        <time>2021-07-21T11:43:06Z</time>
      </trkpt>
      <trkpt lat="42.97148" lon="0.70735">
        <ele>691.485</ele>
        <time>2021-07-21T11:41:20Z</time>
      </trkpt>
      <trkpt lat="42.97147" lon="0.70742">
        <ele>692.256</ele>
        <time>2021-07-21T11:41:17Z</time>
      </trkpt>
      <trkpt lat="42.97143" lon="0.70748">
        <ele>693.415</ele>
        <time>2021-07-21T11:41:14Z</time>
      </trkpt>
      <trkpt lat="42.97139" lon="0.70752">
        <ele>694.708</ele>
        <time>2021-07-21T11:41:12Z</time>
      </trkpt>
      <trkpt lat="42.97134" lon="0.70763">
        <ele>696.017</ele>
        <time>2021-07-21T11:41:05Z</time>
      </trkpt>
      <trkpt lat="42.97134" lon="0.7077">
        <ele>696.889</ele>
        <time>2021-07-21T11:41:03Z</time>
      </trkpt>
      <trkpt lat="42.97137" lon="0.70778">
        <ele>698.385</ele>
        <time>2021-07-21T11:41:01Z</time>
      </trkpt>
      <trkpt lat="42.97142" lon="0.70782">
        <ele>700.284</ele>
        <time>2021-07-21T11:40:59Z</time>
      </trkpt>
      <trkpt lat="42.97149" lon="0.70783">
        <ele>702.949</ele>
        <time>2021-07-21T11:40:57Z</time>
      </trkpt>
      <trkpt lat="42.97153" lon="0.70786">
        <ele>705.565</ele>
        <time>2021-07-21T11:40:55Z</time>
      </trkpt>
      <trkpt lat="42.97158" lon="0.70792">
        <ele>707.967</ele>
        <time>2021-07-21T11:40:53Z</time>
      </trkpt>
      <trkpt lat="42.97164" lon="0.70801">
        <ele>710.653</ele>
        <time>2021-07-21T11:40:51Z</time>
      </trkpt>
      <trkpt lat="42.9717" lon="0.70808">
        <ele>712.942</ele>
        <time>2021-07-21T11:40:49Z</time>
      </trkpt>
      <trkpt lat="42.97175" lon="0.70814">
        <ele>715.233</ele>
        <time>2021-07-21T11:40:47Z</time>
      </trkpt>
      <trkpt lat="42.97179" lon="0.70821">
        <ele>717.492</ele>
        <time>2021-07-21T11:40:45Z</time>
      </trkpt>
      <trkpt lat="42.97185" lon="0.70829">
        <ele>719.608</ele>
        <time>2021-07-21T11:40:43Z</time>
      </trkpt>
      <trkpt lat="42.97189" lon="0.70836">
        <ele>721.717</ele>
        <time>2021-07-21T11:40:41Z</time>
      </trkpt>
      <trkpt lat="42.97192" lon="0.70845">
        <ele>723.107</ele>
        <time>2021-07-21T11:40:39Z</time>
      </trkpt>
      <trkpt lat="42.97194" lon="0.70853">
        <ele>724.855</ele>
        <time>2021-07-21T11:40:37Z</time>
      </trkpt>
      <trkpt lat="42.97196" lon="0.70859">
        <ele>726.537</ele>
        <time>2021-07-21T11:40:35Z</time>
      </trkpt>
      <trkpt lat="42.972" lon="0.70866">
        <ele>728.962</ele>
        <time>2021-07-21T11:40:33Z</time>
      </trkpt>
      <trkpt lat="42.97204" lon="0.70874">
        <ele>731.688</ele>
        <time>2021-07-21T11:40:31Z</time>
      </trkpt>
      <trkpt lat="42.97207" lon="0.70884">
        <ele>734.74</ele>
        <time>2021-07-21T11:40:29Z</time>
      </trkpt>
      <trkpt lat="42.97211" lon="0.70893">
        <ele>737.816</ele>
        <time>2021-07-21T11:40:27Z</time>
      </trkpt>
      <trkpt lat="42.97215" lon="0.70904">
        <ele>740.465</ele>
        <time>2021-07-21T11:40:25Z</time>
      </trkpt>
      <trkpt lat="42.9722" lon="0.70916">
        <ele>742.396</ele>
        <time>2021-07-21T11:40:23Z</time>
      </trkpt>
      <trkpt lat="42.97223" lon="0.70927">
        <ele>743.515</ele>
        <time>2021-07-21T11:40:21Z</time>
      </trkpt>
      <trkpt lat="42.97225" lon="0.70938">
        <ele>744.108</ele>
        <time>2021-07-21T11:40:19Z</time>
      </trkpt>
      <trkpt lat="42.97227" lon="0.70946">
        <ele>744.417</ele>
        <time>2021-07-21T11:40:17Z</time>
      </trkpt>
      <trkpt lat="42.97228" lon="0.70952">
        <ele>745.289</ele>
        <time>2021-07-21T11:40:15Z</time>
      </trkpt>
      <trkpt lat="42.9723" lon="0.7096">
        <ele>746.685</ele>
        <time>2021-07-21T11:40:13Z</time>
      </trkpt>
      <trkpt lat="42.9723" lon="0.70968">
        <ele>748.575</ele>
        <time>2021-07-21T11:40:11Z</time>
      </trkpt>
      <trkpt lat="42.9723" lon="0.70979">
        <ele>750.13</ele>
        <time>2021-07-21T11:40:09Z</time>
      </trkpt>
      <trkpt lat="42.9723" lon="0.7099">
        <ele>751.246</ele>
        <time>2021-07-21T11:40:07Z</time>
      </trkpt>
      <trkpt lat="42.97228" lon="0.71">
        <ele>752.398</ele>
        <time>2021-07-21T11:40:05Z</time>
      </trkpt>
      <trkpt lat="42.97226" lon="0.71009">
        <ele>753.844</ele>
        <time>2021-07-21T11:40:03Z</time>
      </trkpt>
      <trkpt lat="42.97225" lon="0.71021">
        <ele>755.323</ele>
        <time>2021-07-21T11:40:01Z</time>
      </trkpt>
      <trkpt lat="42.97223" lon="0.71026">
        <ele>756.564</ele>
        <time>2021-07-21T11:40:00Z</time>
      </trkpt>
      <trkpt lat="42.97221" lon="0.71037">
        <ele>757.913</ele>
        <time>2021-07-21T11:39:58Z</time>
      </trkpt>
      <trkpt lat="42.97218" lon="0.71047">
        <ele>759.308</ele>
        <time>2021-07-21T11:39:55Z</time>
      </trkpt>
      <trkpt lat="42.97218" lon="0.71054">
        <ele>760.526</ele>
        <time>2021-07-21T11:39:53Z</time>
      </trkpt>
      <trkpt lat="42.97217" lon="0.7106">
        <ele>761.342</ele>
        <time>2021-07-21T11:39:51Z</time>
      </trkpt>
      <trkpt lat="42.97215" lon="0.71068">
        <ele>762.268</ele>
        <time>2021-07-21T11:39:49Z</time>
      </trkpt>
      <trkpt lat="42.97212" lon="0.71077">
        <ele>763.127</ele>
        <time>2021-07-21T11:39:47Z</time>
      </trkpt>
      <trkpt lat="42.9721" lon="0.71083">
        <ele>763.922</ele>
        <time>2021-07-21T11:39:46Z</time>
      </trkpt>
      <trkpt lat="42.97207" lon="0.71093">
        <ele>764.978</ele>
        <time>2021-07-21T11:39:44Z</time>
      </trkpt>
      <trkpt lat="42.97206" lon="0.71101">
        <ele>765.75</ele>
        <time>2021-07-21T11:39:42Z</time>
      </trkpt>
      <trkpt lat="42.97204" lon="0.7111">
        <ele>766.266</ele>
        <time>2021-07-21T11:39:40Z</time>
      </trkpt>
      <trkpt lat="42.97202" lon="0.71117">
        <ele>766.125</ele>
        <time>2021-07-21T11:39:38Z</time>
      </trkpt>
      <trkpt lat="42.97201" lon="0.71127">
        <ele>766.266</ele>
        <time>2021-07-21T11:39:35Z</time>
      </trkpt>
      <trkpt lat="42.97197" lon="0.71134">
        <ele>766.385</ele>
        <time>2021-07-21T11:39:32Z</time>
      </trkpt>
      <trkpt lat="42.97194" lon="0.7114">
        <ele>766.708</ele>
        <time>2021-07-21T11:39:30Z</time>
      </trkpt>
      <trkpt lat="42.97191" lon="0.71148">
        <ele>767.117</ele>
        <time>2021-07-21T11:39:28Z</time>
      </trkpt>
      <trkpt lat="42.97188" lon="0.71155">
        <ele>767.607</ele>
        <time>2021-07-21T11:39:26Z</time>
      </trkpt>
      <trkpt lat="42.97184" lon="0.7116">
        <ele>768.284</ele>
        <time>2021-07-21T11:39:23Z</time>
      </trkpt>
      <trkpt lat="42.97181" lon="0.71165">
        <ele>768.695</ele>
        <time>2021-07-21T11:39:21Z</time>
      </trkpt>
      <trkpt lat="42.97178" lon="0.71171">
        <ele>769.03</ele>
        <time>2021-07-21T11:39:19Z</time>
      </trkpt>
      <trkpt lat="42.97176" lon="0.71178">
        <ele>769.476</ele>
        <time>2021-07-21T11:39:15Z</time>
      </trkpt>
      <trkpt lat="42.97174" lon="0.71185">
        <ele>770.148</ele>
        <time>2021-07-21T11:39:11Z</time>
      </trkpt>
      <trkpt lat="42.97172" lon="0.71192">
        <ele>771.074</ele>
        <time>2021-07-21T11:39:08Z</time>
      </trkpt>
      <trkpt lat="42.97171" lon="0.71198">
        <ele>771.973</ele>
        <time>2021-07-21T11:39:06Z</time>
      </trkpt>
      <trkpt lat="42.97169" lon="0.71207">
        <ele>772.934</ele>
        <time>2021-07-21T11:39:03Z</time>
      </trkpt>
      <trkpt lat="42.97165" lon="0.71214">
        <ele>773.863</ele>
        <time>2021-07-21T11:38:55Z</time>
      </trkpt>
      <trkpt lat="42.97157" lon="0.71221">
        <ele>774.508</ele>
        <time>2021-07-21T11:38:26Z</time>
      </trkpt>
      <trkpt lat="42.97158" lon="0.71228">
        <ele>775.424</ele>
        <time>2021-07-21T11:38:23Z</time>
      </trkpt>
      <trkpt lat="42.97159" lon="0.71236">
        <ele>776.004</ele>
        <time>2021-07-21T11:38:21Z</time>
      </trkpt>
      <trkpt lat="42.97159" lon="0.71242">
        <ele>776.769</ele>
        <time>2021-07-21T11:38:19Z</time>
      </trkpt>
      <trkpt lat="42.97159" lon="0.71249">
        <ele>777.593</ele>
        <time>2021-07-21T11:38:17Z</time>
      </trkpt>
      <trkpt lat="42.97158" lon="0.71256">
        <ele>779.098</ele>
        <time>2021-07-21T11:38:14Z</time>
      </trkpt>
      <trkpt lat="42.97155" lon="0.71264">
        <ele>780.434</ele>
        <time>2021-07-21T11:38:11Z</time>
      </trkpt>
      <trkpt lat="42.97152" lon="0.71269">
        <ele>781.596</ele>
        <time>2021-07-21T11:38:09Z</time>
      </trkpt>
      <trkpt lat="42.97148" lon="0.71274">
        <ele>782.652</ele>
        <time>2021-07-21T11:38:07Z</time>
      </trkpt>
      <trkpt lat="42.97144" lon="0.7128">
        <ele>783.661</ele>
        <time>2021-07-21T11:38:05Z</time>
      </trkpt>
      <trkpt lat="42.97139" lon="0.71285">
        <ele>784.232</ele>
        <time>2021-07-21T11:38:02Z</time>
      </trkpt>
      <trkpt lat="42.97138" lon="0.71294">
        <ele>784.641</ele>
        <time>2021-07-21T11:37:59Z</time>
      </trkpt>
      <trkpt lat="42.97136" lon="0.71301">
        <ele>784.608</ele>
        <time>2021-07-21T11:37:57Z</time>
      </trkpt>
      <trkpt lat="42.97133" lon="0.71307">
        <ele>784.517</ele>
        <time>2021-07-21T11:37:55Z</time>
      </trkpt>
      <trkpt lat="42.97131" lon="0.71314">
        <ele>784.361</ele>
        <time>2021-07-21T11:37:52Z</time>
      </trkpt>
      <trkpt lat="42.9713" lon="0.71321">
        <ele>784.148</ele>
        <time>2021-07-21T11:37:41Z</time>
      </trkpt>
      <trkpt lat="42.97132" lon="0.71332">
        <ele>784.54</ele>
        <time>2021-07-21T11:37:31Z</time>
      </trkpt>
      <trkpt lat="42.97132" lon="0.71339">
        <ele>785.115</ele>
        <time>2021-07-21T11:37:29Z</time>
      </trkpt>
      <trkpt lat="42.97128" lon="0.71343">
        <ele>785.951</ele>
        <time>2021-07-21T11:37:27Z</time>
      </trkpt>
      <trkpt lat="42.97121" lon="0.71343">
        <ele>787.053</ele>
        <time>2021-07-21T11:37:25Z</time>
      </trkpt>
      <trkpt lat="42.97114" lon="0.71339">
        <ele>788.149</ele>
        <time>2021-07-21T11:37:23Z</time>
      </trkpt>
      <trkpt lat="42.97109" lon="0.71333">
        <ele>789.498</ele>
        <time>2021-07-21T11:37:21Z</time>
      </trkpt>
      <trkpt lat="42.97104" lon="0.71326">
        <ele>790.829</ele>
        <time>2021-07-21T11:37:19Z</time>
      </trkpt>
      <trkpt lat="42.97103" lon="0.71318">
        <ele>792.158</ele>
        <time>2021-07-21T11:37:17Z</time>
      </trkpt>
      <trkpt lat="42.97105" lon="0.71309">
        <ele>793.308</ele>
        <time>2021-07-21T11:37:15Z</time>
      </trkpt>
      <trkpt lat="42.97107" lon="0.713">
        <ele>794.907</ele>
        <time>2021-07-21T11:37:13Z</time>
      </trkpt>
      <trkpt lat="42.97106" lon="0.71291">
        <ele>796.743</ele>
        <time>2021-07-21T11:37:11Z</time>
      </trkpt>
      <trkpt lat="42.97101" lon="0.71284">
        <ele>798.713</ele>
        <time>2021-07-21T11:37:09Z</time>
      </trkpt>
      <trkpt lat="42.97094" lon="0.71278">
        <ele>800.775</ele>
        <time>2021-07-21T11:37:07Z</time>
      </trkpt>
      <trkpt lat="42.97088" lon="0.71269">
        <ele>802.87</ele>
        <time>2021-07-21T11:37:05Z</time>
      </trkpt>
      <trkpt lat="42.97083" lon="0.71261">
        <ele>804.736</ele>
        <time>2021-07-21T11:37:03Z</time>
      </trkpt>
      <trkpt lat="42.97078" lon="0.71257">
        <ele>806.398</ele>
        <time>2021-07-21T11:37:01Z</time>
      </trkpt>
      <trkpt lat="42.97075" lon="0.71261">
        <ele>807.644</ele>
        <time>2021-07-21T11:36:59Z</time>
      </trkpt>
      <trkpt lat="42.97071" lon="0.71266">
        <ele>809.013</ele>
        <time>2021-07-21T11:36:57Z</time>
      </trkpt>
      <trkpt lat="42.97067" lon="0.71263">
        <ele>810.424</ele>
        <time>2021-07-21T11:36:55Z</time>
      </trkpt>
      <trkpt lat="42.97064" lon="0.71256">
        <ele>812.043</ele>
        <time>2021-07-21T11:36:53Z</time>
      </trkpt>
      <trkpt lat="42.97062" lon="0.71248">
        <ele>813.608</ele>
        <time>2021-07-21T11:36:51Z</time>
      </trkpt>
      <trkpt lat="42.97058" lon="0.71241">
        <ele>815.116</ele>
        <time>2021-07-21T11:36:49Z</time>
      </trkpt>
      <trkpt lat="42.97056" lon="0.71236">
        <ele>816.506</ele>
        <time>2021-07-21T11:36:47Z</time>
      </trkpt>
      <trkpt lat="42.97052" lon="0.71232">
        <ele>818.164</ele>
        <time>2021-07-21T11:36:45Z</time>
      </trkpt>
      <trkpt lat="42.97046" lon="0.71228">
        <ele>820.047</ele>
        <time>2021-07-21T11:36:39Z</time>
      </trkpt>
      <trkpt lat="42.97041" lon="0.71232">
        <ele>821.752</ele>
        <time>2021-07-21T11:36:36Z</time>
      </trkpt>
      <trkpt lat="42.97035" lon="0.71234">
        <ele>823.698</ele>
        <time>2021-07-21T11:36:33Z</time>
      </trkpt>
      <trkpt lat="42.9703" lon="0.71228">
        <ele>826.18</ele>
        <time>2021-07-21T11:36:09Z</time>
      </trkpt>
      <trkpt lat="42.97025" lon="0.71225">
        <ele>828.576</ele>
        <time>2021-07-21T11:36:06Z</time>
      </trkpt>
      <trkpt lat="42.97021" lon="0.71226">
        <ele>830.975</ele>
        <time>2021-07-21T11:36:03Z</time>
      </trkpt>
      <trkpt lat="42.97017" lon="0.71221">
        <ele>833.566</ele>
        <time>2021-07-21T11:36:00Z</time>
      </trkpt>
      <trkpt lat="42.97014" lon="0.71216">
        <ele>836.585</ele>
        <time>2021-07-21T11:35:58Z</time>
      </trkpt>
      <trkpt lat="42.97009" lon="0.7121">
        <ele>840.508</ele>
        <time>2021-07-21T11:35:55Z</time>
      </trkpt>
      <trkpt lat="42.97003" lon="0.71207">
        <ele>844.526</ele>
        <time>2021-07-21T11:35:51Z</time>
      </trkpt>
      <trkpt lat="42.96999" lon="0.71211">
        <ele>848.542</ele>
        <time>2021-07-21T11:35:49Z</time>
      </trkpt>
      <trkpt lat="42.96992" lon="0.71218">
        <ele>852.587</ele>
        <time>2021-07-21T11:35:47Z</time>
      </trkpt>
      <trkpt lat="42.96981" lon="0.71226">
        <ele>856.588</ele>
        <time>2021-07-21T11:35:45Z</time>
      </trkpt>
      <trkpt lat="42.96974" lon="0.7123">
        <ele>860.573</ele>
        <time>2021-07-21T11:35:44Z</time>
      </trkpt>
      <trkpt lat="42.96966" lon="0.71234">
        <ele>864.519</ele>
        <time>2021-07-21T11:35:43Z</time>
      </trkpt>
      <trkpt lat="42.96947" lon="0.71236">
        <ele>868.531</ele>
        <time>2021-07-21T11:35:41Z</time>
      </trkpt>
      <trkpt lat="42.96928" lon="0.71232">
        <ele>872.567</ele>
        <time>2021-07-21T11:35:39Z</time>
      </trkpt>
      <trkpt lat="42.96913" lon="0.71221">
        <ele>876.536</ele>
        <time>2021-07-21T11:35:37Z</time>
      </trkpt>
      <trkpt lat="42.96901" lon="0.7121">
        <ele>880.587</ele>
        <time>2021-07-21T11:35:35Z</time>
      </trkpt>
      <trkpt lat="42.96895" lon="0.71205">
        <ele>884.556</ele>
        <time>2021-07-21T11:35:34Z</time>
      </trkpt>
      <trkpt lat="42.9689" lon="0.71199">
        <ele>888.508</ele>
        <time>2021-07-21T11:35:33Z</time>
      </trkpt>
      <trkpt lat="42.96874" lon="0.71178">
        <ele>892.521</ele>
        <time>2021-07-21T11:35:31Z</time>
      </trkpt>
      <trkpt lat="42.96863" lon="0.71162">
        <ele>896.565</ele>
        <time>2021-07-21T11:35:29Z</time>
      </trkpt>
      <trkpt lat="42.9685" lon="0.71145">
        <ele>899.993</ele>
        <time>2021-07-21T11:35:27Z</time>
      </trkpt>
      <trkpt lat="42.96836" lon="0.71132">
        <ele>901.227</ele>
        <time>2021-07-21T11:35:25Z</time>
      </trkpt>
      <trkpt lat="42.96821" lon="0.71116">
        <ele>901.872</ele>
        <time>2021-07-21T11:35:23Z</time>
      </trkpt>
      <trkpt lat="42.96814" lon="0.71109">
        <ele>901.788</ele>
        <time>2021-07-21T11:35:22Z</time>
      </trkpt>
      <trkpt lat="42.96808" lon="0.71101">
        <ele>901.37</ele>
        <time>2021-07-21T11:35:21Z</time>
      </trkpt>
      <trkpt lat="42.96795" lon="0.71087">
        <ele>900.756</ele>
        <time>2021-07-21T11:35:19Z</time>
      </trkpt>
      <trkpt lat="42.96783" lon="0.71074">
        <ele>900.195</ele>
        <time>2021-07-21T11:35:17Z</time>
      </trkpt>
      <trkpt lat="42.96772" lon="0.71061">
        <ele>899.326</ele>
        <time>2021-07-21T11:35:15Z</time>
      </trkpt>
      <trkpt lat="42.96763" lon="0.71054">
        <ele>898.495</ele>
        <time>2021-07-21T11:35:13Z</time>
      </trkpt>
      <trkpt lat="42.96756" lon="0.71055">
        <ele>897.508</ele>
        <time>2021-07-21T11:35:11Z</time>
      </trkpt>
      <trkpt lat="42.9675" lon="0.71059">
        <ele>896.317</ele>
        <time>2021-07-21T11:35:09Z</time>
      </trkpt>
      <trkpt lat="42.96745" lon="0.71061">
        <ele>895.243</ele>
        <time>2021-07-21T11:35:07Z</time>
      </trkpt>
      <trkpt lat="42.96739" lon="0.71064">
        <ele>894.282</ele>
        <time>2021-07-21T11:35:05Z</time>
      </trkpt>
      <trkpt lat="42.96731" lon="0.71068">
        <ele>893.195</ele>
        <time>2021-07-21T11:35:03Z</time>
      </trkpt>
      <trkpt lat="42.96723" lon="0.71074">
        <ele>892.11</ele>
        <time>2021-07-21T11:35:01Z</time>
      </trkpt>
      <trkpt lat="42.96714" lon="0.7108">
        <ele>891.356</ele>
        <time>2021-07-21T11:34:59Z</time>
      </trkpt>
      <trkpt lat="42.96706" lon="0.71088">
        <ele>890.578</ele>
        <time>2021-07-21T11:34:57Z</time>
      </trkpt>
      <trkpt lat="42.96697" lon="0.71098">
        <ele>889.884</ele>
        <time>2021-07-21T11:34:55Z</time>
      </trkpt>
      <trkpt lat="42.9669" lon="0.71107">
        <ele>889.023</ele>
        <time>2021-07-21T11:34:53Z</time>
      </trkpt>
      <trkpt lat="42.96682" lon="0.71119">
        <ele>888.374</ele>
        <time>2021-07-21T11:34:51Z</time>
      </trkpt>
      <trkpt lat="42.96679" lon="0.71124">
        <ele>887.993</ele>
        <time>2021-07-21T11:34:50Z</time>
      </trkpt>
      <trkpt lat="42.96675" lon="0.71131">
        <ele>887.408</ele>
        <time>2021-07-21T11:34:49Z</time>
      </trkpt>
      <trkpt lat="42.96668" lon="0.71141">
        <ele>886.724</ele>
        <time>2021-07-21T11:34:47Z</time>
      </trkpt>
      <trkpt lat="42.96664" lon="0.71147">
        <ele>886.104</ele>
        <time>2021-07-21T11:34:46Z</time>
      </trkpt>
      <trkpt lat="42.96657" lon="0.71158">
        <ele>885.269</ele>
        <time>2021-07-21T11:34:44Z</time>
      </trkpt>
      <trkpt lat="42.96653" lon="0.71164">
        <ele>884.477</ele>
        <time>2021-07-21T11:34:43Z</time>
      </trkpt>
      <trkpt lat="42.96646" lon="0.71174">
        <ele>883.632</ele>
        <time>2021-07-21T11:34:41Z</time>
      </trkpt>
      <trkpt lat="42.96642" lon="0.71179">
        <ele>883.048</ele>
        <time>2021-07-21T11:34:40Z</time>
      </trkpt>
      <trkpt lat="42.96638" lon="0.71184">
        <ele>882.46</ele>
        <time>2021-07-21T11:34:39Z</time>
      </trkpt>
      <trkpt lat="42.96633" lon="0.71188">
        <ele>881.866</ele>
        <time>2021-07-21T11:34:38Z</time>
      </trkpt>
      <trkpt lat="42.9663" lon="0.71192">
        <ele>881.145</ele>
        <time>2021-07-21T11:34:37Z</time>
      </trkpt>
      <trkpt lat="42.96622" lon="0.71199">
        <ele>880.416</ele>
        <time>2021-07-21T11:34:35Z</time>
      </trkpt>
      <trkpt lat="42.96618" lon="0.71203">
        <ele>879.815</ele>
        <time>2021-07-21T11:34:34Z</time>
      </trkpt>
      <trkpt lat="42.9661" lon="0.71211">
        <ele>879.108</ele>
        <time>2021-07-21T11:34:32Z</time>
      </trkpt>
      <trkpt lat="42.96606" lon="0.71215">
        <ele>878.726</ele>
        <time>2021-07-21T11:34:31Z</time>
      </trkpt>
      <trkpt lat="42.96599" lon="0.71224">
        <ele>878.206</ele>
        <time>2021-07-21T11:34:29Z</time>
      </trkpt>
      <trkpt lat="42.96591" lon="0.71233">
        <ele>877.889</ele>
        <time>2021-07-21T11:34:27Z</time>
      </trkpt>
      <trkpt lat="42.96584" lon="0.71242">
        <ele>877.568</ele>
        <time>2021-07-21T11:34:25Z</time>
      </trkpt>
      <trkpt lat="42.96576" lon="0.71251">
        <ele>877.193</ele>
        <time>2021-07-21T11:34:23Z</time>
      </trkpt>
      <trkpt lat="42.96568" lon="0.71259">
        <ele>876.719</ele>
        <time>2021-07-21T11:34:21Z</time>
      </trkpt>
      <trkpt lat="42.96564" lon="0.71263">
        <ele>876.471</ele>
        <time>2021-07-21T11:34:20Z</time>
      </trkpt>
      <trkpt lat="42.9656" lon="0.71267">
        <ele>876.287</ele>
        <time>2021-07-21T11:34:19Z</time>
      </trkpt>
      <trkpt lat="42.96553" lon="0.71277">
        <ele>876.176</ele>
        <time>2021-07-21T11:34:17Z</time>
      </trkpt>
      <trkpt lat="42.96546" lon="0.71287">
        <ele>876.087</ele>
        <time>2021-07-21T11:34:15Z</time>
      </trkpt>
      <trkpt lat="42.96543" lon="0.71293">
        <ele>876.366</ele>
        <time>2021-07-21T11:34:14Z</time>
      </trkpt>
      <trkpt lat="42.9654" lon="0.71298">
        <ele>876.608</ele>
        <time>2021-07-21T11:34:13Z</time>
      </trkpt>
      <trkpt lat="42.96534" lon="0.71309">
        <ele>877.026</ele>
        <time>2021-07-21T11:34:11Z</time>
      </trkpt>
      <trkpt lat="42.9653" lon="0.71313">
        <ele>877.015</ele>
        <time>2021-07-21T11:34:10Z</time>
      </trkpt>
      <trkpt lat="42.96526" lon="0.71318">
        <ele>877.198</ele>
        <time>2021-07-21T11:34:09Z</time>
      </trkpt>
      <trkpt lat="42.96518" lon="0.71326">
        <ele>877.283</ele>
        <time>2021-07-21T11:34:07Z</time>
      </trkpt>
      <trkpt lat="42.96509" lon="0.71333">
        <ele>877.068</ele>
        <time>2021-07-21T11:34:05Z</time>
      </trkpt>
      <trkpt lat="42.96505" lon="0.71336">
        <ele>876.624</ele>
        <time>2021-07-21T11:34:04Z</time>
      </trkpt>
      <trkpt lat="42.96496" lon="0.71342">
        <ele>876.176</ele>
        <time>2021-07-21T11:34:02Z</time>
      </trkpt>
      <trkpt lat="42.96491" lon="0.71345">
        <ele>875.662</ele>
        <time>2021-07-21T11:34:01Z</time>
      </trkpt>
      <trkpt lat="42.96481" lon="0.71349">
        <ele>875.061</ele>
        <time>2021-07-21T11:33:59Z</time>
      </trkpt>
      <trkpt lat="42.96476" lon="0.7135">
        <ele>874.552</ele>
        <time>2021-07-21T11:33:58Z</time>
      </trkpt>
      <trkpt lat="42.96471" lon="0.71352">
        <ele>874.011</ele>
        <time>2021-07-21T11:33:57Z</time>
      </trkpt>
      <trkpt lat="42.96462" lon="0.71358">
        <ele>873.408</ele>
        <time>2021-07-21T11:33:55Z</time>
      </trkpt>
      <trkpt lat="42.96455" lon="0.71367">
        <ele>873.317</ele>
        <time>2021-07-21T11:33:53Z</time>
      </trkpt>
      <trkpt lat="42.96452" lon="0.71372">
        <ele>873.361</ele>
        <time>2021-07-21T11:33:52Z</time>
      </trkpt>
      <trkpt lat="42.96445" lon="0.71382">
        <ele>873.648</ele>
        <time>2021-07-21T11:33:50Z</time>
      </trkpt>
      <trkpt lat="42.96443" lon="0.71388">
        <ele>874.112</ele>
        <time>2021-07-21T11:33:49Z</time>
      </trkpt>
      <trkpt lat="42.96438" lon="0.71401">
        <ele>874.847</ele>
        <time>2021-07-21T11:33:47Z</time>
      </trkpt>
      <trkpt lat="42.96432" lon="0.71411">
        <ele>875.123</ele>
        <time>2021-07-21T11:33:45Z</time>
      </trkpt>
      <trkpt lat="42.96426" lon="0.71422">
        <ele>875.355</ele>
        <time>2021-07-21T11:33:43Z</time>
      </trkpt>
      <trkpt lat="42.96419" lon="0.71431">
        <ele>875.611</ele>
        <time>2021-07-21T11:33:41Z</time>
      </trkpt>
      <trkpt lat="42.96413" lon="0.71441">
        <ele>876.47</ele>
        <time>2021-07-21T11:33:39Z</time>
      </trkpt>
      <trkpt lat="42.96407" lon="0.71452">
        <ele>877.391</ele>
        <time>2021-07-21T11:33:37Z</time>
      </trkpt>
      <trkpt lat="42.96401" lon="0.71463">
        <ele>878.39</ele>
        <time>2021-07-21T11:33:35Z</time>
      </trkpt>
      <trkpt lat="42.96398" lon="0.71469">
        <ele>879.308</ele>
        <time>2021-07-21T11:33:34Z</time>
      </trkpt>
      <trkpt lat="42.96392" lon="0.71481">
        <ele>880.011</ele>
        <time>2021-07-21T11:33:32Z</time>
      </trkpt>
      <trkpt lat="42.96388" lon="0.71486">
        <ele>880.692</ele>
        <time>2021-07-21T11:33:31Z</time>
      </trkpt>
      <trkpt lat="42.96382" lon="0.71499">
        <ele>881.432</ele>
        <time>2021-07-21T11:33:29Z</time>
      </trkpt>
      <trkpt lat="42.96377" lon="0.71511">
        <ele>882.132</ele>
        <time>2021-07-21T11:33:27Z</time>
      </trkpt>
      <trkpt lat="42.96374" lon="0.71517">
        <ele>882.467</ele>
        <time>2021-07-21T11:33:26Z</time>
      </trkpt>
      <trkpt lat="42.96372" lon="0.71523">
        <ele>882.553</ele>
        <time>2021-07-21T11:33:25Z</time>
      </trkpt>
      <trkpt lat="42.96366" lon="0.71534">
        <ele>882.455</ele>
        <time>2021-07-21T11:33:23Z</time>
      </trkpt>
      <trkpt lat="42.9636" lon="0.71546">
        <ele>882.221</ele>
        <time>2021-07-21T11:33:21Z</time>
      </trkpt>
      <trkpt lat="42.96357" lon="0.71552">
        <ele>881.82</ele>
        <time>2021-07-21T11:33:20Z</time>
      </trkpt>
      <trkpt lat="42.96355" lon="0.71558">
        <ele>881.151</ele>
        <time>2021-07-21T11:33:19Z</time>
      </trkpt>
      <trkpt lat="42.96349" lon="0.71568">
        <ele>880.38</ele>
        <time>2021-07-21T11:33:17Z</time>
      </trkpt>
      <trkpt lat="42.96343" lon="0.71578">
        <ele>879.808</ele>
        <time>2021-07-21T11:33:15Z</time>
      </trkpt>
      <trkpt lat="42.96341" lon="0.71583">
        <ele>879.821</ele>
        <time>2021-07-21T11:33:14Z</time>
      </trkpt>
      <trkpt lat="42.96339" lon="0.71589">
        <ele>879.801</ele>
        <time>2021-07-21T11:33:13Z</time>
      </trkpt>
      <trkpt lat="42.96335" lon="0.716">
        <ele>879.739</ele>
        <time>2021-07-21T11:33:11Z</time>
      </trkpt>
      <trkpt lat="42.9633" lon="0.7161">
        <ele>879.717</ele>
        <time>2021-07-21T11:33:09Z</time>
      </trkpt>
      <trkpt lat="42.96326" lon="0.7162">
        <ele>879.772</ele>
        <time>2021-07-21T11:33:07Z</time>
      </trkpt>
      <trkpt lat="42.96321" lon="0.71631">
        <ele>879.978</ele>
        <time>2021-07-21T11:33:05Z</time>
      </trkpt>
      <trkpt lat="42.96317" lon="0.71642">
        <ele>880.16</ele>
        <time>2021-07-21T11:33:03Z</time>
      </trkpt>
      <trkpt lat="42.96314" lon="0.71648">
        <ele>880.066</ele>
        <time>2021-07-21T11:33:02Z</time>
      </trkpt>
      <trkpt lat="42.96311" lon="0.71653">
        <ele>879.835</ele>
        <time>2021-07-21T11:33:01Z</time>
      </trkpt>
      <trkpt lat="42.96306" lon="0.71664">
        <ele>879.616</ele>
        <time>2021-07-21T11:32:59Z</time>
      </trkpt>
      <trkpt lat="42.96303" lon="0.71669">
        <ele>879.395</ele>
        <time>2021-07-21T11:32:58Z</time>
      </trkpt>
      <trkpt lat="42.96297" lon="0.71679">
        <ele>878.908</ele>
        <time>2021-07-21T11:32:56Z</time>
      </trkpt>
      <trkpt lat="42.96294" lon="0.71684">
        <ele>878.517</ele>
        <time>2021-07-21T11:32:55Z</time>
      </trkpt>
      <trkpt lat="42.96287" lon="0.71694">
        <ele>878.143</ele>
        <time>2021-07-21T11:32:53Z</time>
      </trkpt>
      <trkpt lat="42.96281" lon="0.71703">
        <ele>877.582</ele>
        <time>2021-07-21T11:32:51Z</time>
      </trkpt>
      <trkpt lat="42.96276" lon="0.71711">
        <ele>876.775</ele>
        <time>2021-07-21T11:32:49Z</time>
      </trkpt>
      <trkpt lat="42.9627" lon="0.71718">
        <ele>875.86</ele>
        <time>2021-07-21T11:32:47Z</time>
      </trkpt>
      <trkpt lat="42.96263" lon="0.71726">
        <ele>874.936</ele>
        <time>2021-07-21T11:32:45Z</time>
      </trkpt>
      <trkpt lat="42.96258" lon="0.71734">
        <ele>874.348</ele>
        <time>2021-07-21T11:32:43Z</time>
      </trkpt>
      <trkpt lat="42.96252" lon="0.71743">
        <ele>873.894</ele>
        <time>2021-07-21T11:32:41Z</time>
      </trkpt>
      <trkpt lat="42.96246" lon="0.71751">
        <ele>873.393</ele>
        <time>2021-07-21T11:32:39Z</time>
      </trkpt>
      <trkpt lat="42.96241" lon="0.7176">
        <ele>872.924</ele>
        <time>2021-07-21T11:32:37Z</time>
      </trkpt>
      <trkpt lat="42.96235" lon="0.71769">
        <ele>872.583</ele>
        <time>2021-07-21T11:32:35Z</time>
      </trkpt>
      <trkpt lat="42.96229" lon="0.71778">
        <ele>872.308</ele>
        <time>2021-07-21T11:32:33Z</time>
      </trkpt>
      <trkpt lat="42.96223" lon="0.71785">
        <ele>871.211</ele>
        <time>2021-07-21T11:32:31Z</time>
      </trkpt>
      <trkpt lat="42.96218" lon="0.71792">
        <ele>870.083</ele>
        <time>2021-07-21T11:32:29Z</time>
      </trkpt>
      <trkpt lat="42.96212" lon="0.71799">
        <ele>868.662</ele>
        <time>2021-07-21T11:32:27Z</time>
      </trkpt>
      <trkpt lat="42.96207" lon="0.71805">
        <ele>867.311</ele>
        <time>2021-07-21T11:32:25Z</time>
      </trkpt>
      <trkpt lat="42.96201" lon="0.71808">
        <ele>866.146</ele>
        <time>2021-07-21T11:32:23Z</time>
      </trkpt>
      <trkpt lat="42.96196" lon="0.71811">
        <ele>864.932</ele>
        <time>2021-07-21T11:32:21Z</time>
      </trkpt>
      <trkpt lat="42.96191" lon="0.71813">
        <ele>864.064</ele>
        <time>2021-07-21T11:32:19Z</time>
      </trkpt>
      <trkpt lat="42.96186" lon="0.71817">
        <ele>863.27</ele>
        <time>2021-07-21T11:32:17Z</time>
      </trkpt>
      <trkpt lat="42.96181" lon="0.71823">
        <ele>862.549</ele>
        <time>2021-07-21T11:32:15Z</time>
      </trkpt>
      <trkpt lat="42.96177" lon="0.71829">
        <ele>861.93</ele>
        <time>2021-07-21T11:32:13Z</time>
      </trkpt>
      <trkpt lat="42.96172" lon="0.71835">
        <ele>861.399</ele>
        <time>2021-07-21T11:32:11Z</time>
      </trkpt>
      <trkpt lat="42.96167" lon="0.7184">
        <ele>860.908</ele>
        <time>2021-07-21T11:32:09Z</time>
      </trkpt>
      <trkpt lat="42.96162" lon="0.71846">
        <ele>860.405</ele>
        <time>2021-07-21T11:32:07Z</time>
      </trkpt>
      <trkpt lat="42.96157" lon="0.71853">
        <ele>860.141</ele>
        <time>2021-07-21T11:32:05Z</time>
      </trkpt>
      <trkpt lat="42.96152" lon="0.7186">
        <ele>859.521</ele>
        <time>2021-07-21T11:32:03Z</time>
      </trkpt>
      <trkpt lat="42.96147" lon="0.71867">
        <ele>858.74</ele>
        <time>2021-07-21T11:32:01Z</time>
      </trkpt>
      <trkpt lat="42.96142" lon="0.71872">
        <ele>857.985</ele>
        <time>2021-07-21T11:31:59Z</time>
      </trkpt>
      <trkpt lat="42.96136" lon="0.71876">
        <ele>857.051</ele>
        <time>2021-07-21T11:31:57Z</time>
      </trkpt>
      <trkpt lat="42.9613" lon="0.71878">
        <ele>856.023</ele>
        <time>2021-07-21T11:31:55Z</time>
      </trkpt>
      <trkpt lat="42.96123" lon="0.71881">
        <ele>855.489</ele>
        <time>2021-07-21T11:31:53Z</time>
      </trkpt>
      <trkpt lat="42.96116" lon="0.71883">
        <ele>855.038</ele>
        <time>2021-07-21T11:31:51Z</time>
      </trkpt>
      <trkpt lat="42.96108" lon="0.71886">
        <ele>854.639</ele>
        <time>2021-07-21T11:31:49Z</time>
      </trkpt>
      <trkpt lat="42.96102" lon="0.71889">
        <ele>853.958</ele>
        <time>2021-07-21T11:31:47Z</time>
      </trkpt>
      <trkpt lat="42.96094" lon="0.71891">
        <ele>853.108</ele>
        <time>2021-07-21T11:31:45Z</time>
      </trkpt>
      <trkpt lat="42.96088" lon="0.71893">
        <ele>852.203</ele>
        <time>2021-07-21T11:31:43Z</time>
      </trkpt>
      <trkpt lat="42.96083" lon="0.71894">
        <ele>851.521</ele>
        <time>2021-07-21T11:31:41Z</time>
      </trkpt>
      <trkpt lat="42.96078" lon="0.71894">
        <ele>850.911</ele>
        <time>2021-07-21T11:31:39Z</time>
      </trkpt>
      <trkpt lat="42.96072" lon="0.71895">
        <ele>850.665</ele>
        <time>2021-07-21T11:31:37Z</time>
      </trkpt>
      <trkpt lat="42.96063" lon="0.71897">
        <ele>850.49</ele>
        <time>2021-07-21T11:31:35Z</time>
      </trkpt>
      <trkpt lat="42.96054" lon="0.71902">
        <ele>850.336</ele>
        <time>2021-07-21T11:31:33Z</time>
      </trkpt>
      <trkpt lat="42.9605" lon="0.71904">
        <ele>850.368</ele>
        <time>2021-07-21T11:31:32Z</time>
      </trkpt>
      <trkpt lat="42.96045" lon="0.71906">
        <ele>850.244</ele>
        <time>2021-07-21T11:31:31Z</time>
      </trkpt>
      <trkpt lat="42.96037" lon="0.71909">
        <ele>850.043</ele>
        <time>2021-07-21T11:31:29Z</time>
      </trkpt>
      <trkpt lat="42.96029" lon="0.71909">
        <ele>849.864</ele>
        <time>2021-07-21T11:31:27Z</time>
      </trkpt>
      <trkpt lat="42.96022" lon="0.7191">
        <ele>849.763</ele>
        <time>2021-07-21T11:31:25Z</time>
      </trkpt>
      <trkpt lat="42.96014" lon="0.71914">
        <ele>849.808</ele>
        <time>2021-07-21T11:31:23Z</time>
      </trkpt>
      <trkpt lat="42.96006" lon="0.71921">
        <ele>850.021</ele>
        <time>2021-07-21T11:31:21Z</time>
      </trkpt>
      <trkpt lat="42.95997" lon="0.71932">
        <ele>850.929</ele>
        <time>2021-07-21T11:31:19Z</time>
      </trkpt>
      <trkpt lat="42.95991" lon="0.71946">
        <ele>852.466</ele>
        <time>2021-07-21T11:31:17Z</time>
      </trkpt>
      <trkpt lat="42.95986" lon="0.71961">
        <ele>854.318</ele>
        <time>2021-07-21T11:31:15Z</time>
      </trkpt>
      <trkpt lat="42.95983" lon="0.71984">
        <ele>856.413</ele>
        <time>2021-07-21T11:31:13Z</time>
      </trkpt>
      <trkpt lat="42.95984" lon="0.72012">
        <ele>858.719</ele>
        <time>2021-07-21T11:31:11Z</time>
      </trkpt>
      <trkpt lat="42.95989" lon="0.72043">
        <ele>861.391</ele>
        <time>2021-07-21T11:31:09Z</time>
      </trkpt>
      <trkpt lat="42.95994" lon="0.72073">
        <ele>863.617</ele>
        <time>2021-07-21T11:31:07Z</time>
      </trkpt>
      <trkpt lat="42.95997" lon="0.72102">
        <ele>865.626</ele>
        <time>2021-07-21T11:31:05Z</time>
      </trkpt>
      <trkpt lat="42.95999" lon="0.72115">
        <ele>867.287</ele>
        <time>2021-07-21T11:31:04Z</time>
      </trkpt>
      <trkpt lat="42.96001" lon="0.72129">
        <ele>869.046</ele>
        <time>2021-07-21T11:31:03Z</time>
      </trkpt>
      <trkpt lat="42.96001" lon="0.72143">
        <ele>870.808</ele>
        <time>2021-07-21T11:31:02Z</time>
      </trkpt>
      <trkpt lat="42.96001" lon="0.72156">
        <ele>872.92</ele>
        <time>2021-07-21T11:31:01Z</time>
      </trkpt>
      <trkpt lat="42.96002" lon="0.72182">
        <ele>875.473</ele>
        <time>2021-07-21T11:30:59Z</time>
      </trkpt>
      <trkpt lat="42.96003" lon="0.72207">
        <ele>877.792</ele>
        <time>2021-07-21T11:30:57Z</time>
      </trkpt>
      <trkpt lat="42.96005" lon="0.72229">
        <ele>879.568</ele>
        <time>2021-07-21T11:30:55Z</time>
      </trkpt>
      <trkpt lat="42.96007" lon="0.72248">
        <ele>880.783</ele>
        <time>2021-07-21T11:30:53Z</time>
      </trkpt>
      <trkpt lat="42.96008" lon="0.72258">
        <ele>881.789</ele>
        <time>2021-07-21T11:30:52Z</time>
      </trkpt>
      <trkpt lat="42.9601" lon="0.72275">
        <ele>883.031</ele>
        <time>2021-07-21T11:30:50Z</time>
      </trkpt>
      <trkpt lat="42.96009" lon="0.72283">
        <ele>884.327</ele>
        <time>2021-07-21T11:30:49Z</time>
      </trkpt>
      <trkpt lat="42.96004" lon="0.72296">
        <ele>885.656</ele>
        <time>2021-07-21T11:30:47Z</time>
      </trkpt>
      <trkpt lat="42.95996" lon="0.72309">
        <ele>886.767</ele>
        <time>2021-07-21T11:30:45Z</time>
      </trkpt>
      <trkpt lat="42.9599" lon="0.72317">
        <ele>887.426</ele>
        <time>2021-07-21T11:30:44Z</time>
      </trkpt>
      <trkpt lat="42.95984" lon="0.72325">
        <ele>888.008</ele>
        <time>2021-07-21T11:30:43Z</time>
      </trkpt>
      <trkpt lat="42.95971" lon="0.72342">
        <ele>888.621</ele>
        <time>2021-07-21T11:30:41Z</time>
      </trkpt>
      <trkpt lat="42.95965" lon="0.72349">
        <ele>888.965</ele>
        <time>2021-07-21T11:30:40Z</time>
      </trkpt>
      <trkpt lat="42.95959" lon="0.72355">
        <ele>889.293</ele>
        <time>2021-07-21T11:30:39Z</time>
      </trkpt>
      <trkpt lat="42.95953" lon="0.72362">
        <ele>889.565</ele>
        <time>2021-07-21T11:30:38Z</time>
      </trkpt>
      <trkpt lat="42.95947" lon="0.72368">
        <ele>889.97</ele>
        <time>2021-07-21T11:30:37Z</time>
      </trkpt>
      <trkpt lat="42.95936" lon="0.72379">
        <ele>890.466</ele>
        <time>2021-07-21T11:30:35Z</time>
      </trkpt>
      <trkpt lat="42.9593" lon="0.72385">
        <ele>890.768</ele>
        <time>2021-07-21T11:30:34Z</time>
      </trkpt>
      <trkpt lat="42.95924" lon="0.72391">
        <ele>891.024</ele>
        <time>2021-07-21T11:30:33Z</time>
      </trkpt>
      <trkpt lat="42.95913" lon="0.72403">
        <ele>891.433</ele>
        <time>2021-07-21T11:30:31Z</time>
      </trkpt>
      <trkpt lat="42.95903" lon="0.72413">
        <ele>891.574</ele>
        <time>2021-07-21T11:30:29Z</time>
      </trkpt>
      <trkpt lat="42.95899" lon="0.72419">
        <ele>891.543</ele>
        <time>2021-07-21T11:30:28Z</time>
      </trkpt>
      <trkpt lat="42.95893" lon="0.72424">
        <ele>891.408</ele>
        <time>2021-07-21T11:30:27Z</time>
      </trkpt>
      <trkpt lat="42.95888" lon="0.7243">
        <ele>891.313</ele>
        <time>2021-07-21T11:30:26Z</time>
      </trkpt>
      <trkpt lat="42.95883" lon="0.72436">
        <ele>891.221</ele>
        <time>2021-07-21T11:30:25Z</time>
      </trkpt>
      <trkpt lat="42.95871" lon="0.72446">
        <ele>891.261</ele>
        <time>2021-07-21T11:30:23Z</time>
      </trkpt>
      <trkpt lat="42.95866" lon="0.72451">
        <ele>891.222</ele>
        <time>2021-07-21T11:30:22Z</time>
      </trkpt>
      <trkpt lat="42.95855" lon="0.72458">
        <ele>891.117</ele>
        <time>2021-07-21T11:30:20Z</time>
      </trkpt>
      <trkpt lat="42.9585" lon="0.72462">
        <ele>891.053</ele>
        <time>2021-07-21T11:30:19Z</time>
      </trkpt>
      <trkpt lat="42.95841" lon="0.7247">
        <ele>890.945</ele>
        <time>2021-07-21T11:30:17Z</time>
      </trkpt>
      <trkpt lat="42.95831" lon="0.7248">
        <ele>890.961</ele>
        <time>2021-07-21T11:30:15Z</time>
      </trkpt>
      <trkpt lat="42.95827" lon="0.72486">
        <ele>890.98</ele>
        <time>2021-07-21T11:30:14Z</time>
      </trkpt>
      <trkpt lat="42.95819" lon="0.72501">
        <ele>891.081</ele>
        <time>2021-07-21T11:30:12Z</time>
      </trkpt>
      <trkpt lat="42.95816" lon="0.72508">
        <ele>891.46</ele>
        <time>2021-07-21T11:30:11Z</time>
      </trkpt>
      <trkpt lat="42.95813" lon="0.72516">
        <ele>891.908</ele>
        <time>2021-07-21T11:30:10Z</time>
      </trkpt>
      <trkpt lat="42.95808" lon="0.7253">
        <ele>892.517</ele>
        <time>2021-07-21T11:30:08Z</time>
      </trkpt>
      <trkpt lat="42.95805" lon="0.72537">
        <ele>892.97</ele>
        <time>2021-07-21T11:30:07Z</time>
      </trkpt>
      <trkpt lat="42.95801" lon="0.72552">
        <ele>893.338</ele>
        <time>2021-07-21T11:30:05Z</time>
      </trkpt>
      <trkpt lat="42.95798" lon="0.7256">
        <ele>893.582</ele>
        <time>2021-07-21T11:30:04Z</time>
      </trkpt>
      <trkpt lat="42.95795" lon="0.72567">
        <ele>893.617</ele>
        <time>2021-07-21T11:30:03Z</time>
      </trkpt>
      <trkpt lat="42.95793" lon="0.72573">
        <ele>893.613</ele>
        <time>2021-07-21T11:30:02Z</time>
      </trkpt>
      <trkpt lat="42.95792" lon="0.7258">
        <ele>893.775</ele>
        <time>2021-07-21T11:30:01Z</time>
      </trkpt>
      <trkpt lat="42.95788" lon="0.72595">
        <ele>893.851</ele>
        <time>2021-07-21T11:29:59Z</time>
      </trkpt>
      <trkpt lat="42.95787" lon="0.72603">
        <ele>894.09</ele>
        <time>2021-07-21T11:29:58Z</time>
      </trkpt>
      <trkpt lat="42.95784" lon="0.7262">
        <ele>894.231</ele>
        <time>2021-07-21T11:29:56Z</time>
      </trkpt>
      <trkpt lat="42.95782" lon="0.7263">
        <ele>894.78</ele>
        <time>2021-07-21T11:29:55Z</time>
      </trkpt>
      <trkpt lat="42.95779" lon="0.7265">
        <ele>895.308</ele>
        <time>2021-07-21T11:29:53Z</time>
      </trkpt>
      <trkpt lat="42.95777" lon="0.72671">
        <ele>896.21</ele>
        <time>2021-07-21T11:29:51Z</time>
      </trkpt>
      <trkpt lat="42.95781" lon="0.72691">
        <ele>897.655</ele>
        <time>2021-07-21T11:29:49Z</time>
      </trkpt>
      <trkpt lat="42.9579" lon="0.7271">
        <ele>899.534</ele>
        <time>2021-07-21T11:29:47Z</time>
      </trkpt>
      <trkpt lat="42.95801" lon="0.7273">
        <ele>901.338</ele>
        <time>2021-07-21T11:29:45Z</time>
      </trkpt>
      <trkpt lat="42.95806" lon="0.7274">
        <ele>902.593</ele>
        <time>2021-07-21T11:29:44Z</time>
      </trkpt>
      <trkpt lat="42.9581" lon="0.72751">
        <ele>903.889</ele>
        <time>2021-07-21T11:29:43Z</time>
      </trkpt>
      <trkpt lat="42.95818" lon="0.72773">
        <ele>905.151</ele>
        <time>2021-07-21T11:29:41Z</time>
      </trkpt>
      <trkpt lat="42.95822" lon="0.72783">
        <ele>906.087</ele>
        <time>2021-07-21T11:29:40Z</time>
      </trkpt>
      <trkpt lat="42.95828" lon="0.72804">
        <ele>906.996</ele>
        <time>2021-07-21T11:29:38Z</time>
      </trkpt>
      <trkpt lat="42.95829" lon="0.72815">
        <ele>907.527</ele>
        <time>2021-07-21T11:29:37Z</time>
      </trkpt>
      <trkpt lat="42.9583" lon="0.72834">
        <ele>908.086</ele>
        <time>2021-07-21T11:29:35Z</time>
      </trkpt>
      <trkpt lat="42.95831" lon="0.72852">
        <ele>908.208</ele>
        <time>2021-07-21T11:29:33Z</time>
      </trkpt>
      <trkpt lat="42.95829" lon="0.72862">
        <ele>908.419</ele>
        <time>2021-07-21T11:29:32Z</time>
      </trkpt>
      <trkpt lat="42.95827" lon="0.72873">
        <ele>908.681</ele>
        <time>2021-07-21T11:29:31Z</time>
      </trkpt>
      <trkpt lat="42.95821" lon="0.72894">
        <ele>908.891</ele>
        <time>2021-07-21T11:29:29Z</time>
      </trkpt>
      <trkpt lat="42.95817" lon="0.72903">
        <ele>908.911</ele>
        <time>2021-07-21T11:29:28Z</time>
      </trkpt>
      <trkpt lat="42.95808" lon="0.72919">
        <ele>909.176</ele>
        <time>2021-07-21T11:29:26Z</time>
      </trkpt>
      <trkpt lat="42.95803" lon="0.72926">
        <ele>909.312</ele>
        <time>2021-07-21T11:29:25Z</time>
      </trkpt>
      <trkpt lat="42.95793" lon="0.7294">
        <ele>909.444</ele>
        <time>2021-07-21T11:29:23Z</time>
      </trkpt>
      <trkpt lat="42.95783" lon="0.72951">
        <ele>909.42</ele>
        <time>2021-07-21T11:29:21Z</time>
      </trkpt>
      <trkpt lat="42.95778" lon="0.72957">
        <ele>908.939</ele>
        <time>2021-07-21T11:29:20Z</time>
      </trkpt>
      <trkpt lat="42.95772" lon="0.72961">
        <ele>908.21</ele>
        <time>2021-07-21T11:29:19Z</time>
      </trkpt>
      <trkpt lat="42.95761" lon="0.7297">
        <ele>907.569</ele>
        <time>2021-07-21T11:29:17Z</time>
      </trkpt>
      <trkpt lat="42.95749" lon="0.72975">
        <ele>907.108</ele>
        <time>2021-07-21T11:29:15Z</time>
      </trkpt>
      <trkpt lat="42.95743" lon="0.72977">
        <ele>907.42</ele>
        <time>2021-07-21T11:29:14Z</time>
      </trkpt>
      <trkpt lat="42.95732" lon="0.72977">
        <ele>907.8</ele>
        <time>2021-07-21T11:29:12Z</time>
      </trkpt>
      <trkpt lat="42.95723" lon="0.72977">
        <ele>908.629</ele>
        <time>2021-07-21T11:29:10Z</time>
      </trkpt>
      <trkpt lat="42.95717" lon="0.72976">
        <ele>909.538</ele>
        <time>2021-07-21T11:29:08Z</time>
      </trkpt>
      <trkpt lat="42.95712" lon="0.72976">
        <ele>910.573</ele>
        <time>2021-07-21T11:29:06Z</time>
      </trkpt>
      <trkpt lat="42.95707" lon="0.72975">
        <ele>911.999</ele>
        <time>2021-07-21T11:29:03Z</time>
      </trkpt>
      <trkpt lat="42.95703" lon="0.72973">
        <ele>913.611</ele>
        <time>2021-07-21T11:29:00Z</time>
      </trkpt>
      <trkpt lat="42.95698" lon="0.7297">
        <ele>916.187</ele>
        <time>2021-07-21T11:28:56Z</time>
      </trkpt>
      <trkpt lat="42.95692" lon="0.72967">
        <ele>917.136</ele>
        <time>2021-07-21T11:28:53Z</time>
      </trkpt>
      <trkpt lat="42.95688" lon="0.72966">
        <ele>917.417</ele>
        <time>2021-07-21T11:28:49Z</time>
      </trkpt>
      <trkpt lat="42.95682" lon="0.72967">
        <ele>916.416</ele>
        <time>2021-07-21T11:28:46Z</time>
      </trkpt>
      <trkpt lat="42.95675" lon="0.72969">
        <ele>915.108</ele>
        <time>2021-07-21T11:28:41Z</time>
      </trkpt>
      <trkpt lat="42.95669" lon="0.72972">
        <ele>914.123</ele>
        <time>2021-07-21T11:28:39Z</time>
      </trkpt>
      <trkpt lat="42.95663" lon="0.72973">
        <ele>912.549</ele>
        <time>2021-07-21T11:28:37Z</time>
      </trkpt>
      <trkpt lat="42.95657" lon="0.72973">
        <ele>910.895</ele>
        <time>2021-07-21T11:28:35Z</time>
      </trkpt>
      <trkpt lat="42.95651" lon="0.72972">
        <ele>909.197</ele>
        <time>2021-07-21T11:28:33Z</time>
      </trkpt>
      <trkpt lat="42.95645" lon="0.7297">
        <ele>907.572</ele>
        <time>2021-07-21T11:28:31Z</time>
      </trkpt>
      <trkpt lat="42.95639" lon="0.72969">
        <ele>906.298</ele>
        <time>2021-07-21T11:28:29Z</time>
      </trkpt>
      <trkpt lat="42.95633" lon="0.72969">
        <ele>905.21</ele>
        <time>2021-07-21T11:28:27Z</time>
      </trkpt>
      <trkpt lat="42.95628" lon="0.7297">
        <ele>904.676</ele>
        <time>2021-07-21T11:28:25Z</time>
      </trkpt>
      <trkpt lat="42.95621" lon="0.72976">
        <ele>904.315</ele>
        <time>2021-07-21T11:28:23Z</time>
      </trkpt>
      <trkpt lat="42.95617" lon="0.72981">
        <ele>903.816</ele>
        <time>2021-07-21T11:28:22Z</time>
      </trkpt>
      <trkpt lat="42.9561" lon="0.72985">
        <ele>902.915</ele>
        <time>2021-07-21T11:28:19Z</time>
      </trkpt>
      <trkpt lat="42.95604" lon="0.72986">
        <ele>902.308</ele>
        <time>2021-07-21T11:28:17Z</time>
      </trkpt>
      <trkpt lat="42.95598" lon="0.72989">
        <ele>901.717</ele>
        <time>2021-07-21T11:28:15Z</time>
      </trkpt>
      <trkpt lat="42.95594" lon="0.72989">
        <ele>901.207</ele>
        <time>2021-07-21T11:28:13Z</time>
      </trkpt>
      <trkpt lat="42.95588" lon="0.72991">
        <ele>900.984</ele>
        <time>2021-07-21T11:28:11Z</time>
      </trkpt>
      <trkpt lat="42.95582" lon="0.72997">
        <ele>900.724</ele>
        <time>2021-07-21T11:28:09Z</time>
      </trkpt>
      <trkpt lat="42.95576" lon="0.73001">
        <ele>900.859</ele>
        <time>2021-07-21T11:28:07Z</time>
      </trkpt>
      <trkpt lat="42.95571" lon="0.73003">
        <ele>901.155</ele>
        <time>2021-07-21T11:28:05Z</time>
      </trkpt>
      <trkpt lat="42.95566" lon="0.73003">
        <ele>901.747</ele>
        <time>2021-07-21T11:28:03Z</time>
      </trkpt>
      <trkpt lat="42.95561" lon="0.73004">
        <ele>902.883</ele>
        <time>2021-07-21T11:28:01Z</time>
      </trkpt>
      <trkpt lat="42.95555" lon="0.73004">
        <ele>904.812</ele>
        <time>2021-07-21T11:27:59Z</time>
      </trkpt>
      <trkpt lat="42.95549" lon="0.73002">
        <ele>907.533</ele>
        <time>2021-07-21T11:27:56Z</time>
      </trkpt>
      <trkpt lat="42.95545" lon="0.72999">
        <ele>909.872</ele>
        <time>2021-07-21T11:27:54Z</time>
      </trkpt>
      <trkpt lat="42.95541" lon="0.72995">
        <ele>913.208</ele>
        <time>2021-07-21T11:27:52Z</time>
      </trkpt>
      <trkpt lat="42.95537" lon="0.72991">
        <ele>915.517</ele>
        <time>2021-07-21T11:27:50Z</time>
      </trkpt>
      <trkpt lat="42.95534" lon="0.72984">
        <ele>917.152</ele>
        <time>2021-07-21T11:27:47Z</time>
      </trkpt>
      <trkpt lat="42.95531" lon="0.72978">
        <ele>918.858</ele>
        <time>2021-07-21T11:27:45Z</time>
      </trkpt>
      <trkpt lat="42.95528" lon="0.72974">
        <ele>920.762</ele>
        <time>2021-07-21T11:27:43Z</time>
      </trkpt>
      <trkpt lat="42.95524" lon="0.72969">
        <ele>922.677</ele>
        <time>2021-07-21T11:27:40Z</time>
      </trkpt>
      <trkpt lat="42.95517" lon="0.72967">
        <ele>924.413</ele>
        <time>2021-07-21T11:27:37Z</time>
      </trkpt>
      <trkpt lat="42.95511" lon="0.72964">
        <ele>926.145</ele>
        <time>2021-07-21T11:27:33Z</time>
      </trkpt>
      <trkpt lat="42.95502" lon="0.72965">
        <ele>926.771</ele>
        <time>2021-07-21T11:27:19Z</time>
      </trkpt>
      <trkpt lat="42.95497" lon="0.72964">
        <ele>926.46</ele>
        <time>2021-07-21T11:27:17Z</time>
      </trkpt>
      <trkpt lat="42.95492" lon="0.72966">
        <ele>926.061</ele>
        <time>2021-07-21T11:27:15Z</time>
      </trkpt>
      <trkpt lat="42.95487" lon="0.72967">
        <ele>925.79</ele>
        <time>2021-07-21T11:27:13Z</time>
      </trkpt>
      <trkpt lat="42.95482" lon="0.72969">
        <ele>925.308</ele>
        <time>2021-07-21T11:27:11Z</time>
      </trkpt>
      <trkpt lat="42.95476" lon="0.72971">
        <ele>924.81</ele>
        <time>2021-07-21T11:27:09Z</time>
      </trkpt>
      <trkpt lat="42.95469" lon="0.72972">
        <ele>924.355</ele>
        <time>2021-07-21T11:27:07Z</time>
      </trkpt>
      <trkpt lat="42.95462" lon="0.72972">
        <ele>923.834</ele>
        <time>2021-07-21T11:27:05Z</time>
      </trkpt>
      <trkpt lat="42.95456" lon="0.72971">
        <ele>923.371</ele>
        <time>2021-07-21T11:27:03Z</time>
      </trkpt>
      <trkpt lat="42.9545" lon="0.72969">
        <ele>923.066</ele>
        <time>2021-07-21T11:27:01Z</time>
      </trkpt>
      <trkpt lat="42.95445" lon="0.72971">
        <ele>923.032</ele>
        <time>2021-07-21T11:26:59Z</time>
      </trkpt>
      <trkpt lat="42.95438" lon="0.72974">
        <ele>923.084</ele>
        <time>2021-07-21T11:26:57Z</time>
      </trkpt>
      <trkpt lat="42.95432" lon="0.72977">
        <ele>923.12</ele>
        <time>2021-07-21T11:26:55Z</time>
      </trkpt>
      <trkpt lat="42.95427" lon="0.7298">
        <ele>923.089</ele>
        <time>2021-07-21T11:26:53Z</time>
      </trkpt>
      <trkpt lat="42.95422" lon="0.72984">
        <ele>922.92</ele>
        <time>2021-07-21T11:26:51Z</time>
      </trkpt>
      <trkpt lat="42.95416" lon="0.72988">
        <ele>922.979</ele>
        <time>2021-07-21T11:26:49Z</time>
      </trkpt>
      <trkpt lat="42.95411" lon="0.72992">
        <ele>923.008</ele>
        <time>2021-07-21T11:26:46Z</time>
      </trkpt>
      <trkpt lat="42.95408" lon="0.72997">
        <ele>923.208</ele>
        <time>2021-07-21T11:26:43Z</time>
      </trkpt>
      <trkpt lat="42.95395" lon="0.73003">
        <ele>923.526</ele>
        <time>2021-07-21T11:25:12Z</time>
      </trkpt>
      <trkpt lat="42.9539" lon="0.7301">
        <ele>922.925</ele>
        <time>2021-07-21T11:25:10Z</time>
      </trkpt>
      <trkpt lat="42.95385" lon="0.73013">
        <ele>922.595</ele>
        <time>2021-07-21T11:25:08Z</time>
      </trkpt>
      <trkpt lat="42.95379" lon="0.73015">
        <ele>922.44</ele>
        <time>2021-07-21T11:25:06Z</time>
      </trkpt>
      <trkpt lat="42.95373" lon="0.73019">
        <ele>922.886</ele>
        <time>2021-07-21T11:25:04Z</time>
      </trkpt>
      <trkpt lat="42.9537" lon="0.73024">
        <ele>923.258</ele>
        <time>2021-07-21T11:25:02Z</time>
      </trkpt>
      <trkpt lat="42.95366" lon="0.7303">
        <ele>923.444</ele>
        <time>2021-07-21T11:25:00Z</time>
      </trkpt>
      <trkpt lat="42.95361" lon="0.73035">
        <ele>923.513</ele>
        <time>2021-07-21T11:24:58Z</time>
      </trkpt>
      <trkpt lat="42.95355" lon="0.7304">
        <ele>923.484</ele>
        <time>2021-07-21T11:24:56Z</time>
      </trkpt>
      <trkpt lat="42.95349" lon="0.73046">
        <ele>922.913</ele>
        <time>2021-07-21T11:24:54Z</time>
      </trkpt>
      <trkpt lat="42.95344" lon="0.7305">
        <ele>922.508</ele>
        <time>2021-07-21T11:24:52Z</time>
      </trkpt>
      <trkpt lat="42.95339" lon="0.73053">
        <ele>922.213</ele>
        <time>2021-07-21T11:24:50Z</time>
      </trkpt>
      <trkpt lat="42.95335" lon="0.73056">
        <ele>921.821</ele>
        <time>2021-07-21T11:24:48Z</time>
      </trkpt>
      <trkpt lat="42.9533" lon="0.73061">
        <ele>921.561</ele>
        <time>2021-07-21T11:24:46Z</time>
      </trkpt>
      <trkpt lat="42.95326" lon="0.73065">
        <ele>921.192</ele>
        <time>2021-07-21T11:24:44Z</time>
      </trkpt>
      <trkpt lat="42.95322" lon="0.73069">
        <ele>920.837</ele>
        <time>2021-07-21T11:24:42Z</time>
      </trkpt>
      <trkpt lat="42.95318" lon="0.73072">
        <ele>920.513</ele>
        <time>2021-07-21T11:24:40Z</time>
      </trkpt>
      <trkpt lat="42.95313" lon="0.73075">
        <ele>920.385</ele>
        <time>2021-07-21T11:24:38Z</time>
      </trkpt>
      <trkpt lat="42.95308" lon="0.73079">
        <ele>920.381</ele>
        <time>2021-07-21T11:24:36Z</time>
      </trkpt>
      <trkpt lat="42.95304" lon="0.73082">
        <ele>920.12</ele>
        <time>2021-07-21T11:24:34Z</time>
      </trkpt>
      <trkpt lat="42.95299" lon="0.73085">
        <ele>920.051</ele>
        <time>2021-07-21T11:24:32Z</time>
      </trkpt>
      <trkpt lat="42.95293" lon="0.73087">
        <ele>919.94</ele>
        <time>2021-07-21T11:24:30Z</time>
      </trkpt>
      <trkpt lat="42.95288" lon="0.73093">
        <ele>919.908</ele>
        <time>2021-07-21T11:24:28Z</time>
      </trkpt>
      <trkpt lat="42.95283" lon="0.73098">
        <ele>919.018</ele>
        <time>2021-07-21T11:24:26Z</time>
      </trkpt>
      <trkpt lat="42.95279" lon="0.73104">
        <ele>918.117</ele>
        <time>2021-07-21T11:24:24Z</time>
      </trkpt>
      <trkpt lat="42.95274" lon="0.73109">
        <ele>917.436</ele>
        <time>2021-07-21T11:24:22Z</time>
      </trkpt>
      <trkpt lat="42.95269" lon="0.73114">
        <ele>917.055</ele>
        <time>2021-07-21T11:24:20Z</time>
      </trkpt>
      <trkpt lat="42.95262" lon="0.73116">
        <ele>916.69</ele>
        <time>2021-07-21T11:24:18Z</time>
      </trkpt>
      <trkpt lat="42.95255" lon="0.73117">
        <ele>915.696</ele>
        <time>2021-07-21T11:24:16Z</time>
      </trkpt>
      <trkpt lat="42.9525" lon="0.73119">
        <ele>913.998</ele>
        <time>2021-07-21T11:24:14Z</time>
      </trkpt>
      <trkpt lat="42.95245" lon="0.73119">
        <ele>912.434</ele>
        <time>2021-07-21T11:24:12Z</time>
      </trkpt>
      <trkpt lat="42.95239" lon="0.73119">
        <ele>910.993</ele>
        <time>2021-07-21T11:24:10Z</time>
      </trkpt>
      <trkpt lat="42.95234" lon="0.73121">
        <ele>909.844</ele>
        <time>2021-07-21T11:24:08Z</time>
      </trkpt>
      <trkpt lat="42.9523" lon="0.73125">
        <ele>908.453</ele>
        <time>2021-07-21T11:24:07Z</time>
      </trkpt>
      <trkpt lat="42.95223" lon="0.73125">
        <ele>905.908</ele>
        <time>2021-07-21T11:24:04Z</time>
      </trkpt>
      <trkpt lat="42.95217" lon="0.73126">
        <ele>903.926</ele>
        <time>2021-07-21T11:24:01Z</time>
      </trkpt>
      <trkpt lat="42.95212" lon="0.73125">
        <ele>902.242</ele>
        <time>2021-07-21T11:23:58Z</time>
      </trkpt>
      <trkpt lat="42.95206" lon="0.73126">
        <ele>900.568</ele>
        <time>2021-07-21T11:23:54Z</time>
      </trkpt>
      <trkpt lat="42.95201" lon="0.73128">
        <ele>898.835</ele>
        <time>2021-07-21T11:23:51Z</time>
      </trkpt>
      <trkpt lat="42.95195" lon="0.7313">
        <ele>897.04</ele>
        <time>2021-07-21T11:23:48Z</time>
      </trkpt>
      <trkpt lat="42.9519" lon="0.73134">
        <ele>895.436</ele>
        <time>2021-07-21T11:23:44Z</time>
      </trkpt>
      <trkpt lat="42.95185" lon="0.73136">
        <ele>894.698</ele>
        <time>2021-07-21T11:23:41Z</time>
      </trkpt>
      <trkpt lat="42.95179" lon="0.73138">
        <ele>894.274</ele>
        <time>2021-07-21T11:23:38Z</time>
      </trkpt>
      <trkpt lat="42.95174" lon="0.73141">
        <ele>894.113</ele>
        <time>2021-07-21T11:23:35Z</time>
      </trkpt>
      <trkpt lat="42.95169" lon="0.73145">
        <ele>894.144</ele>
        <time>2021-07-21T11:23:32Z</time>
      </trkpt>
      <trkpt lat="42.95164" lon="0.7315">
        <ele>894.153</ele>
        <time>2021-07-21T11:23:29Z</time>
      </trkpt>
      <trkpt lat="42.95159" lon="0.73155">
        <ele>894.208</ele>
        <time>2021-07-21T11:23:26Z</time>
      </trkpt>
      <trkpt lat="42.95153" lon="0.7316">
        <ele>894.316</ele>
        <time>2021-07-21T11:23:23Z</time>
      </trkpt>
      <trkpt lat="42.95149" lon="0.73164">
        <ele>894.606</ele>
        <time>2021-07-21T11:23:20Z</time>
      </trkpt>
      <trkpt lat="42.95143" lon="0.73169">
        <ele>895.164</ele>
        <time>2021-07-21T11:23:17Z</time>
      </trkpt>
      <trkpt lat="42.95138" lon="0.73174">
        <ele>895.533</ele>
        <time>2021-07-21T11:23:14Z</time>
      </trkpt>
      <trkpt lat="42.95133" lon="0.73179">
        <ele>895.528</ele>
        <time>2021-07-21T11:23:11Z</time>
      </trkpt>
      <trkpt lat="42.95127" lon="0.73184">
        <ele>895.144</ele>
        <time>2021-07-21T11:23:08Z</time>
      </trkpt>
      <trkpt lat="42.95123" lon="0.73189">
        <ele>894.426</ele>
        <time>2021-07-21T11:23:05Z</time>
      </trkpt>
      <trkpt lat="42.95119" lon="0.73192">
        <ele>893.212</ele>
        <time>2021-07-21T11:23:02Z</time>
      </trkpt>
      <trkpt lat="42.95113" lon="0.73194">
        <ele>892.081</ele>
        <time>2021-07-21T11:22:58Z</time>
      </trkpt>
      <trkpt lat="42.95108" lon="0.73197">
        <ele>890.982</ele>
        <time>2021-07-21T11:22:53Z</time>
      </trkpt>
      <trkpt lat="42.95104" lon="0.732">
        <ele>890.541</ele>
        <time>2021-07-21T11:22:50Z</time>
      </trkpt>
      <trkpt lat="42.95101" lon="0.73206">
        <ele>890.308</ele>
        <time>2021-07-21T11:22:47Z</time>
      </trkpt>
      <trkpt lat="42.95098" lon="0.73212">
        <ele>890.222</ele>
        <time>2021-07-21T11:22:44Z</time>
      </trkpt>
      <trkpt lat="42.95093" lon="0.73219">
        <ele>890.102</ele>
        <time>2021-07-21T11:22:41Z</time>
      </trkpt>
      <trkpt lat="42.9509" lon="0.73226">
        <ele>889.849</ele>
        <time>2021-07-21T11:22:38Z</time>
      </trkpt>
      <trkpt lat="42.95086" lon="0.73232">
        <ele>889.164</ele>
        <time>2021-07-21T11:22:35Z</time>
      </trkpt>
      <trkpt lat="42.95083" lon="0.73237">
        <ele>888.399</ele>
        <time>2021-07-21T11:22:32Z</time>
      </trkpt>
      <trkpt lat="42.95078" lon="0.73242">
        <ele>887.845</ele>
        <time>2021-07-21T11:22:29Z</time>
      </trkpt>
      <trkpt lat="42.95074" lon="0.73248">
        <ele>887.257</ele>
        <time>2021-07-21T11:22:26Z</time>
      </trkpt>
      <trkpt lat="42.9507" lon="0.73254">
        <ele>886.823</ele>
        <time>2021-07-21T11:22:23Z</time>
      </trkpt>
      <trkpt lat="42.95065" lon="0.73258">
        <ele>886.432</ele>
        <time>2021-07-21T11:22:20Z</time>
      </trkpt>
      <trkpt lat="42.9506" lon="0.73261">
        <ele>886.093</ele>
        <time>2021-07-21T11:22:17Z</time>
      </trkpt>
      <trkpt lat="42.95056" lon="0.73263">
        <ele>885.782</ele>
        <time>2021-07-21T11:22:15Z</time>
      </trkpt>
      <trkpt lat="42.9505" lon="0.73265">
        <ele>885.308</ele>
        <time>2021-07-21T11:22:13Z</time>
      </trkpt>
      <trkpt lat="42.95045" lon="0.73266">
        <ele>884.914</ele>
        <time>2021-07-21T11:22:11Z</time>
      </trkpt>
      <trkpt lat="42.95041" lon="0.73266">
        <ele>884.459</ele>
        <time>2021-07-21T11:22:09Z</time>
      </trkpt>
      <trkpt lat="42.95036" lon="0.73265">
        <ele>883.756</ele>
        <time>2021-07-21T11:22:07Z</time>
      </trkpt>
      <trkpt lat="42.9503" lon="0.73262">
        <ele>882.938</ele>
        <time>2021-07-21T11:22:05Z</time>
      </trkpt>
      <trkpt lat="42.95024" lon="0.73259">
        <ele>881.673</ele>
        <time>2021-07-21T11:22:03Z</time>
      </trkpt>
      <trkpt lat="42.95012" lon="0.73252">
        <ele>879.519</ele>
        <time>2021-07-21T11:21:53Z</time>
      </trkpt>
      <trkpt lat="42.95" lon="0.73248">
        <ele>877.481</ele>
        <time>2021-07-21T11:21:45Z</time>
      </trkpt>
      <trkpt lat="42.94984" lon="0.7324">
        <ele>874.777</ele>
        <time>2021-07-21T11:21:29Z</time>
      </trkpt>
      <trkpt lat="42.9498" lon="0.7324">
        <ele>874.066</ele>
        <time>2021-07-21T11:21:27Z</time>
      </trkpt>
      <trkpt lat="42.94974" lon="0.73241">
        <ele>873.227</ele>
        <time>2021-07-21T11:21:25Z</time>
      </trkpt>
      <trkpt lat="42.94967" lon="0.73241">
        <ele>871.846</ele>
        <time>2021-07-21T11:21:22Z</time>
      </trkpt>
      <trkpt lat="42.94963" lon="0.73241">
        <ele>870.508</ele>
        <time>2021-07-21T11:21:20Z</time>
      </trkpt>
      <trkpt lat="42.94957" lon="0.73241">
        <ele>868.927</ele>
        <time>2021-07-21T11:21:18Z</time>
      </trkpt>
      <trkpt lat="42.94952" lon="0.7324">
        <ele>866.807</ele>
        <time>2021-07-21T11:21:16Z</time>
      </trkpt>
      <trkpt lat="42.94943" lon="0.7324">
        <ele>864.199</ele>
        <time>2021-07-21T11:21:11Z</time>
      </trkpt>
      <trkpt lat="42.94927" lon="0.73235">
        <ele>861.035</ele>
        <time>2021-07-21T11:20:56Z</time>
      </trkpt>
      <trkpt lat="42.94923" lon="0.73232">
        <ele>859.94</ele>
        <time>2021-07-21T11:20:54Z</time>
      </trkpt>
      <trkpt lat="42.94919" lon="0.73229">
        <ele>859.176</ele>
        <time>2021-07-21T11:20:52Z</time>
      </trkpt>
      <trkpt lat="42.94914" lon="0.73227">
        <ele>858.458</ele>
        <time>2021-07-21T11:20:50Z</time>
      </trkpt>
      <trkpt lat="42.9491" lon="0.73225">
        <ele>857.974</ele>
        <time>2021-07-21T11:20:48Z</time>
      </trkpt>
      <trkpt lat="42.94904" lon="0.73223">
        <ele>857.563</ele>
        <time>2021-07-21T11:20:46Z</time>
      </trkpt>
      <trkpt lat="42.94899" lon="0.7322">
        <ele>857.114</ele>
        <time>2021-07-21T11:20:44Z</time>
      </trkpt>
      <trkpt lat="42.94895" lon="0.73219">
        <ele>856.863</ele>
        <time>2021-07-21T11:20:42Z</time>
      </trkpt>
      <trkpt lat="42.9489" lon="0.73218">
        <ele>856.508</ele>
        <time>2021-07-21T11:20:40Z</time>
      </trkpt>
      <trkpt lat="42.94874" lon="0.73213">
        <ele>856.313</ele>
        <time>2021-07-21T11:20:29Z</time>
      </trkpt>
      <trkpt lat="42.94869" lon="0.73207">
        <ele>856.421</ele>
        <time>2021-07-21T11:20:26Z</time>
      </trkpt>
      <trkpt lat="42.94865" lon="0.73204">
        <ele>856.561</ele>
        <time>2021-07-21T11:20:24Z</time>
      </trkpt>
      <trkpt lat="42.94858" lon="0.73197">
        <ele>856.86</ele>
        <time>2021-07-21T11:20:18Z</time>
      </trkpt>
      <trkpt lat="42.94854" lon="0.73196">
        <ele>857.315</ele>
        <time>2021-07-21T11:20:15Z</time>
      </trkpt>
      <trkpt lat="42.94849" lon="0.73192">
        <ele>857.911</ele>
        <time>2021-07-21T11:20:12Z</time>
      </trkpt>
      <trkpt lat="42.94845" lon="0.73188">
        <ele>858.613</ele>
        <time>2021-07-21T11:20:09Z</time>
      </trkpt>
      <trkpt lat="42.94838" lon="0.73188">
        <ele>859.589</ele>
        <time>2021-07-21T11:19:31Z</time>
      </trkpt>
      <trkpt lat="42.94829" lon="0.73189">
        <ele>860.138</ele>
        <time>2021-07-21T11:19:29Z</time>
      </trkpt>
      <trkpt lat="42.94819" lon="0.73196">
        <ele>860.639</ele>
        <time>2021-07-21T11:19:27Z</time>
      </trkpt>
      <trkpt lat="42.94816" lon="0.73201">
        <ele>861.028</ele>
        <time>2021-07-21T11:19:26Z</time>
      </trkpt>
      <trkpt lat="42.9481" lon="0.73212">
        <ele>861.308</ele>
        <time>2021-07-21T11:19:24Z</time>
      </trkpt>
      <trkpt lat="42.94807" lon="0.73217">
        <ele>861.207</ele>
        <time>2021-07-21T11:19:23Z</time>
      </trkpt>
      <trkpt lat="42.94804" lon="0.73221">
        <ele>860.943</ele>
        <time>2021-07-21T11:19:22Z</time>
      </trkpt>
      <trkpt lat="42.94796" lon="0.73229">
        <ele>860.513</ele>
        <time>2021-07-21T11:19:20Z</time>
      </trkpt>
      <trkpt lat="42.94791" lon="0.73232">
        <ele>860.496</ele>
        <time>2021-07-21T11:19:19Z</time>
      </trkpt>
      <trkpt lat="42.94781" lon="0.73236">
        <ele>860.361</ele>
        <time>2021-07-21T11:19:17Z</time>
      </trkpt>
      <trkpt lat="42.94776" lon="0.73238">
        <ele>859.947</ele>
        <time>2021-07-21T11:19:16Z</time>
      </trkpt>
      <trkpt lat="42.94766" lon="0.73241">
        <ele>859.399</ele>
        <time>2021-07-21T11:19:14Z</time>
      </trkpt>
      <trkpt lat="42.94761" lon="0.73242">
        <ele>858.765</ele>
        <time>2021-07-21T11:19:13Z</time>
      </trkpt>
      <trkpt lat="42.94754" lon="0.73246">
        <ele>858.244</ele>
        <time>2021-07-21T11:19:11Z</time>
      </trkpt>
      <trkpt lat="42.94749" lon="0.73251">
        <ele>857.875</ele>
        <time>2021-07-21T11:19:09Z</time>
      </trkpt>
      <trkpt lat="42.94743" lon="0.73255">
        <ele>857.194</ele>
        <time>2021-07-21T11:19:07Z</time>
      </trkpt>
      <trkpt lat="42.94738" lon="0.73258">
        <ele>856.308</ele>
        <time>2021-07-21T11:19:05Z</time>
      </trkpt>
      <trkpt lat="42.94732" lon="0.73262">
        <ele>855.619</ele>
        <time>2021-07-21T11:19:03Z</time>
      </trkpt>
      <trkpt lat="42.94726" lon="0.73267">
        <ele>854.79</ele>
        <time>2021-07-21T11:19:01Z</time>
      </trkpt>
      <trkpt lat="42.94719" lon="0.7327">
        <ele>853.776</ele>
        <time>2021-07-21T11:18:59Z</time>
      </trkpt>
      <trkpt lat="42.94713" lon="0.73273">
        <ele>852.833</ele>
        <time>2021-07-21T11:18:57Z</time>
      </trkpt>
      <trkpt lat="42.94708" lon="0.73276">
        <ele>851.978</ele>
        <time>2021-07-21T11:18:55Z</time>
      </trkpt>
      <trkpt lat="42.94703" lon="0.73279">
        <ele>851.264</ele>
        <time>2021-07-21T11:18:53Z</time>
      </trkpt>
      <trkpt lat="42.94699" lon="0.73283">
        <ele>851.186</ele>
        <time>2021-07-21T11:18:51Z</time>
      </trkpt>
      <trkpt lat="42.94696" lon="0.7329">
        <ele>851.512</ele>
        <time>2021-07-21T11:18:48Z</time>
      </trkpt>
      <trkpt lat="42.94692" lon="0.73296">
        <ele>852.011</ele>
        <time>2021-07-21T11:18:43Z</time>
      </trkpt>
      <trkpt lat="42.94689" lon="0.73301">
        <ele>852.492</ele>
        <time>2021-07-21T11:18:40Z</time>
      </trkpt>
      <trkpt lat="42.94684" lon="0.73307">
        <ele>852.881</ele>
        <time>2021-07-21T11:18:37Z</time>
      </trkpt>
      <trkpt lat="42.94682" lon="0.73313">
        <ele>853.408</ele>
        <time>2021-07-21T11:18:35Z</time>
      </trkpt>
      <trkpt lat="42.94682" lon="0.73327">
        <ele>854.117</ele>
        <time>2021-07-21T11:18:33Z</time>
      </trkpt>
      <trkpt lat="42.94684" lon="0.73342">
        <ele>854.961</ele>
        <time>2021-07-21T11:18:31Z</time>
      </trkpt>
      <trkpt lat="42.9469" lon="0.73357">
        <ele>855.748</ele>
        <time>2021-07-21T11:18:29Z</time>
      </trkpt>
      <trkpt lat="42.94697" lon="0.73372">
        <ele>856.351</ele>
        <time>2021-07-21T11:18:27Z</time>
      </trkpt>
      <trkpt lat="42.94702" lon="0.73388">
        <ele>856.766</ele>
        <time>2021-07-21T11:18:25Z</time>
      </trkpt>
      <trkpt lat="42.94704" lon="0.73406">
        <ele>856.892</ele>
        <time>2021-07-21T11:18:23Z</time>
      </trkpt>
      <trkpt lat="42.94705" lon="0.7342">
        <ele>856.394</ele>
        <time>2021-07-21T11:18:21Z</time>
      </trkpt>
      <trkpt lat="42.94705" lon="0.73434">
        <ele>856.38</ele>
        <time>2021-07-21T11:18:19Z</time>
      </trkpt>
      <trkpt lat="42.94703" lon="0.73449">
        <ele>856.159</ele>
        <time>2021-07-21T11:18:17Z</time>
      </trkpt>
      <trkpt lat="42.94701" lon="0.73457">
        <ele>855.89</ele>
        <time>2021-07-21T11:18:16Z</time>
      </trkpt>
      <trkpt lat="42.94699" lon="0.73467">
        <ele>855.499</ele>
        <time>2021-07-21T11:18:15Z</time>
      </trkpt>
      <trkpt lat="42.94695" lon="0.73487">
        <ele>854.908</ele>
        <time>2021-07-21T11:18:13Z</time>
      </trkpt>
      <trkpt lat="42.9469" lon="0.73507">
        <ele>854.611</ele>
        <time>2021-07-21T11:18:11Z</time>
      </trkpt>
      <trkpt lat="42.94686" lon="0.73527">
        <ele>854.247</ele>
        <time>2021-07-21T11:18:09Z</time>
      </trkpt>
      <trkpt lat="42.94685" lon="0.73545">
        <ele>853.826</ele>
        <time>2021-07-21T11:18:07Z</time>
      </trkpt>
      <trkpt lat="42.94685" lon="0.73562">
        <ele>853.183</ele>
        <time>2021-07-21T11:18:05Z</time>
      </trkpt>
      <trkpt lat="42.94688" lon="0.73578">
        <ele>852.568</ele>
        <time>2021-07-21T11:18:03Z</time>
      </trkpt>
      <trkpt lat="42.94694" lon="0.73593">
        <ele>852.134</ele>
        <time>2021-07-21T11:18:01Z</time>
      </trkpt>
      <trkpt lat="42.94697" lon="0.73606">
        <ele>851.346</ele>
        <time>2021-07-21T11:17:59Z</time>
      </trkpt>
      <trkpt lat="42.94698" lon="0.7362">
        <ele>850.352</ele>
        <time>2021-07-21T11:17:57Z</time>
      </trkpt>
      <trkpt lat="42.94697" lon="0.73633">
        <ele>849.481</ele>
        <time>2021-07-21T11:17:55Z</time>
      </trkpt>
      <trkpt lat="42.94694" lon="0.73647">
        <ele>848.322</ele>
        <time>2021-07-21T11:17:53Z</time>
      </trkpt>
      <trkpt lat="42.94689" lon="0.73659">
        <ele>847.341</ele>
        <time>2021-07-21T11:17:51Z</time>
      </trkpt>
      <trkpt lat="42.94685" lon="0.7367">
        <ele>846.208</ele>
        <time>2021-07-21T11:17:49Z</time>
      </trkpt>
      <trkpt lat="42.94683" lon="0.73685">
        <ele>845.209</ele>
        <time>2021-07-21T11:17:47Z</time>
      </trkpt>
      <trkpt lat="42.94685" lon="0.73699">
        <ele>844.381</ele>
        <time>2021-07-21T11:17:45Z</time>
      </trkpt>
      <trkpt lat="42.94692" lon="0.73705">
        <ele>843.841</ele>
        <time>2021-07-21T11:17:43Z</time>
      </trkpt>
      <trkpt lat="42.94703" lon="0.73705">
        <ele>843.395</ele>
        <time>2021-07-21T11:17:41Z</time>
      </trkpt>
      <trkpt lat="42.94715" lon="0.73707">
        <ele>843.39</ele>
        <time>2021-07-21T11:17:39Z</time>
      </trkpt>
      <trkpt lat="42.9472" lon="0.7371">
        <ele>844.096</ele>
        <time>2021-07-21T11:17:38Z</time>
      </trkpt>
      <trkpt lat="42.94723" lon="0.73715">
        <ele>844.868</ele>
        <time>2021-07-21T11:17:37Z</time>
      </trkpt>
      <trkpt lat="42.94729" lon="0.73725">
        <ele>845.764</ele>
        <time>2021-07-21T11:17:35Z</time>
      </trkpt>
      <trkpt lat="42.94734" lon="0.73728">
        <ele>846.213</ele>
        <time>2021-07-21T11:17:34Z</time>
      </trkpt>
      <trkpt lat="42.94739" lon="0.7373">
        <ele>846.864</ele>
        <time>2021-07-21T11:17:33Z</time>
      </trkpt>
      <trkpt lat="42.94746" lon="0.73727">
        <ele>847.553</ele>
        <time>2021-07-21T11:17:31Z</time>
      </trkpt>
      <trkpt lat="42.94753" lon="0.73718">
        <ele>848.408</ele>
        <time>2021-07-21T11:17:29Z</time>
      </trkpt>
      <trkpt lat="42.94761" lon="0.73708">
        <ele>849.419</ele>
        <time>2021-07-21T11:17:27Z</time>
      </trkpt>
      <trkpt lat="42.94765" lon="0.73702">
        <ele>850.481</ele>
        <time>2021-07-21T11:17:26Z</time>
      </trkpt>
      <trkpt lat="42.94769" lon="0.73697">
        <ele>851.767</ele>
        <time>2021-07-21T11:17:25Z</time>
      </trkpt>
      <trkpt lat="42.94778" lon="0.73688">
        <ele>853.574</ele>
        <time>2021-07-21T11:17:23Z</time>
      </trkpt>
      <trkpt lat="42.94788" lon="0.73681">
        <ele>854.929</ele>
        <time>2021-07-21T11:17:21Z</time>
      </trkpt>
      <trkpt lat="42.94792" lon="0.73677">
        <ele>855.755</ele>
        <time>2021-07-21T11:17:20Z</time>
      </trkpt>
      <trkpt lat="42.948" lon="0.73671">
        <ele>856.487</ele>
        <time>2021-07-21T11:17:18Z</time>
      </trkpt>
      <trkpt lat="42.94807" lon="0.73665">
        <ele>857.043</ele>
        <time>2021-07-21T11:17:16Z</time>
      </trkpt>
      <trkpt lat="42.94813" lon="0.7366">
        <ele>857.732</ele>
        <time>2021-07-21T11:17:14Z</time>
      </trkpt>
      <trkpt lat="42.94818" lon="0.73657">
        <ele>858.243</ele>
        <time>2021-07-21T11:17:12Z</time>
      </trkpt>
      <trkpt lat="42.94823" lon="0.73654">
        <ele>858.782</ele>
        <time>2021-07-21T11:17:10Z</time>
      </trkpt>
      <trkpt lat="42.94829" lon="0.73651">
        <ele>859.308</ele>
        <time>2021-07-21T11:17:07Z</time>
      </trkpt>
      <trkpt lat="42.94835" lon="0.73653">
        <ele>859.723</ele>
        <time>2021-07-21T11:17:04Z</time>
      </trkpt>
      <trkpt lat="42.9484" lon="0.73658">
        <ele>860.203</ele>
        <time>2021-07-21T11:17:01Z</time>
      </trkpt>
      <trkpt lat="42.94845" lon="0.73664">
        <ele>860.659</ele>
        <time>2021-07-21T11:16:58Z</time>
      </trkpt>
      <trkpt lat="42.94848" lon="0.73668">
        <ele>861.034</ele>
        <time>2021-07-21T11:16:56Z</time>
      </trkpt>
      <trkpt lat="42.94852" lon="0.73673">
        <ele>861.089</ele>
        <time>2021-07-21T11:16:54Z</time>
      </trkpt>
      <trkpt lat="42.94856" lon="0.73679">
        <ele>861.055</ele>
        <time>2021-07-21T11:16:51Z</time>
      </trkpt>
      <trkpt lat="42.9486" lon="0.73686">
        <ele>860.947</ele>
        <time>2021-07-21T11:16:48Z</time>
      </trkpt>
      <trkpt lat="42.94864" lon="0.73692">
        <ele>860.823</ele>
        <time>2021-07-21T11:16:45Z</time>
      </trkpt>
      <trkpt lat="42.94867" lon="0.73698">
        <ele>860.782</ele>
        <time>2021-07-21T11:16:42Z</time>
      </trkpt>
      <trkpt lat="42.94869" lon="0.73705">
        <ele>860.773</ele>
        <time>2021-07-21T11:16:39Z</time>
      </trkpt>
      <trkpt lat="42.94872" lon="0.7371">
        <ele>861.172</ele>
        <time>2021-07-21T11:16:36Z</time>
      </trkpt>
      <trkpt lat="42.94875" lon="0.73717">
        <ele>861.608</ele>
        <time>2021-07-21T11:16:33Z</time>
      </trkpt>
      <trkpt lat="42.94878" lon="0.73725">
        <ele>861.923</ele>
        <time>2021-07-21T11:16:30Z</time>
      </trkpt>
      <trkpt lat="42.9488" lon="0.73731">
        <ele>862.003</ele>
        <time>2021-07-21T11:16:27Z</time>
      </trkpt>
      <trkpt lat="42.94883" lon="0.73737">
        <ele>862.159</ele>
        <time>2021-07-21T11:16:24Z</time>
      </trkpt>
      <trkpt lat="42.94888" lon="0.73743">
        <ele>862.237</ele>
        <time>2021-07-21T11:16:21Z</time>
      </trkpt>
      <trkpt lat="42.94892" lon="0.73748">
        <ele>861.842</ele>
        <time>2021-07-21T11:16:18Z</time>
      </trkpt>
      <trkpt lat="42.94896" lon="0.73753">
        <ele>860.548</ele>
        <time>2021-07-21T11:16:15Z</time>
      </trkpt>
      <trkpt lat="42.94898" lon="0.7376">
        <ele>859.62</ele>
        <time>2021-07-21T11:16:12Z</time>
      </trkpt>
      <trkpt lat="42.94902" lon="0.73766">
        <ele>858.236</ele>
        <time>2021-07-21T11:16:09Z</time>
      </trkpt>
      <trkpt lat="42.94905" lon="0.73771">
        <ele>856.995</ele>
        <time>2021-07-21T11:16:06Z</time>
      </trkpt>
      <trkpt lat="42.94909" lon="0.73776">
        <ele>855.536</ele>
        <time>2021-07-21T11:16:03Z</time>
      </trkpt>
      <trkpt lat="42.94913" lon="0.73781">
        <ele>853.715</ele>
        <time>2021-07-21T11:16:00Z</time>
      </trkpt>
      <trkpt lat="42.94915" lon="0.73787">
        <ele>851.808</ele>
        <time>2021-07-21T11:15:57Z</time>
      </trkpt>
      <trkpt lat="42.94917" lon="0.73794">
        <ele>849.626</ele>
        <time>2021-07-21T11:15:52Z</time>
      </trkpt>
      <trkpt lat="42.94919" lon="0.73801">
        <ele>847.606</ele>
        <time>2021-07-21T11:15:47Z</time>
      </trkpt>
      <trkpt lat="42.94922" lon="0.7381">
        <ele>845.489</ele>
        <time>2021-07-21T11:15:41Z</time>
      </trkpt>
      <trkpt lat="42.94924" lon="0.73816">
        <ele>843.864</ele>
        <time>2021-07-21T11:15:37Z</time>
      </trkpt>
      <trkpt lat="42.94927" lon="0.73822">
        <ele>842.189</ele>
        <time>2021-07-21T11:15:33Z</time>
      </trkpt>
      <trkpt lat="42.94928" lon="0.73828">
        <ele>840.535</ele>
        <time>2021-07-21T11:15:30Z</time>
      </trkpt>
      <trkpt lat="42.9493" lon="0.73835">
        <ele>838.997</ele>
        <time>2021-07-21T11:15:26Z</time>
      </trkpt>
      <trkpt lat="42.9493" lon="0.73843">
        <ele>836.973</ele>
        <time>2021-07-21T11:15:22Z</time>
      </trkpt>
      <trkpt lat="42.94932" lon="0.73853">
        <ele>834.552</ele>
        <time>2021-07-21T11:15:16Z</time>
      </trkpt>
      <trkpt lat="42.94935" lon="0.7386">
        <ele>832.673</ele>
        <time>2021-07-21T11:15:12Z</time>
      </trkpt>
      <trkpt lat="42.94938" lon="0.73865">
        <ele>831.292</ele>
        <time>2021-07-21T11:15:09Z</time>
      </trkpt>
      <trkpt lat="42.94942" lon="0.73872">
        <ele>829.908</ele>
        <time>2021-07-21T11:15:06Z</time>
      </trkpt>
      <trkpt lat="42.94946" lon="0.73879">
        <ele>829.011</ele>
        <time>2021-07-21T11:15:03Z</time>
      </trkpt>
      <trkpt lat="42.94948" lon="0.73885">
        <ele>828.056</ele>
        <time>2021-07-21T11:15:00Z</time>
      </trkpt>
      <trkpt lat="42.94951" lon="0.73892">
        <ele>827.454</ele>
        <time>2021-07-21T11:14:57Z</time>
      </trkpt>
      <trkpt lat="42.94955" lon="0.73896">
        <ele>826.964</ele>
        <time>2021-07-21T11:14:55Z</time>
      </trkpt>
      <trkpt lat="42.94958" lon="0.73902">
        <ele>826.369</ele>
        <time>2021-07-21T11:14:53Z</time>
      </trkpt>
      <trkpt lat="42.94961" lon="0.7391">
        <ele>825.895</ele>
        <time>2021-07-21T11:14:51Z</time>
      </trkpt>
      <trkpt lat="42.94965" lon="0.73916">
        <ele>825.477</ele>
        <time>2021-07-21T11:14:49Z</time>
      </trkpt>
      <trkpt lat="42.94968" lon="0.73921">
        <ele>825.143</ele>
        <time>2021-07-21T11:14:47Z</time>
      </trkpt>
      <trkpt lat="42.94972" lon="0.73927">
        <ele>824.552</ele>
        <time>2021-07-21T11:14:44Z</time>
      </trkpt>
      <trkpt lat="42.94979" lon="0.73932">
        <ele>823.763</ele>
        <time>2021-07-21T11:14:39Z</time>
      </trkpt>
      <trkpt lat="42.94985" lon="0.73934">
        <ele>822.942</ele>
        <time>2021-07-21T11:14:36Z</time>
      </trkpt>
      <trkpt lat="42.94991" lon="0.73935">
        <ele>822.208</ele>
        <time>2021-07-21T11:14:33Z</time>
      </trkpt>
      <trkpt lat="42.94998" lon="0.73934">
        <ele>821.923</ele>
        <time>2021-07-21T11:14:31Z</time>
      </trkpt>
      <trkpt lat="42.95005" lon="0.73929">
        <ele>822.003</ele>
        <time>2021-07-21T11:14:29Z</time>
      </trkpt>
      <trkpt lat="42.9501" lon="0.73921">
        <ele>822.159</ele>
        <time>2021-07-21T11:14:27Z</time>
      </trkpt>
      <trkpt lat="42.95015" lon="0.7391">
        <ele>822.183</ele>
        <time>2021-07-21T11:14:25Z</time>
      </trkpt>
      <trkpt lat="42.95018" lon="0.73898">
        <ele>822.388</ele>
        <time>2021-07-21T11:14:23Z</time>
      </trkpt>
      <trkpt lat="42.95022" lon="0.73884">
        <ele>822.544</ele>
        <time>2021-07-21T11:14:21Z</time>
      </trkpt>
      <trkpt lat="42.95024" lon="0.73877">
        <ele>822.686</ele>
        <time>2021-07-21T11:14:20Z</time>
      </trkpt>
      <trkpt lat="42.95027" lon="0.73869">
        <ele>822.822</ele>
        <time>2021-07-21T11:14:19Z</time>
      </trkpt>
      <trkpt lat="42.95034" lon="0.73854">
        <ele>822.881</ele>
        <time>2021-07-21T11:14:17Z</time>
      </trkpt>
      <trkpt lat="42.95037" lon="0.73846">
        <ele>822.732</ele>
        <time>2021-07-21T11:14:16Z</time>
      </trkpt>
      <trkpt lat="42.95042" lon="0.73832">
        <ele>822.421</ele>
        <time>2021-07-21T11:14:14Z</time>
      </trkpt>
      <trkpt lat="42.95045" lon="0.73826">
        <ele>822.008</ele>
        <time>2021-07-21T11:14:13Z</time>
      </trkpt>
      <trkpt lat="42.9505" lon="0.73815">
        <ele>821.521</ele>
        <time>2021-07-21T11:14:11Z</time>
      </trkpt>
      <trkpt lat="42.95053" lon="0.73809">
        <ele>821.729</ele>
        <time>2021-07-21T11:14:10Z</time>
      </trkpt>
      <trkpt lat="42.95056" lon="0.73795">
        <ele>821.847</ele>
        <time>2021-07-21T11:14:08Z</time>
      </trkpt>
      <trkpt lat="42.95057" lon="0.73786">
        <ele>822.074</ele>
        <time>2021-07-21T11:14:07Z</time>
      </trkpt>
      <trkpt lat="42.95059" lon="0.7377">
        <ele>822.439</ele>
        <time>2021-07-21T11:14:05Z</time>
      </trkpt>
      <trkpt lat="42.9506" lon="0.73762">
        <ele>822.665</ele>
        <time>2021-07-21T11:14:04Z</time>
      </trkpt>
      <trkpt lat="42.95062" lon="0.73746">
        <ele>822.957</ele>
        <time>2021-07-21T11:14:02Z</time>
      </trkpt>
      <trkpt lat="42.95064" lon="0.73739">
        <ele>823.693</ele>
        <time>2021-07-21T11:14:01Z</time>
      </trkpt>
      <trkpt lat="42.95069" lon="0.73726">
        <ele>824.342</ele>
        <time>2021-07-21T11:13:59Z</time>
      </trkpt>
      <trkpt lat="42.95073" lon="0.73721">
        <ele>825.153</ele>
        <time>2021-07-21T11:13:58Z</time>
      </trkpt>
      <trkpt lat="42.95081" lon="0.73713">
        <ele>826.022</ele>
        <time>2021-07-21T11:13:56Z</time>
      </trkpt>
      <trkpt lat="42.95086" lon="0.7371">
        <ele>826.808</ele>
        <time>2021-07-21T11:13:55Z</time>
      </trkpt>
      <trkpt lat="42.95099" lon="0.73707">
        <ele>827.623</ele>
        <time>2021-07-21T11:13:53Z</time>
      </trkpt>
      <trkpt lat="42.95106" lon="0.73706">
        <ele>828.103</ele>
        <time>2021-07-21T11:13:52Z</time>
      </trkpt>
      <trkpt lat="42.95119" lon="0.73706">
        <ele>828.759</ele>
        <time>2021-07-21T11:13:50Z</time>
      </trkpt>
      <trkpt lat="42.95126" lon="0.73707">
        <ele>829.351</ele>
        <time>2021-07-21T11:13:49Z</time>
      </trkpt>
      <trkpt lat="42.95139" lon="0.73706">
        <ele>829.946</ele>
        <time>2021-07-21T11:13:47Z</time>
      </trkpt>
      <trkpt lat="42.95151" lon="0.73705">
        <ele>830.342</ele>
        <time>2021-07-21T11:13:45Z</time>
      </trkpt>
      <trkpt lat="42.95157" lon="0.73707">
        <ele>830.454</ele>
        <time>2021-07-21T11:13:44Z</time>
      </trkpt>
      <trkpt lat="42.95163" lon="0.73708">
        <ele>830.63</ele>
        <time>2021-07-21T11:13:43Z</time>
      </trkpt>
      <trkpt lat="42.95174" lon="0.7371">
        <ele>830.979</ele>
        <time>2021-07-21T11:13:41Z</time>
      </trkpt>
      <trkpt lat="42.9518" lon="0.73712">
        <ele>831.36</ele>
        <time>2021-07-21T11:13:40Z</time>
      </trkpt>
      <trkpt lat="42.95191" lon="0.73715">
        <ele>831.739</ele>
        <time>2021-07-21T11:13:38Z</time>
      </trkpt>
      <trkpt lat="42.95196" lon="0.73716">
        <ele>831.908</ele>
        <time>2021-07-21T11:13:37Z</time>
      </trkpt>
      <trkpt lat="42.95205" lon="0.73718">
        <ele>832.208</ele>
        <time>2021-07-21T11:13:35Z</time>
      </trkpt>
      <trkpt lat="42.95209" lon="0.73719">
        <ele>832.662</ele>
        <time>2021-07-21T11:13:34Z</time>
      </trkpt>
      <trkpt lat="42.95214" lon="0.7372">
        <ele>833.322</ele>
        <time>2021-07-21T11:13:33Z</time>
      </trkpt>
      <trkpt lat="42.9522" lon="0.73722">
        <ele>834.142</ele>
        <time>2021-07-21T11:13:32Z</time>
      </trkpt>
      <trkpt lat="42.95225" lon="0.73723">
        <ele>835.277</ele>
        <time>2021-07-21T11:13:31Z</time>
      </trkpt>
      <trkpt lat="42.95235" lon="0.73724">
        <ele>836.813</ele>
        <time>2021-07-21T11:13:29Z</time>
      </trkpt>
      <trkpt lat="42.95245" lon="0.73724">
        <ele>838.245</ele>
        <time>2021-07-21T11:13:27Z</time>
      </trkpt>
      <trkpt lat="42.9525" lon="0.73723">
        <ele>839.311</ele>
        <time>2021-07-21T11:13:26Z</time>
      </trkpt>
      <trkpt lat="42.95256" lon="0.73723">
        <ele>840.73</ele>
        <time>2021-07-21T11:13:25Z</time>
      </trkpt>
      <trkpt lat="42.95267" lon="0.73725">
        <ele>842.371</ele>
        <time>2021-07-21T11:13:23Z</time>
      </trkpt>
      <trkpt lat="42.95278" lon="0.73729">
        <ele>843.51</ele>
        <time>2021-07-21T11:13:21Z</time>
      </trkpt>
      <trkpt lat="42.95284" lon="0.73732">
        <ele>844.408</ele>
        <time>2021-07-21T11:13:20Z</time>
      </trkpt>
      <trkpt lat="42.9529" lon="0.73734">
        <ele>845.418</ele>
        <time>2021-07-21T11:13:19Z</time>
      </trkpt>
      <trkpt lat="42.95301" lon="0.73738">
        <ele>846.517</ele>
        <time>2021-07-21T11:13:17Z</time>
      </trkpt>
      <trkpt lat="42.95307" lon="0.7374">
        <ele>847.436</ele>
        <time>2021-07-21T11:13:16Z</time>
      </trkpt>
      <trkpt lat="42.95319" lon="0.73746">
        <ele>848.314</ele>
        <time>2021-07-21T11:13:14Z</time>
      </trkpt>
      <trkpt lat="42.95325" lon="0.73749">
        <ele>848.839</ele>
        <time>2021-07-21T11:13:13Z</time>
      </trkpt>
      <trkpt lat="42.95336" lon="0.73755">
        <ele>849.375</ele>
        <time>2021-07-21T11:13:11Z</time>
      </trkpt>
      <trkpt lat="42.95341" lon="0.73757">
        <ele>849.257</ele>
        <time>2021-07-21T11:13:10Z</time>
      </trkpt>
      <trkpt lat="42.95347" lon="0.73759">
        <ele>849.033</ele>
        <time>2021-07-21T11:13:09Z</time>
      </trkpt>
      <trkpt lat="42.95353" lon="0.73762">
        <ele>848.962</ele>
        <time>2021-07-21T11:13:08Z</time>
      </trkpt>
      <trkpt lat="42.95357" lon="0.73766">
        <ele>848.633</ele>
        <time>2021-07-21T11:13:07Z</time>
      </trkpt>
      <trkpt lat="42.95365" lon="0.73773">
        <ele>848.392</ele>
        <time>2021-07-21T11:13:05Z</time>
      </trkpt>
      <trkpt lat="42.9537" lon="0.73776">
        <ele>848.308</ele>
        <time>2021-07-21T11:13:04Z</time>
      </trkpt>
      <trkpt lat="42.95374" lon="0.73779">
        <ele>848.411</ele>
        <time>2021-07-21T11:13:03Z</time>
      </trkpt>
      <trkpt lat="42.95378" lon="0.73783">
        <ele>848.301</ele>
        <time>2021-07-21T11:13:02Z</time>
      </trkpt>
      <trkpt lat="42.95382" lon="0.73788">
        <ele>848.351</ele>
        <time>2021-07-21T11:13:01Z</time>
      </trkpt>
      <trkpt lat="42.95388" lon="0.73798">
        <ele>848.031</ele>
        <time>2021-07-21T11:12:59Z</time>
      </trkpt>
      <trkpt lat="42.95394" lon="0.73807">
        <ele>847.486</ele>
        <time>2021-07-21T11:12:57Z</time>
      </trkpt>
      <trkpt lat="42.95399" lon="0.73814">
        <ele>846.712</ele>
        <time>2021-07-21T11:12:55Z</time>
      </trkpt>
      <trkpt lat="42.95403" lon="0.73819">
        <ele>846.164</ele>
        <time>2021-07-21T11:12:53Z</time>
      </trkpt>
      <trkpt lat="42.95407" lon="0.73824">
        <ele>845.24</ele>
        <time>2021-07-21T11:12:51Z</time>
      </trkpt>
      <trkpt lat="42.95411" lon="0.73831">
        <ele>844.219</ele>
        <time>2021-07-21T11:12:49Z</time>
      </trkpt>
      <trkpt lat="42.95415" lon="0.73838">
        <ele>843.09</ele>
        <time>2021-07-21T11:12:47Z</time>
      </trkpt>
      <trkpt lat="42.95418" lon="0.73847">
        <ele>841.979</ele>
        <time>2021-07-21T11:12:45Z</time>
      </trkpt>
      <trkpt lat="42.95419" lon="0.73855">
        <ele>841.208</ele>
        <time>2021-07-21T11:12:43Z</time>
      </trkpt>
      <trkpt lat="42.9542" lon="0.73864">
        <ele>840.711</ele>
        <time>2021-07-21T11:12:41Z</time>
      </trkpt>
      <trkpt lat="42.95422" lon="0.73875">
        <ele>840.647</ele>
        <time>2021-07-21T11:12:39Z</time>
      </trkpt>
      <trkpt lat="42.95426" lon="0.73884">
        <ele>841.026</ele>
        <time>2021-07-21T11:12:37Z</time>
      </trkpt>
      <trkpt lat="42.9543" lon="0.73885">
        <ele>841.666</ele>
        <time>2021-07-21T11:12:35Z</time>
      </trkpt>
      <trkpt lat="42.95437" lon="0.73886">
        <ele>842.641</ele>
        <time>2021-07-21T11:12:33Z</time>
      </trkpt>
      <trkpt lat="42.95444" lon="0.73886">
        <ele>843.917</ele>
        <time>2021-07-21T11:12:31Z</time>
      </trkpt>
      <trkpt lat="42.9545" lon="0.73886">
        <ele>844.739</ele>
        <time>2021-07-21T11:12:29Z</time>
      </trkpt>
      <trkpt lat="42.95457" lon="0.73886">
        <ele>845.225</ele>
        <time>2021-07-21T11:12:27Z</time>
      </trkpt>
      <trkpt lat="42.95464" lon="0.73886">
        <ele>845.324</ele>
        <time>2021-07-21T11:12:25Z</time>
      </trkpt>
      <trkpt lat="42.9547" lon="0.73886">
        <ele>845.155</ele>
        <time>2021-07-21T11:12:23Z</time>
      </trkpt>
      <trkpt lat="42.95477" lon="0.73885">
        <ele>844.834</ele>
        <time>2021-07-21T11:12:21Z</time>
      </trkpt>
      <trkpt lat="42.95484" lon="0.73885">
        <ele>844.508</ele>
        <time>2021-07-21T11:12:19Z</time>
      </trkpt>
      <trkpt lat="42.9549" lon="0.73883">
        <ele>844.42</ele>
        <time>2021-07-21T11:12:17Z</time>
      </trkpt>
      <trkpt lat="42.95497" lon="0.73881">
        <ele>844.428</ele>
        <time>2021-07-21T11:12:15Z</time>
      </trkpt>
      <trkpt lat="42.95503" lon="0.7388">
        <ele>844.675</ele>
        <time>2021-07-21T11:12:13Z</time>
      </trkpt>
      <trkpt lat="42.9551" lon="0.7388">
        <ele>844.75</ele>
        <time>2021-07-21T11:12:11Z</time>
      </trkpt>
      <trkpt lat="42.95517" lon="0.73881">
        <ele>844.825</ele>
        <time>2021-07-21T11:12:09Z</time>
      </trkpt>
      <trkpt lat="42.95523" lon="0.73882">
        <ele>844.951</ele>
        <time>2021-07-21T11:12:07Z</time>
      </trkpt>
      <trkpt lat="42.9553" lon="0.73884">
        <ele>844.633</ele>
        <time>2021-07-21T11:12:05Z</time>
      </trkpt>
      <trkpt lat="42.95535" lon="0.73885">
        <ele>844.199</ele>
        <time>2021-07-21T11:12:03Z</time>
      </trkpt>
      <trkpt lat="42.9554" lon="0.73886">
        <ele>843.918</ele>
        <time>2021-07-21T11:12:01Z</time>
      </trkpt>
      <trkpt lat="42.95545" lon="0.73888">
        <ele>843.779</ele>
        <time>2021-07-21T11:11:59Z</time>
      </trkpt>
      <trkpt lat="42.95549" lon="0.73891">
        <ele>843.638</ele>
        <time>2021-07-21T11:11:56Z</time>
      </trkpt>
      <trkpt lat="42.95554" lon="0.73892">
        <ele>844.308</ele>
        <time>2021-07-21T11:11:54Z</time>
      </trkpt>
      <trkpt lat="42.95559" lon="0.73894">
        <ele>845.613</ele>
        <time>2021-07-21T11:11:52Z</time>
      </trkpt>
      <trkpt lat="42.95565" lon="0.73895">
        <ele>846.776</ele>
        <time>2021-07-21T11:11:50Z</time>
      </trkpt>
      <trkpt lat="42.95571" lon="0.73897">
        <ele>847.516</ele>
        <time>2021-07-21T11:11:48Z</time>
      </trkpt>
      <trkpt lat="42.95576" lon="0.73898">
        <ele>847.593</ele>
        <time>2021-07-21T11:11:46Z</time>
      </trkpt>
      <trkpt lat="42.95581" lon="0.739">
        <ele>847.298</ele>
        <time>2021-07-21T11:11:44Z</time>
      </trkpt>
      <trkpt lat="42.95587" lon="0.73902">
        <ele>846.864</ele>
        <time>2021-07-21T11:11:41Z</time>
      </trkpt>
      <trkpt lat="42.95591" lon="0.73905">
        <ele>846.036</ele>
        <time>2021-07-21T11:11:39Z</time>
      </trkpt>
      <trkpt lat="42.95596" lon="0.7391">
        <ele>844.762</ele>
        <time>2021-07-21T11:11:36Z</time>
      </trkpt>
      <trkpt lat="42.956" lon="0.73916">
        <ele>843.671</ele>
        <time>2021-07-21T11:11:33Z</time>
      </trkpt>
      <trkpt lat="42.95604" lon="0.73922">
        <ele>842.912</ele>
        <time>2021-07-21T11:11:30Z</time>
      </trkpt>
      <trkpt lat="42.95608" lon="0.73929">
        <ele>842.011</ele>
        <time>2021-07-21T11:11:27Z</time>
      </trkpt>
      <trkpt lat="42.95612" lon="0.73935">
        <ele>841.708</ele>
        <time>2021-07-21T11:11:24Z</time>
      </trkpt>
      <trkpt lat="42.95616" lon="0.73939">
        <ele>841.716</ele>
        <time>2021-07-21T11:11:22Z</time>
      </trkpt>
      <trkpt lat="42.95618" lon="0.73944">
        <ele>841.588</ele>
        <time>2021-07-21T11:11:20Z</time>
      </trkpt>
      <trkpt lat="42.95621" lon="0.73949">
        <ele>841.146</ele>
        <time>2021-07-21T11:11:18Z</time>
      </trkpt>
      <trkpt lat="42.95625" lon="0.73954">
        <ele>840.686</ele>
        <time>2021-07-21T11:11:16Z</time>
      </trkpt>
      <trkpt lat="42.95629" lon="0.73958">
        <ele>840.271</ele>
        <time>2021-07-21T11:11:14Z</time>
      </trkpt>
      <trkpt lat="42.95634" lon="0.73962">
        <ele>839.767</ele>
        <time>2021-07-21T11:11:11Z</time>
      </trkpt>
      <trkpt lat="42.95639" lon="0.73966">
        <ele>839.329</ele>
        <time>2021-07-21T11:11:08Z</time>
      </trkpt>
      <trkpt lat="42.95644" lon="0.73969">
        <ele>839.515</ele>
        <time>2021-07-21T11:11:05Z</time>
      </trkpt>
      <trkpt lat="42.95649" lon="0.73974">
        <ele>839.544</ele>
        <time>2021-07-21T11:11:02Z</time>
      </trkpt>
      <trkpt lat="42.95653" lon="0.7398">
        <ele>839.385</ele>
        <time>2021-07-21T11:10:59Z</time>
      </trkpt>
      <trkpt lat="42.95656" lon="0.73986">
        <ele>839.224</ele>
        <time>2021-07-21T11:10:56Z</time>
      </trkpt>
      <trkpt lat="42.95659" lon="0.73994">
        <ele>839.408</ele>
        <time>2021-07-21T11:10:53Z</time>
      </trkpt>
      <trkpt lat="42.9566" lon="0.74002">
        <ele>839.525</ele>
        <time>2021-07-21T11:10:50Z</time>
      </trkpt>
      <trkpt lat="42.95659" lon="0.74011">
        <ele>839.405</ele>
        <time>2021-07-21T11:10:47Z</time>
      </trkpt>
      <trkpt lat="42.95659" lon="0.7402">
        <ele>839.279</ele>
        <time>2021-07-21T11:10:44Z</time>
      </trkpt>
      <trkpt lat="42.95658" lon="0.74028">
        <ele>838.91</ele>
        <time>2021-07-21T11:10:41Z</time>
      </trkpt>
      <trkpt lat="42.95658" lon="0.74037">
        <ele>838.235</ele>
        <time>2021-07-21T11:10:38Z</time>
      </trkpt>
      <trkpt lat="42.95657" lon="0.74043">
        <ele>837.441</ele>
        <time>2021-07-21T11:10:36Z</time>
      </trkpt>
      <trkpt lat="42.95656" lon="0.74051">
        <ele>836.323</ele>
        <time>2021-07-21T11:10:33Z</time>
      </trkpt>
      <trkpt lat="42.95655" lon="0.74058">
        <ele>834.979</ele>
        <time>2021-07-21T11:10:30Z</time>
      </trkpt>
      <trkpt lat="42.95653" lon="0.74066">
        <ele>833.878</ele>
        <time>2021-07-21T11:10:27Z</time>
      </trkpt>
      <trkpt lat="42.95652" lon="0.74072">
        <ele>832.389</ele>
        <time>2021-07-21T11:10:25Z</time>
      </trkpt>
      <trkpt lat="42.95652" lon="0.74079">
        <ele>830.398</ele>
        <time>2021-07-21T11:10:23Z</time>
      </trkpt>
      <trkpt lat="42.95651" lon="0.74087">
        <ele>827.808</ele>
        <time>2021-07-21T11:10:20Z</time>
      </trkpt>
      <trkpt lat="42.95652" lon="0.74095">
        <ele>825.605</ele>
        <time>2021-07-21T11:10:17Z</time>
      </trkpt>
      <trkpt lat="42.95652" lon="0.74101">
        <ele>824.132</ele>
        <time>2021-07-21T11:10:15Z</time>
      </trkpt>
      <trkpt lat="42.95652" lon="0.74107">
        <ele>823.112</ele>
        <time>2021-07-21T11:10:13Z</time>
      </trkpt>
      <trkpt lat="42.95651" lon="0.74113">
        <ele>822.242</ele>
        <time>2021-07-21T11:10:11Z</time>
      </trkpt>
      <trkpt lat="42.9565" lon="0.7412">
        <ele>821.367</ele>
        <time>2021-07-21T11:10:09Z</time>
      </trkpt>
      <trkpt lat="42.9565" lon="0.74128">
        <ele>820.483</ele>
        <time>2021-07-21T11:10:07Z</time>
      </trkpt>
      <trkpt lat="42.9565" lon="0.74135">
        <ele>819.925</ele>
        <time>2021-07-21T11:10:05Z</time>
      </trkpt>
      <trkpt lat="42.95649" lon="0.74143">
        <ele>819.521</ele>
        <time>2021-07-21T11:10:03Z</time>
      </trkpt>
      <trkpt lat="42.95649" lon="0.74149">
        <ele>818.99</ele>
        <time>2021-07-21T11:10:01Z</time>
      </trkpt>
      <trkpt lat="42.95647" lon="0.74157">
        <ele>818.751</ele>
        <time>2021-07-21T11:09:59Z</time>
      </trkpt>
      <trkpt lat="42.95645" lon="0.74165">
        <ele>818.32</ele>
        <time>2021-07-21T11:09:57Z</time>
      </trkpt>
      <trkpt lat="42.95644" lon="0.74173">
        <ele>817.608</ele>
        <time>2021-07-21T11:09:55Z</time>
      </trkpt>
      <trkpt lat="42.95642" lon="0.74181">
        <ele>816.918</ele>
        <time>2021-07-21T11:09:53Z</time>
      </trkpt>
      <trkpt lat="42.9564" lon="0.74189">
        <ele>815.917</ele>
        <time>2021-07-21T11:09:51Z</time>
      </trkpt>
      <trkpt lat="42.95638" lon="0.74196">
        <ele>814.736</ele>
        <time>2021-07-21T11:09:49Z</time>
      </trkpt>
      <trkpt lat="42.95636" lon="0.74204">
        <ele>813.566</ele>
        <time>2021-07-21T11:09:47Z</time>
      </trkpt>
      <trkpt lat="42.95635" lon="0.74212">
        <ele>812.261</ele>
        <time>2021-07-21T11:09:45Z</time>
      </trkpt>
      <trkpt lat="42.95634" lon="0.7422">
        <ele>810.727</ele>
        <time>2021-07-21T11:09:43Z</time>
      </trkpt>
      <trkpt lat="42.95634" lon="0.74228">
        <ele>809.169</ele>
        <time>2021-07-21T11:09:41Z</time>
      </trkpt>
      <trkpt lat="42.95634" lon="0.74235">
        <ele>807.525</ele>
        <time>2021-07-21T11:09:39Z</time>
      </trkpt>
      <trkpt lat="42.95634" lon="0.74243">
        <ele>805.834</ele>
        <time>2021-07-21T11:09:37Z</time>
      </trkpt>
      <trkpt lat="42.95635" lon="0.74252">
        <ele>804.545</ele>
        <time>2021-07-21T11:09:35Z</time>
      </trkpt>
      <trkpt lat="42.95637" lon="0.7426">
        <ele>803.694</ele>
        <time>2021-07-21T11:09:33Z</time>
      </trkpt>
      <trkpt lat="42.95641" lon="0.74267">
        <ele>803.308</ele>
        <time>2021-07-21T11:09:31Z</time>
      </trkpt>
      <trkpt lat="42.95647" lon="0.74271">
        <ele>803.314</ele>
        <time>2021-07-21T11:09:29Z</time>
      </trkpt>
      <trkpt lat="42.95654" lon="0.74271">
        <ele>803.313</ele>
        <time>2021-07-21T11:09:27Z</time>
      </trkpt>
      <trkpt lat="42.9566" lon="0.74269">
        <ele>803.272</ele>
        <time>2021-07-21T11:09:25Z</time>
      </trkpt>
      <trkpt lat="42.95665" lon="0.74264">
        <ele>802.868</ele>
        <time>2021-07-21T11:09:23Z</time>
      </trkpt>
      <trkpt lat="42.9567" lon="0.74259">
        <ele>802.553</ele>
        <time>2021-07-21T11:09:21Z</time>
      </trkpt>
      <trkpt lat="42.95675" lon="0.74253">
        <ele>802.239</ele>
        <time>2021-07-21T11:09:19Z</time>
      </trkpt>
      <trkpt lat="42.9568" lon="0.74248">
        <ele>802.091</ele>
        <time>2021-07-21T11:09:17Z</time>
      </trkpt>
      <trkpt lat="42.95684" lon="0.74243">
        <ele>801.797</ele>
        <time>2021-07-21T11:09:15Z</time>
      </trkpt>
      <trkpt lat="42.95689" lon="0.74238">
        <ele>801.496</ele>
        <time>2021-07-21T11:09:13Z</time>
      </trkpt>
      <trkpt lat="42.95694" lon="0.74234">
        <ele>801.487</ele>
        <time>2021-07-21T11:09:11Z</time>
      </trkpt>
      <trkpt lat="42.95699" lon="0.7423">
        <ele>801.626</ele>
        <time>2021-07-21T11:09:09Z</time>
      </trkpt>
      <trkpt lat="42.95705" lon="0.74226">
        <ele>802.008</ele>
        <time>2021-07-21T11:09:07Z</time>
      </trkpt>
      <trkpt lat="42.95711" lon="0.74221">
        <ele>802.326</ele>
        <time>2021-07-21T11:09:05Z</time>
      </trkpt>
      <trkpt lat="42.95716" lon="0.74216">
        <ele>802.515</ele>
        <time>2021-07-21T11:09:03Z</time>
      </trkpt>
      <trkpt lat="42.95721" lon="0.74209">
        <ele>802.798</ele>
        <time>2021-07-21T11:09:01Z</time>
      </trkpt>
      <trkpt lat="42.95726" lon="0.74203">
        <ele>802.856</ele>
        <time>2021-07-21T11:08:59Z</time>
      </trkpt>
      <trkpt lat="42.95731" lon="0.74197">
        <ele>802.671</ele>
        <time>2021-07-21T11:08:57Z</time>
      </trkpt>
      <trkpt lat="42.95736" lon="0.74192">
        <ele>802.017</ele>
        <time>2021-07-21T11:08:55Z</time>
      </trkpt>
      <trkpt lat="42.95741" lon="0.74186">
        <ele>801.399</ele>
        <time>2021-07-21T11:08:53Z</time>
      </trkpt>
      <trkpt lat="42.95744" lon="0.7418">
        <ele>800.575</ele>
        <time>2021-07-21T11:08:51Z</time>
      </trkpt>
      <trkpt lat="42.95747" lon="0.74175">
        <ele>799.914</ele>
        <time>2021-07-21T11:08:49Z</time>
      </trkpt>
      <trkpt lat="42.95751" lon="0.74169">
        <ele>799.595</ele>
        <time>2021-07-21T11:08:47Z</time>
      </trkpt>
      <trkpt lat="42.95756" lon="0.74162">
        <ele>799.534</ele>
        <time>2021-07-21T11:08:45Z</time>
      </trkpt>
      <trkpt lat="42.95761" lon="0.74156">
        <ele>799.208</ele>
        <time>2021-07-21T11:08:43Z</time>
      </trkpt>
      <trkpt lat="42.95766" lon="0.74148">
        <ele>798.621</ele>
        <time>2021-07-21T11:08:41Z</time>
      </trkpt>
      <trkpt lat="42.9577" lon="0.74142">
        <ele>797.956</ele>
        <time>2021-07-21T11:08:39Z</time>
      </trkpt>
      <trkpt lat="42.95774" lon="0.74136">
        <ele>797.174</ele>
        <time>2021-07-21T11:08:37Z</time>
      </trkpt>
      <trkpt lat="42.95779" lon="0.7413">
        <ele>796.766</ele>
        <time>2021-07-21T11:08:35Z</time>
      </trkpt>
      <trkpt lat="42.95784" lon="0.74124">
        <ele>796.211</ele>
        <time>2021-07-21T11:08:33Z</time>
      </trkpt>
      <trkpt lat="42.95789" lon="0.74118">
        <ele>795.897</ele>
        <time>2021-07-21T11:08:31Z</time>
      </trkpt>
      <trkpt lat="42.95793" lon="0.74112">
        <ele>795.449</ele>
        <time>2021-07-21T11:08:29Z</time>
      </trkpt>
      <trkpt lat="42.95798" lon="0.74106">
        <ele>795.015</ele>
        <time>2021-07-21T11:08:27Z</time>
      </trkpt>
      <trkpt lat="42.95803" lon="0.74099">
        <ele>795.034</ele>
        <time>2021-07-21T11:08:25Z</time>
      </trkpt>
      <trkpt lat="42.95807" lon="0.74093">
        <ele>794.925</ele>
        <time>2021-07-21T11:08:23Z</time>
      </trkpt>
      <trkpt lat="42.95813" lon="0.74088">
        <ele>795.194</ele>
        <time>2021-07-21T11:08:21Z</time>
      </trkpt>
      <trkpt lat="42.95818" lon="0.74082">
        <ele>795.608</ele>
        <time>2021-07-21T11:08:19Z</time>
      </trkpt>
      <trkpt lat="42.95824" lon="0.74077">
        <ele>796.225</ele>
        <time>2021-07-21T11:08:17Z</time>
      </trkpt>
      <trkpt lat="42.95828" lon="0.74071">
        <ele>796.705</ele>
        <time>2021-07-21T11:08:15Z</time>
      </trkpt>
      <trkpt lat="42.95834" lon="0.74065">
        <ele>797.279</ele>
        <time>2021-07-21T11:08:13Z</time>
      </trkpt>
      <trkpt lat="42.9584" lon="0.7406">
        <ele>797.752</ele>
        <time>2021-07-21T11:08:11Z</time>
      </trkpt>
      <trkpt lat="42.95845" lon="0.74055">
        <ele>798.427</ele>
        <time>2021-07-21T11:08:09Z</time>
      </trkpt>
      <trkpt lat="42.95851" lon="0.7405">
        <ele>799.443</ele>
        <time>2021-07-21T11:08:07Z</time>
      </trkpt>
      <trkpt lat="42.95858" lon="0.74045">
        <ele>800.615</ele>
        <time>2021-07-21T11:08:05Z</time>
      </trkpt>
      <trkpt lat="42.95864" lon="0.74042">
        <ele>802.191</ele>
        <time>2021-07-21T11:08:03Z</time>
      </trkpt>
      <trkpt lat="42.9587" lon="0.74038">
        <ele>803.39</ele>
        <time>2021-07-21T11:08:01Z</time>
      </trkpt>
      <trkpt lat="42.95876" lon="0.74036">
        <ele>804.251</ele>
        <time>2021-07-21T11:07:59Z</time>
      </trkpt>
      <trkpt lat="42.95882" lon="0.74035">
        <ele>805.03</ele>
        <time>2021-07-21T11:07:57Z</time>
      </trkpt>
      <trkpt lat="42.95889" lon="0.74034">
        <ele>806.208</ele>
        <time>2021-07-21T11:07:55Z</time>
      </trkpt>
      <trkpt lat="42.95895" lon="0.74035">
        <ele>807.613</ele>
        <time>2021-07-21T11:07:53Z</time>
      </trkpt>
      <trkpt lat="42.95902" lon="0.74036">
        <ele>809.049</ele>
        <time>2021-07-21T11:07:51Z</time>
      </trkpt>
      <trkpt lat="42.95909" lon="0.74038">
        <ele>810.337</ele>
        <time>2021-07-21T11:07:49Z</time>
      </trkpt>
      <trkpt lat="42.95915" lon="0.7404">
        <ele>811.324</ele>
        <time>2021-07-21T11:07:47Z</time>
      </trkpt>
      <trkpt lat="42.95922" lon="0.74043">
        <ele>812.289</ele>
        <time>2021-07-21T11:07:45Z</time>
      </trkpt>
      <trkpt lat="42.95928" lon="0.74047">
        <ele>812.615</ele>
        <time>2021-07-21T11:07:43Z</time>
      </trkpt>
      <trkpt lat="42.95933" lon="0.74052">
        <ele>812.227</ele>
        <time>2021-07-21T11:07:41Z</time>
      </trkpt>
      <trkpt lat="42.95938" lon="0.74057">
        <ele>811.153</ele>
        <time>2021-07-21T11:07:39Z</time>
      </trkpt>
      <trkpt lat="42.95943" lon="0.74063">
        <ele>809.942</ele>
        <time>2021-07-21T11:07:37Z</time>
      </trkpt>
      <trkpt lat="42.95947" lon="0.7407">
        <ele>809.163</ele>
        <time>2021-07-21T11:07:35Z</time>
      </trkpt>
      <trkpt lat="42.9595" lon="0.74077">
        <ele>808.632</ele>
        <time>2021-07-21T11:07:33Z</time>
      </trkpt>
      <trkpt lat="42.95955" lon="0.74083">
        <ele>808.608</ele>
        <time>2021-07-21T11:07:31Z</time>
      </trkpt>
      <trkpt lat="42.95957" lon="0.7409">
        <ele>808.82</ele>
        <time>2021-07-21T11:07:29Z</time>
      </trkpt>
      <trkpt lat="42.95961" lon="0.74095">
        <ele>809.6</ele>
        <time>2021-07-21T11:07:27Z</time>
      </trkpt>
      <trkpt lat="42.95965" lon="0.74101">
        <ele>810.857</ele>
        <time>2021-07-21T11:07:25Z</time>
      </trkpt>
      <trkpt lat="42.95967" lon="0.74108">
        <ele>812.39</ele>
        <time>2021-07-21T11:07:23Z</time>
      </trkpt>
      <trkpt lat="42.95971" lon="0.74114">
        <ele>813.975</ele>
        <time>2021-07-21T11:07:21Z</time>
      </trkpt>
      <trkpt lat="42.95974" lon="0.74122">
        <ele>815.371</ele>
        <time>2021-07-21T11:07:19Z</time>
      </trkpt>
      <trkpt lat="42.95977" lon="0.74132">
        <ele>817.053</ele>
        <time>2021-07-21T11:07:17Z</time>
      </trkpt>
      <trkpt lat="42.95977" lon="0.7414">
        <ele>818.569</ele>
        <time>2021-07-21T11:07:15Z</time>
      </trkpt>
      <trkpt lat="42.95976" lon="0.74147">
        <ele>820.068</ele>
        <time>2021-07-21T11:07:13Z</time>
      </trkpt>
      <trkpt lat="42.95973" lon="0.74158">
        <ele>821.399</ele>
        <time>2021-07-21T11:07:04Z</time>
      </trkpt>
      <trkpt lat="42.95972" lon="0.74166">
        <ele>822.098</ele>
        <time>2021-07-21T11:07:02Z</time>
      </trkpt>
      <trkpt lat="42.95969" lon="0.74174">
        <ele>822.308</ele>
        <time>2021-07-21T11:07:00Z</time>
      </trkpt>
      <trkpt lat="42.95966" lon="0.74182">
        <ele>822.815</ele>
        <time>2021-07-21T11:06:58Z</time>
      </trkpt>
      <trkpt lat="42.95964" lon="0.74191">
        <ele>823.187</ele>
        <time>2021-07-21T11:06:56Z</time>
      </trkpt>
      <trkpt lat="42.95961" lon="0.74199">
        <ele>823.517</ele>
        <time>2021-07-21T11:06:54Z</time>
      </trkpt>
      <trkpt lat="42.95959" lon="0.74208">
        <ele>824.078</ele>
        <time>2021-07-21T11:06:52Z</time>
      </trkpt>
      <trkpt lat="42.95956" lon="0.74217">
        <ele>824.173</ele>
        <time>2021-07-21T11:06:50Z</time>
      </trkpt>
      <trkpt lat="42.95955" lon="0.74225">
        <ele>824.149</ele>
        <time>2021-07-21T11:06:48Z</time>
      </trkpt>
      <trkpt lat="42.95954" lon="0.74234">
        <ele>823.981</ele>
        <time>2021-07-21T11:06:46Z</time>
      </trkpt>
      <trkpt lat="42.95954" lon="0.74242">
        <ele>823.467</ele>
        <time>2021-07-21T11:06:44Z</time>
      </trkpt>
      <trkpt lat="42.95952" lon="0.74252">
        <ele>822.866</ele>
        <time>2021-07-21T11:06:42Z</time>
      </trkpt>
      <trkpt lat="42.95953" lon="0.7426">
        <ele>822.187</ele>
        <time>2021-07-21T11:06:40Z</time>
      </trkpt>
      <trkpt lat="42.95954" lon="0.74268">
        <ele>821.086</ele>
        <time>2021-07-21T11:06:38Z</time>
      </trkpt>
      <trkpt lat="42.95954" lon="0.74278">
        <ele>819.208</ele>
        <time>2021-07-21T11:06:36Z</time>
      </trkpt>
      <trkpt lat="42.95954" lon="0.74286">
        <ele>816.426</ele>
        <time>2021-07-21T11:06:34Z</time>
      </trkpt>
      <trkpt lat="42.95953" lon="0.74294">
        <ele>813.115</ele>
        <time>2021-07-21T11:06:32Z</time>
      </trkpt>
      <trkpt lat="42.95953" lon="0.74302">
        <ele>810.998</ele>
        <time>2021-07-21T11:06:30Z</time>
      </trkpt>
      <trkpt lat="42.95954" lon="0.74311">
        <ele>809.052</ele>
        <time>2021-07-21T11:06:28Z</time>
      </trkpt>
      <trkpt lat="42.95955" lon="0.74318">
        <ele>806.017</ele>
        <time>2021-07-21T11:06:26Z</time>
      </trkpt>
      <trkpt lat="42.95956" lon="0.74325">
        <ele>802.183</ele>
        <time>2021-07-21T11:06:24Z</time>
      </trkpt>
      <trkpt lat="42.95957" lon="0.74333">
        <ele>798.145</ele>
        <time>2021-07-21T11:06:21Z</time>
      </trkpt>
      <trkpt lat="42.95957" lon="0.7434">
        <ele>796.041</ele>
        <time>2021-07-21T11:06:19Z</time>
      </trkpt>
      <trkpt lat="42.95956" lon="0.74347">
        <ele>794.43</ele>
        <time>2021-07-21T11:06:17Z</time>
      </trkpt>
      <trkpt lat="42.95955" lon="0.74355">
        <ele>792.641</ele>
        <time>2021-07-21T11:06:15Z</time>
      </trkpt>
      <trkpt lat="42.95952" lon="0.74364">
        <ele>790.74</ele>
        <time>2021-07-21T11:06:13Z</time>
      </trkpt>
      <trkpt lat="42.95949" lon="0.74372">
        <ele>788.708</ele>
        <time>2021-07-21T11:06:11Z</time>
      </trkpt>
      <trkpt lat="42.95946" lon="0.74379">
        <ele>786.918</ele>
        <time>2021-07-21T11:06:09Z</time>
      </trkpt>
      <trkpt lat="42.95947" lon="0.74387">
        <ele>785.617</ele>
        <time>2021-07-21T11:06:07Z</time>
      </trkpt>
      <trkpt lat="42.9595" lon="0.74396">
        <ele>784.836</ele>
        <time>2021-07-21T11:06:05Z</time>
      </trkpt>
      <trkpt lat="42.95956" lon="0.74406">
        <ele>784.285</ele>
        <time>2021-07-21T11:06:03Z</time>
      </trkpt>
      <trkpt lat="42.95963" lon="0.74416">
        <ele>784.13</ele>
        <time>2021-07-21T11:06:01Z</time>
      </trkpt>
      <trkpt lat="42.95971" lon="0.74418">
        <ele>784.536</ele>
        <time>2021-07-21T11:05:59Z</time>
      </trkpt>
      <trkpt lat="42.95978" lon="0.74415">
        <ele>784.878</ele>
        <time>2021-07-21T11:05:57Z</time>
      </trkpt>
      <trkpt lat="42.95985" lon="0.74412">
        <ele>785.124</ele>
        <time>2021-07-21T11:05:55Z</time>
      </trkpt>
      <trkpt lat="42.95992" lon="0.74407">
        <ele>785.443</ele>
        <time>2021-07-21T11:05:53Z</time>
      </trkpt>
      <trkpt lat="42.95998" lon="0.74403">
        <ele>785.224</ele>
        <time>2021-07-21T11:05:51Z</time>
      </trkpt>
      <trkpt lat="42.96005" lon="0.74399">
        <ele>784.923</ele>
        <time>2021-07-21T11:05:49Z</time>
      </trkpt>
      <trkpt lat="42.96011" lon="0.74395">
        <ele>784.608</ele>
        <time>2021-07-21T11:05:47Z</time>
      </trkpt>
      <trkpt lat="42.96017" lon="0.74391">
        <ele>784.226</ele>
        <time>2021-07-21T11:05:45Z</time>
      </trkpt>
      <trkpt lat="42.96023" lon="0.74387">
        <ele>783.542</ele>
        <time>2021-07-21T11:05:43Z</time>
      </trkpt>
      <trkpt lat="42.9603" lon="0.74383">
        <ele>782.668</ele>
        <time>2021-07-21T11:05:41Z</time>
      </trkpt>
      <trkpt lat="42.96035" lon="0.74378">
        <ele>781.731</ele>
        <time>2021-07-21T11:05:39Z</time>
      </trkpt>
      <trkpt lat="42.9604" lon="0.74372">
        <ele>780.826</ele>
        <time>2021-07-21T11:05:37Z</time>
      </trkpt>
      <trkpt lat="42.96045" lon="0.74364">
        <ele>780.062</ele>
        <time>2021-07-21T11:05:35Z</time>
      </trkpt>
      <trkpt lat="42.96049" lon="0.74357">
        <ele>779.294</ele>
        <time>2021-07-21T11:05:33Z</time>
      </trkpt>
      <trkpt lat="42.96052" lon="0.74349">
        <ele>778.68</ele>
        <time>2021-07-21T11:05:31Z</time>
      </trkpt>
      <trkpt lat="42.96057" lon="0.74343">
        <ele>778.359</ele>
        <time>2021-07-21T11:05:29Z</time>
      </trkpt>
      <trkpt lat="42.96061" lon="0.74337">
        <ele>778.56</ele>
        <time>2021-07-21T11:05:27Z</time>
      </trkpt>
      <trkpt lat="42.96067" lon="0.74333">
        <ele>778.959</ele>
        <time>2021-07-21T11:05:25Z</time>
      </trkpt>
      <trkpt lat="42.96075" lon="0.7433">
        <ele>779.108</ele>
        <time>2021-07-21T11:05:23Z</time>
      </trkpt>
      <trkpt lat="42.96083" lon="0.7433">
        <ele>779.408</ele>
        <time>2021-07-21T11:05:21Z</time>
      </trkpt>
      <trkpt lat="42.96091" lon="0.74331">
        <ele>779.362</ele>
        <time>2021-07-21T11:05:19Z</time>
      </trkpt>
      <trkpt lat="42.96098" lon="0.74331">
        <ele>779.422</ele>
        <time>2021-07-21T11:05:17Z</time>
      </trkpt>
      <trkpt lat="42.96106" lon="0.74331">
        <ele>779.146</ele>
        <time>2021-07-21T11:05:15Z</time>
      </trkpt>
      <trkpt lat="42.9611" lon="0.74331">
        <ele>778.681</ele>
        <time>2021-07-21T11:05:14Z</time>
      </trkpt>
      <trkpt lat="42.96119" lon="0.74332">
        <ele>777.837</ele>
        <time>2021-07-21T11:05:12Z</time>
      </trkpt>
      <trkpt lat="42.96126" lon="0.74333">
        <ele>777.059</ele>
        <time>2021-07-21T11:05:10Z</time>
      </trkpt>
      <trkpt lat="42.96133" lon="0.74334">
        <ele>776.625</ele>
        <time>2021-07-21T11:05:08Z</time>
      </trkpt>
      <trkpt lat="42.96141" lon="0.74336">
        <ele>776.554</ele>
        <time>2021-07-21T11:05:06Z</time>
      </trkpt>
      <trkpt lat="42.96148" lon="0.74338">
        <ele>776.475</ele>
        <time>2021-07-21T11:05:04Z</time>
      </trkpt>
      <trkpt lat="42.96157" lon="0.74339">
        <ele>776.894</ele>
        <time>2021-07-21T11:05:02Z</time>
      </trkpt>
      <trkpt lat="42.96162" lon="0.74339">
        <ele>777.508</ele>
        <time>2021-07-21T11:05:01Z</time>
      </trkpt>
      <trkpt lat="42.9617" lon="0.7434">
        <ele>778.113</ele>
        <time>2021-07-21T11:04:59Z</time>
      </trkpt>
      <trkpt lat="42.96178" lon="0.74342">
        <ele>778.585</ele>
        <time>2021-07-21T11:04:57Z</time>
      </trkpt>
      <trkpt lat="42.96186" lon="0.74344">
        <ele>779.173</ele>
        <time>2021-07-21T11:04:55Z</time>
      </trkpt>
      <trkpt lat="42.96195" lon="0.74346">
        <ele>779.611</ele>
        <time>2021-07-21T11:04:53Z</time>
      </trkpt>
      <trkpt lat="42.96203" lon="0.74351">
        <ele>780.316</ele>
        <time>2021-07-21T11:04:51Z</time>
      </trkpt>
      <trkpt lat="42.96211" lon="0.74355">
        <ele>780.712</ele>
        <time>2021-07-21T11:04:49Z</time>
      </trkpt>
      <trkpt lat="42.96219" lon="0.74361">
        <ele>780.834</ele>
        <time>2021-07-21T11:04:47Z</time>
      </trkpt>
      <trkpt lat="42.96226" lon="0.74369">
        <ele>781.26</ele>
        <time>2021-07-21T11:04:45Z</time>
      </trkpt>
      <trkpt lat="42.96232" lon="0.74376">
        <ele>781.559</ele>
        <time>2021-07-21T11:04:43Z</time>
      </trkpt>
      <trkpt lat="42.96238" lon="0.74386">
        <ele>781.33</ele>
        <time>2021-07-21T11:04:41Z</time>
      </trkpt>
      <trkpt lat="42.96239" lon="0.74392">
        <ele>781.259</ele>
        <time>2021-07-21T11:04:40Z</time>
      </trkpt>
      <trkpt lat="42.96242" lon="0.74397">
        <ele>780.908</ele>
        <time>2021-07-21T11:04:39Z</time>
      </trkpt>
      <trkpt lat="42.96245" lon="0.74408">
        <ele>780.311</ele>
        <time>2021-07-21T11:04:37Z</time>
      </trkpt>
      <trkpt lat="42.96248" lon="0.74419">
        <ele>779.847</ele>
        <time>2021-07-21T11:04:35Z</time>
      </trkpt>
      <trkpt lat="42.96252" lon="0.74428">
        <ele>779.226</ele>
        <time>2021-07-21T11:04:33Z</time>
      </trkpt>
      <trkpt lat="42.96255" lon="0.74439">
        <ele>778.284</ele>
        <time>2021-07-21T11:04:31Z</time>
      </trkpt>
      <trkpt lat="42.96257" lon="0.7445">
        <ele>776.649</ele>
        <time>2021-07-21T11:04:29Z</time>
      </trkpt>
      <trkpt lat="42.9626" lon="0.7446">
        <ele>774.045</ele>
        <time>2021-07-21T11:04:27Z</time>
      </trkpt>
      <trkpt lat="42.96262" lon="0.74469">
        <ele>771.397</ele>
        <time>2021-07-21T11:04:25Z</time>
      </trkpt>
      <trkpt lat="42.96265" lon="0.74478">
        <ele>770.363</ele>
        <time>2021-07-21T11:04:23Z</time>
      </trkpt>
      <trkpt lat="42.96269" lon="0.74487">
        <ele>769.412</ele>
        <time>2021-07-21T11:04:21Z</time>
      </trkpt>
      <trkpt lat="42.96274" lon="0.74495">
        <ele>768.783</ele>
        <time>2021-07-21T11:04:19Z</time>
      </trkpt>
      <trkpt lat="42.96276" lon="0.74504">
        <ele>768.152</ele>
        <time>2021-07-21T11:04:17Z</time>
      </trkpt>
      <trkpt lat="42.96281" lon="0.74512">
        <ele>767.708</ele>
        <time>2021-07-21T11:04:15Z</time>
      </trkpt>
      <trkpt lat="42.96284" lon="0.74521">
        <ele>767.423</ele>
        <time>2021-07-21T11:04:13Z</time>
      </trkpt>
      <trkpt lat="42.96288" lon="0.7453">
        <ele>767.103</ele>
        <time>2021-07-21T11:04:11Z</time>
      </trkpt>
      <trkpt lat="42.96292" lon="0.74538">
        <ele>766.759</ele>
        <time>2021-07-21T11:04:09Z</time>
      </trkpt>
      <trkpt lat="42.96297" lon="0.74547">
        <ele>766.39</ele>
        <time>2021-07-21T11:04:07Z</time>
      </trkpt>
      <trkpt lat="42.96302" lon="0.74555">
        <ele>765.935</ele>
        <time>2021-07-21T11:04:05Z</time>
      </trkpt>
      <trkpt lat="42.96306" lon="0.74565">
        <ele>765.641</ele>
        <time>2021-07-21T11:04:03Z</time>
      </trkpt>
      <trkpt lat="42.96308" lon="0.74574">
        <ele>765.443</ele>
        <time>2021-07-21T11:04:01Z</time>
      </trkpt>
      <trkpt lat="42.9631" lon="0.74584">
        <ele>765.049</ele>
        <time>2021-07-21T11:03:59Z</time>
      </trkpt>
      <trkpt lat="42.96312" lon="0.74594">
        <ele>764.548</ele>
        <time>2021-07-21T11:03:57Z</time>
      </trkpt>
      <trkpt lat="42.96314" lon="0.74599">
        <ele>764.279</ele>
        <time>2021-07-21T11:03:56Z</time>
      </trkpt>
      <trkpt lat="42.96316" lon="0.74606">
        <ele>764.058</ele>
        <time>2021-07-21T11:03:55Z</time>
      </trkpt>
      <trkpt lat="42.9632" lon="0.74613">
        <ele>764.008</ele>
        <time>2021-07-21T11:03:54Z</time>
      </trkpt>
      <trkpt lat="42.96328" lon="0.74621">
        <ele>764.107</ele>
        <time>2021-07-21T11:03:52Z</time>
      </trkpt>
      <trkpt lat="42.96337" lon="0.74621">
        <ele>764.343</ele>
        <time>2021-07-21T11:03:50Z</time>
      </trkpt>
      <trkpt lat="42.96342" lon="0.74619">
        <ele>764.713</ele>
        <time>2021-07-21T11:03:49Z</time>
      </trkpt>
      <trkpt lat="42.96355" lon="0.74612">
        <ele>765.487</ele>
        <time>2021-07-21T11:03:47Z</time>
      </trkpt>
      <trkpt lat="42.96371" lon="0.74602">
        <ele>766.192</ele>
        <time>2021-07-21T11:03:45Z</time>
      </trkpt>
      <trkpt lat="42.96379" lon="0.74596">
        <ele>766.868</ele>
        <time>2021-07-21T11:03:44Z</time>
      </trkpt>
      <trkpt lat="42.96388" lon="0.7459">
        <ele>767.84</ele>
        <time>2021-07-21T11:03:43Z</time>
      </trkpt>
      <trkpt lat="42.96405" lon="0.74575">
        <ele>768.936</ele>
        <time>2021-07-21T11:03:41Z</time>
      </trkpt>
      <trkpt lat="42.96412" lon="0.74567">
        <ele>769.675</ele>
        <time>2021-07-21T11:03:40Z</time>
      </trkpt>
      <trkpt lat="42.96419" lon="0.74559">
        <ele>770.666</ele>
        <time>2021-07-21T11:03:39Z</time>
      </trkpt>
      <trkpt lat="42.96426" lon="0.7455">
        <ele>771.755</ele>
        <time>2021-07-21T11:03:38Z</time>
      </trkpt>
      <trkpt lat="42.96433" lon="0.74541">
        <ele>772.908</ele>
        <time>2021-07-21T11:03:37Z</time>
      </trkpt>
      <trkpt lat="42.96447" lon="0.74526">
        <ele>774.417</ele>
        <time>2021-07-21T11:03:35Z</time>
      </trkpt>
      <trkpt lat="42.96454" lon="0.74519">
        <ele>775.861</ele>
        <time>2021-07-21T11:03:34Z</time>
      </trkpt>
      <trkpt lat="42.96469" lon="0.7451">
        <ele>777.581</ele>
        <time>2021-07-21T11:03:32Z</time>
      </trkpt>
      <trkpt lat="42.96477" lon="0.74506">
        <ele>779.054</ele>
        <time>2021-07-21T11:03:31Z</time>
      </trkpt>
      <trkpt lat="42.96491" lon="0.74499">
        <ele>781.099</ele>
        <time>2021-07-21T11:03:29Z</time>
      </trkpt>
      <trkpt lat="42.96506" lon="0.74496">
        <ele>782.795</ele>
        <time>2021-07-21T11:03:27Z</time>
      </trkpt>
      <trkpt lat="42.96513" lon="0.74496">
        <ele>783.957</ele>
        <time>2021-07-21T11:03:26Z</time>
      </trkpt>
      <trkpt lat="42.96521" lon="0.74497">
        <ele>785.383</ele>
        <time>2021-07-21T11:03:25Z</time>
      </trkpt>
      <trkpt lat="42.96536" lon="0.74502">
        <ele>786.872</ele>
        <time>2021-07-21T11:03:23Z</time>
      </trkpt>
      <trkpt lat="42.96544" lon="0.74506">
        <ele>787.953</ele>
        <time>2021-07-21T11:03:22Z</time>
      </trkpt>
      <trkpt lat="42.96559" lon="0.74517">
        <ele>789.072</ele>
        <time>2021-07-21T11:03:20Z</time>
      </trkpt>
      <trkpt lat="42.96565" lon="0.74524">
        <ele>789.408</ele>
        <time>2021-07-21T11:03:19Z</time>
      </trkpt>
      <trkpt lat="42.96577" lon="0.74538">
        <ele>789.714</ele>
        <time>2021-07-21T11:03:17Z</time>
      </trkpt>
      <trkpt lat="42.96582" lon="0.74545">
        <ele>789.859</ele>
        <time>2021-07-21T11:03:16Z</time>
      </trkpt>
      <trkpt lat="42.96587" lon="0.74552">
        <ele>789.956</ele>
        <time>2021-07-21T11:03:15Z</time>
      </trkpt>
      <trkpt lat="42.96597" lon="0.74566">
        <ele>790.135</ele>
        <time>2021-07-21T11:03:13Z</time>
      </trkpt>
      <trkpt lat="42.96607" lon="0.74579">
        <ele>790.25</ele>
        <time>2021-07-21T11:03:11Z</time>
      </trkpt>
      <trkpt lat="42.96616" lon="0.74592">
        <ele>790.586</ele>
        <time>2021-07-21T11:03:09Z</time>
      </trkpt>
      <trkpt lat="42.96621" lon="0.74599">
        <ele>791.038</ele>
        <time>2021-07-21T11:03:08Z</time>
      </trkpt>
      <trkpt lat="42.96626" lon="0.74604">
        <ele>791.734</ele>
        <time>2021-07-21T11:03:07Z</time>
      </trkpt>
      <trkpt lat="42.96635" lon="0.74615">
        <ele>792.663</ele>
        <time>2021-07-21T11:03:05Z</time>
      </trkpt>
      <trkpt lat="42.96646" lon="0.74623">
        <ele>793.634</ele>
        <time>2021-07-21T11:03:03Z</time>
      </trkpt>
      <trkpt lat="42.96652" lon="0.74625">
        <ele>794.573</ele>
        <time>2021-07-21T11:03:02Z</time>
      </trkpt>
      <trkpt lat="42.96659" lon="0.74626">
        <ele>795.608</ele>
        <time>2021-07-21T11:03:01Z</time>
      </trkpt>
      <trkpt lat="42.96673" lon="0.74625">
        <ele>797.224</ele>
        <time>2021-07-21T11:02:59Z</time>
      </trkpt>
      <trkpt lat="42.96681" lon="0.74624">
        <ele>798.504</ele>
        <time>2021-07-21T11:02:58Z</time>
      </trkpt>
      <trkpt lat="42.96689" lon="0.74624">
        <ele>800.169</ele>
        <time>2021-07-21T11:02:57Z</time>
      </trkpt>
      <trkpt lat="42.96704" lon="0.74625">
        <ele>802.283</ele>
        <time>2021-07-21T11:02:55Z</time>
      </trkpt>
      <trkpt lat="42.9672" lon="0.74626">
        <ele>804.398</ele>
        <time>2021-07-21T11:02:53Z</time>
      </trkpt>
      <trkpt lat="42.96727" lon="0.74627">
        <ele>806.364</ele>
        <time>2021-07-21T11:02:52Z</time>
      </trkpt>
      <trkpt lat="42.96743" lon="0.74633">
        <ele>808.976</ele>
        <time>2021-07-21T11:02:50Z</time>
      </trkpt>
      <trkpt lat="42.96751" lon="0.74637">
        <ele>811.082</ele>
        <time>2021-07-21T11:02:49Z</time>
      </trkpt>
      <trkpt lat="42.96765" lon="0.74648">
        <ele>813.491</ele>
        <time>2021-07-21T11:02:47Z</time>
      </trkpt>
      <trkpt lat="42.96777" lon="0.74661">
        <ele>815.072</ele>
        <time>2021-07-21T11:02:45Z</time>
      </trkpt>
      <trkpt lat="42.96781" lon="0.74669">
        <ele>816.021</ele>
        <time>2021-07-21T11:02:44Z</time>
      </trkpt>
      <trkpt lat="42.96785" lon="0.74677">
        <ele>816.908</ele>
        <time>2021-07-21T11:02:43Z</time>
      </trkpt>
      <trkpt lat="42.9679" lon="0.74696">
        <ele>818.014</ele>
        <time>2021-07-21T11:02:41Z</time>
      </trkpt>
      <trkpt lat="42.96794" lon="0.74717">
        <ele>818.922</ele>
        <time>2021-07-21T11:02:39Z</time>
      </trkpt>
      <trkpt lat="42.96795" lon="0.74727">
        <ele>819.542</ele>
        <time>2021-07-21T11:02:38Z</time>
      </trkpt>
      <trkpt lat="42.96797" lon="0.74737">
        <ele>820.163</ele>
        <time>2021-07-21T11:02:37Z</time>
      </trkpt>
      <trkpt lat="42.96799" lon="0.74758">
        <ele>821.038</ele>
        <time>2021-07-21T11:02:35Z</time>
      </trkpt>
      <trkpt lat="42.968" lon="0.74768">
        <ele>821.994</ele>
        <time>2021-07-21T11:02:34Z</time>
      </trkpt>
      <trkpt lat="42.96801" lon="0.74789">
        <ele>822.976</ele>
        <time>2021-07-21T11:02:32Z</time>
      </trkpt>
      <trkpt lat="42.96801" lon="0.74799">
        <ele>824.092</ele>
        <time>2021-07-21T11:02:31Z</time>
      </trkpt>
      <trkpt lat="42.96802" lon="0.74819">
        <ele>825.351</ele>
        <time>2021-07-21T11:02:29Z</time>
      </trkpt>
      <trkpt lat="42.96801" lon="0.74838">
        <ele>826.562</ele>
        <time>2021-07-21T11:02:27Z</time>
      </trkpt>
      <trkpt lat="42.968" lon="0.74858">
        <ele>827.851</ele>
        <time>2021-07-21T11:02:25Z</time>
      </trkpt>
      <trkpt lat="42.96798" lon="0.74876">
        <ele>828.908</ele>
        <time>2021-07-21T11:02:23Z</time>
      </trkpt>
      <trkpt lat="42.96797" lon="0.74885">
        <ele>830.016</ele>
        <time>2021-07-21T11:02:22Z</time>
      </trkpt>
      <trkpt lat="42.96796" lon="0.74901">
        <ele>831.388</ele>
        <time>2021-07-21T11:02:20Z</time>
      </trkpt>
      <trkpt lat="42.96796" lon="0.74909">
        <ele>832.646</ele>
        <time>2021-07-21T11:02:19Z</time>
      </trkpt>
      <trkpt lat="42.96794" lon="0.74925">
        <ele>834.498</ele>
        <time>2021-07-21T11:02:17Z</time>
      </trkpt>
      <trkpt lat="42.96793" lon="0.7494">
        <ele>836.453</ele>
        <time>2021-07-21T11:02:15Z</time>
      </trkpt>
      <trkpt lat="42.96791" lon="0.74955">
        <ele>838.639</ele>
        <time>2021-07-21T11:02:13Z</time>
      </trkpt>
      <trkpt lat="42.9679" lon="0.7497">
        <ele>840.671</ele>
        <time>2021-07-21T11:02:11Z</time>
      </trkpt>
      <trkpt lat="42.96789" lon="0.74978">
        <ele>842.367</ele>
        <time>2021-07-21T11:02:10Z</time>
      </trkpt>
      <trkpt lat="42.96787" lon="0.74993">
        <ele>844.536</ele>
        <time>2021-07-21T11:02:08Z</time>
      </trkpt>
      <trkpt lat="42.96786" lon="0.75">
        <ele>846.657</ele>
        <time>2021-07-21T11:02:07Z</time>
      </trkpt>
      <trkpt lat="42.96784" lon="0.75015">
        <ele>848.956</ele>
        <time>2021-07-21T11:02:05Z</time>
      </trkpt>
      <trkpt lat="42.96783" lon="0.75022">
        <ele>850.908</ele>
        <time>2021-07-21T11:02:04Z</time>
      </trkpt>
      <trkpt lat="42.96782" lon="0.75036">
        <ele>854.119</ele>
        <time>2021-07-21T11:02:02Z</time>
      </trkpt>
      <trkpt lat="42.96781" lon="0.75044">
        <ele>857.081</ele>
        <time>2021-07-21T11:02:01Z</time>
      </trkpt>
      <trkpt lat="42.96779" lon="0.75062">
        <ele>860.591</ele>
        <time>2021-07-21T11:01:59Z</time>
      </trkpt>
      <trkpt lat="42.96778" lon="0.75071">
        <ele>864.284</ele>
        <time>2021-07-21T11:01:58Z</time>
      </trkpt>
      <trkpt lat="42.96775" lon="0.7509">
        <ele>868.289</ele>
        <time>2021-07-21T11:01:56Z</time>
      </trkpt>
      <trkpt lat="42.96774" lon="0.751">
        <ele>872.265</ele>
        <time>2021-07-21T11:01:55Z</time>
      </trkpt>
      <trkpt lat="42.96771" lon="0.75121">
        <ele>876.287</ele>
        <time>2021-07-21T11:01:53Z</time>
      </trkpt>
      <trkpt lat="42.96767" lon="0.75142">
        <ele>879.443</ele>
        <time>2021-07-21T11:01:51Z</time>
      </trkpt>
      <trkpt lat="42.96764" lon="0.75164">
        <ele>882.112</ele>
        <time>2021-07-21T11:01:49Z</time>
      </trkpt>
      <trkpt lat="42.96758" lon="0.75186">
        <ele>884.553</ele>
        <time>2021-07-21T11:01:47Z</time>
      </trkpt>
      <trkpt lat="42.96755" lon="0.75195">
        <ele>886.272</ele>
        <time>2021-07-21T11:01:46Z</time>
      </trkpt>
      <trkpt lat="42.96749" lon="0.75216">
        <ele>888.008</ele>
        <time>2021-07-21T11:01:44Z</time>
      </trkpt>
      <trkpt lat="42.96746" lon="0.75225">
        <ele>889.32</ele>
        <time>2021-07-21T11:01:43Z</time>
      </trkpt>
      <trkpt lat="42.96738" lon="0.75244">
        <ele>891</ele>
        <time>2021-07-21T11:01:41Z</time>
      </trkpt>
      <trkpt lat="42.96733" lon="0.75253">
        <ele>892.357</ele>
        <time>2021-07-21T11:01:40Z</time>
      </trkpt>
      <trkpt lat="42.96723" lon="0.75268">
        <ele>893.864</ele>
        <time>2021-07-21T11:01:38Z</time>
      </trkpt>
      <trkpt lat="42.96717" lon="0.75274">
        <ele>895.169</ele>
        <time>2021-07-21T11:01:37Z</time>
      </trkpt>
      <trkpt lat="42.96706" lon="0.75285">
        <ele>896.525</ele>
        <time>2021-07-21T11:01:35Z</time>
      </trkpt>
      <trkpt lat="42.967" lon="0.75291">
        <ele>897.637</ele>
        <time>2021-07-21T11:01:34Z</time>
      </trkpt>
      <trkpt lat="42.9669" lon="0.75303">
        <ele>898.863</ele>
        <time>2021-07-21T11:01:32Z</time>
      </trkpt>
      <trkpt lat="42.96685" lon="0.75309">
        <ele>899.662</ele>
        <time>2021-07-21T11:01:31Z</time>
      </trkpt>
      <trkpt lat="42.96674" lon="0.75321">
        <ele>900.453</ele>
        <time>2021-07-21T11:01:29Z</time>
      </trkpt>
      <trkpt lat="42.96669" lon="0.75326">
        <ele>901.032</ele>
        <time>2021-07-21T11:01:28Z</time>
      </trkpt>
      <trkpt lat="42.96657" lon="0.75337">
        <ele>901.708</ele>
        <time>2021-07-21T11:01:26Z</time>
      </trkpt>
      <trkpt lat="42.9665" lon="0.75342">
        <ele>902.117</ele>
        <time>2021-07-21T11:01:25Z</time>
      </trkpt>
      <trkpt lat="42.9664" lon="0.75347">
        <ele>902.152</ele>
        <time>2021-07-21T11:01:23Z</time>
      </trkpt>
      <trkpt lat="42.9663" lon="0.75355">
        <ele>902.258</ele>
        <time>2021-07-21T11:01:21Z</time>
      </trkpt>
      <trkpt lat="42.96622" lon="0.7536">
        <ele>902.215</ele>
        <time>2021-07-21T11:01:19Z</time>
      </trkpt>
      <trkpt lat="42.96617" lon="0.75364">
        <ele>902.37</ele>
        <time>2021-07-21T11:01:17Z</time>
      </trkpt>
      <trkpt lat="42.96611" lon="0.75367">
        <ele>902.656</ele>
        <time>2021-07-21T11:01:14Z</time>
      </trkpt>
      <trkpt lat="42.96602" lon="0.7537">
        <ele>903.018</ele>
        <time>2021-07-21T11:00:06Z</time>
      </trkpt>
      <trkpt lat="42.96593" lon="0.75371">
        <ele>903.044</ele>
        <time>2021-07-21T10:58:21Z</time>
      </trkpt>
      <trkpt lat="42.96582" lon="0.75369">
        <ele>902.953</ele>
        <time>2021-07-21T10:55:05Z</time>
      </trkpt>
      <trkpt lat="42.96577" lon="0.75374">
        <ele>901.954</ele>
        <time>2021-07-21T10:55:03Z</time>
      </trkpt>
      <trkpt lat="42.96573" lon="0.75378">
        <ele>901.083</ele>
        <time>2021-07-21T10:55:01Z</time>
      </trkpt>
      <trkpt lat="42.96568" lon="0.75381">
        <ele>899.908</ele>
        <time>2021-07-21T10:54:59Z</time>
      </trkpt>
      <trkpt lat="42.96563" lon="0.75385">
        <ele>899.018</ele>
        <time>2021-07-21T10:54:57Z</time>
      </trkpt>
      <trkpt lat="42.96558" lon="0.75389">
        <ele>898.044</ele>
        <time>2021-07-21T10:54:55Z</time>
      </trkpt>
      <trkpt lat="42.96554" lon="0.75393">
        <ele>897.163</ele>
        <time>2021-07-21T10:54:53Z</time>
      </trkpt>
      <trkpt lat="42.9655" lon="0.75397">
        <ele>896.258</ele>
        <time>2021-07-21T10:54:51Z</time>
      </trkpt>
      <trkpt lat="42.96545" lon="0.75401">
        <ele>895.023</ele>
        <time>2021-07-21T10:54:48Z</time>
      </trkpt>
      <trkpt lat="42.9654" lon="0.75403">
        <ele>893.869</ele>
        <time>2021-07-21T10:54:45Z</time>
      </trkpt>
      <trkpt lat="42.96535" lon="0.75404">
        <ele>893.041</ele>
        <time>2021-07-21T10:54:42Z</time>
      </trkpt>
      <trkpt lat="42.96531" lon="0.75407">
        <ele>892.297</ele>
        <time>2021-07-21T10:54:40Z</time>
      </trkpt>
      <trkpt lat="42.96526" lon="0.7541">
        <ele>891.246</ele>
        <time>2021-07-21T10:54:38Z</time>
      </trkpt>
      <trkpt lat="42.9652" lon="0.75414">
        <ele>890.227</ele>
        <time>2021-07-21T10:54:35Z</time>
      </trkpt>
      <trkpt lat="42.96515" lon="0.75417">
        <ele>889.556</ele>
        <time>2021-07-21T10:54:33Z</time>
      </trkpt>
      <trkpt lat="42.96511" lon="0.75421">
        <ele>888.708</ele>
        <time>2021-07-21T10:54:31Z</time>
      </trkpt>
      <trkpt lat="42.96506" lon="0.75425">
        <ele>887.823</ele>
        <time>2021-07-21T10:54:29Z</time>
      </trkpt>
      <trkpt lat="42.96502" lon="0.7543">
        <ele>887.049</ele>
        <time>2021-07-21T10:54:26Z</time>
      </trkpt>
      <trkpt lat="42.96498" lon="0.75433">
        <ele>886.295</ele>
        <time>2021-07-21T10:54:23Z</time>
      </trkpt>
      <trkpt lat="42.96493" lon="0.75437">
        <ele>885.448</ele>
        <time>2021-07-21T10:54:20Z</time>
      </trkpt>
      <trkpt lat="42.96488" lon="0.7544">
        <ele>884.923</ele>
        <time>2021-07-21T10:54:18Z</time>
      </trkpt>
      <trkpt lat="42.96483" lon="0.75444">
        <ele>884.439</ele>
        <time>2021-07-21T10:54:16Z</time>
      </trkpt>
      <trkpt lat="42.96478" lon="0.7545">
        <ele>884.181</ele>
        <time>2021-07-21T10:54:13Z</time>
      </trkpt>
      <trkpt lat="42.96476" lon="0.75457">
        <ele>884.557</ele>
        <time>2021-07-21T10:54:10Z</time>
      </trkpt>
      <trkpt lat="42.96474" lon="0.75464">
        <ele>884.286</ele>
        <time>2021-07-21T10:54:07Z</time>
      </trkpt>
      <trkpt lat="42.9647" lon="0.75472">
        <ele>883.627</ele>
        <time>2021-07-21T10:54:04Z</time>
      </trkpt>
      <trkpt lat="42.96468" lon="0.75477">
        <ele>883.216</ele>
        <time>2021-07-21T10:54:02Z</time>
      </trkpt>
      <trkpt lat="42.96464" lon="0.75483">
        <ele>882.808</ele>
        <time>2021-07-21T10:53:59Z</time>
      </trkpt>
      <trkpt lat="42.9646" lon="0.75487">
        <ele>882.325</ele>
        <time>2021-07-21T10:53:56Z</time>
      </trkpt>
      <trkpt lat="42.96457" lon="0.75492">
        <ele>882.223</ele>
        <time>2021-07-21T10:53:53Z</time>
      </trkpt>
      <trkpt lat="42.96454" lon="0.75498">
        <ele>882.397</ele>
        <time>2021-07-21T10:53:48Z</time>
      </trkpt>
      <trkpt lat="42.96452" lon="0.75503">
        <ele>882.522</ele>
        <time>2021-07-21T10:53:44Z</time>
      </trkpt>
      <trkpt lat="42.9645" lon="0.75509">
        <ele>882.897</ele>
        <time>2021-07-21T10:53:40Z</time>
      </trkpt>
      <trkpt lat="42.96446" lon="0.75514">
        <ele>883.323</ele>
        <time>2021-07-21T10:53:18Z</time>
      </trkpt>
      <trkpt lat="42.96442" lon="0.75518">
        <ele>884.275</ele>
        <time>2021-07-21T10:53:16Z</time>
      </trkpt>
      <trkpt lat="42.96433" lon="0.75528">
        <ele>885.111</ele>
        <time>2021-07-21T10:53:14Z</time>
      </trkpt>
      <trkpt lat="42.96428" lon="0.75533">
        <ele>886.28</ele>
        <time>2021-07-21T10:53:13Z</time>
      </trkpt>
      <trkpt lat="42.96419" lon="0.75542">
        <ele>887.521</ele>
        <time>2021-07-21T10:53:11Z</time>
      </trkpt>
      <trkpt lat="42.96415" lon="0.75547">
        <ele>888.33</ele>
        <time>2021-07-21T10:53:10Z</time>
      </trkpt>
      <trkpt lat="42.96411" lon="0.75551">
        <ele>888.608</ele>
        <time>2021-07-21T10:53:09Z</time>
      </trkpt>
      <trkpt lat="42.96407" lon="0.75555">
        <ele>888.91</ele>
        <time>2021-07-21T10:53:08Z</time>
      </trkpt>
      <trkpt lat="42.96403" lon="0.75559">
        <ele>889.155</ele>
        <time>2021-07-21T10:53:07Z</time>
      </trkpt>
      <trkpt lat="42.96395" lon="0.75566">
        <ele>889.234</ele>
        <time>2021-07-21T10:53:05Z</time>
      </trkpt>
      <trkpt lat="42.96389" lon="0.75574">
        <ele>889.857</ele>
        <time>2021-07-21T10:53:03Z</time>
      </trkpt>
      <trkpt lat="42.96386" lon="0.75583">
        <ele>890.682</ele>
        <time>2021-07-21T10:53:01Z</time>
      </trkpt>
      <trkpt lat="42.96385" lon="0.75592">
        <ele>891.068</ele>
        <time>2021-07-21T10:52:59Z</time>
      </trkpt>
      <trkpt lat="42.96386" lon="0.756">
        <ele>891.21</ele>
        <time>2021-07-21T10:52:57Z</time>
      </trkpt>
      <trkpt lat="42.96387" lon="0.75607">
        <ele>891.316</ele>
        <time>2021-07-21T10:52:55Z</time>
      </trkpt>
      <trkpt lat="42.96387" lon="0.75613">
        <ele>891.345</ele>
        <time>2021-07-21T10:52:53Z</time>
      </trkpt>
      <trkpt lat="42.96388" lon="0.75622">
        <ele>891.366</ele>
        <time>2021-07-21T10:52:50Z</time>
      </trkpt>
      <trkpt lat="42.96389" lon="0.7563">
        <ele>891.055</ele>
        <time>2021-07-21T10:52:46Z</time>
      </trkpt>
      <trkpt lat="42.96388" lon="0.75642">
        <ele>890.508</ele>
        <time>2021-07-21T10:47:00Z</time>
      </trkpt>
      <trkpt lat="42.96389" lon="0.75649">
        <ele>890.126</ele>
        <time>2021-07-21T10:46:57Z</time>
      </trkpt>
      <trkpt lat="42.9639" lon="0.75656">
        <ele>889.424</ele>
        <time>2021-07-21T10:46:55Z</time>
      </trkpt>
      <trkpt lat="42.9639" lon="0.75665">
        <ele>888.388</ele>
        <time>2021-07-21T10:46:52Z</time>
      </trkpt>
      <trkpt lat="42.96392" lon="0.75671">
        <ele>886.482</ele>
        <time>2021-07-21T10:46:49Z</time>
      </trkpt>
      <trkpt lat="42.96395" lon="0.75677">
        <ele>883.537</ele>
        <time>2021-07-21T10:46:46Z</time>
      </trkpt>
      <trkpt lat="42.96397" lon="0.75684">
        <ele>879.533</ele>
        <time>2021-07-21T10:46:20Z</time>
      </trkpt>
      <trkpt lat="42.96402" lon="0.7569">
        <ele>878.255</ele>
        <time>2021-07-21T10:46:13Z</time>
      </trkpt>
      <trkpt lat="42.96406" lon="0.75695">
        <ele>876.651</ele>
        <time>2021-07-21T10:46:08Z</time>
      </trkpt>
      <trkpt lat="42.9641" lon="0.75703">
        <ele>874.75</ele>
        <time>2021-07-21T10:45:59Z</time>
      </trkpt>
      <trkpt lat="42.96416" lon="0.75708">
        <ele>873.111</ele>
        <time>2021-07-21T10:45:52Z</time>
      </trkpt>
      <trkpt lat="42.96421" lon="0.75713">
        <ele>871.62</ele>
        <time>2021-07-21T10:45:46Z</time>
      </trkpt>
      <trkpt lat="42.96426" lon="0.75716">
        <ele>870.108</ele>
        <time>2021-07-21T10:45:40Z</time>
      </trkpt>
      <trkpt lat="42.96436" lon="0.75715">
        <ele>869.015</ele>
        <time>2021-07-21T10:45:31Z</time>
      </trkpt>
      <trkpt lat="42.9644" lon="0.75717">
        <ele>867.623</ele>
        <time>2021-07-21T10:45:28Z</time>
      </trkpt>
      <trkpt lat="42.96451" lon="0.7572">
        <ele>865.633</ele>
        <time>2021-07-21T10:45:20Z</time>
      </trkpt>
      <trkpt lat="42.96465" lon="0.75718">
        <ele>863.18</ele>
        <time>2021-07-21T10:45:05Z</time>
      </trkpt>
      <trkpt lat="42.9647" lon="0.75717">
        <ele>862.395</ele>
        <time>2021-07-21T10:44:59Z</time>
      </trkpt>
      <trkpt lat="42.96474" lon="0.75718">
        <ele>862.111</ele>
        <time>2021-07-21T10:44:55Z</time>
      </trkpt>
      <trkpt lat="42.96479" lon="0.75718">
        <ele>862.413</ele>
        <time>2021-07-21T10:44:51Z</time>
      </trkpt>
      <trkpt lat="42.96484" lon="0.75719">
        <ele>862.869</ele>
        <time>2021-07-21T10:44:48Z</time>
      </trkpt>
      <trkpt lat="42.96488" lon="0.7572">
        <ele>863.248</ele>
        <time>2021-07-21T10:44:44Z</time>
      </trkpt>
      <trkpt lat="42.96497" lon="0.7572">
        <ele>863.189</ele>
        <time>2021-07-21T10:44:38Z</time>
      </trkpt>
      <trkpt lat="42.96503" lon="0.75721">
        <ele>862.578</ele>
        <time>2021-07-21T10:44:34Z</time>
      </trkpt>
      <trkpt lat="42.9651" lon="0.75721">
        <ele>861.108</ele>
        <time>2021-07-21T10:44:29Z</time>
      </trkpt>
      <trkpt lat="42.96515" lon="0.75721">
        <ele>858.803</ele>
        <time>2021-07-21T10:44:25Z</time>
      </trkpt>
      <trkpt lat="42.96527" lon="0.75723">
        <ele>855.621</ele>
        <time>2021-07-21T10:44:15Z</time>
      </trkpt>
      <trkpt lat="42.96534" lon="0.75724">
        <ele>851.711</ele>
        <time>2021-07-21T10:44:08Z</time>
      </trkpt>
      <trkpt lat="42.96547" lon="0.75726">
        <ele>847.783</ele>
        <time>2021-07-21T10:43:53Z</time>
      </trkpt>
      <trkpt lat="42.96561" lon="0.75727">
        <ele>844.388</ele>
        <time>2021-07-21T10:43:39Z</time>
      </trkpt>
      <trkpt lat="42.96572" lon="0.75732">
        <ele>841.864</ele>
        <time>2021-07-21T10:43:30Z</time>
      </trkpt>
      <trkpt lat="42.96577" lon="0.75734">
        <ele>839.296</ele>
        <time>2021-07-21T10:43:25Z</time>
      </trkpt>
      <trkpt lat="42.9659" lon="0.75736">
        <ele>836.242</ele>
        <time>2021-07-21T10:43:11Z</time>
      </trkpt>
      <trkpt lat="42.96594" lon="0.75738">
        <ele>833.961</ele>
        <time>2021-07-21T10:43:06Z</time>
      </trkpt>
      <trkpt lat="42.96599" lon="0.75741">
        <ele>831.862</ele>
        <time>2021-07-21T10:43:01Z</time>
      </trkpt>
      <trkpt lat="42.96604" lon="0.75744">
        <ele>829.781</ele>
        <time>2021-07-21T10:42:56Z</time>
      </trkpt>
      <trkpt lat="42.96608" lon="0.75746">
        <ele>827.708</ele>
        <time>2021-07-21T10:42:50Z</time>
      </trkpt>
      <trkpt lat="42.96613" lon="0.75748">
        <ele>826.716</ele>
        <time>2021-07-21T10:42:46Z</time>
      </trkpt>
      <trkpt lat="42.96619" lon="0.75752">
        <ele>825.788</ele>
        <time>2021-07-21T10:42:42Z</time>
      </trkpt>
      <trkpt lat="42.9663" lon="0.75758">
        <ele>824.846</ele>
        <time>2021-07-21T10:42:31Z</time>
      </trkpt>
      <trkpt lat="42.96635" lon="0.75763">
        <ele>824.71</ele>
        <time>2021-07-21T10:42:27Z</time>
      </trkpt>
      <trkpt lat="42.9664" lon="0.75768">
        <ele>824.765</ele>
        <time>2021-07-21T10:42:23Z</time>
      </trkpt>
      <trkpt lat="42.96644" lon="0.7577">
        <ele>825.091</ele>
        <time>2021-07-21T10:42:19Z</time>
      </trkpt>
      <trkpt lat="42.96649" lon="0.75775">
        <ele>825.043</ele>
        <time>2021-07-21T10:42:11Z</time>
      </trkpt>
      <trkpt lat="42.96649" lon="0.75782">
        <ele>823.989</ele>
        <time>2021-07-21T10:42:06Z</time>
      </trkpt>
      <trkpt lat="42.96648" lon="0.75788">
        <ele>823.168</ele>
        <time>2021-07-21T10:42:01Z</time>
      </trkpt>
      <trkpt lat="42.96644" lon="0.75795">
        <ele>822.549</ele>
        <time>2021-07-21T10:41:57Z</time>
      </trkpt>
      <trkpt lat="42.96638" lon="0.75812">
        <ele>821.628</ele>
        <time>2021-07-21T10:41:43Z</time>
      </trkpt>
      <trkpt lat="42.96633" lon="0.75819">
        <ele>821.108</ele>
        <time>2021-07-21T10:41:37Z</time>
      </trkpt>
      <trkpt lat="42.9663" lon="0.75825">
        <ele>820.615</ele>
        <time>2021-07-21T10:41:34Z</time>
      </trkpt>
      <trkpt lat="42.96627" lon="0.75834">
        <ele>819.687</ele>
        <time>2021-07-21T10:41:26Z</time>
      </trkpt>
      <trkpt lat="42.96623" lon="0.75843">
        <ele>819.117</ele>
        <time>2021-07-21T10:41:20Z</time>
      </trkpt>
      <trkpt lat="42.96616" lon="0.75851">
        <ele>818.36</ele>
        <time>2021-07-21T10:41:13Z</time>
      </trkpt>
      <trkpt lat="42.96612" lon="0.75858">
        <ele>817.115</ele>
        <time>2021-07-21T10:41:08Z</time>
      </trkpt>
      <trkpt lat="42.96606" lon="0.75869">
        <ele>815.241</ele>
        <time>2021-07-21T10:40:58Z</time>
      </trkpt>
      <trkpt lat="42.96604" lon="0.75877">
        <ele>813.123</ele>
        <time>2021-07-21T10:40:49Z</time>
      </trkpt>
      <trkpt lat="42.96599" lon="0.75889">
        <ele>810.729</ele>
        <time>2021-07-21T10:40:40Z</time>
      </trkpt>
      <trkpt lat="42.96598" lon="0.75896">
        <ele>809.638</ele>
        <time>2021-07-21T10:40:36Z</time>
      </trkpt>
      <trkpt lat="42.96599" lon="0.75902">
        <ele>808.459</ele>
        <time>2021-07-21T10:40:32Z</time>
      </trkpt>
      <trkpt lat="42.96602" lon="0.7591">
        <ele>807.298</ele>
        <time>2021-07-21T10:40:29Z</time>
      </trkpt>
      <trkpt lat="42.96605" lon="0.7592">
        <ele>805.408</ele>
        <time>2021-07-21T10:40:22Z</time>
      </trkpt>
      <trkpt lat="42.96609" lon="0.75927">
        <ele>803.305</ele>
        <time>2021-07-21T10:40:16Z</time>
      </trkpt>
      <trkpt lat="42.96612" lon="0.75936">
        <ele>801.032</ele>
        <time>2021-07-21T10:40:06Z</time>
      </trkpt>
      <trkpt lat="42.96613" lon="0.75944">
        <ele>799.412</ele>
        <time>2021-07-21T10:39:59Z</time>
      </trkpt>
      <trkpt lat="42.96611" lon="0.75951">
        <ele>797.655</ele>
        <time>2021-07-21T10:39:56Z</time>
      </trkpt>
      <trkpt lat="42.96608" lon="0.75959">
        <ele>794.91</ele>
        <time>2021-07-21T10:39:53Z</time>
      </trkpt>
      <trkpt lat="42.96597" lon="0.75973">
        <ele>791.126</ele>
        <time>2021-07-21T10:39:15Z</time>
      </trkpt>
      <trkpt lat="42.96597" lon="0.75981">
        <ele>789.088</ele>
        <time>2021-07-21T10:39:12Z</time>
      </trkpt>
      <trkpt lat="42.96602" lon="0.75998">
        <ele>786.234</ele>
        <time>2021-07-21T10:38:57Z</time>
      </trkpt>
      <trkpt lat="42.96607" lon="0.76">
        <ele>784.793</ele>
        <time>2021-07-21T10:38:53Z</time>
      </trkpt>
      <trkpt lat="42.96611" lon="0.76002">
        <ele>782.744</ele>
        <time>2021-07-21T10:38:50Z</time>
      </trkpt>
      <trkpt lat="42.9662" lon="0.76">
        <ele>780.073</ele>
        <time>2021-07-21T10:38:42Z</time>
      </trkpt>
      <trkpt lat="42.9663" lon="0.75991">
        <ele>777.108</ele>
        <time>2021-07-21T10:38:32Z</time>
      </trkpt>
      <trkpt lat="42.96634" lon="0.75987">
        <ele>775.214</ele>
        <time>2021-07-21T10:38:28Z</time>
      </trkpt>
      <trkpt lat="42.96638" lon="0.75985">
        <ele>773.368</ele>
        <time>2021-07-21T10:38:25Z</time>
      </trkpt>
      <trkpt lat="42.96649" lon="0.75979">
        <ele>771.065</ele>
        <time>2021-07-21T10:38:10Z</time>
      </trkpt>
      <trkpt lat="42.96653" lon="0.75978">
        <ele>769.651</ele>
        <time>2021-07-21T10:38:04Z</time>
      </trkpt>
      <trkpt lat="42.96658" lon="0.75977">
        <ele>768.576</ele>
        <time>2021-07-21T10:37:58Z</time>
      </trkpt>
      <trkpt lat="42.96663" lon="0.75976">
        <ele>767.952</ele>
        <time>2021-07-21T10:37:54Z</time>
      </trkpt>
      <trkpt lat="42.96672" lon="0.75981">
        <ele>767.354</ele>
        <time>2021-07-21T10:37:46Z</time>
      </trkpt>
      <trkpt lat="42.96677" lon="0.75984">
        <ele>766.63</ele>
        <time>2021-07-21T10:37:43Z</time>
      </trkpt>
      <trkpt lat="42.96683" lon="0.75985">
        <ele>765.519</ele>
        <time>2021-07-21T10:37:40Z</time>
      </trkpt>
      <trkpt lat="42.96694" lon="0.75988">
        <ele>763.94</ele>
        <time>2021-07-21T10:37:28Z</time>
      </trkpt>
      <trkpt lat="42.96698" lon="0.75991">
        <ele>763.129</ele>
        <time>2021-07-21T10:37:24Z</time>
      </trkpt>
      <trkpt lat="42.96703" lon="0.75992">
        <ele>762.008</ele>
        <time>2021-07-21T10:37:21Z</time>
      </trkpt>
      <trkpt lat="42.96709" lon="0.75992">
        <ele>760.417</ele>
        <time>2021-07-21T10:37:18Z</time>
      </trkpt>
      <trkpt lat="42.96724" lon="0.75994">
        <ele>757.889</ele>
        <time>2021-07-21T10:37:01Z</time>
      </trkpt>
      <trkpt lat="42.96734" lon="0.75996">
        <ele>755.528</ele>
        <time>2021-07-21T10:36:52Z</time>
      </trkpt>
      <trkpt lat="42.96749" lon="0.75999">
        <ele>752.313</ele>
        <time>2021-07-21T10:36:35Z</time>
      </trkpt>
      <trkpt lat="42.96754" lon="0.76001">
        <ele>750.648</ele>
        <time>2021-07-21T10:36:29Z</time>
      </trkpt>
      <trkpt lat="42.96759" lon="0.76002">
        <ele>749.694</ele>
        <time>2021-07-21T10:36:24Z</time>
      </trkpt>
      <trkpt lat="42.96763" lon="0.76004">
        <ele>748.856</ele>
        <time>2021-07-21T10:36:20Z</time>
      </trkpt>
      <trkpt lat="42.96768" lon="0.76006">
        <ele>748.382</ele>
        <time>2021-07-21T10:36:16Z</time>
      </trkpt>
      <trkpt lat="42.96774" lon="0.76008">
        <ele>747.691</ele>
        <time>2021-07-21T10:36:12Z</time>
      </trkpt>
      <trkpt lat="42.96778" lon="0.76008">
        <ele>747.222</ele>
        <time>2021-07-21T10:36:09Z</time>
      </trkpt>
      <trkpt lat="42.96783" lon="0.76009">
        <ele>746.741</ele>
        <time>2021-07-21T10:36:06Z</time>
      </trkpt>
      <trkpt lat="42.96788" lon="0.76011">
        <ele>746.108</ele>
        <time>2021-07-21T10:36:03Z</time>
      </trkpt>
      <trkpt lat="42.96793" lon="0.76013">
        <ele>745.516</ele>
        <time>2021-07-21T10:36:00Z</time>
      </trkpt>
      <trkpt lat="42.96798" lon="0.76016">
        <ele>744.888</ele>
        <time>2021-07-21T10:35:57Z</time>
      </trkpt>
      <trkpt lat="42.96804" lon="0.76018">
        <ele>744.346</ele>
        <time>2021-07-21T10:35:54Z</time>
      </trkpt>
      <trkpt lat="42.9681" lon="0.76018">
        <ele>743.961</ele>
        <time>2021-07-21T10:35:51Z</time>
      </trkpt>
      <trkpt lat="42.96815" lon="0.7602">
        <ele>743.466</ele>
        <time>2021-07-21T10:35:48Z</time>
      </trkpt>
      <trkpt lat="42.96819" lon="0.76021">
        <ele>742.792</ele>
        <time>2021-07-21T10:35:45Z</time>
      </trkpt>
      <trkpt lat="42.96825" lon="0.7603">
        <ele>741.754</ele>
        <time>2021-07-21T10:29:53Z</time>
      </trkpt>
      <trkpt lat="42.96832" lon="0.76031">
        <ele>741.12</ele>
        <time>2021-07-21T10:29:47Z</time>
      </trkpt>
      <trkpt lat="42.96836" lon="0.76034">
        <ele>740.849</ele>
        <time>2021-07-21T10:29:44Z</time>
      </trkpt>
      <trkpt lat="42.9684" lon="0.76037">
        <ele>740.01</ele>
        <time>2021-07-21T10:29:41Z</time>
      </trkpt>
      <trkpt lat="42.96845" lon="0.76039">
        <ele>738.979</ele>
        <time>2021-07-21T10:29:37Z</time>
      </trkpt>
      <trkpt lat="42.96849" lon="0.76041">
        <ele>737.908</ele>
        <time>2021-07-21T10:29:33Z</time>
      </trkpt>
      <trkpt lat="42.96854" lon="0.76044">
        <ele>737.217</ele>
        <time>2021-07-21T10:29:28Z</time>
      </trkpt>
      <trkpt lat="42.9686" lon="0.76045">
        <ele>737.289</ele>
        <time>2021-07-21T10:29:25Z</time>
      </trkpt>
      <trkpt lat="42.96865" lon="0.76047">
        <ele>737.628</ele>
        <time>2021-07-21T10:29:22Z</time>
      </trkpt>
      <trkpt lat="42.9687" lon="0.76048">
        <ele>738.263</ele>
        <time>2021-07-21T10:29:20Z</time>
      </trkpt>
      <trkpt lat="42.96882" lon="0.76048">
        <ele>739.358</ele>
        <time>2021-07-21T10:29:07Z</time>
      </trkpt>
      <trkpt lat="42.96887" lon="0.76048">
        <ele>741.344</ele>
        <time>2021-07-21T10:29:04Z</time>
      </trkpt>
      <trkpt lat="42.96892" lon="0.76046">
        <ele>743.766</ele>
        <time>2021-07-21T10:29:01Z</time>
      </trkpt>
      <trkpt lat="42.96899" lon="0.76046">
        <ele>746.472</ele>
        <time>2021-07-21T10:28:56Z</time>
      </trkpt>
      <trkpt lat="42.96907" lon="0.76045">
        <ele>748.891</ele>
        <time>2021-07-21T10:28:50Z</time>
      </trkpt>
      <trkpt lat="42.96911" lon="0.76041">
        <ele>750.622</ele>
        <time>2021-07-21T10:28:47Z</time>
      </trkpt>
      <trkpt lat="42.96915" lon="0.76035">
        <ele>752.331</ele>
        <time>2021-07-21T10:28:44Z</time>
      </trkpt>
      <trkpt lat="42.96917" lon="0.76028">
        <ele>753.508</ele>
        <time>2021-07-21T10:28:40Z</time>
      </trkpt>
      <trkpt lat="42.96923" lon="0.76018">
        <ele>754.215</ele>
        <time>2021-07-21T10:28:34Z</time>
      </trkpt>
      <trkpt lat="42.96928" lon="0.76008">
        <ele>754.605</ele>
        <time>2021-07-21T10:28:29Z</time>
      </trkpt>
      <trkpt lat="42.96929" lon="0.76001">
        <ele>754.844</ele>
        <time>2021-07-21T10:28:27Z</time>
      </trkpt>
      <trkpt lat="42.96929" lon="0.75993">
        <ele>754.723</ele>
        <time>2021-07-21T10:28:24Z</time>
      </trkpt>
      <trkpt lat="42.96929" lon="0.75984">
        <ele>754.248</ele>
        <time>2021-07-21T10:28:21Z</time>
      </trkpt>
      <trkpt lat="42.9693" lon="0.75976">
        <ele>753.244</ele>
        <time>2021-07-21T10:28:18Z</time>
      </trkpt>
      <trkpt lat="42.9693" lon="0.75967">
        <ele>752.256</ele>
        <time>2021-07-21T10:28:16Z</time>
      </trkpt>
      <trkpt lat="42.96931" lon="0.7596">
        <ele>750.472</ele>
        <time>2021-07-21T10:28:14Z</time>
      </trkpt>
      <trkpt lat="42.96932" lon="0.75952">
        <ele>748.581</ele>
        <time>2021-07-21T10:28:11Z</time>
      </trkpt>
      <trkpt lat="42.96931" lon="0.75946">
        <ele>746.422</ele>
        <time>2021-07-21T10:28:09Z</time>
      </trkpt>
      <trkpt lat="42.9693" lon="0.75939">
        <ele>744.031</ele>
        <time>2021-07-21T10:28:07Z</time>
      </trkpt>
      <trkpt lat="42.96927" lon="0.75932">
        <ele>741.408</ele>
        <time>2021-07-21T10:28:05Z</time>
      </trkpt>
      <trkpt lat="42.96924" lon="0.75926">
        <ele>738.509</ele>
        <time>2021-07-21T10:28:03Z</time>
      </trkpt>
      <trkpt lat="42.9692" lon="0.75919">
        <ele>735.881</ele>
        <time>2021-07-21T10:28:00Z</time>
      </trkpt>
      <trkpt lat="42.96918" lon="0.75912">
        <ele>733.841</ele>
        <time>2021-07-21T10:27:57Z</time>
      </trkpt>
      <trkpt lat="42.96915" lon="0.75904">
        <ele>732.133</ele>
        <time>2021-07-21T10:27:53Z</time>
      </trkpt>
      <trkpt lat="42.96913" lon="0.75898">
        <ele>730.778</ele>
        <time>2021-07-21T10:27:50Z</time>
      </trkpt>
      <trkpt lat="42.96911" lon="0.75892">
        <ele>729.664</ele>
        <time>2021-07-21T10:27:48Z</time>
      </trkpt>
      <trkpt lat="42.96909" lon="0.75884">
        <ele>728.556</ele>
        <time>2021-07-21T10:27:45Z</time>
      </trkpt>
      <trkpt lat="42.96907" lon="0.75877">
        <ele>727.752</ele>
        <time>2021-07-21T10:27:42Z</time>
      </trkpt>
      <trkpt lat="42.96904" lon="0.75869">
        <ele>726.941</ele>
        <time>2021-07-21T10:27:38Z</time>
      </trkpt>
      <trkpt lat="42.96904" lon="0.75862">
        <ele>725.982</ele>
        <time>2021-07-21T10:27:35Z</time>
      </trkpt>
      <trkpt lat="42.96905" lon="0.75856">
        <ele>724.811</ele>
        <time>2021-07-21T10:27:32Z</time>
      </trkpt>
      <trkpt lat="42.96907" lon="0.75848">
        <ele>723.608</ele>
        <time>2021-07-21T10:27:28Z</time>
      </trkpt>
      <trkpt lat="42.96914" lon="0.75842">
        <ele>722.111</ele>
        <time>2021-07-21T10:27:21Z</time>
      </trkpt>
      <trkpt lat="42.96919" lon="0.7584">
        <ele>720.847</ele>
        <time>2021-07-21T10:27:18Z</time>
      </trkpt>
      <trkpt lat="42.96927" lon="0.75837">
        <ele>718.945</ele>
        <time>2021-07-21T10:27:08Z</time>
      </trkpt>
      <trkpt lat="42.96932" lon="0.75832">
        <ele>717.435</ele>
        <time>2021-07-21T10:27:02Z</time>
      </trkpt>
      <trkpt lat="42.96938" lon="0.75828">
        <ele>715.81</ele>
        <time>2021-07-21T10:26:55Z</time>
      </trkpt>
      <trkpt lat="42.96945" lon="0.75827">
        <ele>714.456</ele>
        <time>2021-07-21T10:26:47Z</time>
      </trkpt>
      <trkpt lat="42.9695" lon="0.75829">
        <ele>713.598</ele>
        <time>2021-07-21T10:26:43Z</time>
      </trkpt>
      <trkpt lat="42.96955" lon="0.75829">
        <ele>712.564</ele>
        <time>2021-07-21T10:26:39Z</time>
      </trkpt>
      <trkpt lat="42.96961" lon="0.75829">
        <ele>711.743</ele>
        <time>2021-07-21T10:26:35Z</time>
      </trkpt>
      <trkpt lat="42.96966" lon="0.75827">
        <ele>711.014</ele>
        <time>2021-07-21T10:26:32Z</time>
      </trkpt>
      <trkpt lat="42.96971" lon="0.75826">
        <ele>710.293</ele>
        <time>2021-07-21T10:26:29Z</time>
      </trkpt>
      <trkpt lat="42.96976" lon="0.75825">
        <ele>708.908</ele>
        <time>2021-07-21T10:26:27Z</time>
      </trkpt>
      <trkpt lat="42.96989" lon="0.75822">
        <ele>706.813</ele>
        <time>2021-07-21T10:26:15Z</time>
      </trkpt>
      <trkpt lat="42.96994" lon="0.7582">
        <ele>705.621</ele>
        <time>2021-07-21T10:26:11Z</time>
      </trkpt>
      <trkpt lat="42.96999" lon="0.75818">
        <ele>704.361</ele>
        <time>2021-07-21T10:26:08Z</time>
      </trkpt>
      <trkpt lat="42.97006" lon="0.75818">
        <ele>702.925</ele>
        <time>2021-07-21T10:26:01Z</time>
      </trkpt>
      <trkpt lat="42.9701" lon="0.75817">
        <ele>701.77</ele>
        <time>2021-07-21T10:25:57Z</time>
      </trkpt>
      <trkpt lat="42.9702" lon="0.75813">
        <ele>699.826</ele>
        <time>2021-07-21T10:25:47Z</time>
      </trkpt>
      <trkpt lat="42.97031" lon="0.75812">
        <ele>698.698</ele>
        <time>2021-07-21T10:25:38Z</time>
      </trkpt>
      <trkpt lat="42.9704" lon="0.75811">
        <ele>697.334</ele>
        <time>2021-07-21T10:25:34Z</time>
      </trkpt>
      <trkpt lat="42.97055" lon="0.75807">
        <ele>695.193</ele>
        <time>2021-07-21T10:25:19Z</time>
      </trkpt>
      <trkpt lat="42.9706" lon="0.75807">
        <ele>693.584</ele>
        <time>2021-07-21T10:25:16Z</time>
      </trkpt>
      <trkpt lat="42.97071" lon="0.75803">
        <ele>690.943</ele>
        <time>2021-07-21T10:25:05Z</time>
      </trkpt>
      <trkpt lat="42.97079" lon="0.758">
        <ele>688.608</ele>
        <time>2021-07-21T10:24:57Z</time>
      </trkpt>
      <trkpt lat="42.97083" lon="0.758">
        <ele>687.318</ele>
        <time>2021-07-21T10:24:53Z</time>
      </trkpt>
      <trkpt lat="42.97088" lon="0.75799">
        <ele>686.044</ele>
        <time>2021-07-21T10:24:50Z</time>
      </trkpt>
      <trkpt lat="42.97093" lon="0.75798">
        <ele>684.063</ele>
        <time>2021-07-21T10:24:47Z</time>
      </trkpt>
      <trkpt lat="42.97104" lon="0.75798">
        <ele>681.247</ele>
        <time>2021-07-21T10:24:40Z</time>
      </trkpt>
      <trkpt lat="42.97116" lon="0.75798">
        <ele>677.782</ele>
        <time>2021-07-21T10:24:28Z</time>
      </trkpt>
      <trkpt lat="42.97128" lon="0.75798">
        <ele>674.098</ele>
        <time>2021-07-21T10:24:15Z</time>
      </trkpt>
      <trkpt lat="42.9714" lon="0.75798">
        <ele>671.01</ele>
        <time>2021-07-21T10:24:03Z</time>
      </trkpt>
      <trkpt lat="42.97145" lon="0.75797">
        <ele>669.036</ele>
        <time>2021-07-21T10:24:00Z</time>
      </trkpt>
      <trkpt lat="42.97155" lon="0.75797">
        <ele>666.755</ele>
        <time>2021-07-21T10:23:51Z</time>
      </trkpt>
      <trkpt lat="42.97162" lon="0.75795">
        <ele>665.266</ele>
        <time>2021-07-21T10:23:44Z</time>
      </trkpt>
      <trkpt lat="42.97166" lon="0.75795">
        <ele>664.525</ele>
        <time>2021-07-21T10:23:40Z</time>
      </trkpt>
      <trkpt lat="42.97171" lon="0.75795">
        <ele>664.108</ele>
        <time>2021-07-21T10:23:37Z</time>
      </trkpt>
      <trkpt lat="42.97176" lon="0.75795">
        <ele>663.926</ele>
        <time>2021-07-21T10:23:33Z</time>
      </trkpt>
      <trkpt lat="42.97181" lon="0.75794">
        <ele>664.224</ele>
        <time>2021-07-21T10:23:29Z</time>
      </trkpt>
      <trkpt lat="42.97186" lon="0.75792">
        <ele>664.888</ele>
        <time>2021-07-21T10:23:26Z</time>
      </trkpt>
      <trkpt lat="42.9719" lon="0.7579">
        <ele>665.455</ele>
        <time>2021-07-21T10:23:23Z</time>
      </trkpt>
      <trkpt lat="42.97193" lon="0.75783">
        <ele>666.13</ele>
        <time>2021-07-21T10:23:19Z</time>
      </trkpt>
      <trkpt lat="42.97194" lon="0.75774">
        <ele>666.926</ele>
        <time>2021-07-21T10:23:16Z</time>
      </trkpt>
      <trkpt lat="42.97193" lon="0.75768">
        <ele>667.838</ele>
        <time>2021-07-21T10:23:14Z</time>
      </trkpt>
      <trkpt lat="42.97193" lon="0.75762">
        <ele>668.484</ele>
        <time>2021-07-21T10:23:12Z</time>
      </trkpt>
      <trkpt lat="42.97193" lon="0.75754">
        <ele>668.733</ele>
        <time>2021-07-21T10:23:09Z</time>
      </trkpt>
      <trkpt lat="42.97192" lon="0.75746">
        <ele>668.954</ele>
        <time>2021-07-21T10:23:06Z</time>
      </trkpt>
      <trkpt lat="42.97192" lon="0.75738">
        <ele>668.763</ele>
        <time>2021-07-21T10:23:03Z</time>
      </trkpt>
      <trkpt lat="42.97192" lon="0.7573">
        <ele>667.908</ele>
        <time>2021-07-21T10:23:00Z</time>
      </trkpt>
      <trkpt lat="42.97191" lon="0.75722">
        <ele>666.711</ele>
        <time>2021-07-21T10:22:57Z</time>
      </trkpt>
      <trkpt lat="42.97189" lon="0.75715">
        <ele>665.383</ele>
        <time>2021-07-21T10:22:54Z</time>
      </trkpt>
      <trkpt lat="42.97187" lon="0.75707">
        <ele>664.062</ele>
        <time>2021-07-21T10:22:51Z</time>
      </trkpt>
      <trkpt lat="42.97186" lon="0.75701">
        <ele>663.315</ele>
        <time>2021-07-21T10:22:49Z</time>
      </trkpt>
      <trkpt lat="42.97186" lon="0.75694">
        <ele>662.94</ele>
        <time>2021-07-21T10:22:47Z</time>
      </trkpt>
      <trkpt lat="42.97184" lon="0.75687">
        <ele>662.466</ele>
        <time>2021-07-21T10:22:45Z</time>
      </trkpt>
      <trkpt lat="42.97181" lon="0.7568">
        <ele>662.028</ele>
        <time>2021-07-21T10:22:43Z</time>
      </trkpt>
      <trkpt lat="42.97179" lon="0.75673">
        <ele>661.514</ele>
        <time>2021-07-21T10:22:41Z</time>
      </trkpt>
      <trkpt lat="42.97178" lon="0.75665">
        <ele>661.143</ele>
        <time>2021-07-21T10:22:38Z</time>
      </trkpt>
      <trkpt lat="42.97178" lon="0.75657">
        <ele>660.814</ele>
        <time>2021-07-21T10:22:35Z</time>
      </trkpt>
      <trkpt lat="42.97177" lon="0.7565">
        <ele>660.793</ele>
        <time>2021-07-21T10:22:32Z</time>
      </trkpt>
      <trkpt lat="42.97176" lon="0.75641">
        <ele>660.708</ele>
        <time>2021-07-21T10:22:29Z</time>
      </trkpt>
      <trkpt lat="42.97176" lon="0.75632">
        <ele>660.514</ele>
        <time>2021-07-21T10:22:26Z</time>
      </trkpt>
      <trkpt lat="42.97175" lon="0.75624">
        <ele>660.068</ele>
        <time>2021-07-21T10:22:23Z</time>
      </trkpt>
      <trkpt lat="42.97176" lon="0.75616">
        <ele>659.265</ele>
        <time>2021-07-21T10:22:20Z</time>
      </trkpt>
      <trkpt lat="42.97175" lon="0.75608">
        <ele>657.94</ele>
        <time>2021-07-21T10:22:17Z</time>
      </trkpt>
      <trkpt lat="42.97173" lon="0.756">
        <ele>656.665</ele>
        <time>2021-07-21T10:22:14Z</time>
      </trkpt>
      <trkpt lat="42.97172" lon="0.75594">
        <ele>655.141</ele>
        <time>2021-07-21T10:22:11Z</time>
      </trkpt>
      <trkpt lat="42.97172" lon="0.75587">
        <ele>653.953</ele>
        <time>2021-07-21T10:22:08Z</time>
      </trkpt>
      <trkpt lat="42.97172" lon="0.7558">
        <ele>652.879</ele>
        <time>2021-07-21T10:22:05Z</time>
      </trkpt>
      <trkpt lat="42.97176" lon="0.75576">
        <ele>651.898</ele>
        <time>2021-07-21T10:22:01Z</time>
      </trkpt>
      <trkpt lat="42.97181" lon="0.75573">
        <ele>651.189</ele>
        <time>2021-07-21T10:21:57Z</time>
      </trkpt>
      <trkpt lat="42.97186" lon="0.75571">
        <ele>650.218</ele>
        <time>2021-07-21T10:21:52Z</time>
      </trkpt>
      <trkpt lat="42.97191" lon="0.75569">
        <ele>649.608</ele>
        <time>2021-07-21T10:21:48Z</time>
      </trkpt>
      <trkpt lat="42.97195" lon="0.75568">
        <ele>649.117</ele>
        <time>2021-07-21T10:21:45Z</time>
      </trkpt>
      <trkpt lat="42.972" lon="0.75566">
        <ele>648.598</ele>
        <time>2021-07-21T10:21:42Z</time>
      </trkpt>
      <trkpt lat="42.97205" lon="0.75563">
        <ele>647.918</ele>
        <time>2021-07-21T10:21:38Z</time>
      </trkpt>
      <trkpt lat="42.9721" lon="0.75561">
        <ele>647.266</ele>
        <time>2021-07-21T10:21:35Z</time>
      </trkpt>
      <trkpt lat="42.97214" lon="0.75558">
        <ele>646.481</ele>
        <time>2021-07-21T10:21:32Z</time>
      </trkpt>
      <trkpt lat="42.9722" lon="0.75556">
        <ele>645.387</ele>
        <time>2021-07-21T10:21:28Z</time>
      </trkpt>
      <trkpt lat="42.97225" lon="0.75555">
        <ele>644.369</ele>
        <time>2021-07-21T10:21:24Z</time>
      </trkpt>
      <trkpt lat="42.97231" lon="0.75553">
        <ele>643.695</ele>
        <time>2021-07-21T10:21:20Z</time>
      </trkpt>
      <trkpt lat="42.97236" lon="0.75551">
        <ele>643.234</ele>
        <time>2021-07-21T10:21:16Z</time>
      </trkpt>
      <trkpt lat="42.97241" lon="0.75549">
        <ele>642.715</ele>
        <time>2021-07-21T10:21:12Z</time>
      </trkpt>
      <trkpt lat="42.97246" lon="0.75547">
        <ele>642.374</ele>
        <time>2021-07-21T10:21:08Z</time>
      </trkpt>
      <trkpt lat="42.97251" lon="0.75545">
        <ele>641.808</ele>
        <time>2021-07-21T10:21:04Z</time>
      </trkpt>
      <trkpt lat="42.97257" lon="0.75543">
        <ele>641.025</ele>
        <time>2021-07-21T10:21:00Z</time>
      </trkpt>
      <trkpt lat="42.97264" lon="0.75539">
        <ele>639.705</ele>
        <time>2021-07-21T10:20:53Z</time>
      </trkpt>
      <trkpt lat="42.97271" lon="0.75538">
        <ele>638.379</ele>
        <time>2021-07-21T10:20:46Z</time>
      </trkpt>
      <trkpt lat="42.97276" lon="0.75537">
        <ele>637.195</ele>
        <time>2021-07-21T10:20:42Z</time>
      </trkpt>
      <trkpt lat="42.97281" lon="0.75535">
        <ele>635.68</ele>
        <time>2021-07-21T10:20:38Z</time>
      </trkpt>
      <trkpt lat="42.97286" lon="0.75533">
        <ele>634.386</ele>
        <time>2021-07-21T10:20:34Z</time>
      </trkpt>
      <trkpt lat="42.9729" lon="0.75532">
        <ele>633.358</ele>
        <time>2021-07-21T10:20:30Z</time>
      </trkpt>
      <trkpt lat="42.97295" lon="0.75531">
        <ele>632.444</ele>
        <time>2021-07-21T10:20:26Z</time>
      </trkpt>
      <trkpt lat="42.973" lon="0.75529">
        <ele>631.443</ele>
        <time>2021-07-21T10:20:22Z</time>
      </trkpt>
      <trkpt lat="42.97305" lon="0.75527">
        <ele>630.574</ele>
        <time>2021-07-21T10:20:19Z</time>
      </trkpt>
      <trkpt lat="42.97309" lon="0.75525">
        <ele>629.713</ele>
        <time>2021-07-21T10:20:16Z</time>
      </trkpt>
      <trkpt lat="42.97315" lon="0.75523">
        <ele>628.908</ele>
        <time>2021-07-21T10:20:12Z</time>
      </trkpt>
      <trkpt lat="42.97319" lon="0.75521">
        <ele>627.911</ele>
        <time>2021-07-21T10:20:08Z</time>
      </trkpt>
      <trkpt lat="42.97324" lon="0.75521">
        <ele>626.983</ele>
        <time>2021-07-21T10:20:04Z</time>
      </trkpt>
      <trkpt lat="42.97329" lon="0.75521">
        <ele>625.962</ele>
        <time>2021-07-21T10:20:00Z</time>
      </trkpt>
      <trkpt lat="42.97334" lon="0.75522">
        <ele>625.133</ele>
        <time>2021-07-21T10:19:56Z</time>
      </trkpt>
      <trkpt lat="42.97338" lon="0.75522">
        <ele>624.398</ele>
        <time>2021-07-21T10:19:53Z</time>
      </trkpt>
      <trkpt lat="42.97344" lon="0.75524">
        <ele>623.454</ele>
        <time>2021-07-21T10:19:49Z</time>
      </trkpt>
      <trkpt lat="42.97349" lon="0.75526">
        <ele>622.486</ele>
        <time>2021-07-21T10:19:45Z</time>
      </trkpt>
      <trkpt lat="42.97354" lon="0.75528">
        <ele>621.452</ele>
        <time>2021-07-21T10:19:41Z</time>
      </trkpt>
      <trkpt lat="42.9736" lon="0.75531">
        <ele>620.391</ele>
        <time>2021-07-21T10:19:37Z</time>
      </trkpt>
      <trkpt lat="42.97365" lon="0.75534">
        <ele>619.282</ele>
        <time>2021-07-21T10:19:33Z</time>
      </trkpt>
      <trkpt lat="42.9737" lon="0.75537">
        <ele>618.191</ele>
        <time>2021-07-21T10:19:29Z</time>
      </trkpt>
      <trkpt lat="42.97375" lon="0.75537">
        <ele>617.108</ele>
        <time>2021-07-21T10:19:26Z</time>
      </trkpt>
      <trkpt lat="42.97379" lon="0.75538">
        <ele>616.315</ele>
        <time>2021-07-21T10:19:23Z</time>
      </trkpt>
      <trkpt lat="42.97384" lon="0.75539">
        <ele>615.505</ele>
        <time>2021-07-21T10:19:20Z</time>
      </trkpt>
      <trkpt lat="42.97389" lon="0.7554">
        <ele>614.744</ele>
        <time>2021-07-21T10:19:17Z</time>
      </trkpt>
      <trkpt lat="42.97394" lon="0.7554">
        <ele>613.973</ele>
        <time>2021-07-21T10:19:14Z</time>
      </trkpt>
      <trkpt lat="42.97399" lon="0.7554">
        <ele>613.388</ele>
        <time>2021-07-21T10:19:11Z</time>
      </trkpt>
      <trkpt lat="42.97404" lon="0.75541">
        <ele>612.824</ele>
        <time>2021-07-21T10:19:08Z</time>
      </trkpt>
      <trkpt lat="42.97409" lon="0.75541">
        <ele>612.396</ele>
        <time>2021-07-21T10:19:05Z</time>
      </trkpt>
      <trkpt lat="42.97415" lon="0.75541">
        <ele>611.632</ele>
        <time>2021-07-21T10:19:02Z</time>
      </trkpt>
      <trkpt lat="42.9742" lon="0.75541">
        <ele>611.061</ele>
        <time>2021-07-21T10:18:59Z</time>
      </trkpt>
      <trkpt lat="42.97425" lon="0.75542">
        <ele>610.452</ele>
        <time>2021-07-21T10:18:56Z</time>
      </trkpt>
      <trkpt lat="42.9743" lon="0.75542">
        <ele>609.981</ele>
        <time>2021-07-21T10:18:53Z</time>
      </trkpt>
      <trkpt lat="42.97435" lon="0.75542">
        <ele>609.308</ele>
        <time>2021-07-21T10:18:50Z</time>
      </trkpt>
      <trkpt lat="42.97441" lon="0.75542">
        <ele>608.714</ele>
        <time>2021-07-21T10:18:47Z</time>
      </trkpt>
      <trkpt lat="42.97446" lon="0.75543">
        <ele>608.222</ele>
        <time>2021-07-21T10:18:44Z</time>
      </trkpt>
      <trkpt lat="42.97451" lon="0.75543">
        <ele>607.842</ele>
        <time>2021-07-21T10:18:41Z</time>
      </trkpt>
      <trkpt lat="42.97457" lon="0.75543">
        <ele>607.578</ele>
        <time>2021-07-21T10:18:38Z</time>
      </trkpt>
      <trkpt lat="42.97462" lon="0.75543">
        <ele>607.163</ele>
        <time>2021-07-21T10:18:35Z</time>
      </trkpt>
      <trkpt lat="42.97467" lon="0.75544">
        <ele>606.619</ele>
        <time>2021-07-21T10:18:32Z</time>
      </trkpt>
      <trkpt lat="42.97473" lon="0.75543">
        <ele>606.061</ele>
        <time>2021-07-21T10:18:29Z</time>
      </trkpt>
      <trkpt lat="42.97478" lon="0.75543">
        <ele>605.497</ele>
        <time>2021-07-21T10:18:26Z</time>
      </trkpt>
      <trkpt lat="42.97483" lon="0.75544">
        <ele>604.926</ele>
        <time>2021-07-21T10:18:23Z</time>
      </trkpt>
      <trkpt lat="42.97489" lon="0.75544">
        <ele>604.447</ele>
        <time>2021-07-21T10:18:20Z</time>
      </trkpt>
      <trkpt lat="42.97494" lon="0.75544">
        <ele>604.086</ele>
        <time>2021-07-21T10:18:17Z</time>
      </trkpt>
      <trkpt lat="42.97499" lon="0.75543">
        <ele>603.808</ele>
        <time>2021-07-21T10:18:14Z</time>
      </trkpt>
      <trkpt lat="42.97504" lon="0.75544">
        <ele>603.522</ele>
        <time>2021-07-21T10:18:11Z</time>
      </trkpt>
      <trkpt lat="42.9751" lon="0.75545">
        <ele>603.157</ele>
        <time>2021-07-21T10:18:07Z</time>
      </trkpt>
      <trkpt lat="42.97516" lon="0.75546">
        <ele>602.894</ele>
        <time>2021-07-21T10:18:03Z</time>
      </trkpt>
      <trkpt lat="42.97521" lon="0.75546">
        <ele>602.617</ele>
        <time>2021-07-21T10:18:00Z</time>
      </trkpt>
      <trkpt lat="42.97526" lon="0.75547">
        <ele>602.472</ele>
        <time>2021-07-21T10:17:57Z</time>
      </trkpt>
      <trkpt lat="42.9753" lon="0.75547">
        <ele>602.288</ele>
        <time>2021-07-21T10:17:54Z</time>
      </trkpt>
      <trkpt lat="42.97536" lon="0.75548">
        <ele>602.25</ele>
        <time>2021-07-21T10:17:51Z</time>
      </trkpt>
      <trkpt lat="42.97542" lon="0.75548">
        <ele>601.916</ele>
        <time>2021-07-21T10:17:47Z</time>
      </trkpt>
      <trkpt lat="42.97547" lon="0.75548">
        <ele>601.725</ele>
        <time>2021-07-21T10:17:44Z</time>
      </trkpt>
      <trkpt lat="42.97553" lon="0.75548">
        <ele>601.496</ele>
        <time>2021-07-21T10:17:41Z</time>
      </trkpt>
      <trkpt lat="42.97558" lon="0.75548">
        <ele>600.925</ele>
        <time>2021-07-21T10:17:38Z</time>
      </trkpt>
      <trkpt lat="42.97564" lon="0.75548">
        <ele>600.108</ele>
        <time>2021-07-21T10:17:35Z</time>
      </trkpt>
      <trkpt lat="42.97569" lon="0.75547">
        <ele>599.017</ele>
        <time>2021-07-21T10:17:32Z</time>
      </trkpt>
      <trkpt lat="42.97574" lon="0.75545">
        <ele>597.661</ele>
        <time>2021-07-21T10:17:29Z</time>
      </trkpt>
      <trkpt lat="42.97579" lon="0.75543">
        <ele>596.081</ele>
        <time>2021-07-21T10:17:25Z</time>
      </trkpt>
      <trkpt lat="42.97584" lon="0.75541">
        <ele>594.64</ele>
        <time>2021-07-21T10:17:22Z</time>
      </trkpt>
      <trkpt lat="42.97589" lon="0.7554">
        <ele>593.355</ele>
        <time>2021-07-21T10:17:19Z</time>
      </trkpt>
      <trkpt lat="42.97594" lon="0.7554">
        <ele>592.191</ele>
        <time>2021-07-21T10:17:16Z</time>
      </trkpt>
      <trkpt lat="42.97599" lon="0.7554">
        <ele>591.083</ele>
        <time>2021-07-21T10:17:13Z</time>
      </trkpt>
      <trkpt lat="42.97603" lon="0.75539">
        <ele>589.819</ele>
        <time>2021-07-21T10:17:10Z</time>
      </trkpt>
      <trkpt lat="42.97609" lon="0.75539">
        <ele>588.728</ele>
        <time>2021-07-21T10:17:07Z</time>
      </trkpt>
      <trkpt lat="42.97615" lon="0.75538">
        <ele>587.729</ele>
        <time>2021-07-21T10:17:04Z</time>
      </trkpt>
      <trkpt lat="42.9762" lon="0.75537">
        <ele>586.758</ele>
        <time>2021-07-21T10:17:01Z</time>
      </trkpt>
      <trkpt lat="42.97625" lon="0.75536">
        <ele>586.008</ele>
        <time>2021-07-21T10:16:59Z</time>
      </trkpt>
      <trkpt lat="42.97631" lon="0.75536">
        <ele>585.203</ele>
        <time>2021-07-21T10:16:57Z</time>
      </trkpt>
      <trkpt lat="42.97637" lon="0.7554">
        <ele>584.821</ele>
        <time>2021-07-21T10:16:55Z</time>
      </trkpt>
      <trkpt lat="42.97641" lon="0.7555">
        <ele>584.811</ele>
        <time>2021-07-21T10:16:53Z</time>
      </trkpt>
      <trkpt lat="42.97643" lon="0.75556">
        <ele>584.823</ele>
        <time>2021-07-21T10:16:52Z</time>
      </trkpt>
      <trkpt lat="42.97645" lon="0.75568">
        <ele>584.798</ele>
        <time>2021-07-21T10:16:50Z</time>
      </trkpt>
      <trkpt lat="42.97646" lon="0.75575">
        <ele>584.794</ele>
        <time>2021-07-21T10:16:49Z</time>
      </trkpt>
      <trkpt lat="42.97647" lon="0.75588">
        <ele>584.636</ele>
        <time>2021-07-21T10:16:47Z</time>
      </trkpt>
      <trkpt lat="42.97647" lon="0.75595">
        <ele>584.582</ele>
        <time>2021-07-21T10:16:46Z</time>
      </trkpt>
      <trkpt lat="42.97647" lon="0.75609">
        <ele>584.761</ele>
        <time>2021-07-21T10:16:44Z</time>
      </trkpt>
      <trkpt lat="42.97647" lon="0.75616">
        <ele>585.022</ele>
        <time>2021-07-21T10:16:43Z</time>
      </trkpt>
      <trkpt lat="42.97647" lon="0.7563">
        <ele>585.581</ele>
        <time>2021-07-21T10:16:41Z</time>
      </trkpt>
      <trkpt lat="42.97648" lon="0.75645">
        <ele>586.008</ele>
        <time>2021-07-21T10:16:39Z</time>
      </trkpt>
      <trkpt lat="42.97648" lon="0.7566">
        <ele>586.715</ele>
        <time>2021-07-21T10:16:37Z</time>
      </trkpt>
      <trkpt lat="42.97651" lon="0.75675">
        <ele>587.405</ele>
        <time>2021-07-21T10:16:35Z</time>
      </trkpt>
      <trkpt lat="42.97654" lon="0.7569">
        <ele>588.044</ele>
        <time>2021-07-21T10:16:33Z</time>
      </trkpt>
      <trkpt lat="42.97656" lon="0.75697">
        <ele>588.267</ele>
        <time>2021-07-21T10:16:32Z</time>
      </trkpt>
      <trkpt lat="42.97659" lon="0.75703">
        <ele>588.252</ele>
        <time>2021-07-21T10:16:31Z</time>
      </trkpt>
      <trkpt lat="42.97666" lon="0.75714">
        <ele>588.168</ele>
        <time>2021-07-21T10:16:29Z</time>
      </trkpt>
      <trkpt lat="42.97674" lon="0.75723">
        <ele>588.12</ele>
        <time>2021-07-21T10:16:27Z</time>
      </trkpt>
      <trkpt lat="42.97679" lon="0.75727">
        <ele>588.296</ele>
        <time>2021-07-21T10:16:26Z</time>
      </trkpt>
      <trkpt lat="42.97683" lon="0.75731">
        <ele>588.545</ele>
        <time>2021-07-21T10:16:25Z</time>
      </trkpt>
      <trkpt lat="42.97692" lon="0.75739">
        <ele>588.856</ele>
        <time>2021-07-21T10:16:23Z</time>
      </trkpt>
      <trkpt lat="42.97696" lon="0.75744">
        <ele>589.015</ele>
        <time>2021-07-21T10:16:22Z</time>
      </trkpt>
      <trkpt lat="42.977" lon="0.75749">
        <ele>589.208</ele>
        <time>2021-07-21T10:16:21Z</time>
      </trkpt>
      <trkpt lat="42.97703" lon="0.75754">
        <ele>589.426</ele>
        <time>2021-07-21T10:16:20Z</time>
      </trkpt>
      <trkpt lat="42.97706" lon="0.7576">
        <ele>589.742</ele>
        <time>2021-07-21T10:16:19Z</time>
      </trkpt>
      <trkpt lat="42.97711" lon="0.75773">
        <ele>589.987</ele>
        <time>2021-07-21T10:16:17Z</time>
      </trkpt>
      <trkpt lat="42.97713" lon="0.75779">
        <ele>590.054</ele>
        <time>2021-07-21T10:16:16Z</time>
      </trkpt>
      <trkpt lat="42.97715" lon="0.75789">
        <ele>590.079</ele>
        <time>2021-07-21T10:16:14Z</time>
      </trkpt>
      <trkpt lat="42.97715" lon="0.75799">
        <ele>590.025</ele>
        <time>2021-07-21T10:16:12Z</time>
      </trkpt>
      <trkpt lat="42.97713" lon="0.7581">
        <ele>589.957</ele>
        <time>2021-07-21T10:16:10Z</time>
      </trkpt>
      <trkpt lat="42.97711" lon="0.75822">
        <ele>589.873</ele>
        <time>2021-07-21T10:16:08Z</time>
      </trkpt>
      <trkpt lat="42.9771" lon="0.75829">
        <ele>590.042</ele>
        <time>2021-07-21T10:16:07Z</time>
      </trkpt>
      <trkpt lat="42.97708" lon="0.75845">
        <ele>590.433</ele>
        <time>2021-07-21T10:16:05Z</time>
      </trkpt>
      <trkpt lat="42.97708" lon="0.75861">
        <ele>591.072</ele>
        <time>2021-07-21T10:16:03Z</time>
      </trkpt>
      <trkpt lat="42.97707" lon="0.75869">
        <ele>591.608</ele>
        <time>2021-07-21T10:16:02Z</time>
      </trkpt>
      <trkpt lat="42.97705" lon="0.75876">
        <ele>592.217</ele>
        <time>2021-07-21T10:16:01Z</time>
      </trkpt>
      <trkpt lat="42.97702" lon="0.75889">
        <ele>592.907</ele>
        <time>2021-07-21T10:15:59Z</time>
      </trkpt>
      <trkpt lat="42.977" lon="0.75895">
        <ele>593.255</ele>
        <time>2021-07-21T10:15:58Z</time>
      </trkpt>
      <trkpt lat="42.97696" lon="0.75907">
        <ele>593.667</ele>
        <time>2021-07-21T10:15:56Z</time>
      </trkpt>
      <trkpt lat="42.97692" lon="0.75917">
        <ele>593.892</ele>
        <time>2021-07-21T10:15:54Z</time>
      </trkpt>
      <trkpt lat="42.97689" lon="0.75928">
        <ele>593.928</ele>
        <time>2021-07-21T10:15:52Z</time>
      </trkpt>
      <trkpt lat="42.97688" lon="0.75938">
        <ele>594.08</ele>
        <time>2021-07-21T10:15:50Z</time>
      </trkpt>
      <trkpt lat="42.97687" lon="0.75949">
        <ele>593.566</ele>
        <time>2021-07-21T10:15:48Z</time>
      </trkpt>
      <trkpt lat="42.97686" lon="0.75959">
        <ele>592.695</ele>
        <time>2021-07-21T10:15:46Z</time>
      </trkpt>
      <trkpt lat="42.97685" lon="0.7597">
        <ele>591.916</ele>
        <time>2021-07-21T10:15:44Z</time>
      </trkpt>
      <trkpt lat="42.97685" lon="0.75976">
        <ele>591.695</ele>
        <time>2021-07-21T10:15:43Z</time>
      </trkpt>
      <trkpt lat="42.97685" lon="0.75989">
        <ele>591.308</ele>
        <time>2021-07-21T10:15:41Z</time>
      </trkpt>
      <trkpt lat="42.97685" lon="0.75995">
        <ele>591.217</ele>
        <time>2021-07-21T10:15:40Z</time>
      </trkpt>
      <trkpt lat="42.97685" lon="0.76008">
        <ele>591.143</ele>
        <time>2021-07-21T10:15:38Z</time>
      </trkpt>
      <trkpt lat="42.97685" lon="0.76014">
        <ele>590.982</ele>
        <time>2021-07-21T10:15:37Z</time>
      </trkpt>
      <trkpt lat="42.97686" lon="0.76027">
        <ele>590.738</ele>
        <time>2021-07-21T10:15:35Z</time>
      </trkpt>
      <trkpt lat="42.97686" lon="0.76034">
        <ele>590.793</ele>
        <time>2021-07-21T10:15:34Z</time>
      </trkpt>
      <trkpt lat="42.97688" lon="0.76046">
        <ele>590.539</ele>
        <time>2021-07-21T10:15:32Z</time>
      </trkpt>
      <trkpt lat="42.97689" lon="0.76052">
        <ele>590.361</ele>
        <time>2021-07-21T10:15:31Z</time>
      </trkpt>
      <trkpt lat="42.97692" lon="0.76064">
        <ele>590.217</ele>
        <time>2021-07-21T10:15:29Z</time>
      </trkpt>
      <trkpt lat="42.97696" lon="0.76077">
        <ele>590.356</ele>
        <time>2021-07-21T10:15:27Z</time>
      </trkpt>
      <trkpt lat="42.97698" lon="0.76085">
        <ele>590.497</ele>
        <time>2021-07-21T10:15:26Z</time>
      </trkpt>
      <trkpt lat="42.97699" lon="0.76093">
        <ele>590.486</ele>
        <time>2021-07-21T10:15:25Z</time>
      </trkpt>
      <trkpt lat="42.97703" lon="0.76109">
        <ele>590.608</ele>
        <time>2021-07-21T10:15:23Z</time>
      </trkpt>
      <trkpt lat="42.97704" lon="0.76118">
        <ele>590.824</ele>
        <time>2021-07-21T10:15:22Z</time>
      </trkpt>
      <trkpt lat="42.97706" lon="0.76134">
        <ele>591.131</ele>
        <time>2021-07-21T10:15:20Z</time>
      </trkpt>
      <trkpt lat="42.97707" lon="0.76142">
        <ele>591.496</ele>
        <time>2021-07-21T10:15:19Z</time>
      </trkpt>
      <trkpt lat="42.97707" lon="0.76158">
        <ele>591.871</ele>
        <time>2021-07-21T10:15:17Z</time>
      </trkpt>
      <trkpt lat="42.97708" lon="0.76166">
        <ele>592.386</ele>
        <time>2021-07-21T10:15:16Z</time>
      </trkpt>
      <trkpt lat="42.97709" lon="0.76182">
        <ele>592.762</ele>
        <time>2021-07-21T10:15:14Z</time>
      </trkpt>
      <trkpt lat="42.97708" lon="0.7619">
        <ele>592.924</ele>
        <time>2021-07-21T10:15:13Z</time>
      </trkpt>
      <trkpt lat="42.97708" lon="0.76206">
        <ele>593.48</ele>
        <time>2021-07-21T10:15:11Z</time>
      </trkpt>
      <trkpt lat="42.97707" lon="0.76222">
        <ele>593.949</ele>
        <time>2021-07-21T10:15:09Z</time>
      </trkpt>
      <trkpt lat="42.97707" lon="0.76236">
        <ele>594.44</ele>
        <time>2021-07-21T10:15:07Z</time>
      </trkpt>
      <trkpt lat="42.97705" lon="0.7625">
        <ele>594.829</ele>
        <time>2021-07-21T10:15:05Z</time>
      </trkpt>
      <trkpt lat="42.97704" lon="0.76256">
        <ele>595.008</ele>
        <time>2021-07-21T10:15:04Z</time>
      </trkpt>
      <trkpt lat="42.97702" lon="0.76268">
        <ele>595.311</ele>
        <time>2021-07-21T10:15:02Z</time>
      </trkpt>
      <trkpt lat="42.97702" lon="0.76279">
        <ele>595.483</ele>
        <time>2021-07-21T10:15:00Z</time>
      </trkpt>
      <trkpt lat="42.97703" lon="0.7629">
        <ele>595.223</ele>
        <time>2021-07-21T10:14:58Z</time>
      </trkpt>
      <trkpt lat="42.97706" lon="0.763">
        <ele>594.814</ele>
        <time>2021-07-21T10:14:56Z</time>
      </trkpt>
      <trkpt lat="42.97708" lon="0.7631">
        <ele>594.449</ele>
        <time>2021-07-21T10:14:54Z</time>
      </trkpt>
      <trkpt lat="42.97711" lon="0.76321">
        <ele>594.165</ele>
        <time>2021-07-21T10:14:52Z</time>
      </trkpt>
      <trkpt lat="42.97714" lon="0.76331">
        <ele>594.097</ele>
        <time>2021-07-21T10:14:50Z</time>
      </trkpt>
      <trkpt lat="42.97716" lon="0.76337">
        <ele>594.063</ele>
        <time>2021-07-21T10:14:49Z</time>
      </trkpt>
      <trkpt lat="42.9772" lon="0.76347">
        <ele>593.882</ele>
        <time>2021-07-21T10:14:47Z</time>
      </trkpt>
      <trkpt lat="42.97723" lon="0.76358">
        <ele>593.613</ele>
        <time>2021-07-21T10:14:45Z</time>
      </trkpt>
      <trkpt lat="42.97726" lon="0.76369">
        <ele>593.542</ele>
        <time>2021-07-21T10:14:43Z</time>
      </trkpt>
      <trkpt lat="42.97729" lon="0.76379">
        <ele>593.408</ele>
        <time>2021-07-21T10:14:41Z</time>
      </trkpt>
      <trkpt lat="42.97731" lon="0.76389">
        <ele>593.411</ele>
        <time>2021-07-21T10:14:39Z</time>
      </trkpt>
      <trkpt lat="42.97734" lon="0.76398">
        <ele>593.356</ele>
        <time>2021-07-21T10:14:37Z</time>
      </trkpt>
      <trkpt lat="42.97736" lon="0.76408">
        <ele>593.154</ele>
        <time>2021-07-21T10:14:35Z</time>
      </trkpt>
      <trkpt lat="42.97739" lon="0.76417">
        <ele>593.016</ele>
        <time>2021-07-21T10:14:33Z</time>
      </trkpt>
      <trkpt lat="42.97741" lon="0.76427">
        <ele>592.861</ele>
        <time>2021-07-21T10:14:31Z</time>
      </trkpt>
      <trkpt lat="42.97743" lon="0.76438">
        <ele>592.647</ele>
        <time>2021-07-21T10:14:29Z</time>
      </trkpt>
      <trkpt lat="42.97744" lon="0.76449">
        <ele>592.479</ele>
        <time>2021-07-21T10:14:27Z</time>
      </trkpt>
      <trkpt lat="42.97745" lon="0.7646">
        <ele>592.155</ele>
        <time>2021-07-21T10:14:25Z</time>
      </trkpt>
      <trkpt lat="42.97746" lon="0.76471">
        <ele>592.054</ele>
        <time>2021-07-21T10:14:23Z</time>
      </trkpt>
      <trkpt lat="42.97747" lon="0.76483">
        <ele>591.885</ele>
        <time>2021-07-21T10:14:21Z</time>
      </trkpt>
      <trkpt lat="42.97747" lon="0.76493">
        <ele>591.774</ele>
        <time>2021-07-21T10:14:19Z</time>
      </trkpt>
      <trkpt lat="42.97747" lon="0.76504">
        <ele>591.508</ele>
        <time>2021-07-21T10:14:17Z</time>
      </trkpt>
      <trkpt lat="42.97747" lon="0.76515">
        <ele>591.32</ele>
        <time>2021-07-21T10:14:15Z</time>
      </trkpt>
      <trkpt lat="42.97746" lon="0.76527">
        <ele>591.128</ele>
        <time>2021-07-21T10:14:13Z</time>
      </trkpt>
      <trkpt lat="42.97745" lon="0.76539">
        <ele>590.875</ele>
        <time>2021-07-21T10:14:11Z</time>
      </trkpt>
      <trkpt lat="42.97744" lon="0.76551">
        <ele>590.495</ele>
        <time>2021-07-21T10:14:09Z</time>
      </trkpt>
      <trkpt lat="42.97742" lon="0.76562">
        <ele>590.04</ele>
        <time>2021-07-21T10:14:07Z</time>
      </trkpt>
      <trkpt lat="42.97741" lon="0.76573">
        <ele>589.516</ele>
        <time>2021-07-21T10:14:05Z</time>
      </trkpt>
      <trkpt lat="42.9774" lon="0.76579">
        <ele>589.558</ele>
        <time>2021-07-21T10:14:04Z</time>
      </trkpt>
      <trkpt lat="42.97739" lon="0.76586">
        <ele>589.714</ele>
        <time>2021-07-21T10:14:03Z</time>
      </trkpt>
      <trkpt lat="42.97737" lon="0.76599">
        <ele>589.883</ele>
        <time>2021-07-21T10:14:01Z</time>
      </trkpt>
      <trkpt lat="42.97737" lon="0.76614">
        <ele>590.044</ele>
        <time>2021-07-21T10:13:59Z</time>
      </trkpt>
      <trkpt lat="42.97737" lon="0.76621">
        <ele>590.193</ele>
        <time>2021-07-21T10:13:58Z</time>
      </trkpt>
      <trkpt lat="42.97739" lon="0.76628">
        <ele>590.208</ele>
        <time>2021-07-21T10:13:57Z</time>
      </trkpt>
      <trkpt lat="42.97743" lon="0.76641">
        <ele>590.511</ele>
        <time>2021-07-21T10:13:55Z</time>
      </trkpt>
      <trkpt lat="42.97747" lon="0.76656">
        <ele>591.083</ele>
        <time>2021-07-21T10:13:53Z</time>
      </trkpt>
      <trkpt lat="42.97749" lon="0.76663">
        <ele>591.362</ele>
        <time>2021-07-21T10:13:52Z</time>
      </trkpt>
      <trkpt lat="42.9775" lon="0.76671">
        <ele>591.762</ele>
        <time>2021-07-21T10:13:51Z</time>
      </trkpt>
      <trkpt lat="42.97752" lon="0.76689">
        <ele>592.197</ele>
        <time>2021-07-21T10:13:49Z</time>
      </trkpt>
      <trkpt lat="42.97753" lon="0.76706">
        <ele>592.163</ele>
        <time>2021-07-21T10:13:47Z</time>
      </trkpt>
      <trkpt lat="42.97752" lon="0.76725">
        <ele>592.365</ele>
        <time>2021-07-21T10:13:45Z</time>
      </trkpt>
      <trkpt lat="42.97751" lon="0.76744">
        <ele>592.411</ele>
        <time>2021-07-21T10:13:43Z</time>
      </trkpt>
      <trkpt lat="42.9775" lon="0.76765">
        <ele>592.74</ele>
        <time>2021-07-21T10:13:41Z</time>
      </trkpt>
      <trkpt lat="42.97749" lon="0.76787">
        <ele>593.371</ele>
        <time>2021-07-21T10:13:39Z</time>
      </trkpt>
      <trkpt lat="42.9775" lon="0.76809">
        <ele>594.11</ele>
        <time>2021-07-21T10:13:37Z</time>
      </trkpt>
      <trkpt lat="42.97752" lon="0.76831">
        <ele>594.808</ele>
        <time>2021-07-21T10:13:35Z</time>
      </trkpt>
      <trkpt lat="42.97754" lon="0.76842">
        <ele>595.517</ele>
        <time>2021-07-21T10:13:34Z</time>
      </trkpt>
      <trkpt lat="42.97755" lon="0.76851">
        <ele>596.47</ele>
        <time>2021-07-21T10:13:33Z</time>
      </trkpt>
      <trkpt lat="42.97758" lon="0.76869">
        <ele>597.638</ele>
        <time>2021-07-21T10:13:31Z</time>
      </trkpt>
      <trkpt lat="42.9776" lon="0.76886">
        <ele>598.764</ele>
        <time>2021-07-21T10:13:29Z</time>
      </trkpt>
      <trkpt lat="42.97761" lon="0.76902">
        <ele>599.549</ele>
        <time>2021-07-21T10:13:27Z</time>
      </trkpt>
      <trkpt lat="42.97761" lon="0.76918">
        <ele>600.325</ele>
        <time>2021-07-21T10:13:25Z</time>
      </trkpt>
      <trkpt lat="42.97762" lon="0.76933">
        <ele>600.957</ele>
        <time>2021-07-21T10:13:23Z</time>
      </trkpt>
      <trkpt lat="42.97762" lon="0.7694">
        <ele>601.233</ele>
        <time>2021-07-21T10:13:22Z</time>
      </trkpt>
      <trkpt lat="42.97762" lon="0.76946">
        <ele>601.662</ele>
        <time>2021-07-21T10:13:21Z</time>
      </trkpt>
      <trkpt lat="42.97762" lon="0.76959">
        <ele>602.253</ele>
        <time>2021-07-21T10:13:19Z</time>
      </trkpt>
      <trkpt lat="42.97764" lon="0.76971">
        <ele>603.082</ele>
        <time>2021-07-21T10:13:17Z</time>
      </trkpt>
      <trkpt lat="42.97766" lon="0.76982">
        <ele>603.908</ele>
        <time>2021-07-21T10:13:15Z</time>
      </trkpt>
      <trkpt lat="42.97768" lon="0.76993">
        <ele>604.811</ele>
        <time>2021-07-21T10:13:13Z</time>
      </trkpt>
      <trkpt lat="42.9777" lon="0.77003">
        <ele>605.401</ele>
        <time>2021-07-21T10:13:11Z</time>
      </trkpt>
      <trkpt lat="42.97773" lon="0.77013">
        <ele>605.651</ele>
        <time>2021-07-21T10:13:09Z</time>
      </trkpt>
      <trkpt lat="42.97774" lon="0.77021">
        <ele>605.473</ele>
        <time>2021-07-21T10:13:07Z</time>
      </trkpt>
      <trkpt lat="42.97776" lon="0.77028">
        <ele>604.838</ele>
        <time>2021-07-21T10:13:05Z</time>
      </trkpt>
      <trkpt lat="42.9778" lon="0.77033">
        <ele>603.864</ele>
        <time>2021-07-21T10:13:02Z</time>
      </trkpt>
      <trkpt lat="42.97784" lon="0.77038">
        <ele>602.476</ele>
        <time>2021-07-21T10:12:58Z</time>
      </trkpt>
      <trkpt lat="42.97789" lon="0.77039">
        <ele>601.412</ele>
        <time>2021-07-21T10:12:55Z</time>
      </trkpt>
      <trkpt lat="42.97794" lon="0.77039">
        <ele>600.841</ele>
        <time>2021-07-21T10:12:53Z</time>
      </trkpt>
      <trkpt lat="42.97798" lon="0.77039">
        <ele>600.482</ele>
        <time>2021-07-21T10:12:51Z</time>
      </trkpt>
      <trkpt lat="42.97805" lon="0.77041">
        <ele>600.131</ele>
        <time>2021-07-21T10:12:48Z</time>
      </trkpt>
      <trkpt lat="42.9781" lon="0.77042">
        <ele>599.908</ele>
        <time>2021-07-21T10:12:45Z</time>
      </trkpt>
      <trkpt lat="42.97815" lon="0.77043">
        <ele>599.821</ele>
        <time>2021-07-21T10:12:41Z</time>
      </trkpt>
      <trkpt lat="42.97821" lon="0.77045">
        <ele>599.529</ele>
        <time>2021-07-21T10:10:34Z</time>
      </trkpt>
      <trkpt lat="42.97828" lon="0.77044">
        <ele>599.947</ele>
        <time>2021-07-21T10:10:32Z</time>
      </trkpt>
      <trkpt lat="42.97834" lon="0.77043">
        <ele>600.24</ele>
        <time>2021-07-21T10:10:31Z</time>
      </trkpt>
      <trkpt lat="42.97845" lon="0.77041">
        <ele>600.555</ele>
        <time>2021-07-21T10:10:29Z</time>
      </trkpt>
      <trkpt lat="42.97855" lon="0.77036">
        <ele>600.611</ele>
        <time>2021-07-21T10:10:27Z</time>
      </trkpt>
      <trkpt lat="42.97858" lon="0.77031">
        <ele>600.863</ele>
        <time>2021-07-21T10:10:26Z</time>
      </trkpt>
      <trkpt lat="42.97861" lon="0.77025">
        <ele>601.579</ele>
        <time>2021-07-21T10:10:25Z</time>
      </trkpt>
      <trkpt lat="42.97862" lon="0.77011">
        <ele>602.288</ele>
        <time>2021-07-21T10:10:23Z</time>
      </trkpt>
      <trkpt lat="42.97862" lon="0.76996">
        <ele>602.589</ele>
        <time>2021-07-21T10:10:21Z</time>
      </trkpt>
      <trkpt lat="42.97862" lon="0.76988">
        <ele>602.888</ele>
        <time>2021-07-21T10:10:20Z</time>
      </trkpt>
      <trkpt lat="42.97861" lon="0.7698">
        <ele>603.408</ele>
        <time>2021-07-21T10:10:19Z</time>
      </trkpt>
      <trkpt lat="42.97861" lon="0.76965">
        <ele>604.011</ele>
        <time>2021-07-21T10:10:17Z</time>
      </trkpt>
      <trkpt lat="42.97863" lon="0.76946">
        <ele>604.765</ele>
        <time>2021-07-21T10:10:15Z</time>
      </trkpt>
      <trkpt lat="42.97864" lon="0.76936">
        <ele>605.215</ele>
        <time>2021-07-21T10:10:14Z</time>
      </trkpt>
      <trkpt lat="42.97865" lon="0.76925">
        <ele>605.863</ele>
        <time>2021-07-21T10:10:13Z</time>
      </trkpt>
      <trkpt lat="42.9787" lon="0.76903">
        <ele>606.488</ele>
        <time>2021-07-21T10:10:11Z</time>
      </trkpt>
      <trkpt lat="42.97876" lon="0.76882">
        <ele>607.334</ele>
        <time>2021-07-21T10:10:09Z</time>
      </trkpt>
      <trkpt lat="42.97884" lon="0.76863">
        <ele>608.216</ele>
        <time>2021-07-21T10:10:07Z</time>
      </trkpt>
      <trkpt lat="42.9789" lon="0.76843">
        <ele>608.882</ele>
        <time>2021-07-21T10:10:05Z</time>
      </trkpt>
      <trkpt lat="42.97897" lon="0.76826">
        <ele>609.581</ele>
        <time>2021-07-21T10:10:03Z</time>
      </trkpt>
      <trkpt lat="42.979" lon="0.76818">
        <ele>610.162</ele>
        <time>2021-07-21T10:10:02Z</time>
      </trkpt>
      <trkpt lat="42.97903" lon="0.76811">
        <ele>610.921</ele>
        <time>2021-07-21T10:10:01Z</time>
      </trkpt>
      <trkpt lat="42.97909" lon="0.76797">
        <ele>611.808</ele>
        <time>2021-07-21T10:09:59Z</time>
      </trkpt>
      <trkpt lat="42.97914" lon="0.76781">
        <ele>612.821</ele>
        <time>2021-07-21T10:09:57Z</time>
      </trkpt>
      <trkpt lat="42.97917" lon="0.76772">
        <ele>613.829</ele>
        <time>2021-07-21T10:09:56Z</time>
      </trkpt>
      <trkpt lat="42.97925" lon="0.76755">
        <ele>615.247</ele>
        <time>2021-07-21T10:09:54Z</time>
      </trkpt>
      <trkpt lat="42.97929" lon="0.76746">
        <ele>616.661</ele>
        <time>2021-07-21T10:09:53Z</time>
      </trkpt>
      <trkpt lat="42.97938" lon="0.76728">
        <ele>618.156</ele>
        <time>2021-07-21T10:09:51Z</time>
      </trkpt>
      <trkpt lat="42.97943" lon="0.7672">
        <ele>619.412</ele>
        <time>2021-07-21T10:09:50Z</time>
      </trkpt>
      <trkpt lat="42.97953" lon="0.76703">
        <ele>621.134</ele>
        <time>2021-07-21T10:09:48Z</time>
      </trkpt>
      <trkpt lat="42.97958" lon="0.76695">
        <ele>622.62</ele>
        <time>2021-07-21T10:09:47Z</time>
      </trkpt>
      <trkpt lat="42.97963" lon="0.76687">
        <ele>624.279</ele>
        <time>2021-07-21T10:09:46Z</time>
      </trkpt>
      <trkpt lat="42.97973" lon="0.7667">
        <ele>626.09</ele>
        <time>2021-07-21T10:09:44Z</time>
      </trkpt>
      <trkpt lat="42.9798" lon="0.76662">
        <ele>627.479</ele>
        <time>2021-07-21T10:09:43Z</time>
      </trkpt>
      <trkpt lat="42.97992" lon="0.76647">
        <ele>628.608</ele>
        <time>2021-07-21T10:09:41Z</time>
      </trkpt>
      <trkpt lat="42.97998" lon="0.76642">
        <ele>629.314</ele>
        <time>2021-07-21T10:09:40Z</time>
      </trkpt>
      <trkpt lat="42.98005" lon="0.76636">
        <ele>629.968</ele>
        <time>2021-07-21T10:09:39Z</time>
      </trkpt>
      <trkpt lat="42.98018" lon="0.76625">
        <ele>630.727</ele>
        <time>2021-07-21T10:09:37Z</time>
      </trkpt>
      <trkpt lat="42.98029" lon="0.76615">
        <ele>631.445</ele>
        <time>2021-07-21T10:09:35Z</time>
      </trkpt>
      <trkpt lat="42.98041" lon="0.76607">
        <ele>632.45</ele>
        <time>2021-07-21T10:09:33Z</time>
      </trkpt>
      <trkpt lat="42.98051" lon="0.76599">
        <ele>633.686</ele>
        <time>2021-07-21T10:09:31Z</time>
      </trkpt>
      <trkpt lat="42.98058" lon="0.76592">
        <ele>634.988</ele>
        <time>2021-07-21T10:09:29Z</time>
      </trkpt>
      <trkpt lat="42.98064" lon="0.76584">
        <ele>636.154</ele>
        <time>2021-07-21T10:09:27Z</time>
      </trkpt>
      <trkpt lat="42.98073" lon="0.76574">
        <ele>637.283</ele>
        <time>2021-07-21T10:09:25Z</time>
      </trkpt>
      <trkpt lat="42.98084" lon="0.76564">
        <ele>638.094</ele>
        <time>2021-07-21T10:09:23Z</time>
      </trkpt>
      <trkpt lat="42.98094" lon="0.76557">
        <ele>638.793</ele>
        <time>2021-07-21T10:09:21Z</time>
      </trkpt>
      <trkpt lat="42.981" lon="0.76553">
        <ele>639.408</ele>
        <time>2021-07-21T10:09:20Z</time>
      </trkpt>
      <trkpt lat="42.9811" lon="0.76546">
        <ele>640.418</ele>
        <time>2021-07-21T10:09:18Z</time>
      </trkpt>
      <trkpt lat="42.98118" lon="0.7654">
        <ele>641.544</ele>
        <time>2021-07-21T10:09:16Z</time>
      </trkpt>
      <trkpt lat="42.98125" lon="0.76536">
        <ele>642.863</ele>
        <time>2021-07-21T10:09:14Z</time>
      </trkpt>
      <trkpt lat="42.98132" lon="0.76532">
        <ele>644.165</ele>
        <time>2021-07-21T10:09:12Z</time>
      </trkpt>
      <trkpt lat="42.98138" lon="0.76528">
        <ele>645.74</ele>
        <time>2021-07-21T10:09:10Z</time>
      </trkpt>
      <trkpt lat="42.98144" lon="0.76525">
        <ele>647.456</ele>
        <time>2021-07-21T10:09:08Z</time>
      </trkpt>
      <trkpt lat="42.9815" lon="0.76523">
        <ele>649.138</ele>
        <time>2021-07-21T10:09:06Z</time>
      </trkpt>
      <trkpt lat="42.98156" lon="0.76521">
        <ele>650.824</ele>
        <time>2021-07-21T10:09:04Z</time>
      </trkpt>
      <trkpt lat="42.98164" lon="0.76516">
        <ele>652.743</ele>
        <time>2021-07-21T10:09:02Z</time>
      </trkpt>
      <trkpt lat="42.98169" lon="0.76513">
        <ele>654.614</ele>
        <time>2021-07-21T10:09:01Z</time>
      </trkpt>
      <trkpt lat="42.9818" lon="0.76506">
        <ele>657.023</ele>
        <time>2021-07-21T10:08:59Z</time>
      </trkpt>
      <trkpt lat="42.98185" lon="0.76503">
        <ele>658.808</ele>
        <time>2021-07-21T10:08:58Z</time>
      </trkpt>
      <trkpt lat="42.98195" lon="0.76497">
        <ele>660.919</ele>
        <time>2021-07-21T10:08:56Z</time>
      </trkpt>
      <trkpt lat="42.98205" lon="0.76493">
        <ele>662.781</ele>
        <time>2021-07-21T10:08:54Z</time>
      </trkpt>
      <trkpt lat="42.98212" lon="0.7649">
        <ele>664.467</ele>
        <time>2021-07-21T10:08:52Z</time>
      </trkpt>
      <trkpt lat="42.98221" lon="0.76487">
        <ele>666.134</ele>
        <time>2021-07-21T10:08:50Z</time>
      </trkpt>
      <trkpt lat="42.98226" lon="0.76485">
        <ele>667.919</ele>
        <time>2021-07-21T10:08:49Z</time>
      </trkpt>
      <trkpt lat="42.98237" lon="0.76479">
        <ele>670.215</ele>
        <time>2021-07-21T10:08:47Z</time>
      </trkpt>
      <trkpt lat="42.98246" lon="0.76474">
        <ele>672.677</ele>
        <time>2021-07-21T10:08:45Z</time>
      </trkpt>
      <trkpt lat="42.98253" lon="0.76469">
        <ele>674.853</ele>
        <time>2021-07-21T10:08:43Z</time>
      </trkpt>
      <trkpt lat="42.9826" lon="0.76464">
        <ele>676.972</ele>
        <time>2021-07-21T10:08:41Z</time>
      </trkpt>
      <trkpt lat="42.98269" lon="0.76459">
        <ele>678.373</ele>
        <time>2021-07-21T10:08:39Z</time>
      </trkpt>
      <trkpt lat="42.98277" lon="0.76455">
        <ele>679.752</ele>
        <time>2021-07-21T10:08:37Z</time>
      </trkpt>
      <trkpt lat="42.98285" lon="0.7645">
        <ele>680.608</ele>
        <time>2021-07-21T10:08:35Z</time>
      </trkpt>
      <trkpt lat="42.98289" lon="0.76448">
        <ele>681.211</ele>
        <time>2021-07-21T10:08:34Z</time>
      </trkpt>
      <trkpt lat="42.98294" lon="0.76447">
        <ele>681.601</ele>
        <time>2021-07-21T10:08:33Z</time>
      </trkpt>
      <trkpt lat="42.98301" lon="0.76447">
        <ele>682.351</ele>
        <time>2021-07-21T10:08:31Z</time>
      </trkpt>
      <trkpt lat="42.98306" lon="0.76446">
        <ele>683.298</ele>
        <time>2021-07-21T10:08:29Z</time>
      </trkpt>
      <trkpt lat="42.98314" lon="0.76443">
        <ele>684.263</ele>
        <time>2021-07-21T10:08:27Z</time>
      </trkpt>
      <trkpt lat="42.98324" lon="0.76439">
        <ele>684.999</ele>
        <time>2021-07-21T10:08:25Z</time>
      </trkpt>
      <trkpt lat="42.98335" lon="0.76437">
        <ele>685.791</ele>
        <time>2021-07-21T10:08:23Z</time>
      </trkpt>
      <trkpt lat="42.9834" lon="0.76436">
        <ele>686.437</ele>
        <time>2021-07-21T10:08:22Z</time>
      </trkpt>
      <trkpt lat="42.9835" lon="0.76432">
        <ele>687.256</ele>
        <time>2021-07-21T10:08:20Z</time>
      </trkpt>
      <trkpt lat="42.98355" lon="0.7643">
        <ele>688.087</ele>
        <time>2021-07-21T10:08:19Z</time>
      </trkpt>
      <trkpt lat="42.98364" lon="0.76426">
        <ele>688.966</ele>
        <time>2021-07-21T10:08:17Z</time>
      </trkpt>
      <trkpt lat="42.98369" lon="0.76424">
        <ele>689.508</ele>
        <time>2021-07-21T10:08:16Z</time>
      </trkpt>
      <trkpt lat="42.98379" lon="0.76422">
        <ele>690.221</ele>
        <time>2021-07-21T10:08:14Z</time>
      </trkpt>
      <trkpt lat="42.98387" lon="0.76421">
        <ele>691.265</ele>
        <time>2021-07-21T10:08:12Z</time>
      </trkpt>
      <trkpt lat="42.98394" lon="0.76419">
        <ele>692.293</ele>
        <time>2021-07-21T10:08:10Z</time>
      </trkpt>
      <trkpt lat="42.98401" lon="0.76417">
        <ele>693.181</ele>
        <time>2021-07-21T10:08:08Z</time>
      </trkpt>
      <trkpt lat="42.98407" lon="0.76415">
        <ele>694.296</ele>
        <time>2021-07-21T10:08:06Z</time>
      </trkpt>
      <trkpt lat="42.98412" lon="0.76413">
        <ele>695.622</ele>
        <time>2021-07-21T10:08:04Z</time>
      </trkpt>
      <trkpt lat="42.98418" lon="0.76411">
        <ele>697.474</ele>
        <time>2021-07-21T10:08:01Z</time>
      </trkpt>
      <trkpt lat="42.98424" lon="0.76407">
        <ele>699.17</ele>
        <time>2021-07-21T10:07:59Z</time>
      </trkpt>
      <trkpt lat="42.98428" lon="0.76404">
        <ele>700.449</ele>
        <time>2021-07-21T10:07:58Z</time>
      </trkpt>
      <trkpt lat="42.98432" lon="0.76401">
        <ele>701.97</ele>
        <time>2021-07-21T10:07:57Z</time>
      </trkpt>
      <trkpt lat="42.98439" lon="0.76398">
        <ele>703.729</ele>
        <time>2021-07-21T10:07:55Z</time>
      </trkpt>
      <trkpt lat="42.98444" lon="0.76395">
        <ele>705.408</ele>
        <time>2021-07-21T10:07:53Z</time>
      </trkpt>
      <trkpt lat="42.98449" lon="0.76392">
        <ele>707.008</ele>
        <time>2021-07-21T10:07:51Z</time>
      </trkpt>
      <trkpt lat="42.98455" lon="0.76387">
        <ele>708.726</ele>
        <time>2021-07-21T10:07:49Z</time>
      </trkpt>
      <trkpt lat="42.98463" lon="0.76385">
        <ele>710.725</ele>
        <time>2021-07-21T10:07:47Z</time>
      </trkpt>
      <trkpt lat="42.9847" lon="0.76382">
        <ele>712.672</ele>
        <time>2021-07-21T10:07:45Z</time>
      </trkpt>
      <trkpt lat="42.98476" lon="0.7638">
        <ele>714.737</ele>
        <time>2021-07-21T10:07:43Z</time>
      </trkpt>
      <trkpt lat="42.98482" lon="0.76377">
        <ele>716.753</ele>
        <time>2021-07-21T10:07:41Z</time>
      </trkpt>
      <trkpt lat="42.98487" lon="0.76375">
        <ele>718.445</ele>
        <time>2021-07-21T10:07:39Z</time>
      </trkpt>
      <trkpt lat="42.98492" lon="0.76374">
        <ele>719.781</ele>
        <time>2021-07-21T10:07:37Z</time>
      </trkpt>
      <trkpt lat="42.98497" lon="0.76373">
        <ele>720.47</ele>
        <time>2021-07-21T10:07:35Z</time>
      </trkpt>
      <trkpt lat="42.98503" lon="0.76372">
        <ele>721.521</ele>
        <time>2021-07-21T10:07:32Z</time>
      </trkpt>
      <trkpt lat="42.98508" lon="0.76372">
        <ele>722.69</ele>
        <time>2021-07-21T10:07:29Z</time>
      </trkpt>
      <trkpt lat="42.98514" lon="0.76371">
        <ele>723.408</ele>
        <time>2021-07-21T10:07:27Z</time>
      </trkpt>
      <trkpt lat="42.98521" lon="0.7637">
        <ele>723.911</ele>
        <time>2021-07-21T10:07:25Z</time>
      </trkpt>
      <trkpt lat="42.98529" lon="0.76372">
        <ele>724.392</ele>
        <time>2021-07-21T10:07:23Z</time>
      </trkpt>
      <trkpt lat="42.98537" lon="0.76371">
        <ele>724.532</ele>
        <time>2021-07-21T10:07:21Z</time>
      </trkpt>
      <trkpt lat="42.98545" lon="0.7637">
        <ele>724.788</ele>
        <time>2021-07-21T10:07:19Z</time>
      </trkpt>
      <trkpt lat="42.98552" lon="0.7637">
        <ele>725.353</ele>
        <time>2021-07-21T10:07:17Z</time>
      </trkpt>
      <trkpt lat="42.9856" lon="0.76369">
        <ele>725.949</ele>
        <time>2021-07-21T10:07:15Z</time>
      </trkpt>
      <trkpt lat="42.98564" lon="0.76366">
        <ele>726.561</ele>
        <time>2021-07-21T10:07:14Z</time>
      </trkpt>
      <trkpt lat="42.9857" lon="0.76358">
        <ele>727.497</ele>
        <time>2021-07-21T10:07:12Z</time>
      </trkpt>
      <trkpt lat="42.98578" lon="0.76353">
        <ele>728.156</ele>
        <time>2021-07-21T10:07:10Z</time>
      </trkpt>
      <trkpt lat="42.98585" lon="0.76349">
        <ele>728.867</ele>
        <time>2021-07-21T10:07:08Z</time>
      </trkpt>
      <trkpt lat="42.98594" lon="0.76345">
        <ele>729.366</ele>
        <time>2021-07-21T10:07:06Z</time>
      </trkpt>
      <trkpt lat="42.98599" lon="0.76343">
        <ele>729.808</ele>
        <time>2021-07-21T10:07:05Z</time>
      </trkpt>
      <trkpt lat="42.98607" lon="0.76341">
        <ele>730.626</ele>
        <time>2021-07-21T10:07:03Z</time>
      </trkpt>
      <trkpt lat="42.98616" lon="0.76341">
        <ele>731.515</ele>
        <time>2021-07-21T10:07:01Z</time>
      </trkpt>
      <trkpt lat="42.98624" lon="0.76341">
        <ele>732.898</ele>
        <time>2021-07-21T10:06:59Z</time>
      </trkpt>
      <trkpt lat="42.98633" lon="0.76341">
        <ele>734.273</ele>
        <time>2021-07-21T10:06:57Z</time>
      </trkpt>
      <trkpt lat="42.98638" lon="0.76341">
        <ele>735.588</ele>
        <time>2021-07-21T10:06:56Z</time>
      </trkpt>
      <trkpt lat="42.98644" lon="0.7634">
        <ele>737.064</ele>
        <time>2021-07-21T10:06:55Z</time>
      </trkpt>
      <trkpt lat="42.98656" lon="0.76343">
        <ele>739.046</ele>
        <time>2021-07-21T10:06:53Z</time>
      </trkpt>
      <trkpt lat="42.98665" lon="0.76346">
        <ele>741.242</ele>
        <time>2021-07-21T10:06:51Z</time>
      </trkpt>
      <trkpt lat="42.98671" lon="0.76353">
        <ele>743.471</ele>
        <time>2021-07-21T10:06:49Z</time>
      </trkpt>
      <trkpt lat="42.98673" lon="0.76364">
        <ele>745.722</ele>
        <time>2021-07-21T10:06:47Z</time>
      </trkpt>
      <trkpt lat="42.98672" lon="0.76377">
        <ele>747.941</ele>
        <time>2021-07-21T10:06:45Z</time>
      </trkpt>
      <trkpt lat="42.98673" lon="0.76389">
        <ele>749.908</ele>
        <time>2021-07-21T10:06:43Z</time>
      </trkpt>
      <trkpt lat="42.98676" lon="0.76405">
        <ele>751.41</ele>
        <time>2021-07-21T10:06:41Z</time>
      </trkpt>
      <trkpt lat="42.98678" lon="0.76413">
        <ele>752.964</ele>
        <time>2021-07-21T10:06:40Z</time>
      </trkpt>
      <trkpt lat="42.98685" lon="0.76432">
        <ele>754.943</ele>
        <time>2021-07-21T10:06:38Z</time>
      </trkpt>
      <trkpt lat="42.98686" lon="0.76441">
        <ele>757.016</ele>
        <time>2021-07-21T10:06:37Z</time>
      </trkpt>
      <trkpt lat="42.98688" lon="0.76458">
        <ele>759.521</ele>
        <time>2021-07-21T10:06:35Z</time>
      </trkpt>
      <trkpt lat="42.98691" lon="0.76475">
        <ele>762.177</ele>
        <time>2021-07-21T10:06:33Z</time>
      </trkpt>
      <trkpt lat="42.98698" lon="0.76493">
        <ele>764.789</ele>
        <time>2021-07-21T10:06:31Z</time>
      </trkpt>
      <trkpt lat="42.98704" lon="0.76511">
        <ele>767.385</ele>
        <time>2021-07-21T10:06:29Z</time>
      </trkpt>
      <trkpt lat="42.98709" lon="0.76532">
        <ele>770.164</ele>
        <time>2021-07-21T10:06:27Z</time>
      </trkpt>
      <trkpt lat="42.98711" lon="0.76553">
        <ele>773.025</ele>
        <time>2021-07-21T10:06:25Z</time>
      </trkpt>
      <trkpt lat="42.98712" lon="0.76579">
        <ele>775.474</ele>
        <time>2021-07-21T10:06:23Z</time>
      </trkpt>
      <trkpt lat="42.98717" lon="0.766">
        <ele>777.108</ele>
        <time>2021-07-21T10:06:21Z</time>
      </trkpt>
      <trkpt lat="42.98721" lon="0.7661">
        <ele>778.315</ele>
        <time>2021-07-21T10:06:20Z</time>
      </trkpt>
      <trkpt lat="42.98725" lon="0.76618">
        <ele>779.741</ele>
        <time>2021-07-21T10:06:19Z</time>
      </trkpt>
      <trkpt lat="42.98735" lon="0.7663">
        <ele>781.271</ele>
        <time>2021-07-21T10:06:17Z</time>
      </trkpt>
      <trkpt lat="42.98741" lon="0.76636">
        <ele>782.474</ele>
        <time>2021-07-21T10:06:16Z</time>
      </trkpt>
      <trkpt lat="42.98753" lon="0.76646">
        <ele>783.969</ele>
        <time>2021-07-21T10:06:14Z</time>
      </trkpt>
      <trkpt lat="42.98759" lon="0.76651">
        <ele>785.075</ele>
        <time>2021-07-21T10:06:13Z</time>
      </trkpt>
      <trkpt lat="42.98769" lon="0.76662">
        <ele>786.357</ele>
        <time>2021-07-21T10:06:11Z</time>
      </trkpt>
      <trkpt lat="42.98774" lon="0.76668">
        <ele>787.593</ele>
        <time>2021-07-21T10:06:10Z</time>
      </trkpt>
      <trkpt lat="42.98779" lon="0.76673">
        <ele>789.052</ele>
        <time>2021-07-21T10:06:09Z</time>
      </trkpt>
      <trkpt lat="42.98789" lon="0.76684">
        <ele>791.043</ele>
        <time>2021-07-21T10:06:07Z</time>
      </trkpt>
      <trkpt lat="42.98797" lon="0.76696">
        <ele>792.812</ele>
        <time>2021-07-21T10:06:05Z</time>
      </trkpt>
      <trkpt lat="42.98803" lon="0.76709">
        <ele>795.308</ele>
        <time>2021-07-21T10:06:03Z</time>
      </trkpt>
      <trkpt lat="42.98808" lon="0.76723">
        <ele>797.711</ele>
        <time>2021-07-21T10:06:01Z</time>
      </trkpt>
      <trkpt lat="42.98811" lon="0.76737">
        <ele>799.901</ele>
        <time>2021-07-21T10:05:59Z</time>
      </trkpt>
      <trkpt lat="42.98816" lon="0.76752">
        <ele>801.851</ele>
        <time>2021-07-21T10:05:57Z</time>
      </trkpt>
      <trkpt lat="42.98819" lon="0.7676">
        <ele>802.993</ele>
        <time>2021-07-21T10:05:56Z</time>
      </trkpt>
      <trkpt lat="42.98822" lon="0.7677">
        <ele>804.018</ele>
        <time>2021-07-21T10:05:55Z</time>
      </trkpt>
      <trkpt lat="42.98828" lon="0.76786">
        <ele>805.294</ele>
        <time>2021-07-21T10:05:53Z</time>
      </trkpt>
      <trkpt lat="42.98831" lon="0.76793">
        <ele>806.336</ele>
        <time>2021-07-21T10:05:52Z</time>
      </trkpt>
      <trkpt lat="42.98837" lon="0.76807">
        <ele>807.872</ele>
        <time>2021-07-21T10:05:50Z</time>
      </trkpt>
      <trkpt lat="42.9884" lon="0.76815">
        <ele>809.231</ele>
        <time>2021-07-21T10:05:49Z</time>
      </trkpt>
      <trkpt lat="42.98843" lon="0.76831">
        <ele>810.832</ele>
        <time>2021-07-21T10:05:47Z</time>
      </trkpt>
      <trkpt lat="42.98844" lon="0.76847">
        <ele>812.391</ele>
        <time>2021-07-21T10:05:45Z</time>
      </trkpt>
      <trkpt lat="42.98843" lon="0.76854">
        <ele>812.908</ele>
        <time>2021-07-21T10:05:44Z</time>
      </trkpt>
      <trkpt lat="42.98843" lon="0.76861">
        <ele>813.515</ele>
        <time>2021-07-21T10:05:43Z</time>
      </trkpt>
      <trkpt lat="42.9884" lon="0.76873">
        <ele>814.005</ele>
        <time>2021-07-21T10:05:41Z</time>
      </trkpt>
      <trkpt lat="42.98838" lon="0.76884">
        <ele>814.444</ele>
        <time>2021-07-21T10:05:39Z</time>
      </trkpt>
      <trkpt lat="42.98835" lon="0.76893">
        <ele>814.712</ele>
        <time>2021-07-21T10:05:37Z</time>
      </trkpt>
      <trkpt lat="42.98833" lon="0.769">
        <ele>814.987</ele>
        <time>2021-07-21T10:05:35Z</time>
      </trkpt>
      <trkpt lat="42.98833" lon="0.76907">
        <ele>815.123</ele>
        <time>2021-07-21T10:05:33Z</time>
      </trkpt>
      <trkpt lat="42.98833" lon="0.76914">
        <ele>815.465</ele>
        <time>2021-07-21T10:05:31Z</time>
      </trkpt>
      <trkpt lat="42.98833" lon="0.76922">
        <ele>815.731</ele>
        <time>2021-07-21T10:05:29Z</time>
      </trkpt>
      <trkpt lat="42.98834" lon="0.76936">
        <ele>815.85</ele>
        <time>2021-07-21T09:57:36Z</time>
      </trkpt>
      <trkpt lat="42.98836" lon="0.76942">
        <ele>816.391</ele>
        <time>2021-07-21T09:57:32Z</time>
      </trkpt>
      <trkpt lat="42.98839" lon="0.76949">
        <ele>816.55</ele>
        <time>2021-07-21T09:57:28Z</time>
      </trkpt>
      <trkpt lat="42.98841" lon="0.76957">
        <ele>816.308</ele>
        <time>2021-07-21T09:57:25Z</time>
      </trkpt>
      <trkpt lat="42.98843" lon="0.76964">
        <ele>815.713</ele>
        <time>2021-07-21T09:57:22Z</time>
      </trkpt>
      <trkpt lat="42.98844" lon="0.76971">
        <ele>814.749</ele>
        <time>2021-07-21T09:57:19Z</time>
      </trkpt>
      <trkpt lat="42.98846" lon="0.76979">
        <ele>813.437</ele>
        <time>2021-07-21T09:57:15Z</time>
      </trkpt>
      <trkpt lat="42.98846" lon="0.76988">
        <ele>812.07</ele>
        <time>2021-07-21T09:57:10Z</time>
      </trkpt>
      <trkpt lat="42.98847" lon="0.76996">
        <ele>810.665</ele>
        <time>2021-07-21T09:57:06Z</time>
      </trkpt>
      <trkpt lat="42.98847" lon="0.77002">
        <ele>809.341</ele>
        <time>2021-07-21T09:57:03Z</time>
      </trkpt>
      <trkpt lat="42.98846" lon="0.77009">
        <ele>808.333</ele>
        <time>2021-07-21T09:57:00Z</time>
      </trkpt>
      <trkpt lat="42.98845" lon="0.77018">
        <ele>807.259</ele>
        <time>2021-07-21T09:56:55Z</time>
      </trkpt>
      <trkpt lat="42.98843" lon="0.77026">
        <ele>806.658</ele>
        <time>2021-07-21T09:56:52Z</time>
      </trkpt>
      <trkpt lat="42.98842" lon="0.77034">
        <ele>806.189</ele>
        <time>2021-07-21T09:56:49Z</time>
      </trkpt>
      <trkpt lat="42.98841" lon="0.77042">
        <ele>805.658</ele>
        <time>2021-07-21T09:56:46Z</time>
      </trkpt>
      <trkpt lat="42.98841" lon="0.77048">
        <ele>804.908</ele>
        <time>2021-07-21T09:56:44Z</time>
      </trkpt>
      <trkpt lat="42.98839" lon="0.77054">
        <ele>804.103</ele>
        <time>2021-07-21T09:56:42Z</time>
      </trkpt>
      <trkpt lat="42.98838" lon="0.77063">
        <ele>803.021</ele>
        <time>2021-07-21T09:56:39Z</time>
      </trkpt>
      <trkpt lat="42.98838" lon="0.77071">
        <ele>802.211</ele>
        <time>2021-07-21T09:56:36Z</time>
      </trkpt>
      <trkpt lat="42.98839" lon="0.77079">
        <ele>801.562</ele>
        <time>2021-07-21T09:56:33Z</time>
      </trkpt>
      <trkpt lat="42.9884" lon="0.77087">
        <ele>800.947</ele>
        <time>2021-07-21T09:56:30Z</time>
      </trkpt>
      <trkpt lat="42.98842" lon="0.77095">
        <ele>800.473</ele>
        <time>2021-07-21T09:56:27Z</time>
      </trkpt>
      <trkpt lat="42.98842" lon="0.77103">
        <ele>800.365</ele>
        <time>2021-07-21T09:56:24Z</time>
      </trkpt>
      <trkpt lat="42.98843" lon="0.7711">
        <ele>800.391</ele>
        <time>2021-07-21T09:56:21Z</time>
      </trkpt>
      <trkpt lat="42.98844" lon="0.77116">
        <ele>800.65</ele>
        <time>2021-07-21T09:56:18Z</time>
      </trkpt>
      <trkpt lat="42.98847" lon="0.77123">
        <ele>800.891</ele>
        <time>2021-07-21T09:56:15Z</time>
      </trkpt>
      <trkpt lat="42.98851" lon="0.77129">
        <ele>800.48</ele>
        <time>2021-07-21T09:56:12Z</time>
      </trkpt>
      <trkpt lat="42.98854" lon="0.77136">
        <ele>799.608</ele>
        <time>2021-07-21T09:56:09Z</time>
      </trkpt>
      <trkpt lat="42.98856" lon="0.77142">
        <ele>799.215</ele>
        <time>2021-07-21T09:56:07Z</time>
      </trkpt>
      <trkpt lat="42.98859" lon="0.77149">
        <ele>799.023</ele>
        <time>2021-07-21T09:56:04Z</time>
      </trkpt>
      <trkpt lat="42.98865" lon="0.77155">
        <ele>799.033</ele>
        <time>2021-07-21T09:56:01Z</time>
      </trkpt>
      <trkpt lat="42.98867" lon="0.77162">
        <ele>799.076</ele>
        <time>2021-07-21T09:55:58Z</time>
      </trkpt>
      <trkpt lat="42.9887" lon="0.77168">
        <ele>799.031</ele>
        <time>2021-07-21T09:55:53Z</time>
      </trkpt>
      <trkpt lat="42.98875" lon="0.77171">
        <ele>799.387</ele>
        <time>2021-07-21T09:55:50Z</time>
      </trkpt>
      <trkpt lat="42.98881" lon="0.77173">
        <ele>799.499</ele>
        <time>2021-07-21T09:55:47Z</time>
      </trkpt>
      <trkpt lat="42.98887" lon="0.77175">
        <ele>799.415</ele>
        <time>2021-07-21T09:55:44Z</time>
      </trkpt>
      <trkpt lat="42.98893" lon="0.77177">
        <ele>799.384</ele>
        <time>2021-07-21T09:55:41Z</time>
      </trkpt>
      <trkpt lat="42.98898" lon="0.77178">
        <ele>799.295</ele>
        <time>2021-07-21T09:55:38Z</time>
      </trkpt>
      <trkpt lat="42.98902" lon="0.77182">
        <ele>799.264</ele>
        <time>2021-07-21T09:55:35Z</time>
      </trkpt>
      <trkpt lat="42.98908" lon="0.77186">
        <ele>799.308</ele>
        <time>2021-07-21T09:55:32Z</time>
      </trkpt>
      <trkpt lat="42.9891" lon="0.77194">
        <ele>799.02</ele>
        <time>2021-07-21T09:55:29Z</time>
      </trkpt>
      <trkpt lat="42.98913" lon="0.77201">
        <ele>798.128</ele>
        <time>2021-07-21T09:55:26Z</time>
      </trkpt>
      <trkpt lat="42.98916" lon="0.77206">
        <ele>797.175</ele>
        <time>2021-07-21T09:55:23Z</time>
      </trkpt>
      <trkpt lat="42.98918" lon="0.77213">
        <ele>795.887</ele>
        <time>2021-07-21T09:55:20Z</time>
      </trkpt>
      <trkpt lat="42.9892" lon="0.7722">
        <ele>794.162</ele>
        <time>2021-07-21T09:55:17Z</time>
      </trkpt>
      <trkpt lat="42.98922" lon="0.77225">
        <ele>792.458</ele>
        <time>2021-07-21T09:55:14Z</time>
      </trkpt>
      <trkpt lat="42.98924" lon="0.77231">
        <ele>790.72</ele>
        <time>2021-07-21T09:55:11Z</time>
      </trkpt>
      <trkpt lat="42.98926" lon="0.77238">
        <ele>789.166</ele>
        <time>2021-07-21T09:55:08Z</time>
      </trkpt>
      <trkpt lat="42.98927" lon="0.77246">
        <ele>787.325</ele>
        <time>2021-07-21T09:55:05Z</time>
      </trkpt>
      <trkpt lat="42.9893" lon="0.77252">
        <ele>785.396</ele>
        <time>2021-07-21T09:55:02Z</time>
      </trkpt>
      <trkpt lat="42.98932" lon="0.77258">
        <ele>783.075</ele>
        <time>2021-07-21T09:54:59Z</time>
      </trkpt>
      <trkpt lat="42.98934" lon="0.77266">
        <ele>780.408</ele>
        <time>2021-07-21T09:54:55Z</time>
      </trkpt>
      <trkpt lat="42.98936" lon="0.77272">
        <ele>778.317</ele>
        <time>2021-07-21T09:54:52Z</time>
      </trkpt>
      <trkpt lat="42.98937" lon="0.77279">
        <ele>775.961</ele>
        <time>2021-07-21T09:54:49Z</time>
      </trkpt>
      <trkpt lat="42.98939" lon="0.77286">
        <ele>772.981</ele>
        <time>2021-07-21T09:54:46Z</time>
      </trkpt>
      <trkpt lat="42.98941" lon="0.77295">
        <ele>770.221</ele>
        <time>2021-07-21T09:54:43Z</time>
      </trkpt>
      <trkpt lat="42.98943" lon="0.77302">
        <ele>768.436</ele>
        <time>2021-07-21T09:54:41Z</time>
      </trkpt>
      <trkpt lat="42.98943" lon="0.77314">
        <ele>767.192</ele>
        <time>2021-07-21T09:54:39Z</time>
      </trkpt>
      <trkpt lat="42.98944" lon="0.77326">
        <ele>766.554</ele>
        <time>2021-07-21T09:54:37Z</time>
      </trkpt>
      <trkpt lat="42.98945" lon="0.77337">
        <ele>766.26</ele>
        <time>2021-07-21T09:54:35Z</time>
      </trkpt>
      <trkpt lat="42.98945" lon="0.77347">
        <ele>765.749</ele>
        <time>2021-07-21T09:54:33Z</time>
      </trkpt>
      <trkpt lat="42.98946" lon="0.77355">
        <ele>765.49</ele>
        <time>2021-07-21T09:54:31Z</time>
      </trkpt>
      <trkpt lat="42.98949" lon="0.77359">
        <ele>765.559</ele>
        <time>2021-07-21T09:54:29Z</time>
      </trkpt>
      <trkpt lat="42.98954" lon="0.77364">
        <ele>765.808</ele>
        <time>2021-07-21T09:54:27Z</time>
      </trkpt>
      <trkpt lat="42.98958" lon="0.77369">
        <ele>766.62</ele>
        <time>2021-07-21T09:54:25Z</time>
      </trkpt>
      <trkpt lat="42.98962" lon="0.77376">
        <ele>767.7</ele>
        <time>2021-07-21T09:54:23Z</time>
      </trkpt>
      <trkpt lat="42.98966" lon="0.77382">
        <ele>769.129</ele>
        <time>2021-07-21T09:54:21Z</time>
      </trkpt>
      <trkpt lat="42.9897" lon="0.77387">
        <ele>770.735</ele>
        <time>2021-07-21T09:54:19Z</time>
      </trkpt>
      <trkpt lat="42.98976" lon="0.77393">
        <ele>772.65</ele>
        <time>2021-07-21T09:54:17Z</time>
      </trkpt>
      <trkpt lat="42.98984" lon="0.77399">
        <ele>774.636</ele>
        <time>2021-07-21T09:54:15Z</time>
      </trkpt>
      <trkpt lat="42.98991" lon="0.77405">
        <ele>776.428</ele>
        <time>2021-07-21T09:54:13Z</time>
      </trkpt>
      <trkpt lat="42.99" lon="0.7741">
        <ele>778.284</ele>
        <time>2021-07-21T09:54:11Z</time>
      </trkpt>
      <trkpt lat="42.99004" lon="0.77412">
        <ele>779.613</ele>
        <time>2021-07-21T09:54:10Z</time>
      </trkpt>
      <trkpt lat="42.99014" lon="0.77418">
        <ele>781.624</ele>
        <time>2021-07-21T09:54:08Z</time>
      </trkpt>
      <trkpt lat="42.99019" lon="0.7742">
        <ele>783.693</ele>
        <time>2021-07-21T09:54:07Z</time>
      </trkpt>
      <trkpt lat="42.99027" lon="0.77428">
        <ele>785.908</ele>
        <time>2021-07-21T09:54:05Z</time>
      </trkpt>
      <trkpt lat="42.99033" lon="0.77436">
        <ele>788.226</ele>
        <time>2021-07-21T09:54:03Z</time>
      </trkpt>
      <trkpt lat="42.99039" lon="0.77441">
        <ele>790.142</ele>
        <time>2021-07-21T09:54:01Z</time>
      </trkpt>
      <trkpt lat="42.99045" lon="0.77448">
        <ele>791.868</ele>
        <time>2021-07-21T09:53:59Z</time>
      </trkpt>
      <trkpt lat="42.99052" lon="0.77454">
        <ele>793.314</ele>
        <time>2021-07-21T09:53:57Z</time>
      </trkpt>
      <trkpt lat="42.99056" lon="0.77458">
        <ele>794.689</ele>
        <time>2021-07-21T09:53:56Z</time>
      </trkpt>
      <trkpt lat="42.9906" lon="0.77462">
        <ele>796.045</ele>
        <time>2021-07-21T09:53:55Z</time>
      </trkpt>
      <trkpt lat="42.99069" lon="0.77469">
        <ele>797.437</ele>
        <time>2021-07-21T09:53:53Z</time>
      </trkpt>
      <trkpt lat="42.99073" lon="0.77472">
        <ele>797.783</ele>
        <time>2021-07-21T09:53:52Z</time>
      </trkpt>
      <trkpt lat="42.99081" lon="0.77478">
        <ele>797.932</ele>
        <time>2021-07-21T09:53:50Z</time>
      </trkpt>
      <trkpt lat="42.99087" lon="0.77482">
        <ele>797.733</ele>
        <time>2021-07-21T09:53:48Z</time>
      </trkpt>
      <trkpt lat="42.99092" lon="0.77487">
        <ele>797.582</ele>
        <time>2021-07-21T09:53:46Z</time>
      </trkpt>
      <trkpt lat="42.99096" lon="0.77491">
        <ele>796.708</ele>
        <time>2021-07-21T09:53:44Z</time>
      </trkpt>
      <trkpt lat="42.991" lon="0.77497">
        <ele>795.423</ele>
        <time>2021-07-21T09:53:41Z</time>
      </trkpt>
      <trkpt lat="42.99104" lon="0.77502">
        <ele>794.003</ele>
        <time>2021-07-21T09:53:38Z</time>
      </trkpt>
      <trkpt lat="42.99108" lon="0.77507">
        <ele>792.659</ele>
        <time>2021-07-21T09:53:34Z</time>
      </trkpt>
      <trkpt lat="42.99111" lon="0.77513">
        <ele>791.517</ele>
        <time>2021-07-21T09:53:31Z</time>
      </trkpt>
      <trkpt lat="42.99115" lon="0.77519">
        <ele>790.342</ele>
        <time>2021-07-21T09:53:28Z</time>
      </trkpt>
      <trkpt lat="42.99117" lon="0.77526">
        <ele>789.188</ele>
        <time>2021-07-21T09:53:24Z</time>
      </trkpt>
      <trkpt lat="42.99118" lon="0.77532">
        <ele>788.34</ele>
        <time>2021-07-21T09:53:21Z</time>
      </trkpt>
      <trkpt lat="42.99118" lon="0.77538">
        <ele>787.516</ele>
        <time>2021-07-21T09:53:18Z</time>
      </trkpt>
      <trkpt lat="42.99119" lon="0.77546">
        <ele>787.035</ele>
        <time>2021-07-21T09:53:15Z</time>
      </trkpt>
      <trkpt lat="42.99119" lon="0.77554">
        <ele>787.186</ele>
        <time>2021-07-21T09:53:12Z</time>
      </trkpt>
      <trkpt lat="42.99119" lon="0.77561">
        <ele>787.525</ele>
        <time>2021-07-21T09:53:09Z</time>
      </trkpt>
      <trkpt lat="42.99119" lon="0.77569">
        <ele>788.008</ele>
        <time>2021-07-21T09:53:05Z</time>
      </trkpt>
      <trkpt lat="42.99119" lon="0.77576">
        <ele>788.317</ele>
        <time>2021-07-21T09:53:02Z</time>
      </trkpt>
      <trkpt lat="42.9912" lon="0.77584">
        <ele>788.543</ele>
        <time>2021-07-21T09:52:59Z</time>
      </trkpt>
      <trkpt lat="42.99121" lon="0.77594">
        <ele>788.682</ele>
        <time>2021-07-21T09:52:56Z</time>
      </trkpt>
      <trkpt lat="42.99122" lon="0.77601">
        <ele>788.625</ele>
        <time>2021-07-21T09:52:53Z</time>
      </trkpt>
      <trkpt lat="42.99122" lon="0.77608">
        <ele>788.57</ele>
        <time>2021-07-21T09:52:50Z</time>
      </trkpt>
      <trkpt lat="42.99123" lon="0.77616">
        <ele>788.176</ele>
        <time>2021-07-21T09:52:47Z</time>
      </trkpt>
      <trkpt lat="42.99125" lon="0.77623">
        <ele>787.238</ele>
        <time>2021-07-21T09:52:44Z</time>
      </trkpt>
      <trkpt lat="42.99126" lon="0.7763">
        <ele>785.744</ele>
        <time>2021-07-21T09:52:40Z</time>
      </trkpt>
      <trkpt lat="42.99128" lon="0.77642">
        <ele>783.823</ele>
        <time>2021-07-21T09:52:29Z</time>
      </trkpt>
      <trkpt lat="42.99129" lon="0.7765">
        <ele>782.514</ele>
        <time>2021-07-21T09:52:25Z</time>
      </trkpt>
      <trkpt lat="42.99131" lon="0.77657">
        <ele>781.043</ele>
        <time>2021-07-21T09:52:21Z</time>
      </trkpt>
      <trkpt lat="42.99132" lon="0.77665">
        <ele>779.108</ele>
        <time>2021-07-21T09:52:14Z</time>
      </trkpt>
      <trkpt lat="42.99138" lon="0.77662">
        <ele>777.116</ele>
        <time>2021-07-21T09:52:10Z</time>
      </trkpt>
      <trkpt lat="42.99142" lon="0.77656">
        <ele>775.306</ele>
        <time>2021-07-21T09:52:06Z</time>
      </trkpt>
      <trkpt lat="42.99146" lon="0.77651">
        <ele>773.564</ele>
        <time>2021-07-21T09:52:02Z</time>
      </trkpt>
      <trkpt lat="42.99152" lon="0.77647">
        <ele>772.185</ele>
        <time>2021-07-21T09:51:59Z</time>
      </trkpt>
      <trkpt lat="42.99157" lon="0.77646">
        <ele>770.87</ele>
        <time>2021-07-21T09:51:56Z</time>
      </trkpt>
      <trkpt lat="42.99163" lon="0.77647">
        <ele>770.146</ele>
        <time>2021-07-21T09:51:53Z</time>
      </trkpt>
      <trkpt lat="42.99168" lon="0.7765">
        <ele>770.058</ele>
        <time>2021-07-21T09:51:50Z</time>
      </trkpt>
      <trkpt lat="42.99173" lon="0.77654">
        <ele>770.144</ele>
        <time>2021-07-21T09:51:48Z</time>
      </trkpt>
      <trkpt lat="42.9918" lon="0.77656">
        <ele>770.213</ele>
        <time>2021-07-21T09:51:46Z</time>
      </trkpt>
      <trkpt lat="42.99185" lon="0.77658">
        <ele>770.694</ele>
        <time>2021-07-21T09:51:44Z</time>
      </trkpt>
      <trkpt lat="42.99189" lon="0.77661">
        <ele>771.473</ele>
        <time>2021-07-21T09:51:42Z</time>
      </trkpt>
      <trkpt lat="42.99194" lon="0.77665">
        <ele>772.708</ele>
        <time>2021-07-21T09:51:39Z</time>
      </trkpt>
      <trkpt lat="42.992" lon="0.77667">
        <ele>774.311</ele>
        <time>2021-07-21T09:51:37Z</time>
      </trkpt>
      <trkpt lat="42.99206" lon="0.77671">
        <ele>776.883</ele>
        <time>2021-07-21T09:51:35Z</time>
      </trkpt>
      <trkpt lat="42.99215" lon="0.77674">
        <ele>780.162</ele>
        <time>2021-07-21T09:51:33Z</time>
      </trkpt>
      <trkpt lat="42.99222" lon="0.77679">
        <ele>783.477</ele>
        <time>2021-07-21T09:51:31Z</time>
      </trkpt>
      <trkpt lat="42.99231" lon="0.77687">
        <ele>786.832</ele>
        <time>2021-07-21T09:51:29Z</time>
      </trkpt>
      <trkpt lat="42.99239" lon="0.77694">
        <ele>789.718</ele>
        <time>2021-07-21T09:51:27Z</time>
      </trkpt>
      <trkpt lat="42.99246" lon="0.77701">
        <ele>791.95</ele>
        <time>2021-07-21T09:51:25Z</time>
      </trkpt>
      <trkpt lat="42.99251" lon="0.77705">
        <ele>793.826</ele>
        <time>2021-07-21T09:51:24Z</time>
      </trkpt>
      <trkpt lat="42.99257" lon="0.7771">
        <ele>795.145</ele>
        <time>2021-07-21T09:51:22Z</time>
      </trkpt>
      <trkpt lat="42.99263" lon="0.77715">
        <ele>796.226</ele>
        <time>2021-07-21T09:51:20Z</time>
      </trkpt>
      <trkpt lat="42.99269" lon="0.7772">
        <ele>797.165</ele>
        <time>2021-07-21T09:51:18Z</time>
      </trkpt>
      <trkpt lat="42.99276" lon="0.77726">
        <ele>797.708</ele>
        <time>2021-07-21T09:51:16Z</time>
      </trkpt>
      <trkpt lat="42.99282" lon="0.77733">
        <ele>798.026</ele>
        <time>2021-07-21T09:51:14Z</time>
      </trkpt>
      <trkpt lat="42.99286" lon="0.77742">
        <ele>798.224</ele>
        <time>2021-07-21T09:51:12Z</time>
      </trkpt>
      <trkpt lat="42.99291" lon="0.77748">
        <ele>798.188</ele>
        <time>2021-07-21T09:51:10Z</time>
      </trkpt>
      <trkpt lat="42.99295" lon="0.77754">
        <ele>797.874</ele>
        <time>2021-07-21T09:51:08Z</time>
      </trkpt>
      <trkpt lat="42.993" lon="0.77759">
        <ele>797.129</ele>
        <time>2021-07-21T09:51:06Z</time>
      </trkpt>
      <trkpt lat="42.99305" lon="0.77765">
        <ele>796.475</ele>
        <time>2021-07-21T09:51:04Z</time>
      </trkpt>
      <trkpt lat="42.99311" lon="0.77772">
        <ele>795.787</ele>
        <time>2021-07-21T09:51:02Z</time>
      </trkpt>
      <trkpt lat="42.99315" lon="0.77781">
        <ele>795.083</ele>
        <time>2021-07-21T09:51:00Z</time>
      </trkpt>
      <trkpt lat="42.99319" lon="0.77788">
        <ele>793.642</ele>
        <time>2021-07-21T09:50:58Z</time>
      </trkpt>
      <trkpt lat="42.99324" lon="0.77795">
        <ele>792.313</ele>
        <time>2021-07-21T09:50:56Z</time>
      </trkpt>
      <trkpt lat="42.99327" lon="0.77802">
        <ele>791.472</ele>
        <time>2021-07-21T09:50:54Z</time>
      </trkpt>
      <trkpt lat="42.9933" lon="0.77811">
        <ele>790.708</ele>
        <time>2021-07-21T09:50:52Z</time>
      </trkpt>
      <trkpt lat="42.99335" lon="0.77819">
        <ele>790.311</ele>
        <time>2021-07-21T09:50:50Z</time>
      </trkpt>
      <trkpt lat="42.99339" lon="0.77825">
        <ele>789.701</ele>
        <time>2021-07-21T09:50:48Z</time>
      </trkpt>
      <trkpt lat="42.99343" lon="0.7783">
        <ele>789.551</ele>
        <time>2021-07-21T09:50:46Z</time>
      </trkpt>
      <trkpt lat="42.99348" lon="0.77837">
        <ele>789.53</ele>
        <time>2021-07-21T09:50:44Z</time>
      </trkpt>
      <trkpt lat="42.99351" lon="0.77842">
        <ele>789.435</ele>
        <time>2021-07-21T09:50:42Z</time>
      </trkpt>
      <trkpt lat="42.99355" lon="0.77848">
        <ele>789.241</ele>
        <time>2021-07-21T09:50:40Z</time>
      </trkpt>
      <trkpt lat="42.99361" lon="0.77852">
        <ele>788.913</ele>
        <time>2021-07-21T09:50:38Z</time>
      </trkpt>
      <trkpt lat="42.99366" lon="0.77858">
        <ele>788.229</ele>
        <time>2021-07-21T09:50:36Z</time>
      </trkpt>
      <trkpt lat="42.99371" lon="0.77864">
        <ele>787.618</ele>
        <time>2021-07-21T09:50:34Z</time>
      </trkpt>
      <trkpt lat="42.99376" lon="0.7787">
        <ele>787.069</ele>
        <time>2021-07-21T09:50:32Z</time>
      </trkpt>
      <trkpt lat="42.99381" lon="0.77876">
        <ele>786.788</ele>
        <time>2021-07-21T09:50:30Z</time>
      </trkpt>
      <trkpt lat="42.99385" lon="0.77882">
        <ele>786.408</ele>
        <time>2021-07-21T09:50:28Z</time>
      </trkpt>
      <trkpt lat="42.99391" lon="0.77887">
        <ele>785.905</ele>
        <time>2021-07-21T09:50:26Z</time>
      </trkpt>
      <trkpt lat="42.99395" lon="0.77893">
        <ele>785.432</ele>
        <time>2021-07-21T09:50:24Z</time>
      </trkpt>
      <trkpt lat="42.994" lon="0.77898">
        <ele>784.912</ele>
        <time>2021-07-21T09:50:22Z</time>
      </trkpt>
      <trkpt lat="42.99404" lon="0.77903">
        <ele>784.587</ele>
        <time>2021-07-21T09:50:20Z</time>
      </trkpt>
      <trkpt lat="42.99408" lon="0.77906">
        <ele>784.152</ele>
        <time>2021-07-21T09:50:18Z</time>
      </trkpt>
      <trkpt lat="42.99412" lon="0.77911">
        <ele>783.718</ele>
        <time>2021-07-21T09:50:15Z</time>
      </trkpt>
      <trkpt lat="42.99417" lon="0.77915">
        <ele>783.34</ele>
        <time>2021-07-21T09:50:12Z</time>
      </trkpt>
      <trkpt lat="42.99422" lon="0.77917">
        <ele>782.966</ele>
        <time>2021-07-21T09:50:09Z</time>
      </trkpt>
      <trkpt lat="42.99428" lon="0.77919">
        <ele>782.955</ele>
        <time>2021-07-21T09:50:07Z</time>
      </trkpt>
      <trkpt lat="42.99433" lon="0.77921">
        <ele>783.026</ele>
        <time>2021-07-21T09:50:05Z</time>
      </trkpt>
      <trkpt lat="42.99439" lon="0.77924">
        <ele>783.085</ele>
        <time>2021-07-21T09:50:03Z</time>
      </trkpt>
      <trkpt lat="42.99446" lon="0.77927">
        <ele>782.808</ele>
        <time>2021-07-21T09:50:01Z</time>
      </trkpt>
      <trkpt lat="42.99453" lon="0.7793">
        <ele>782.617</ele>
        <time>2021-07-21T09:49:59Z</time>
      </trkpt>
      <trkpt lat="42.99461" lon="0.77932">
        <ele>782.343</ele>
        <time>2021-07-21T09:49:57Z</time>
      </trkpt>
      <trkpt lat="42.99467" lon="0.77934">
        <ele>782.082</ele>
        <time>2021-07-21T09:49:55Z</time>
      </trkpt>
      <trkpt lat="42.99473" lon="0.77937">
        <ele>781.636</ele>
        <time>2021-07-21T09:49:53Z</time>
      </trkpt>
      <trkpt lat="42.99478" lon="0.7794">
        <ele>781.051</ele>
        <time>2021-07-21T09:49:51Z</time>
      </trkpt>
      <trkpt lat="42.99483" lon="0.77943">
        <ele>780.487</ele>
        <time>2021-07-21T09:49:48Z</time>
      </trkpt>
      <trkpt lat="42.99488" lon="0.77947">
        <ele>779.789</ele>
        <time>2021-07-21T09:49:45Z</time>
      </trkpt>
      <trkpt lat="42.99492" lon="0.7795">
        <ele>779.975</ele>
        <time>2021-07-21T09:49:43Z</time>
      </trkpt>
      <trkpt lat="42.99498" lon="0.77952">
        <ele>780.474</ele>
        <time>2021-07-21T09:49:41Z</time>
      </trkpt>
      <trkpt lat="42.99505" lon="0.77954">
        <ele>781.395</ele>
        <time>2021-07-21T09:49:39Z</time>
      </trkpt>
      <trkpt lat="42.99512" lon="0.77958">
        <ele>782.454</ele>
        <time>2021-07-21T09:49:37Z</time>
      </trkpt>
      <trkpt lat="42.99521" lon="0.77961">
        <ele>783.608</ele>
        <time>2021-07-21T09:49:35Z</time>
      </trkpt>
      <trkpt lat="42.9953" lon="0.77963">
        <ele>784.525</ele>
        <time>2021-07-21T09:49:33Z</time>
      </trkpt>
      <trkpt lat="42.99538" lon="0.77967">
        <ele>785.205</ele>
        <time>2021-07-21T09:49:31Z</time>
      </trkpt>
      <trkpt lat="42.99545" lon="0.77971">
        <ele>785.779</ele>
        <time>2021-07-21T09:49:29Z</time>
      </trkpt>
      <trkpt lat="42.99552" lon="0.77977">
        <ele>786.085</ele>
        <time>2021-07-21T09:49:27Z</time>
      </trkpt>
      <trkpt lat="42.99558" lon="0.77984">
        <ele>786.32</ele>
        <time>2021-07-21T09:49:25Z</time>
      </trkpt>
      <trkpt lat="42.99562" lon="0.7799">
        <ele>786.556</ele>
        <time>2021-07-21T09:49:23Z</time>
      </trkpt>
      <trkpt lat="42.99566" lon="0.77994">
        <ele>786.928</ele>
        <time>2021-07-21T09:49:21Z</time>
      </trkpt>
      <trkpt lat="42.99571" lon="0.78001">
        <ele>787.484</ele>
        <time>2021-07-21T09:49:18Z</time>
      </trkpt>
      <trkpt lat="42.99575" lon="0.78005">
        <ele>788.353</ele>
        <time>2021-07-21T09:49:16Z</time>
      </trkpt>
      <trkpt lat="42.9958" lon="0.78009">
        <ele>789.154</ele>
        <time>2021-07-21T09:49:14Z</time>
      </trkpt>
      <trkpt lat="42.99585" lon="0.78013">
        <ele>789.963</ele>
        <time>2021-07-21T09:49:12Z</time>
      </trkpt>
      <trkpt lat="42.9959" lon="0.78018">
        <ele>790.908</ele>
        <time>2021-07-21T09:49:10Z</time>
      </trkpt>
      <trkpt lat="42.99595" lon="0.78022">
        <ele>792.024</ele>
        <time>2021-07-21T09:49:08Z</time>
      </trkpt>
      <trkpt lat="42.996" lon="0.78027">
        <ele>792.804</ele>
        <time>2021-07-21T09:49:06Z</time>
      </trkpt>
      <trkpt lat="42.99605" lon="0.78031">
        <ele>793.469</ele>
        <time>2021-07-21T09:49:04Z</time>
      </trkpt>
      <trkpt lat="42.99611" lon="0.78035">
        <ele>793.893</ele>
        <time>2021-07-21T09:49:02Z</time>
      </trkpt>
      <trkpt lat="42.99618" lon="0.7804">
        <ele>793.938</ele>
        <time>2021-07-21T09:49:00Z</time>
      </trkpt>
      <trkpt lat="42.99623" lon="0.78048">
        <ele>793.574</ele>
        <time>2021-07-21T09:48:58Z</time>
      </trkpt>
      <trkpt lat="42.99628" lon="0.78054">
        <ele>792.766</ele>
        <time>2021-07-21T09:48:56Z</time>
      </trkpt>
      <trkpt lat="42.99635" lon="0.78059">
        <ele>791.562</ele>
        <time>2021-07-21T09:48:54Z</time>
      </trkpt>
      <trkpt lat="42.99639" lon="0.78064">
        <ele>790.211</ele>
        <time>2021-07-21T09:48:52Z</time>
      </trkpt>
      <trkpt lat="42.99644" lon="0.78066">
        <ele>788.972</ele>
        <time>2021-07-21T09:48:50Z</time>
      </trkpt>
      <trkpt lat="42.99649" lon="0.78071">
        <ele>787.581</ele>
        <time>2021-07-21T09:48:46Z</time>
      </trkpt>
      <trkpt lat="42.99654" lon="0.78073">
        <ele>786.508</ele>
        <time>2021-07-21T09:48:43Z</time>
      </trkpt>
      <trkpt lat="42.9966" lon="0.78074">
        <ele>785.415</ele>
        <time>2021-07-21T09:48:41Z</time>
      </trkpt>
      <trkpt lat="42.99666" lon="0.78075">
        <ele>784.005</ele>
        <time>2021-07-21T09:48:38Z</time>
      </trkpt>
      <trkpt lat="42.99673" lon="0.78074">
        <ele>782.644</ele>
        <time>2021-07-21T09:48:35Z</time>
      </trkpt>
      <trkpt lat="42.99683" lon="0.78068">
        <ele>780.931</ele>
        <time>2021-07-21T09:48:25Z</time>
      </trkpt>
      <trkpt lat="42.99686" lon="0.78063">
        <ele>780.246</ele>
        <time>2021-07-21T09:48:21Z</time>
      </trkpt>
      <trkpt lat="42.99689" lon="0.78057">
        <ele>779.362</ele>
        <time>2021-07-21T09:48:15Z</time>
      </trkpt>
      <trkpt lat="42.9969" lon="0.78051">
        <ele>778.714</ele>
        <time>2021-07-21T09:48:10Z</time>
      </trkpt>
      <trkpt lat="42.99694" lon="0.78047">
        <ele>778.23</ele>
        <time>2021-07-21T09:48:06Z</time>
      </trkpt>
      <trkpt lat="42.99705" lon="0.78045">
        <ele>776.779</ele>
        <time>2021-07-21T09:48:00Z</time>
      </trkpt>
      <trkpt lat="42.9972" lon="0.78047">
        <ele>774.44</ele>
        <time>2021-07-21T09:47:49Z</time>
      </trkpt>
      <trkpt lat="42.99726" lon="0.78048">
        <ele>772.329</ele>
        <time>2021-07-21T09:47:46Z</time>
      </trkpt>
      <trkpt lat="42.99737" lon="0.78052">
        <ele>769.408</ele>
        <time>2021-07-21T09:47:31Z</time>
      </trkpt>
      <trkpt lat="42.99742" lon="0.78054">
        <ele>768.008</ele>
        <time>2021-07-21T09:47:26Z</time>
      </trkpt>
      <trkpt lat="42.99746" lon="0.78057">
        <ele>767.026</ele>
        <time>2021-07-21T09:47:22Z</time>
      </trkpt>
      <trkpt lat="42.9975" lon="0.7806">
        <ele>766.325</ele>
        <time>2021-07-21T09:47:19Z</time>
      </trkpt>
      <trkpt lat="42.99755" lon="0.78062">
        <ele>765.321</ele>
        <time>2021-07-21T09:47:16Z</time>
      </trkpt>
      <trkpt lat="42.9976" lon="0.78066">
        <ele>764.436</ele>
        <time>2021-07-21T09:47:12Z</time>
      </trkpt>
      <trkpt lat="42.99764" lon="0.78072">
        <ele>763.812</ele>
        <time>2021-07-21T09:47:08Z</time>
      </trkpt>
      <trkpt lat="42.99769" lon="0.78076">
        <ele>763.184</ele>
        <time>2021-07-21T09:47:04Z</time>
      </trkpt>
      <trkpt lat="42.99773" lon="0.78081">
        <ele>762.52</ele>
        <time>2021-07-21T09:47:01Z</time>
      </trkpt>
      <trkpt lat="42.99778" lon="0.78086">
        <ele>762.189</ele>
        <time>2021-07-21T09:46:58Z</time>
      </trkpt>
      <trkpt lat="42.99782" lon="0.78092">
        <ele>761.75</ele>
        <time>2021-07-21T09:46:55Z</time>
      </trkpt>
      <trkpt lat="42.99786" lon="0.78097">
        <ele>762.029</ele>
        <time>2021-07-21T09:46:53Z</time>
      </trkpt>
      <trkpt lat="42.9979" lon="0.78101">
        <ele>762.608</ele>
        <time>2021-07-21T09:46:50Z</time>
      </trkpt>
      <trkpt lat="42.99795" lon="0.78106">
        <ele>763.208</ele>
        <time>2021-07-21T09:46:47Z</time>
      </trkpt>
      <trkpt lat="42.998" lon="0.7811">
        <ele>763.662</ele>
        <time>2021-07-21T09:46:44Z</time>
      </trkpt>
      <trkpt lat="42.99804" lon="0.78113">
        <ele>764.022</ele>
        <time>2021-07-21T09:46:42Z</time>
      </trkpt>
      <trkpt lat="42.99809" lon="0.78116">
        <ele>764.377</ele>
        <time>2021-07-21T09:46:40Z</time>
      </trkpt>
      <trkpt lat="42.99813" lon="0.78123">
        <ele>764.612</ele>
        <time>2021-07-21T09:46:37Z</time>
      </trkpt>
      <trkpt lat="42.99817" lon="0.7813">
        <ele>764.748</ele>
        <time>2021-07-21T09:46:34Z</time>
      </trkpt>
      <trkpt lat="42.99821" lon="0.78135">
        <ele>764.53</ele>
        <time>2021-07-21T09:46:31Z</time>
      </trkpt>
      <trkpt lat="42.99825" lon="0.78141">
        <ele>764.126</ele>
        <time>2021-07-21T09:46:28Z</time>
      </trkpt>
      <trkpt lat="42.99829" lon="0.78145">
        <ele>763.555</ele>
        <time>2021-07-21T09:46:25Z</time>
      </trkpt>
      <trkpt lat="42.99834" lon="0.78149">
        <ele>762.856</ele>
        <time>2021-07-21T09:46:22Z</time>
      </trkpt>
      <trkpt lat="42.9984" lon="0.7815">
        <ele>762.065</ele>
        <time>2021-07-21T09:46:19Z</time>
      </trkpt>
      <trkpt lat="42.99844" lon="0.78153">
        <ele>760.708</ele>
        <time>2021-07-21T09:46:16Z</time>
      </trkpt>
      <trkpt lat="42.99851" lon="0.78153">
        <ele>759.117</ele>
        <time>2021-07-21T09:46:13Z</time>
      </trkpt>
      <trkpt lat="42.99856" lon="0.78153">
        <ele>757.143</ele>
        <time>2021-07-21T09:46:10Z</time>
      </trkpt>
      <trkpt lat="42.99866" lon="0.78155">
        <ele>754.682</ele>
        <time>2021-07-21T09:46:03Z</time>
      </trkpt>
      <trkpt lat="42.99875" lon="0.78154">
        <ele>752.333</ele>
        <time>2021-07-21T09:45:55Z</time>
      </trkpt>
      <trkpt lat="42.9988" lon="0.78153">
        <ele>750.578</ele>
        <time>2021-07-21T09:45:52Z</time>
      </trkpt>
      <trkpt lat="42.99888" lon="0.78154">
        <ele>748.474</ele>
        <time>2021-07-21T09:45:45Z</time>
      </trkpt>
      <trkpt lat="42.99892" lon="0.78154">
        <ele>746.626</ele>
        <time>2021-07-21T09:45:40Z</time>
      </trkpt>
      <trkpt lat="42.99898" lon="0.78156">
        <ele>746.082</ele>
        <time>2021-07-21T09:45:36Z</time>
      </trkpt>
      <trkpt lat="42.99903" lon="0.78158">
        <ele>745.981</ele>
        <time>2021-07-21T09:45:33Z</time>
      </trkpt>
      <trkpt lat="42.99908" lon="0.7816">
        <ele>746.142</ele>
        <time>2021-07-21T09:45:31Z</time>
      </trkpt>
      <trkpt lat="42.99913" lon="0.78162">
        <ele>746.531</ele>
        <time>2021-07-21T09:45:29Z</time>
      </trkpt>
      <trkpt lat="42.99919" lon="0.78165">
        <ele>747.008</ele>
        <time>2021-07-21T09:45:27Z</time>
      </trkpt>
      <trkpt lat="42.99924" lon="0.78167">
        <ele>747.715</ele>
        <time>2021-07-21T09:45:25Z</time>
      </trkpt>
      <trkpt lat="42.99929" lon="0.7817">
        <ele>748.605</ele>
        <time>2021-07-21T09:45:23Z</time>
      </trkpt>
      <trkpt lat="42.99935" lon="0.78173">
        <ele>749.544</ele>
        <time>2021-07-21T09:45:21Z</time>
      </trkpt>
      <trkpt lat="42.99941" lon="0.78176">
        <ele>750.538</ele>
        <time>2021-07-21T09:45:19Z</time>
      </trkpt>
      <trkpt lat="42.99947" lon="0.78179">
        <ele>751.993</ele>
        <time>2021-07-21T09:45:17Z</time>
      </trkpt>
      <trkpt lat="42.99953" lon="0.78183">
        <ele>753.419</ele>
        <time>2021-07-21T09:45:15Z</time>
      </trkpt>
      <trkpt lat="42.99959" lon="0.78186">
        <ele>755.061</ele>
        <time>2021-07-21T09:45:13Z</time>
      </trkpt>
      <trkpt lat="42.99966" lon="0.78189">
        <ele>756.517</ele>
        <time>2021-07-21T09:45:11Z</time>
      </trkpt>
      <trkpt lat="42.99974" lon="0.7819">
        <ele>757.566</ele>
        <time>2021-07-21T09:45:09Z</time>
      </trkpt>
      <trkpt lat="42.9998" lon="0.78189">
        <ele>758.057</ele>
        <time>2021-07-21T09:45:07Z</time>
      </trkpt>
      <trkpt lat="42.99985" lon="0.78189">
        <ele>758.246</ele>
        <time>2021-07-21T09:45:05Z</time>
      </trkpt>
      <trkpt lat="42.99991" lon="0.78188">
        <ele>758.608</ele>
        <time>2021-07-21T09:45:03Z</time>
      </trkpt>
      <trkpt lat="42.99996" lon="0.78189">
        <ele>759.421</ele>
        <time>2021-07-21T09:45:01Z</time>
      </trkpt>
      <trkpt lat="43.00002" lon="0.7819">
        <ele>760.065</ele>
        <time>2021-07-21T09:44:59Z</time>
      </trkpt>
      <trkpt lat="43.00008" lon="0.7819">
        <ele>760.793</ele>
        <time>2021-07-21T09:44:57Z</time>
      </trkpt>
      <trkpt lat="43.00014" lon="0.78192">
        <ele>761.49</ele>
        <time>2021-07-21T09:44:55Z</time>
      </trkpt>
      <trkpt lat="43.0002" lon="0.78192">
        <ele>762.065</ele>
        <time>2021-07-21T09:44:53Z</time>
      </trkpt>
      <trkpt lat="43.00025" lon="0.78192">
        <ele>762.681</ele>
        <time>2021-07-21T09:44:51Z</time>
      </trkpt>
      <trkpt lat="43.0003" lon="0.78193">
        <ele>762.823</ele>
        <time>2021-07-21T09:44:49Z</time>
      </trkpt>
      <trkpt lat="43.00035" lon="0.78192">
        <ele>762.669</ele>
        <time>2021-07-21T09:44:46Z</time>
      </trkpt>
      <trkpt lat="43.00039" lon="0.78192">
        <ele>762.048</ele>
        <time>2021-07-21T09:44:43Z</time>
      </trkpt>
      <trkpt lat="43.00044" lon="0.78191">
        <ele>761.339</ele>
        <time>2021-07-21T09:44:40Z</time>
      </trkpt>
      <trkpt lat="43.00049" lon="0.78193">
        <ele>760.218</ele>
        <time>2021-07-21T09:44:36Z</time>
      </trkpt>
      <trkpt lat="43.00054" lon="0.78194">
        <ele>759.008</ele>
        <time>2021-07-21T09:44:33Z</time>
      </trkpt>
      <trkpt lat="43.00061" lon="0.78195">
        <ele>757.205</ele>
        <time>2021-07-21T09:44:27Z</time>
      </trkpt>
      <trkpt lat="43.00066" lon="0.78196">
        <ele>755.832</ele>
        <time>2021-07-21T09:44:23Z</time>
      </trkpt>
      <trkpt lat="43.00071" lon="0.78196">
        <ele>754.712</ele>
        <time>2021-07-21T09:44:20Z</time>
      </trkpt>
      <trkpt lat="43.00077" lon="0.78197">
        <ele>753.82</ele>
        <time>2021-07-21T09:44:17Z</time>
      </trkpt>
      <trkpt lat="43.00082" lon="0.78199">
        <ele>753.015</ele>
        <time>2021-07-21T09:44:14Z</time>
      </trkpt>
      <trkpt lat="43.00087" lon="0.78199">
        <ele>752.391</ele>
        <time>2021-07-21T09:44:11Z</time>
      </trkpt>
      <trkpt lat="43.00092" lon="0.78199">
        <ele>751.763</ele>
        <time>2021-07-21T09:44:08Z</time>
      </trkpt>
      <trkpt lat="43.00098" lon="0.782">
        <ele>751.289</ele>
        <time>2021-07-21T09:44:05Z</time>
      </trkpt>
      <trkpt lat="43.00103" lon="0.78201">
        <ele>750.898</ele>
        <time>2021-07-21T09:44:02Z</time>
      </trkpt>
      <trkpt lat="43.00107" lon="0.78201">
        <ele>750.629</ele>
        <time>2021-07-21T09:43:59Z</time>
      </trkpt>
      <trkpt lat="43.00112" lon="0.78202">
        <ele>750.338</ele>
        <time>2021-07-21T09:43:56Z</time>
      </trkpt>
      <trkpt lat="43.0012" lon="0.78206">
        <ele>750.008</ele>
        <time>2021-07-21T09:43:50Z</time>
      </trkpt>
      <trkpt lat="43.00125" lon="0.78209">
        <ele>749.711</ele>
        <time>2021-07-21T09:43:47Z</time>
      </trkpt>
      <trkpt lat="43.00128" lon="0.78213">
        <ele>749.365</ele>
        <time>2021-07-21T09:43:44Z</time>
      </trkpt>
      <trkpt lat="43.00131" lon="0.78218">
        <ele>748.815</ele>
        <time>2021-07-21T09:43:41Z</time>
      </trkpt>
      <trkpt lat="43.00135" lon="0.78224">
        <ele>748.38</ele>
        <time>2021-07-21T09:43:38Z</time>
      </trkpt>
      <trkpt lat="43.00137" lon="0.7823">
        <ele>747.795</ele>
        <time>2021-07-21T09:43:35Z</time>
      </trkpt>
      <trkpt lat="43.00142" lon="0.78235">
        <ele>747.291</ele>
        <time>2021-07-21T09:43:32Z</time>
      </trkpt>
      <trkpt lat="43.00146" lon="0.78239">
        <ele>747.183</ele>
        <time>2021-07-21T09:43:29Z</time>
      </trkpt>
      <trkpt lat="43.0015" lon="0.78243">
        <ele>746.959</ele>
        <time>2021-07-21T09:43:26Z</time>
      </trkpt>
      <trkpt lat="43.00154" lon="0.78248">
        <ele>746.538</ele>
        <time>2021-07-21T09:43:23Z</time>
      </trkpt>
      <trkpt lat="43.00158" lon="0.78253">
        <ele>745.769</ele>
        <time>2021-07-21T09:43:20Z</time>
      </trkpt>
      <trkpt lat="43.00163" lon="0.78258">
        <ele>744.798</ele>
        <time>2021-07-21T09:43:17Z</time>
      </trkpt>
      <trkpt lat="43.00167" lon="0.78262">
        <ele>743.308</ele>
        <time>2021-07-21T09:43:13Z</time>
      </trkpt>
      <trkpt lat="43.00171" lon="0.78268">
        <ele>741.917</ele>
        <time>2021-07-21T09:43:09Z</time>
      </trkpt>
      <trkpt lat="43.00176" lon="0.78271">
        <ele>740.798</ele>
        <time>2021-07-21T09:43:05Z</time>
      </trkpt>
      <trkpt lat="43.00179" lon="0.78276">
        <ele>739.418</ele>
        <time>2021-07-21T09:43:02Z</time>
      </trkpt>
      <trkpt lat="43.00183" lon="0.78281">
        <ele>737.857</ele>
        <time>2021-07-21T09:42:58Z</time>
      </trkpt>
      <trkpt lat="43.00187" lon="0.78285">
        <ele>736.362</ele>
        <time>2021-07-21T09:42:55Z</time>
      </trkpt>
      <trkpt lat="43.00191" lon="0.78289">
        <ele>735.018</ele>
        <time>2021-07-21T09:42:52Z</time>
      </trkpt>
      <trkpt lat="43.00195" lon="0.78294">
        <ele>733.83</ele>
        <time>2021-07-21T09:42:48Z</time>
      </trkpt>
      <trkpt lat="43.00198" lon="0.78299">
        <ele>733.376</ele>
        <time>2021-07-21T09:42:45Z</time>
      </trkpt>
      <trkpt lat="43.00202" lon="0.78303">
        <ele>733.095</ele>
        <time>2021-07-21T09:42:42Z</time>
      </trkpt>
      <trkpt lat="43.00208" lon="0.78306">
        <ele>733.066</ele>
        <time>2021-07-21T09:42:38Z</time>
      </trkpt>
      <trkpt lat="43.00212" lon="0.78308">
        <ele>732.955</ele>
        <time>2021-07-21T09:42:35Z</time>
      </trkpt>
      <trkpt lat="43.00216" lon="0.78311">
        <ele>732.808</ele>
        <time>2021-07-21T09:42:32Z</time>
      </trkpt>
      <trkpt lat="43.00221" lon="0.78314">
        <ele>732.417</ele>
        <time>2021-07-21T09:42:29Z</time>
      </trkpt>
      <trkpt lat="43.00226" lon="0.78317">
        <ele>731.707</ele>
        <time>2021-07-21T09:42:26Z</time>
      </trkpt>
      <trkpt lat="43.0023" lon="0.7832">
        <ele>730.784</ele>
        <time>2021-07-21T09:42:23Z</time>
      </trkpt>
      <trkpt lat="43.00234" lon="0.78323">
        <ele>729.586</ele>
        <time>2021-07-21T09:42:20Z</time>
      </trkpt>
      <trkpt lat="43.00239" lon="0.78327">
        <ele>727.961</ele>
        <time>2021-07-21T09:42:16Z</time>
      </trkpt>
      <trkpt lat="43.00243" lon="0.78331">
        <ele>725.957</ele>
        <time>2021-07-21T09:42:13Z</time>
      </trkpt>
      <trkpt lat="43.00247" lon="0.78336">
        <ele>723.629</ele>
        <time>2021-07-21T09:42:09Z</time>
      </trkpt>
      <trkpt lat="43.00252" lon="0.7834">
        <ele>721.565</ele>
        <time>2021-07-21T09:42:05Z</time>
      </trkpt>
      <trkpt lat="43.00256" lon="0.78344">
        <ele>719.924</ele>
        <time>2021-07-21T09:42:01Z</time>
      </trkpt>
      <trkpt lat="43.00259" lon="0.7835">
        <ele>718.735</ele>
        <time>2021-07-21T09:41:57Z</time>
      </trkpt>
      <trkpt lat="43.00262" lon="0.78356">
        <ele>718.034</ele>
        <time>2021-07-21T09:41:53Z</time>
      </trkpt>
      <trkpt lat="43.00266" lon="0.78361">
        <ele>717.808</ele>
        <time>2021-07-21T09:41:50Z</time>
      </trkpt>
      <trkpt lat="43.0027" lon="0.78366">
        <ele>717.52</ele>
        <time>2021-07-21T09:41:47Z</time>
      </trkpt>
      <trkpt lat="43.00274" lon="0.78369">
        <ele>717.128</ele>
        <time>2021-07-21T09:41:44Z</time>
      </trkpt>
      <trkpt lat="43.00279" lon="0.78372">
        <ele>716.675</ele>
        <time>2021-07-21T09:41:41Z</time>
      </trkpt>
      <trkpt lat="43.00284" lon="0.78376">
        <ele>715.935</ele>
        <time>2021-07-21T09:41:37Z</time>
      </trkpt>
      <trkpt lat="43.00289" lon="0.78381">
        <ele>714.99</ele>
        <time>2021-07-21T09:41:33Z</time>
      </trkpt>
      <trkpt lat="43.00293" lon="0.78384">
        <ele>713.796</ele>
        <time>2021-07-21T09:41:30Z</time>
      </trkpt>
      <trkpt lat="43.00299" lon="0.78386">
        <ele>712.698</ele>
        <time>2021-07-21T09:41:26Z</time>
      </trkpt>
      <trkpt lat="43.00304" lon="0.7839">
        <ele>711.624</ele>
        <time>2021-07-21T09:41:22Z</time>
      </trkpt>
      <trkpt lat="43.00308" lon="0.78392">
        <ele>710.893</ele>
        <time>2021-07-21T09:41:19Z</time>
      </trkpt>
      <trkpt lat="43.00312" lon="0.78396">
        <ele>710.214</ele>
        <time>2021-07-21T09:41:16Z</time>
      </trkpt>
      <trkpt lat="43.00317" lon="0.78398">
        <ele>709.913</ele>
        <time>2021-07-21T09:41:13Z</time>
      </trkpt>
      <trkpt lat="43.00321" lon="0.78401">
        <ele>709.508</ele>
        <time>2021-07-21T09:41:10Z</time>
      </trkpt>
      <trkpt lat="43.00327" lon="0.78402">
        <ele>708.921</ele>
        <time>2021-07-21T09:41:07Z</time>
      </trkpt>
      <trkpt lat="43.00331" lon="0.78404">
        <ele>708.229</ele>
        <time>2021-07-21T09:41:04Z</time>
      </trkpt>
      <trkpt lat="43.00336" lon="0.78405">
        <ele>707.466</ele>
        <time>2021-07-21T09:41:00Z</time>
      </trkpt>
      <trkpt lat="43.00341" lon="0.78406">
        <ele>707.084</ele>
        <time>2021-07-21T09:40:57Z</time>
      </trkpt>
      <trkpt lat="43.00346" lon="0.78409">
        <ele>706.519</ele>
        <time>2021-07-21T09:40:53Z</time>
      </trkpt>
      <trkpt lat="43.00351" lon="0.78412">
        <ele>706.075</ele>
        <time>2021-07-21T09:40:50Z</time>
      </trkpt>
      <trkpt lat="43.00355" lon="0.78414">
        <ele>705.437</ele>
        <time>2021-07-21T09:40:47Z</time>
      </trkpt>
      <trkpt lat="43.00361" lon="0.78418">
        <ele>704.613</ele>
        <time>2021-07-21T09:40:43Z</time>
      </trkpt>
      <trkpt lat="43.00365" lon="0.78421">
        <ele>703.982</ele>
        <time>2021-07-21T09:40:40Z</time>
      </trkpt>
      <trkpt lat="43.00369" lon="0.78425">
        <ele>703.623</ele>
        <time>2021-07-21T09:40:37Z</time>
      </trkpt>
      <trkpt lat="43.00374" lon="0.7843">
        <ele>703.382</ele>
        <time>2021-07-21T09:40:34Z</time>
      </trkpt>
      <trkpt lat="43.0038" lon="0.78434">
        <ele>702.708</ele>
        <time>2021-07-21T09:40:29Z</time>
      </trkpt>
      <trkpt lat="43.00385" lon="0.78436">
        <ele>702.414</ele>
        <time>2021-07-21T09:40:25Z</time>
      </trkpt>
      <trkpt lat="43.0039" lon="0.78438">
        <ele>702.259</ele>
        <time>2021-07-21T09:40:22Z</time>
      </trkpt>
      <trkpt lat="43.00395" lon="0.78438">
        <ele>701.956</ele>
        <time>2021-07-21T09:40:19Z</time>
      </trkpt>
      <trkpt lat="43.004" lon="0.78441">
        <ele>701.658</ele>
        <time>2021-07-21T09:40:16Z</time>
      </trkpt>
      <trkpt lat="43.00405" lon="0.78443">
        <ele>701.123</ele>
        <time>2021-07-21T09:40:13Z</time>
      </trkpt>
      <trkpt lat="43.00411" lon="0.78443">
        <ele>700.549</ele>
        <time>2021-07-21T09:40:10Z</time>
      </trkpt>
      <trkpt lat="43.00417" lon="0.78446">
        <ele>700.041</ele>
        <time>2021-07-21T09:40:05Z</time>
      </trkpt>
      <trkpt lat="43.00423" lon="0.78448">
        <ele>700.047</ele>
        <time>2021-07-21T09:40:02Z</time>
      </trkpt>
      <trkpt lat="43.00428" lon="0.7845">
        <ele>699.936</ele>
        <time>2021-07-21T09:39:59Z</time>
      </trkpt>
      <trkpt lat="43.00434" lon="0.78452">
        <ele>699.757</ele>
        <time>2021-07-21T09:39:56Z</time>
      </trkpt>
      <trkpt lat="43.00439" lon="0.78455">
        <ele>699.416</ele>
        <time>2021-07-21T09:39:53Z</time>
      </trkpt>
      <trkpt lat="43.00445" lon="0.78458">
        <ele>698.908</ele>
        <time>2021-07-21T09:39:50Z</time>
      </trkpt>
      <trkpt lat="43.0045" lon="0.78458">
        <ele>698.227</ele>
        <time>2021-07-21T09:39:48Z</time>
      </trkpt>
      <trkpt lat="43.00456" lon="0.7846">
        <ele>697.007</ele>
        <time>2021-07-21T09:39:44Z</time>
      </trkpt>
      <trkpt lat="43.00461" lon="0.78462">
        <ele>696.099</ele>
        <time>2021-07-21T09:39:41Z</time>
      </trkpt>
      <trkpt lat="43.00467" lon="0.78464">
        <ele>694.862</ele>
        <time>2021-07-21T09:39:38Z</time>
      </trkpt>
      <trkpt lat="43.0048" lon="0.78472">
        <ele>692.937</ele>
        <time>2021-07-21T09:39:27Z</time>
      </trkpt>
      <trkpt lat="43.00485" lon="0.78475">
        <ele>691.493</ele>
        <time>2021-07-21T09:39:23Z</time>
      </trkpt>
      <trkpt lat="43.00489" lon="0.78478">
        <ele>689.675</ele>
        <time>2021-07-21T09:39:19Z</time>
      </trkpt>
      <trkpt lat="43.00494" lon="0.7848">
        <ele>688.241</ele>
        <time>2021-07-21T09:39:16Z</time>
      </trkpt>
      <trkpt lat="43.005" lon="0.78482">
        <ele>686.94</ele>
        <time>2021-07-21T09:39:12Z</time>
      </trkpt>
      <trkpt lat="43.00502" lon="0.78489">
        <ele>685.911</ele>
        <time>2021-07-21T09:39:09Z</time>
      </trkpt>
      <trkpt lat="43.00504" lon="0.78497">
        <ele>685.08</ele>
        <time>2021-07-21T09:39:06Z</time>
      </trkpt>
      <trkpt lat="43.00505" lon="0.78505">
        <ele>684.708</ele>
        <time>2021-07-21T09:39:04Z</time>
      </trkpt>
      <trkpt lat="43.00508" lon="0.78512">
        <ele>684.807</ele>
        <time>2021-07-21T09:39:02Z</time>
      </trkpt>
      <trkpt lat="43.00511" lon="0.78521">
        <ele>685.161</ele>
        <time>2021-07-21T09:39:00Z</time>
      </trkpt>
      <trkpt lat="43.00514" lon="0.78531">
        <ele>685.331</ele>
        <time>2021-07-21T09:38:58Z</time>
      </trkpt>
      <trkpt lat="43.00516" lon="0.78542">
        <ele>685.866</ele>
        <time>2021-07-21T09:38:56Z</time>
      </trkpt>
      <trkpt lat="43.00517" lon="0.78549">
        <ele>686.491</ele>
        <time>2021-07-21T09:38:55Z</time>
      </trkpt>
      <trkpt lat="43.00518" lon="0.78561">
        <ele>686.987</ele>
        <time>2021-07-21T09:38:53Z</time>
      </trkpt>
      <trkpt lat="43.00517" lon="0.78567">
        <ele>687.659</ele>
        <time>2021-07-21T09:38:52Z</time>
      </trkpt>
      <trkpt lat="43.00516" lon="0.78573">
        <ele>688.575</ele>
        <time>2021-07-21T09:38:51Z</time>
      </trkpt>
      <trkpt lat="43.00512" lon="0.78586">
        <ele>689.614</ele>
        <time>2021-07-21T09:38:49Z</time>
      </trkpt>
      <trkpt lat="43.00511" lon="0.78592">
        <ele>690.735</ele>
        <time>2021-07-21T09:38:48Z</time>
      </trkpt>
      <trkpt lat="43.00508" lon="0.78604">
        <ele>692.084</ele>
        <time>2021-07-21T09:38:46Z</time>
      </trkpt>
      <trkpt lat="43.00507" lon="0.7861">
        <ele>693.208</ele>
        <time>2021-07-21T09:38:45Z</time>
      </trkpt>
      <trkpt lat="43.00504" lon="0.78624">
        <ele>694.625</ele>
        <time>2021-07-21T09:38:43Z</time>
      </trkpt>
      <trkpt lat="43.00501" lon="0.7864">
        <ele>695.605</ele>
        <time>2021-07-21T09:38:41Z</time>
      </trkpt>
      <trkpt lat="43.005" lon="0.78649">
        <ele>696.079</ele>
        <time>2021-07-21T09:38:40Z</time>
      </trkpt>
      <trkpt lat="43.005" lon="0.78656">
        <ele>696.273</ele>
        <time>2021-07-21T09:38:39Z</time>
      </trkpt>
      <trkpt lat="43.00499" lon="0.78663">
        <ele>696.398</ele>
        <time>2021-07-21T09:38:38Z</time>
      </trkpt>
      <trkpt lat="43.00501" lon="0.78676">
        <ele>696.274</ele>
        <time>2021-07-21T09:38:36Z</time>
      </trkpt>
      <trkpt lat="43.00504" lon="0.78686">
        <ele>695.936</ele>
        <time>2021-07-21T09:38:34Z</time>
      </trkpt>
      <trkpt lat="43.00509" lon="0.78695">
        <ele>695.722</ele>
        <time>2021-07-21T09:38:32Z</time>
      </trkpt>
      <trkpt lat="43.00514" lon="0.78703">
        <ele>695.431</ele>
        <time>2021-07-21T09:38:30Z</time>
      </trkpt>
      <trkpt lat="43.0052" lon="0.78708">
        <ele>694.952</ele>
        <time>2021-07-21T09:38:28Z</time>
      </trkpt>
      <trkpt lat="43.00529" lon="0.78713">
        <ele>694.611</ele>
        <time>2021-07-21T09:38:26Z</time>
      </trkpt>
      <trkpt lat="43.00535" lon="0.78718">
        <ele>694.008</ele>
        <time>2021-07-21T09:38:24Z</time>
      </trkpt>
      <trkpt lat="43.00541" lon="0.78723">
        <ele>693.609</ele>
        <time>2021-07-21T09:38:22Z</time>
      </trkpt>
      <trkpt lat="43.00546" lon="0.78727">
        <ele>693.481</ele>
        <time>2021-07-21T09:38:20Z</time>
      </trkpt>
      <trkpt lat="43.00551" lon="0.7873">
        <ele>693.241</ele>
        <time>2021-07-21T09:38:18Z</time>
      </trkpt>
      <trkpt lat="43.00556" lon="0.78732">
        <ele>692.918</ele>
        <time>2021-07-21T09:38:16Z</time>
      </trkpt>
      <trkpt lat="43.00561" lon="0.78734">
        <ele>692.743</ele>
        <time>2021-07-21T09:38:14Z</time>
      </trkpt>
      <trkpt lat="43.00567" lon="0.78736">
        <ele>692.929</ele>
        <time>2021-07-21T09:38:11Z</time>
      </trkpt>
      <trkpt lat="43.00572" lon="0.78737">
        <ele>693.031</ele>
        <time>2021-07-21T09:38:09Z</time>
      </trkpt>
      <trkpt lat="43.00577" lon="0.78738">
        <ele>692.977</ele>
        <time>2021-07-21T09:38:07Z</time>
      </trkpt>
      <trkpt lat="43.00583" lon="0.78739">
        <ele>692.326</ele>
        <time>2021-07-21T09:38:04Z</time>
      </trkpt>
      <trkpt lat="43.00588" lon="0.7874">
        <ele>691.847</ele>
        <time>2021-07-21T09:38:01Z</time>
      </trkpt>
      <trkpt lat="43.00593" lon="0.78741">
        <ele>691.546</ele>
        <time>2021-07-21T09:37:57Z</time>
      </trkpt>
      <trkpt lat="43.00598" lon="0.78744">
        <ele>691.408</ele>
        <time>2021-07-21T09:37:54Z</time>
      </trkpt>
      <trkpt lat="43.00603" lon="0.78745">
        <ele>691.326</ele>
        <time>2021-07-21T09:37:52Z</time>
      </trkpt>
      <trkpt lat="43.00609" lon="0.78748">
        <ele>690.815</ele>
        <time>2021-07-21T09:37:50Z</time>
      </trkpt>
      <trkpt lat="43.00614" lon="0.7875">
        <ele>689.898</ele>
        <time>2021-07-21T09:37:48Z</time>
      </trkpt>
      <trkpt lat="43.00619" lon="0.78751">
        <ele>688.874</ele>
        <time>2021-07-21T09:37:46Z</time>
      </trkpt>
      <trkpt lat="43.00625" lon="0.78752">
        <ele>687.849</ele>
        <time>2021-07-21T09:37:44Z</time>
      </trkpt>
      <trkpt lat="43.0063" lon="0.78754">
        <ele>686.835</ele>
        <time>2021-07-21T09:37:42Z</time>
      </trkpt>
      <trkpt lat="43.00636" lon="0.78756">
        <ele>685.967</ele>
        <time>2021-07-21T09:37:40Z</time>
      </trkpt>
      <trkpt lat="43.0064" lon="0.7876">
        <ele>684.933</ele>
        <time>2021-07-21T09:37:38Z</time>
      </trkpt>
      <trkpt lat="43.00644" lon="0.78764">
        <ele>684.232</ele>
        <time>2021-07-21T09:37:36Z</time>
      </trkpt>
      <trkpt lat="43.00649" lon="0.78766">
        <ele>683.673</ele>
        <time>2021-07-21T09:37:34Z</time>
      </trkpt>
      <trkpt lat="43.00654" lon="0.78768">
        <ele>683.372</ele>
        <time>2021-07-21T09:37:32Z</time>
      </trkpt>
      <trkpt lat="43.00661" lon="0.78767">
        <ele>683.008</ele>
        <time>2021-07-21T09:37:29Z</time>
      </trkpt>
      <trkpt lat="43.00667" lon="0.78766">
        <ele>682.617</ele>
        <time>2021-07-21T09:37:27Z</time>
      </trkpt>
      <trkpt lat="43.00672" lon="0.78765">
        <ele>682.207</ele>
        <time>2021-07-21T09:37:25Z</time>
      </trkpt>
      <trkpt lat="43.00679" lon="0.78764">
        <ele>681.655</ele>
        <time>2021-07-21T09:37:23Z</time>
      </trkpt>
      <trkpt lat="43.00685" lon="0.78763">
        <ele>681.346</ele>
        <time>2021-07-21T09:37:21Z</time>
      </trkpt>
      <trkpt lat="43.00691" lon="0.78764">
        <ele>681.531</ele>
        <time>2021-07-21T09:37:19Z</time>
      </trkpt>
      <trkpt lat="43.00697" lon="0.78766">
        <ele>681.627</ele>
        <time>2021-07-21T09:37:17Z</time>
      </trkpt>
      <trkpt lat="43.00706" lon="0.78767">
        <ele>681.549</ele>
        <time>2021-07-21T09:37:15Z</time>
      </trkpt>
      <trkpt lat="43.00715" lon="0.78767">
        <ele>681.225</ele>
        <time>2021-07-21T09:37:13Z</time>
      </trkpt>
      <trkpt lat="43.00724" lon="0.78766">
        <ele>680.714</ele>
        <time>2021-07-21T09:37:11Z</time>
      </trkpt>
      <trkpt lat="43.00731" lon="0.78762">
        <ele>680.165</ele>
        <time>2021-07-21T09:37:09Z</time>
      </trkpt>
      <trkpt lat="43.00737" lon="0.78758">
        <ele>679.654</ele>
        <time>2021-07-21T09:37:07Z</time>
      </trkpt>
      <trkpt lat="43.00743" lon="0.78753">
        <ele>679.208</ele>
        <time>2021-07-21T09:37:05Z</time>
      </trkpt>
      <trkpt lat="43.00748" lon="0.78747">
        <ele>678.713</ele>
        <time>2021-07-21T09:37:03Z</time>
      </trkpt>
      <trkpt lat="43.00752" lon="0.7874">
        <ele>678.185</ele>
        <time>2021-07-21T09:37:01Z</time>
      </trkpt>
      <trkpt lat="43.00755" lon="0.78735">
        <ele>677.373</ele>
        <time>2021-07-21T09:36:59Z</time>
      </trkpt>
      <trkpt lat="43.00758" lon="0.78731">
        <ele>676.653</ele>
        <time>2021-07-21T09:36:57Z</time>
      </trkpt>
      <trkpt lat="43.00762" lon="0.78726">
        <ele>675.948</ele>
        <time>2021-07-21T09:36:55Z</time>
      </trkpt>
      <trkpt lat="43.00767" lon="0.7872">
        <ele>675.444</ele>
        <time>2021-07-21T09:36:52Z</time>
      </trkpt>
      <trkpt lat="43.00771" lon="0.78714">
        <ele>675.346</ele>
        <time>2021-07-21T09:36:50Z</time>
      </trkpt>
      <trkpt lat="43.00777" lon="0.78709">
        <ele>675.312</ele>
        <time>2021-07-21T09:36:48Z</time>
      </trkpt>
      <trkpt lat="43.00784" lon="0.78706">
        <ele>675.371</ele>
        <time>2021-07-21T09:36:46Z</time>
      </trkpt>
      <trkpt lat="43.00789" lon="0.78702">
        <ele>675.112</ele>
        <time>2021-07-21T09:36:44Z</time>
      </trkpt>
      <trkpt lat="43.00795" lon="0.78697">
        <ele>674.921</ele>
        <time>2021-07-21T09:36:42Z</time>
      </trkpt>
      <trkpt lat="43.00801" lon="0.78694">
        <ele>674.908</ele>
        <time>2021-07-21T09:36:40Z</time>
      </trkpt>
      <trkpt lat="43.00807" lon="0.7869">
        <ele>674.811</ele>
        <time>2021-07-21T09:36:38Z</time>
      </trkpt>
      <trkpt lat="43.00813" lon="0.78686">
        <ele>674.847</ele>
        <time>2021-07-21T09:36:36Z</time>
      </trkpt>
      <trkpt lat="43.00819" lon="0.78682">
        <ele>674.845</ele>
        <time>2021-07-21T09:36:34Z</time>
      </trkpt>
      <trkpt lat="43.00826" lon="0.78677">
        <ele>674.685</ele>
        <time>2021-07-21T09:36:32Z</time>
      </trkpt>
      <trkpt lat="43.00832" lon="0.78672">
        <ele>674.64</ele>
        <time>2021-07-21T09:36:30Z</time>
      </trkpt>
      <trkpt lat="43.00838" lon="0.78667">
        <ele>674.766</ele>
        <time>2021-07-21T09:36:28Z</time>
      </trkpt>
      <trkpt lat="43.00843" lon="0.78663">
        <ele>675.178</ele>
        <time>2021-07-21T09:36:26Z</time>
      </trkpt>
      <trkpt lat="43.00848" lon="0.78659">
        <ele>675.374</ele>
        <time>2021-07-21T09:36:24Z</time>
      </trkpt>
      <trkpt lat="43.00853" lon="0.78655">
        <ele>675.643</ele>
        <time>2021-07-21T09:36:22Z</time>
      </trkpt>
      <trkpt lat="43.00858" lon="0.78652">
        <ele>675.734</ele>
        <time>2021-07-21T09:36:20Z</time>
      </trkpt>
      <trkpt lat="43.00862" lon="0.7865">
        <ele>675.723</ele>
        <time>2021-07-21T09:36:18Z</time>
      </trkpt>
      <trkpt lat="43.00867" lon="0.78649">
        <ele>675.508</ele>
        <time>2021-07-21T09:36:16Z</time>
      </trkpt>
      <trkpt lat="43.00871" lon="0.78648">
        <ele>675.118</ele>
        <time>2021-07-21T09:36:14Z</time>
      </trkpt>
      <trkpt lat="43.00877" lon="0.78648">
        <ele>674.644</ele>
        <time>2021-07-21T09:36:12Z</time>
      </trkpt>
      <trkpt lat="43.00883" lon="0.7865">
        <ele>674.063</ele>
        <time>2021-07-21T09:36:09Z</time>
      </trkpt>
      <trkpt lat="43.00889" lon="0.78654">
        <ele>673.231</ele>
        <time>2021-07-21T09:36:06Z</time>
      </trkpt>
      <trkpt lat="43.00894" lon="0.78659">
        <ele>672.336</ele>
        <time>2021-07-21T09:36:03Z</time>
      </trkpt>
      <trkpt lat="43.00899" lon="0.78663">
        <ele>671.672</ele>
        <time>2021-07-21T09:36:00Z</time>
      </trkpt>
      <trkpt lat="43.00903" lon="0.78668">
        <ele>670.974</ele>
        <time>2021-07-21T09:35:57Z</time>
      </trkpt>
      <trkpt lat="43.00908" lon="0.78674">
        <ele>670.28</ele>
        <time>2021-07-21T09:35:54Z</time>
      </trkpt>
      <trkpt lat="43.00913" lon="0.78679">
        <ele>669.469</ele>
        <time>2021-07-21T09:35:51Z</time>
      </trkpt>
      <trkpt lat="43.00918" lon="0.78685">
        <ele>668.94</ele>
        <time>2021-07-21T09:35:48Z</time>
      </trkpt>
      <trkpt lat="43.00922" lon="0.78689">
        <ele>668.529</ele>
        <time>2021-07-21T09:35:46Z</time>
      </trkpt>
      <trkpt lat="43.00927" lon="0.78694">
        <ele>668.008</ele>
        <time>2021-07-21T09:35:43Z</time>
      </trkpt>
      <trkpt lat="43.00932" lon="0.78699">
        <ele>667.72</ele>
        <time>2021-07-21T09:35:40Z</time>
      </trkpt>
      <trkpt lat="43.00937" lon="0.78704">
        <ele>667.5</ele>
        <time>2021-07-21T09:35:37Z</time>
      </trkpt>
      <trkpt lat="43.00942" lon="0.78709">
        <ele>667.429</ele>
        <time>2021-07-21T09:35:34Z</time>
      </trkpt>
      <trkpt lat="43.00947" lon="0.78715">
        <ele>667.312</ele>
        <time>2021-07-21T09:35:31Z</time>
      </trkpt>
      <trkpt lat="43.00952" lon="0.78719">
        <ele>667.347</ele>
        <time>2021-07-21T09:35:28Z</time>
      </trkpt>
      <trkpt lat="43.00956" lon="0.78723">
        <ele>667.383</ele>
        <time>2021-07-21T09:35:26Z</time>
      </trkpt>
      <trkpt lat="43.0096" lon="0.78727">
        <ele>667.465</ele>
        <time>2021-07-21T09:35:24Z</time>
      </trkpt>
      <trkpt lat="43.00964" lon="0.78732">
        <ele>667.421</ele>
        <time>2021-07-21T09:35:22Z</time>
      </trkpt>
      <trkpt lat="43.00968" lon="0.78735">
        <ele>667.53</ele>
        <time>2021-07-21T09:35:20Z</time>
      </trkpt>
      <trkpt lat="43.00972" lon="0.78739">
        <ele>667.261</ele>
        <time>2021-07-21T09:35:18Z</time>
      </trkpt>
      <trkpt lat="43.00976" lon="0.78743">
        <ele>666.65</ele>
        <time>2021-07-21T09:35:16Z</time>
      </trkpt>
      <trkpt lat="43.0098" lon="0.78746">
        <ele>666.008</ele>
        <time>2021-07-21T09:35:14Z</time>
      </trkpt>
      <trkpt lat="43.00986" lon="0.78751">
        <ele>665.418</ele>
        <time>2021-07-21T09:35:11Z</time>
      </trkpt>
      <trkpt lat="43.00992" lon="0.78755">
        <ele>665.017</ele>
        <time>2021-07-21T09:35:08Z</time>
      </trkpt>
      <trkpt lat="43.00997" lon="0.7876">
        <ele>664.836</ele>
        <time>2021-07-21T09:35:05Z</time>
      </trkpt>
      <trkpt lat="43.01002" lon="0.78765">
        <ele>664.613</ele>
        <time>2021-07-21T09:35:02Z</time>
      </trkpt>
      <trkpt lat="43.01008" lon="0.78771">
        <ele>664.318</ele>
        <time>2021-07-21T09:34:59Z</time>
      </trkpt>
      <trkpt lat="43.01012" lon="0.78776">
        <ele>664.124</ele>
        <time>2021-07-21T09:34:56Z</time>
      </trkpt>
      <trkpt lat="43.01017" lon="0.78781">
        <ele>664.066</ele>
        <time>2021-07-21T09:34:53Z</time>
      </trkpt>
      <trkpt lat="43.01022" lon="0.78785">
        <ele>663.782</ele>
        <time>2021-07-21T09:34:50Z</time>
      </trkpt>
      <trkpt lat="43.01028" lon="0.78786">
        <ele>663.241</ele>
        <time>2021-07-21T09:34:46Z</time>
      </trkpt>
      <trkpt lat="43.01033" lon="0.78787">
        <ele>662.792</ele>
        <time>2021-07-21T09:34:43Z</time>
      </trkpt>
      <trkpt lat="43.01037" lon="0.78788">
        <ele>662.341</ele>
        <time>2021-07-21T09:34:40Z</time>
      </trkpt>
      <trkpt lat="43.01043" lon="0.78788">
        <ele>662.008</ele>
        <time>2021-07-21T09:34:37Z</time>
      </trkpt>
      <trkpt lat="43.01048" lon="0.78788">
        <ele>661.411</ele>
        <time>2021-07-21T09:34:34Z</time>
      </trkpt>
      <trkpt lat="43.01053" lon="0.78787">
        <ele>660.947</ele>
        <time>2021-07-21T09:34:31Z</time>
      </trkpt>
      <trkpt lat="43.01059" lon="0.78787">
        <ele>660.545</ele>
        <time>2021-07-21T09:34:28Z</time>
      </trkpt>
      <trkpt lat="43.01065" lon="0.78787">
        <ele>660.133</ele>
        <time>2021-07-21T09:34:25Z</time>
      </trkpt>
      <trkpt lat="43.01072" lon="0.78788">
        <ele>659.728</ele>
        <time>2021-07-21T09:34:22Z</time>
      </trkpt>
      <trkpt lat="43.01078" lon="0.78788">
        <ele>659.444</ele>
        <time>2021-07-21T09:34:19Z</time>
      </trkpt>
      <trkpt lat="43.01082" lon="0.78788">
        <ele>659.066</ele>
        <time>2021-07-21T09:34:17Z</time>
      </trkpt>
      <trkpt lat="43.01087" lon="0.78788">
        <ele>658.762</ele>
        <time>2021-07-21T09:34:15Z</time>
      </trkpt>
      <trkpt lat="43.01092" lon="0.78788">
        <ele>658.381</ele>
        <time>2021-07-21T09:34:13Z</time>
      </trkpt>
      <trkpt lat="43.01097" lon="0.78788">
        <ele>657.962</ele>
        <time>2021-07-21T09:34:11Z</time>
      </trkpt>
      <trkpt lat="43.01104" lon="0.78788">
        <ele>657.511</ele>
        <time>2021-07-21T09:34:08Z</time>
      </trkpt>
      <trkpt lat="43.01109" lon="0.78787">
        <ele>657.308</ele>
        <time>2021-07-21T09:34:06Z</time>
      </trkpt>
      <trkpt lat="43.01114" lon="0.78787">
        <ele>657.216</ele>
        <time>2021-07-21T09:34:04Z</time>
      </trkpt>
      <trkpt lat="43.01119" lon="0.78787">
        <ele>657.388</ele>
        <time>2021-07-21T09:34:02Z</time>
      </trkpt>
      <trkpt lat="43.01125" lon="0.78787">
        <ele>657.446</ele>
        <time>2021-07-21T09:34:00Z</time>
      </trkpt>
      <trkpt lat="43.01131" lon="0.78787">
        <ele>657.326</ele>
        <time>2021-07-21T09:33:58Z</time>
      </trkpt>
      <trkpt lat="43.01138" lon="0.78786">
        <ele>657.211</ele>
        <time>2021-07-21T09:33:56Z</time>
      </trkpt>
      <trkpt lat="43.01146" lon="0.78786">
        <ele>657.387</ele>
        <time>2021-07-21T09:33:54Z</time>
      </trkpt>
      <trkpt lat="43.01153" lon="0.78785">
        <ele>657.499</ele>
        <time>2021-07-21T09:33:52Z</time>
      </trkpt>
      <trkpt lat="43.01161" lon="0.78784">
        <ele>657.595</ele>
        <time>2021-07-21T09:33:50Z</time>
      </trkpt>
      <trkpt lat="43.01168" lon="0.78782">
        <ele>657.834</ele>
        <time>2021-07-21T09:33:48Z</time>
      </trkpt>
      <trkpt lat="43.01174" lon="0.78779">
        <ele>658.375</ele>
        <time>2021-07-21T09:33:46Z</time>
      </trkpt>
      <trkpt lat="43.0118" lon="0.7877">
        <ele>658.944</ele>
        <time>2021-07-21T09:33:44Z</time>
      </trkpt>
      <trkpt lat="43.01182" lon="0.78764">
        <ele>659.708</ele>
        <time>2021-07-21T09:33:43Z</time>
      </trkpt>
      <trkpt lat="43.01188" lon="0.7875">
        <ele>660.821</ele>
        <time>2021-07-21T09:33:41Z</time>
      </trkpt>
      <trkpt lat="43.01195" lon="0.78735">
        <ele>661.856</ele>
        <time>2021-07-21T09:33:39Z</time>
      </trkpt>
      <trkpt lat="43.01204" lon="0.78722">
        <ele>662.974</ele>
        <time>2021-07-21T09:33:37Z</time>
      </trkpt>
      <trkpt lat="43.01213" lon="0.78709">
        <ele>663.813</ele>
        <time>2021-07-21T09:33:35Z</time>
      </trkpt>
      <trkpt lat="43.01221" lon="0.787">
        <ele>664.038</ele>
        <time>2021-07-21T09:33:33Z</time>
      </trkpt>
      <trkpt lat="43.01226" lon="0.78692">
        <ele>664.034</ele>
        <time>2021-07-21T09:33:31Z</time>
      </trkpt>
      <trkpt lat="43.01231" lon="0.78684">
        <ele>663.986</ele>
        <time>2021-07-21T09:33:29Z</time>
      </trkpt>
      <trkpt lat="43.01234" lon="0.7868">
        <ele>663.322</ele>
        <time>2021-07-21T09:33:27Z</time>
      </trkpt>
      <trkpt lat="43.01238" lon="0.78673">
        <ele>662.541</ele>
        <time>2021-07-21T09:33:21Z</time>
      </trkpt>
      <trkpt lat="43.01241" lon="0.78666">
        <ele>661.722</ele>
        <time>2021-07-21T09:33:16Z</time>
      </trkpt>
      <trkpt lat="43.01244" lon="0.7866">
        <ele>661.241</ele>
        <time>2021-07-21T09:33:13Z</time>
      </trkpt>
      <trkpt lat="43.01246" lon="0.78653">
        <ele>660.608</ele>
        <time>2021-07-21T09:33:10Z</time>
      </trkpt>
      <trkpt lat="43.01248" lon="0.78647">
        <ele>660.017</ele>
        <time>2021-07-21T09:33:07Z</time>
      </trkpt>
      <trkpt lat="43.01252" lon="0.78642">
        <ele>659.561</ele>
        <time>2021-07-21T09:33:04Z</time>
      </trkpt>
      <trkpt lat="43.01255" lon="0.78637">
        <ele>659.148</ele>
        <time>2021-07-21T09:33:01Z</time>
      </trkpt>
      <trkpt lat="43.01259" lon="0.78632">
        <ele>658.686</ele>
        <time>2021-07-21T09:32:57Z</time>
      </trkpt>
      <trkpt lat="43.01263" lon="0.78627">
        <ele>658.521</ele>
        <time>2021-07-21T09:32:53Z</time>
      </trkpt>
      <trkpt lat="43.01267" lon="0.78624">
        <ele>658.437</ele>
        <time>2021-07-21T09:32:49Z</time>
      </trkpt>
      <trkpt lat="43.01273" lon="0.78622">
        <ele>658.349</ele>
        <time>2021-07-21T09:32:45Z</time>
      </trkpt>
      <trkpt lat="43.01279" lon="0.78621">
        <ele>658.125</ele>
        <time>2021-07-21T09:32:41Z</time>
      </trkpt>
      <trkpt lat="43.01283" lon="0.78623">
        <ele>657.814</ele>
        <time>2021-07-21T09:32:38Z</time>
      </trkpt>
      <trkpt lat="43.01288" lon="0.78622">
        <ele>657.415</ele>
        <time>2021-07-21T09:32:35Z</time>
      </trkpt>
      <trkpt lat="43.01293" lon="0.78622">
        <ele>657.064</ele>
        <time>2021-07-21T09:32:32Z</time>
      </trkpt>
      <trkpt lat="43.01298" lon="0.78623">
        <ele>656.508</ele>
        <time>2021-07-21T09:32:29Z</time>
      </trkpt>
      <trkpt lat="43.01303" lon="0.78624">
        <ele>656.227</ele>
        <time>2021-07-21T09:32:26Z</time>
      </trkpt>
      <trkpt lat="43.01308" lon="0.78626">
        <ele>655.961</ele>
        <time>2021-07-21T09:32:22Z</time>
      </trkpt>
      <trkpt lat="43.01312" lon="0.78628">
        <ele>655.677</ele>
        <time>2021-07-21T09:32:19Z</time>
      </trkpt>
      <trkpt lat="43.01317" lon="0.78629">
        <ele>655.196</ele>
        <time>2021-07-21T09:32:16Z</time>
      </trkpt>
      <trkpt lat="43.01322" lon="0.7863">
        <ele>654.531</ele>
        <time>2021-07-21T09:32:12Z</time>
      </trkpt>
      <trkpt lat="43.01327" lon="0.78632">
        <ele>654.167</ele>
        <time>2021-07-21T09:32:08Z</time>
      </trkpt>
      <trkpt lat="43.01333" lon="0.78636">
        <ele>653.559</ele>
        <time>2021-07-21T09:32:04Z</time>
      </trkpt>
      <trkpt lat="43.01338" lon="0.78639">
        <ele>652.765</ele>
        <time>2021-07-21T09:32:00Z</time>
      </trkpt>
      <trkpt lat="43.01343" lon="0.78643">
        <ele>651.944</ele>
        <time>2021-07-21T09:31:56Z</time>
      </trkpt>
      <trkpt lat="43.01347" lon="0.78646">
        <ele>651.445</ele>
        <time>2021-07-21T09:31:52Z</time>
      </trkpt>
      <trkpt lat="43.01351" lon="0.7865">
        <ele>651.074</ele>
        <time>2021-07-21T09:31:49Z</time>
      </trkpt>
      <trkpt lat="43.01356" lon="0.78651">
        <ele>650.508</ele>
        <time>2021-07-21T09:31:46Z</time>
      </trkpt>
      <trkpt lat="43.01361" lon="0.78653">
        <ele>649.927</ele>
        <time>2021-07-21T09:31:43Z</time>
      </trkpt>
      <trkpt lat="43.01366" lon="0.78653">
        <ele>649.061</ele>
        <time>2021-07-21T09:31:39Z</time>
      </trkpt>
      <trkpt lat="43.01371" lon="0.78654">
        <ele>647.777</ele>
        <time>2021-07-21T09:31:35Z</time>
      </trkpt>
      <trkpt lat="43.01377" lon="0.78653">
        <ele>646.262</ele>
        <time>2021-07-21T09:31:30Z</time>
      </trkpt>
      <trkpt lat="43.01382" lon="0.78653">
        <ele>645.217</ele>
        <time>2021-07-21T09:31:25Z</time>
      </trkpt>
      <trkpt lat="43.01387" lon="0.78653">
        <ele>644.753</ele>
        <time>2021-07-21T09:31:21Z</time>
      </trkpt>
      <trkpt lat="43.01393" lon="0.78654">
        <ele>644.235</ele>
        <time>2021-07-21T09:31:17Z</time>
      </trkpt>
      <trkpt lat="43.01398" lon="0.78654">
        <ele>643.661</ele>
        <time>2021-07-21T09:31:14Z</time>
      </trkpt>
      <trkpt lat="43.01402" lon="0.78655">
        <ele>642.73</ele>
        <time>2021-07-21T09:31:11Z</time>
      </trkpt>
      <trkpt lat="43.01413" lon="0.78656">
        <ele>641.441</ele>
        <time>2021-07-21T09:31:01Z</time>
      </trkpt>
      <trkpt lat="43.01418" lon="0.78657">
        <ele>640.64</ele>
        <time>2021-07-21T09:30:58Z</time>
      </trkpt>
      <trkpt lat="43.01423" lon="0.78659">
        <ele>639.408</ele>
        <time>2021-07-21T09:30:54Z</time>
      </trkpt>
      <trkpt lat="43.01429" lon="0.78661">
        <ele>637.521</ele>
        <time>2021-07-21T09:30:48Z</time>
      </trkpt>
      <trkpt lat="43.01442" lon="0.78662">
        <ele>634.701</ele>
        <time>2021-07-21T09:30:34Z</time>
      </trkpt>
      <trkpt lat="43.01448" lon="0.78658">
        <ele>633.839</ele>
        <time>2021-07-21T09:30:28Z</time>
      </trkpt>
      <trkpt lat="43.01453" lon="0.78655">
        <ele>632.944</ele>
        <time>2021-07-21T09:30:22Z</time>
      </trkpt>
      <trkpt lat="43.01454" lon="0.78647">
        <ele>631.719</ele>
        <time>2021-07-21T09:30:19Z</time>
      </trkpt>
      <trkpt lat="43.0145" lon="0.78632">
        <ele>629.915</ele>
        <time>2021-07-21T09:30:07Z</time>
      </trkpt>
      <trkpt lat="43.01447" lon="0.78623">
        <ele>629.067</ele>
        <time>2021-07-21T09:30:02Z</time>
      </trkpt>
      <trkpt lat="43.01445" lon="0.78618">
        <ele>627.883</ele>
        <time>2021-07-21T09:29:58Z</time>
      </trkpt>
      <trkpt lat="43.01441" lon="0.7861">
        <ele>626.942</ele>
        <time>2021-07-21T09:29:52Z</time>
      </trkpt>
      <trkpt lat="43.01439" lon="0.78603">
        <ele>626.563</ele>
        <time>2021-07-21T09:29:48Z</time>
      </trkpt>
      <trkpt lat="43.01436" lon="0.78596">
        <ele>625.732</ele>
        <time>2021-07-21T09:29:44Z</time>
      </trkpt>
      <trkpt lat="43.01432" lon="0.78585">
        <ele>624.808</ele>
        <time>2021-07-21T09:29:36Z</time>
      </trkpt>
      <trkpt lat="43.01429" lon="0.78578">
        <ele>623.811</ele>
        <time>2021-07-21T09:29:34Z</time>
      </trkpt>
      <trkpt lat="43.01423" lon="0.78561">
        <ele>621.701</ele>
        <time>2021-07-21T09:29:23Z</time>
      </trkpt>
      <trkpt lat="43.01416" lon="0.7855">
        <ele>619.451</ele>
        <time>2021-07-21T09:29:12Z</time>
      </trkpt>
      <trkpt lat="43.01414" lon="0.78545">
        <ele>618.565</ele>
        <time>2021-07-21T09:29:09Z</time>
      </trkpt>
      <trkpt lat="43.01411" lon="0.78539">
        <ele>617.62</ele>
        <time>2021-07-21T09:29:06Z</time>
      </trkpt>
      <trkpt lat="43.01408" lon="0.78532">
        <ele>616.756</ele>
        <time>2021-07-21T09:29:03Z</time>
      </trkpt>
      <trkpt lat="43.01403" lon="0.78523">
        <ele>616.078</ele>
        <time>2021-07-21T09:28:58Z</time>
      </trkpt>
      <trkpt lat="43.01401" lon="0.78516">
        <ele>615.584</ele>
        <time>2021-07-21T09:28:56Z</time>
      </trkpt>
      <trkpt lat="43.01397" lon="0.78511">
        <ele>614.193</ele>
        <time>2021-07-21T09:28:52Z</time>
      </trkpt>
      <trkpt lat="43.01395" lon="0.78504">
        <ele>612.934</ele>
        <time>2021-07-21T09:28:49Z</time>
      </trkpt>
      <trkpt lat="43.01392" lon="0.78497">
        <ele>611.593</ele>
        <time>2021-07-21T09:28:46Z</time>
      </trkpt>
      <trkpt lat="43.01389" lon="0.78493">
        <ele>610.008</ele>
        <time>2021-07-21T09:28:43Z</time>
      </trkpt>
      <trkpt lat="43.01386" lon="0.78489">
        <ele>608.114</ele>
        <time>2021-07-21T09:28:39Z</time>
      </trkpt>
      <trkpt lat="43.01382" lon="0.78484">
        <ele>606.068</ele>
        <time>2021-07-21T09:28:34Z</time>
      </trkpt>
      <trkpt lat="43.01378" lon="0.78478">
        <ele>604.565</ele>
        <time>2021-07-21T09:28:29Z</time>
      </trkpt>
      <trkpt lat="43.01375" lon="0.78472">
        <ele>603.438</ele>
        <time>2021-07-21T09:28:24Z</time>
      </trkpt>
      <trkpt lat="43.01372" lon="0.78468">
        <ele>603.053</ele>
        <time>2021-07-21T09:28:21Z</time>
      </trkpt>
      <trkpt lat="43.0137" lon="0.78462">
        <ele>602.879</ele>
        <time>2021-07-21T09:28:18Z</time>
      </trkpt>
      <trkpt lat="43.01367" lon="0.78457">
        <ele>602.681</ele>
        <time>2021-07-21T09:28:15Z</time>
      </trkpt>
      <trkpt lat="43.01364" lon="0.78451">
        <ele>602.267</ele>
        <time>2021-07-21T09:28:12Z</time>
      </trkpt>
      <trkpt lat="43.01361" lon="0.78445">
        <ele>601.626</ele>
        <time>2021-07-21T09:28:08Z</time>
      </trkpt>
      <trkpt lat="43.01358" lon="0.78438">
        <ele>601.177</ele>
        <time>2021-07-21T09:28:04Z</time>
      </trkpt>
      <trkpt lat="43.01355" lon="0.78433">
        <ele>601.036</ele>
        <time>2021-07-21T09:28:01Z</time>
      </trkpt>
      <trkpt lat="43.01353" lon="0.78427">
        <ele>600.708</ele>
        <time>2021-07-21T09:27:58Z</time>
      </trkpt>
      <trkpt lat="43.01349" lon="0.78421">
        <ele>600.024</ele>
        <time>2021-07-21T09:27:54Z</time>
      </trkpt>
      <trkpt lat="43.01346" lon="0.78416">
        <ele>599.431</ele>
        <time>2021-07-21T09:27:50Z</time>
      </trkpt>
      <trkpt lat="43.01341" lon="0.7841">
        <ele>598.496</ele>
        <time>2021-07-21T09:27:46Z</time>
      </trkpt>
      <trkpt lat="43.01338" lon="0.78403">
        <ele>597.062</ele>
        <time>2021-07-21T09:27:41Z</time>
      </trkpt>
      <trkpt lat="43.01333" lon="0.78398">
        <ele>595.447</ele>
        <time>2021-07-21T09:27:35Z</time>
      </trkpt>
      <trkpt lat="43.01326" lon="0.78387">
        <ele>593.843</ele>
        <time>2021-07-21T09:27:26Z</time>
      </trkpt>
      <trkpt lat="43.0132" lon="0.78381">
        <ele>592.165</ele>
        <time>2021-07-21T09:27:20Z</time>
      </trkpt>
      <trkpt lat="43.01312" lon="0.78372">
        <ele>590.261</ele>
        <time>2021-07-21T09:27:10Z</time>
      </trkpt>
      <trkpt lat="43.01308" lon="0.78366">
        <ele>588.61</ele>
        <time>2021-07-21T09:27:05Z</time>
      </trkpt>
      <trkpt lat="43.01304" lon="0.78363">
        <ele>586.321</ele>
        <time>2021-07-21T09:27:00Z</time>
      </trkpt>
      <trkpt lat="43.01299" lon="0.78351">
        <ele>583.36</ele>
        <time>2021-07-21T09:26:41Z</time>
      </trkpt>
      <trkpt lat="43.01304" lon="0.78351">
        <ele>581.608</ele>
        <time>2021-07-21T09:26:37Z</time>
      </trkpt>
      <trkpt lat="43.01309" lon="0.78351">
        <ele>580.021</ele>
        <time>2021-07-21T09:26:33Z</time>
      </trkpt>
      <trkpt lat="43.01315" lon="0.7835">
        <ele>578.601</ele>
        <time>2021-07-21T09:26:29Z</time>
      </trkpt>
      <trkpt lat="43.01319" lon="0.78348">
        <ele>577.539</ele>
        <time>2021-07-21T09:26:25Z</time>
      </trkpt>
      <trkpt lat="43.01324" lon="0.78347">
        <ele>576.584</ele>
        <time>2021-07-21T09:26:21Z</time>
      </trkpt>
      <trkpt lat="43.01329" lon="0.78348">
        <ele>575.429</ele>
        <time>2021-07-21T09:26:17Z</time>
      </trkpt>
      <trkpt lat="43.01335" lon="0.78347">
        <ele>574.275</ele>
        <time>2021-07-21T09:26:12Z</time>
      </trkpt>
      <trkpt lat="43.01348" lon="0.78346">
        <ele>573.187</ele>
        <time>2021-07-21T09:26:01Z</time>
      </trkpt>
      <trkpt lat="43.01352" lon="0.78346">
        <ele>572.993</ele>
        <time>2021-07-21T09:25:58Z</time>
      </trkpt>
      <trkpt lat="43.01357" lon="0.78346">
        <ele>572.512</ele>
        <time>2021-07-21T09:25:54Z</time>
      </trkpt>
      <trkpt lat="43.01362" lon="0.78346">
        <ele>572.033</ele>
        <time>2021-07-21T09:25:50Z</time>
      </trkpt>
      <trkpt lat="43.01367" lon="0.78346">
        <ele>571.172</ele>
        <time>2021-07-21T09:25:47Z</time>
      </trkpt>
      <trkpt lat="43.01373" lon="0.78349">
        <ele>569.508</ele>
        <time>2021-07-21T09:25:42Z</time>
      </trkpt>
      <trkpt lat="43.01379" lon="0.7835">
        <ele>568.108</ele>
        <time>2021-07-21T09:25:38Z</time>
      </trkpt>
      <trkpt lat="43.01386" lon="0.78352">
        <ele>566.653</ele>
        <time>2021-07-21T09:25:33Z</time>
      </trkpt>
      <trkpt lat="43.01392" lon="0.78352">
        <ele>565.352</ele>
        <time>2021-07-21T09:25:28Z</time>
      </trkpt>
      <trkpt lat="43.01397" lon="0.78354">
        <ele>564.458</ele>
        <time>2021-07-21T09:25:25Z</time>
      </trkpt>
      <trkpt lat="43.01402" lon="0.78356">
        <ele>563.413</ele>
        <time>2021-07-21T09:25:22Z</time>
      </trkpt>
      <trkpt lat="43.01409" lon="0.78359">
        <ele>562.459</ele>
        <time>2021-07-21T09:25:15Z</time>
      </trkpt>
      <trkpt lat="43.01414" lon="0.78359">
        <ele>562.021</ele>
        <time>2021-07-21T09:25:12Z</time>
      </trkpt>
      <trkpt lat="43.0142" lon="0.78361">
        <ele>561.797</ele>
        <time>2021-07-21T09:25:08Z</time>
      </trkpt>
      <trkpt lat="43.01425" lon="0.78363">
        <ele>561.626</ele>
        <time>2021-07-21T09:25:04Z</time>
      </trkpt>
      <trkpt lat="43.0143" lon="0.78365">
        <ele>561.557</ele>
        <time>2021-07-21T09:25:01Z</time>
      </trkpt>
      <trkpt lat="43.01434" lon="0.78365">
        <ele>561.116</ele>
        <time>2021-07-21T09:24:58Z</time>
      </trkpt>
      <trkpt lat="43.01439" lon="0.78365">
        <ele>560.408</ele>
        <time>2021-07-21T09:24:55Z</time>
      </trkpt>
      <trkpt lat="43.01447" lon="0.78368">
        <ele>559.624</ele>
        <time>2021-07-21T09:24:48Z</time>
      </trkpt>
      <trkpt lat="43.01451" lon="0.78372">
        <ele>558.731</ele>
        <time>2021-07-21T09:24:45Z</time>
      </trkpt>
      <trkpt lat="43.01456" lon="0.78373">
        <ele>557.696</ele>
        <time>2021-07-21T09:24:41Z</time>
      </trkpt>
      <trkpt lat="43.01462" lon="0.78376">
        <ele>556.51</ele>
        <time>2021-07-21T09:24:37Z</time>
      </trkpt>
      <trkpt lat="43.01466" lon="0.78378">
        <ele>555.535</ele>
        <time>2021-07-21T09:24:33Z</time>
      </trkpt>
      <trkpt lat="43.01471" lon="0.7838">
        <ele>554.611</ele>
        <time>2021-07-21T09:24:30Z</time>
      </trkpt>
      <trkpt lat="43.01475" lon="0.78382">
        <ele>553.523</ele>
        <time>2021-07-21T09:24:27Z</time>
      </trkpt>
      <trkpt lat="43.01479" lon="0.78386">
        <ele>552.559</ele>
        <time>2021-07-21T09:24:24Z</time>
      </trkpt>
      <trkpt lat="43.01483" lon="0.7839">
        <ele>551.768</ele>
        <time>2021-07-21T09:24:21Z</time>
      </trkpt>
      <trkpt lat="43.01487" lon="0.78395">
        <ele>550.859</ele>
        <time>2021-07-21T09:24:17Z</time>
      </trkpt>
      <trkpt lat="43.01491" lon="0.784">
        <ele>549.818</ele>
        <time>2021-07-21T09:24:14Z</time>
      </trkpt>
      <trkpt lat="43.01495" lon="0.78404">
        <ele>548.808</ele>
        <time>2021-07-21T09:24:11Z</time>
      </trkpt>
      <trkpt lat="43.01499" lon="0.78408">
        <ele>547.407</ele>
        <time>2021-07-21T09:24:08Z</time>
      </trkpt>
      <trkpt lat="43.01503" lon="0.78412">
        <ele>545.943</ele>
        <time>2021-07-21T09:24:05Z</time>
      </trkpt>
      <trkpt lat="43.01509" lon="0.78415">
        <ele>544.013</ele>
        <time>2021-07-21T09:24:00Z</time>
      </trkpt>
      <trkpt lat="43.01514" lon="0.78417">
        <ele>542.498</ele>
        <time>2021-07-21T09:23:56Z</time>
      </trkpt>
      <trkpt lat="43.01521" lon="0.78421">
        <ele>540.973</ele>
        <time>2021-07-21T09:23:51Z</time>
      </trkpt>
      <trkpt lat="43.01526" lon="0.78425">
        <ele>539.759</ele>
        <time>2021-07-21T09:23:47Z</time>
      </trkpt>
      <trkpt lat="43.01531" lon="0.78428">
        <ele>538.981</ele>
        <time>2021-07-21T09:23:42Z</time>
      </trkpt>
      <trkpt lat="43.01536" lon="0.78433">
        <ele>538.397</ele>
        <time>2021-07-21T09:23:38Z</time>
      </trkpt>
      <trkpt lat="43.0154" lon="0.78437">
        <ele>537.466</ele>
        <time>2021-07-21T09:23:35Z</time>
      </trkpt>
      <trkpt lat="43.01544" lon="0.78441">
        <ele>536.647</ele>
        <time>2021-07-21T09:23:31Z</time>
      </trkpt>
      <trkpt lat="43.01549" lon="0.78444">
        <ele>536.016</ele>
        <time>2021-07-21T09:23:27Z</time>
      </trkpt>
      <trkpt lat="43.01554" lon="0.78446">
        <ele>535.508</ele>
        <time>2021-07-21T09:23:24Z</time>
      </trkpt>
      <trkpt lat="43.01559" lon="0.78449">
        <ele>534.92</ele>
        <time>2021-07-21T09:23:21Z</time>
      </trkpt>
      <trkpt lat="43.01564" lon="0.7845">
        <ele>534.273</ele>
        <time>2021-07-21T09:23:18Z</time>
      </trkpt>
      <trkpt lat="43.01568" lon="0.78453">
        <ele>533.492</ele>
        <time>2021-07-21T09:23:15Z</time>
      </trkpt>
      <trkpt lat="43.01573" lon="0.78456">
        <ele>532.268</ele>
        <time>2021-07-21T09:23:11Z</time>
      </trkpt>
      <trkpt lat="43.01579" lon="0.78459">
        <ele>530.993</ele>
        <time>2021-07-21T09:23:05Z</time>
      </trkpt>
      <trkpt lat="43.01585" lon="0.7846">
        <ele>529.989</ele>
        <time>2021-07-21T09:23:01Z</time>
      </trkpt>
      <trkpt lat="43.01589" lon="0.78463">
        <ele>528.741</ele>
        <time>2021-07-21T09:22:55Z</time>
      </trkpt>
      <trkpt lat="43.01594" lon="0.78466">
        <ele>527.547</ele>
        <time>2021-07-21T09:22:48Z</time>
      </trkpt>
      <trkpt lat="43.01597" lon="0.78461">
        <ele>526.796</ele>
        <time>2021-07-21T09:22:44Z</time>
      </trkpt>
      <trkpt lat="43.01598" lon="0.78454">
        <ele>525.587</ele>
        <time>2021-07-21T09:22:42Z</time>
      </trkpt>
      <trkpt lat="43.01595" lon="0.7844">
        <ele>523.596</ele>
        <time>2021-07-21T09:22:32Z</time>
      </trkpt>
      <trkpt lat="43.01594" lon="0.78434">
        <ele>522.308</ele>
        <time>2021-07-21T09:22:29Z</time>
      </trkpt>
      <trkpt lat="43.01593" lon="0.78426">
        <ele>521.126</ele>
        <time>2021-07-21T09:22:26Z</time>
      </trkpt>
      <trkpt lat="43.01591" lon="0.78416">
        <ele>519.515</ele>
        <time>2021-07-21T09:22:19Z</time>
      </trkpt>
      <trkpt lat="43.0159" lon="0.78409">
        <ele>518.198</ele>
        <time>2021-07-21T09:22:15Z</time>
      </trkpt>
      <trkpt lat="43.01587" lon="0.78402">
        <ele>517.192</ele>
        <time>2021-07-21T09:22:12Z</time>
      </trkpt>
      <trkpt lat="43.01584" lon="0.78397">
        <ele>516.077</ele>
        <time>2021-07-21T09:22:09Z</time>
      </trkpt>
      <trkpt lat="43.01581" lon="0.78391">
        <ele>514.923</ele>
        <time>2021-07-21T09:22:06Z</time>
      </trkpt>
      <trkpt lat="43.01578" lon="0.78385">
        <ele>513.795</ele>
        <time>2021-07-21T09:22:03Z</time>
      </trkpt>
      <trkpt lat="43.01575" lon="0.78378">
        <ele>512.481</ele>
        <time>2021-07-21T09:22:00Z</time>
      </trkpt>
      <trkpt lat="43.01574" lon="0.78371">
        <ele>511.03</ele>
        <time>2021-07-21T09:21:57Z</time>
      </trkpt>
      <trkpt lat="43.0157" lon="0.78365">
        <ele>509.561</ele>
        <time>2021-07-21T09:21:54Z</time>
      </trkpt>
      <trkpt lat="43.01568" lon="0.78359">
        <ele>508.09</ele>
        <time>2021-07-21T09:21:51Z</time>
      </trkpt>
      <trkpt lat="43.01565" lon="0.78354">
        <ele>506.408</ele>
        <time>2021-07-21T09:21:47Z</time>
      </trkpt>
      <trkpt lat="43.01562" lon="0.78348">
        <ele>505.121</ele>
        <time>2021-07-21T09:21:44Z</time>
      </trkpt>
      <trkpt lat="43.01559" lon="0.78342">
        <ele>503.801</ele>
        <time>2021-07-21T09:21:41Z</time>
      </trkpt>
      <trkpt lat="43.01556" lon="0.78335">
        <ele>502.739</ele>
        <time>2021-07-21T09:21:38Z</time>
      </trkpt>
      <trkpt lat="43.01553" lon="0.78328">
        <ele>501.912</ele>
        <time>2021-07-21T09:21:35Z</time>
      </trkpt>
      <trkpt lat="43.01549" lon="0.78322">
        <ele>501.097</ele>
        <time>2021-07-21T09:21:32Z</time>
      </trkpt>
      <trkpt lat="43.01547" lon="0.78313">
        <ele>499.963</ele>
        <time>2021-07-21T09:21:29Z</time>
      </trkpt>
      <trkpt lat="43.01545" lon="0.78305">
        <ele>498.095</ele>
        <time>2021-07-21T09:21:26Z</time>
      </trkpt>
      <trkpt lat="43.01537" lon="0.78288">
        <ele>495.021</ele>
        <time>2021-07-21T09:20:34Z</time>
      </trkpt>
      <trkpt lat="43.01533" lon="0.78283">
        <ele>493.65</ele>
        <time>2021-07-21T09:20:30Z</time>
      </trkpt>
      <trkpt lat="43.01529" lon="0.78277">
        <ele>493.471</ele>
        <time>2021-07-21T09:20:27Z</time>
      </trkpt>
      <trkpt lat="43.01526" lon="0.78272">
        <ele>493.87</ele>
        <time>2021-07-21T09:20:25Z</time>
      </trkpt>
      <trkpt lat="43.01523" lon="0.78266">
        <ele>494.708</ele>
        <time>2021-07-21T09:20:23Z</time>
      </trkpt>
      <trkpt lat="43.01518" lon="0.78257">
        <ele>496.017</ele>
        <time>2021-07-21T09:20:21Z</time>
      </trkpt>
      <trkpt lat="43.01513" lon="0.78247">
        <ele>497.47</ele>
        <time>2021-07-21T09:20:19Z</time>
      </trkpt>
      <trkpt lat="43.01508" lon="0.78237">
        <ele>499.038</ele>
        <time>2021-07-21T09:20:17Z</time>
      </trkpt>
      <trkpt lat="43.01502" lon="0.78227">
        <ele>500.59</ele>
        <time>2021-07-21T09:20:15Z</time>
      </trkpt>
      <trkpt lat="43.01497" lon="0.78218">
        <ele>501.715</ele>
        <time>2021-07-21T09:20:13Z</time>
      </trkpt>
      <trkpt lat="43.01493" lon="0.78209">
        <ele>502.971</ele>
        <time>2021-07-21T09:20:11Z</time>
      </trkpt>
      <trkpt lat="43.01488" lon="0.78203">
        <ele>503.683</ele>
        <time>2021-07-21T09:20:09Z</time>
      </trkpt>
      <trkpt lat="43.01483" lon="0.78196">
        <ele>504.039</ele>
        <time>2021-07-21T09:20:07Z</time>
      </trkpt>
      <trkpt lat="43.01477" lon="0.78192">
        <ele>503.348</ele>
        <time>2021-07-21T09:20:05Z</time>
      </trkpt>
      <trkpt lat="43.01472" lon="0.78191">
        <ele>502.299</ele>
        <time>2021-07-21T09:20:03Z</time>
      </trkpt>
      <trkpt lat="43.01465" lon="0.7819">
        <ele>500.698</ele>
        <time>2021-07-21T09:20:00Z</time>
      </trkpt>
      <trkpt lat="43.01461" lon="0.7819">
        <ele>499.308</ele>
        <time>2021-07-21T09:19:58Z</time>
      </trkpt>
      <trkpt lat="43.01454" lon="0.78189">
        <ele>498.005</ele>
        <time>2021-07-21T09:19:55Z</time>
      </trkpt>
      <trkpt lat="43.01451" lon="0.78184">
        <ele>496.632</ele>
        <time>2021-07-21T09:19:52Z</time>
      </trkpt>
      <trkpt lat="43.01449" lon="0.78176">
        <ele>494.712</ele>
        <time>2021-07-21T09:19:49Z</time>
      </trkpt>
      <trkpt lat="43.01449" lon="0.78169">
        <ele>492.541</ele>
        <time>2021-07-21T09:19:46Z</time>
      </trkpt>
      <trkpt lat="43.01448" lon="0.78163">
        <ele>490.486</ele>
        <time>2021-07-21T09:19:43Z</time>
      </trkpt>
      <trkpt lat="43.01446" lon="0.78155">
        <ele>489.072</ele>
        <time>2021-07-21T09:19:40Z</time>
      </trkpt>
      <trkpt lat="43.01444" lon="0.78148">
        <ele>487.944</ele>
        <time>2021-07-21T09:19:37Z</time>
      </trkpt>
      <trkpt lat="43.01442" lon="0.78142">
        <ele>487.14</ele>
        <time>2021-07-21T09:19:34Z</time>
      </trkpt>
      <trkpt lat="43.01442" lon="0.78133">
        <ele>486.479</ele>
        <time>2021-07-21T09:19:31Z</time>
      </trkpt>
      <trkpt lat="43.01445" lon="0.78127">
        <ele>486.35</ele>
        <time>2021-07-21T09:19:29Z</time>
      </trkpt>
      <trkpt lat="43.01448" lon="0.78122">
        <ele>486.279</ele>
        <time>2021-07-21T09:19:27Z</time>
      </trkpt>
      <trkpt lat="43.01452" lon="0.78119">
        <ele>486.108</ele>
        <time>2021-07-21T09:19:25Z</time>
      </trkpt>
      <trkpt lat="43.01456" lon="0.78116">
        <ele>485.808</ele>
        <time>2021-07-21T09:19:23Z</time>
      </trkpt>
      <trkpt lat="43.0146" lon="0.78111">
        <ele>485.526</ele>
        <time>2021-07-21T09:19:21Z</time>
      </trkpt>
      <trkpt lat="43.01463" lon="0.78106">
        <ele>485.325</ele>
        <time>2021-07-21T09:19:19Z</time>
      </trkpt>
      <trkpt lat="43.01468" lon="0.781">
        <ele>485.121</ele>
        <time>2021-07-21T09:19:16Z</time>
      </trkpt>
      <trkpt lat="43.01472" lon="0.78096">
        <ele>484.926</ele>
        <time>2021-07-21T09:19:14Z</time>
      </trkpt>
      <trkpt lat="43.01476" lon="0.78089">
        <ele>484.372</ele>
        <time>2021-07-21T09:19:11Z</time>
      </trkpt>
      <trkpt lat="43.01479" lon="0.78084">
        <ele>484.054</ele>
        <time>2021-07-21T09:19:09Z</time>
      </trkpt>
      <trkpt lat="43.01484" lon="0.78077">
        <ele>483.52</ele>
        <time>2021-07-21T09:19:06Z</time>
      </trkpt>
      <trkpt lat="43.01486" lon="0.78071">
        <ele>483.279</ele>
        <time>2021-07-21T09:19:04Z</time>
      </trkpt>
      <trkpt lat="43.01489" lon="0.78066">
        <ele>483.08</ele>
        <time>2021-07-21T09:19:02Z</time>
      </trkpt>
      <trkpt lat="43.01491" lon="0.78061">
        <ele>482.719</ele>
        <time>2021-07-21T09:19:00Z</time>
      </trkpt>
      <trkpt lat="43.01492" lon="0.78053">
        <ele>482.408</ele>
        <time>2021-07-21T09:18:57Z</time>
      </trkpt>
      <trkpt lat="43.0149" lon="0.78045">
        <ele>482.114</ele>
        <time>2021-07-21T09:18:54Z</time>
      </trkpt>
      <trkpt lat="43.01488" lon="0.78039">
        <ele>482.204</ele>
        <time>2021-07-21T09:18:52Z</time>
      </trkpt>
      <trkpt lat="43.01485" lon="0.78033">
        <ele>482.324</ele>
        <time>2021-07-21T09:18:50Z</time>
      </trkpt>
      <trkpt lat="43.01483" lon="0.78028">
        <ele>482.157</ele>
        <time>2021-07-21T09:18:48Z</time>
      </trkpt>
      <trkpt lat="43.0148" lon="0.78023">
        <ele>482.052</ele>
        <time>2021-07-21T09:18:46Z</time>
      </trkpt>
      <trkpt lat="43.01476" lon="0.78015">
        <ele>481.698</ele>
        <time>2021-07-21T09:18:43Z</time>
      </trkpt>
      <trkpt lat="43.01471" lon="0.78011">
        <ele>480.92</ele>
        <time>2021-07-21T09:18:40Z</time>
      </trkpt>
      <trkpt lat="43.01467" lon="0.78009">
        <ele>480.356</ele>
        <time>2021-07-21T09:18:37Z</time>
      </trkpt>
      <trkpt lat="43.01462" lon="0.78004">
        <ele>479.845</ele>
        <time>2021-07-21T09:18:34Z</time>
      </trkpt>
      <trkpt lat="43.01458" lon="0.77997">
        <ele>479.126</ele>
        <time>2021-07-21T09:18:31Z</time>
      </trkpt>
      <trkpt lat="43.01455" lon="0.77992">
        <ele>478.675</ele>
        <time>2021-07-21T09:18:29Z</time>
      </trkpt>
      <trkpt lat="43.01454" lon="0.77985">
        <ele>478.208</ele>
        <time>2021-07-21T09:18:27Z</time>
      </trkpt>
      <trkpt lat="43.01454" lon="0.77977">
        <ele>478.226</ele>
        <time>2021-07-21T09:18:25Z</time>
      </trkpt>
      <trkpt lat="43.01454" lon="0.7797">
        <ele>478.106</ele>
        <time>2021-07-21T09:18:23Z</time>
      </trkpt>
      <trkpt lat="43.01454" lon="0.77963">
        <ele>477.989</ele>
        <time>2021-07-21T09:18:21Z</time>
      </trkpt>
      <trkpt lat="43.01456" lon="0.77956">
        <ele>477.637</ele>
        <time>2021-07-21T09:18:19Z</time>
      </trkpt>
      <trkpt lat="43.01457" lon="0.77949">
        <ele>476.932</ele>
        <time>2021-07-21T09:18:17Z</time>
      </trkpt>
      <trkpt lat="43.01458" lon="0.77943">
        <ele>476.158</ele>
        <time>2021-07-21T09:18:15Z</time>
      </trkpt>
      <trkpt lat="43.01458" lon="0.77937">
        <ele>475.43</ele>
        <time>2021-07-21T09:18:13Z</time>
      </trkpt>
      <trkpt lat="43.01458" lon="0.7793">
        <ele>474.516</ele>
        <time>2021-07-21T09:18:11Z</time>
      </trkpt>
      <trkpt lat="43.01458" lon="0.77924">
        <ele>473.755</ele>
        <time>2021-07-21T09:18:09Z</time>
      </trkpt>
      <trkpt lat="43.01459" lon="0.77915">
        <ele>472.726</ele>
        <time>2021-07-21T09:18:06Z</time>
      </trkpt>
      <trkpt lat="43.01458" lon="0.77905">
        <ele>471.565</ele>
        <time>2021-07-21T09:18:03Z</time>
      </trkpt>
      <trkpt lat="43.01453" lon="0.77903">
        <ele>470.408</ele>
        <time>2021-07-21T09:18:00Z</time>
      </trkpt>
      <trkpt lat="43.01448" lon="0.77901">
        <ele>470.026</ele>
        <time>2021-07-21T09:17:58Z</time>
      </trkpt>
      <trkpt lat="43.01443" lon="0.77896">
        <ele>469.924</ele>
        <time>2021-07-21T09:17:56Z</time>
      </trkpt>
      <trkpt lat="43.01436" lon="0.77891">
        <ele>469.888</ele>
        <time>2021-07-21T09:17:54Z</time>
      </trkpt>
      <trkpt lat="43.01428" lon="0.77885">
        <ele>469.943</ele>
        <time>2021-07-21T09:17:52Z</time>
      </trkpt>
      <trkpt lat="43.01424" lon="0.77882">
        <ele>470.158</ele>
        <time>2021-07-21T09:17:51Z</time>
      </trkpt>
      <trkpt lat="43.0142" lon="0.77879">
        <ele>470.464</ele>
        <time>2021-07-21T09:17:50Z</time>
      </trkpt>
      <trkpt lat="43.01415" lon="0.77876">
        <ele>471.026</ele>
        <time>2021-07-21T09:17:49Z</time>
      </trkpt>
      <trkpt lat="43.01405" lon="0.77869">
        <ele>471.882</ele>
        <time>2021-07-21T09:17:47Z</time>
      </trkpt>
      <trkpt lat="43.01395" lon="0.77861">
        <ele>472.831</ele>
        <time>2021-07-21T09:17:45Z</time>
      </trkpt>
      <trkpt lat="43.01384" lon="0.77853">
        <ele>473.622</ele>
        <time>2021-07-21T09:17:43Z</time>
      </trkpt>
      <trkpt lat="43.01373" lon="0.77847">
        <ele>474.051</ele>
        <time>2021-07-21T09:17:41Z</time>
      </trkpt>
      <trkpt lat="43.01362" lon="0.77842">
        <ele>474.208</ele>
        <time>2021-07-21T09:17:39Z</time>
      </trkpt>
      <trkpt lat="43.01357" lon="0.7784">
        <ele>474.317</ele>
        <time>2021-07-21T09:17:38Z</time>
      </trkpt>
      <trkpt lat="43.01351" lon="0.77838">
        <ele>474.561</ele>
        <time>2021-07-21T09:17:37Z</time>
      </trkpt>
      <trkpt lat="43.0134" lon="0.77834">
        <ele>474.848</ele>
        <time>2021-07-21T09:17:35Z</time>
      </trkpt>
      <trkpt lat="43.0133" lon="0.77829">
        <ele>475.212</ele>
        <time>2021-07-21T09:17:33Z</time>
      </trkpt>
      <trkpt lat="43.01321" lon="0.77825">
        <ele>475.327</ele>
        <time>2021-07-21T09:17:31Z</time>
      </trkpt>
      <trkpt lat="43.01313" lon="0.77821">
        <ele>475.323</ele>
        <time>2021-07-21T09:17:29Z</time>
      </trkpt>
      <trkpt lat="43.01305" lon="0.77817">
        <ele>475.145</ele>
        <time>2021-07-21T09:17:27Z</time>
      </trkpt>
      <trkpt lat="43.01299" lon="0.77814">
        <ele>474.881</ele>
        <time>2021-07-21T09:17:25Z</time>
      </trkpt>
      <trkpt lat="43.01293" lon="0.7781">
        <ele>474.57</ele>
        <time>2021-07-21T09:17:22Z</time>
      </trkpt>
      <trkpt lat="43.0129" lon="0.77805">
        <ele>474.511</ele>
        <time>2021-07-21T09:17:20Z</time>
      </trkpt>
      <trkpt lat="43.01287" lon="0.778">
        <ele>474.48</ele>
        <time>2021-07-21T09:17:18Z</time>
      </trkpt>
      <trkpt lat="43.01284" lon="0.77795">
        <ele>474.208</ele>
        <time>2021-07-21T09:17:16Z</time>
      </trkpt>
      <trkpt lat="43.01281" lon="0.7779">
        <ele>473.717</ele>
        <time>2021-07-21T09:17:14Z</time>
      </trkpt>
      <trkpt lat="43.01278" lon="0.77785">
        <ele>473.07</ele>
        <time>2021-07-21T09:17:12Z</time>
      </trkpt>
      <trkpt lat="43.01276" lon="0.77779">
        <ele>472.338</ele>
        <time>2021-07-21T09:17:10Z</time>
      </trkpt>
      <trkpt lat="43.01275" lon="0.7777">
        <ele>471.531</ele>
        <time>2021-07-21T09:17:07Z</time>
      </trkpt>
      <trkpt lat="43.01275" lon="0.77762">
        <ele>471.086</ele>
        <time>2021-07-21T09:17:04Z</time>
      </trkpt>
      <trkpt lat="43.01277" lon="0.77755">
        <ele>471.062</ele>
        <time>2021-07-21T09:17:01Z</time>
      </trkpt>
      <trkpt lat="43.01277" lon="0.77747">
        <ele>471.294</ele>
        <time>2021-07-21T09:16:58Z</time>
      </trkpt>
      <trkpt lat="43.01277" lon="0.77738">
        <ele>471.36</ele>
        <time>2021-07-21T09:16:55Z</time>
      </trkpt>
      <trkpt lat="43.01276" lon="0.77729">
        <ele>471.179</ele>
        <time>2021-07-21T09:16:52Z</time>
      </trkpt>
      <trkpt lat="43.01274" lon="0.77723">
        <ele>470.94</ele>
        <time>2021-07-21T09:16:50Z</time>
      </trkpt>
      <trkpt lat="43.01273" lon="0.77716">
        <ele>470.599</ele>
        <time>2021-07-21T09:16:48Z</time>
      </trkpt>
      <trkpt lat="43.0127" lon="0.77711">
        <ele>469.508</ele>
        <time>2021-07-21T09:16:46Z</time>
      </trkpt>
      <trkpt lat="43.01266" lon="0.77704">
        <ele>468.12</ele>
        <time>2021-07-21T09:16:43Z</time>
      </trkpt>
      <trkpt lat="43.01262" lon="0.77698">
        <ele>466.3</ele>
        <time>2021-07-21T09:16:40Z</time>
      </trkpt>
      <trkpt lat="43.01258" lon="0.77695">
        <ele>464.429</ele>
        <time>2021-07-21T09:16:37Z</time>
      </trkpt>
      <trkpt lat="43.01255" lon="0.77689">
        <ele>462.771</ele>
        <time>2021-07-21T09:16:33Z</time>
      </trkpt>
      <trkpt lat="43.01257" lon="0.77683">
        <ele>461.866</ele>
        <time>2021-07-21T09:16:30Z</time>
      </trkpt>
      <trkpt lat="43.01262" lon="0.77678">
        <ele>461.382</ele>
        <time>2021-07-21T09:16:27Z</time>
      </trkpt>
      <trkpt lat="43.01266" lon="0.77674">
        <ele>460.964</ele>
        <time>2021-07-21T09:16:24Z</time>
      </trkpt>
      <trkpt lat="43.01271" lon="0.77671">
        <ele>460.64</ele>
        <time>2021-07-21T09:16:21Z</time>
      </trkpt>
      <trkpt lat="43.01276" lon="0.77666">
        <ele>459.999</ele>
        <time>2021-07-21T09:16:18Z</time>
      </trkpt>
      <trkpt lat="43.01279" lon="0.7766">
        <ele>458.93</ele>
        <time>2021-07-21T09:16:15Z</time>
      </trkpt>
      <trkpt lat="43.01282" lon="0.77655">
        <ele>457.829</ele>
        <time>2021-07-21T09:16:12Z</time>
      </trkpt>
      <trkpt lat="43.01283" lon="0.77649">
        <ele>457.108</ele>
        <time>2021-07-21T09:16:09Z</time>
      </trkpt>
      <trkpt lat="43.01282" lon="0.77641">
        <ele>456.717</ele>
        <time>2021-07-21T09:16:06Z</time>
      </trkpt>
      <trkpt lat="43.0128" lon="0.77634">
        <ele>456.489</ele>
        <time>2021-07-21T09:16:04Z</time>
      </trkpt>
      <trkpt lat="43.01279" lon="0.77628">
        <ele>456.028</ele>
        <time>2021-07-21T09:16:02Z</time>
      </trkpt>
      <trkpt lat="43.01278" lon="0.77622">
        <ele>455.74</ele>
        <time>2021-07-21T09:16:00Z</time>
      </trkpt>
      <trkpt lat="43.01277" lon="0.77615">
        <ele>455.575</ele>
        <time>2021-07-21T09:15:58Z</time>
      </trkpt>
      <trkpt lat="43.01276" lon="0.77608">
        <ele>455.231</ele>
        <time>2021-07-21T09:15:56Z</time>
      </trkpt>
      <trkpt lat="43.01275" lon="0.77602">
        <ele>454.823</ele>
        <time>2021-07-21T09:15:54Z</time>
      </trkpt>
      <trkpt lat="43.01274" lon="0.77596">
        <ele>454.559</ele>
        <time>2021-07-21T09:15:52Z</time>
      </trkpt>
      <trkpt lat="43.01273" lon="0.77589">
        <ele>454.278</ele>
        <time>2021-07-21T09:15:50Z</time>
      </trkpt>
      <trkpt lat="43.01272" lon="0.77583">
        <ele>453.729</ele>
        <time>2021-07-21T09:15:48Z</time>
      </trkpt>
      <trkpt lat="43.0127" lon="0.77576">
        <ele>453.198</ele>
        <time>2021-07-21T09:15:46Z</time>
      </trkpt>
      <trkpt lat="43.01269" lon="0.7757">
        <ele>452.308</ele>
        <time>2021-07-21T09:15:44Z</time>
      </trkpt>
      <trkpt lat="43.01267" lon="0.77562">
        <ele>451.311</ele>
        <time>2021-07-21T09:15:41Z</time>
      </trkpt>
      <trkpt lat="43.01265" lon="0.77555">
        <ele>450.365</ele>
        <time>2021-07-21T09:15:38Z</time>
      </trkpt>
      <trkpt lat="43.01264" lon="0.77547">
        <ele>449.515</ele>
        <time>2021-07-21T09:15:35Z</time>
      </trkpt>
      <trkpt lat="43.01262" lon="0.77539">
        <ele>448.868</ele>
        <time>2021-07-21T09:15:32Z</time>
      </trkpt>
      <trkpt lat="43.01261" lon="0.7753">
        <ele>448.153</ele>
        <time>2021-07-21T09:15:29Z</time>
      </trkpt>
      <trkpt lat="43.01259" lon="0.77521">
        <ele>447.199</ele>
        <time>2021-07-21T09:15:26Z</time>
      </trkpt>
      <trkpt lat="43.01258" lon="0.77513">
        <ele>446.031</ele>
        <time>2021-07-21T09:15:23Z</time>
      </trkpt>
      <trkpt lat="43.01257" lon="0.77505">
        <ele>444.917</ele>
        <time>2021-07-21T09:15:21Z</time>
      </trkpt>
      <trkpt lat="43.01255" lon="0.77497">
        <ele>444.016</ele>
        <time>2021-07-21T09:15:19Z</time>
      </trkpt>
      <trkpt lat="43.01253" lon="0.77488">
        <ele>443.297</ele>
        <time>2021-07-21T09:15:17Z</time>
      </trkpt>
      <trkpt lat="43.01251" lon="0.77479">
        <ele>442.776</ele>
        <time>2021-07-21T09:15:15Z</time>
      </trkpt>
      <trkpt lat="43.01248" lon="0.77468">
        <ele>442.108</ele>
        <time>2021-07-21T09:15:13Z</time>
      </trkpt>
      <trkpt lat="43.01243" lon="0.77455">
        <ele>441.819</ele>
        <time>2021-07-21T09:15:11Z</time>
      </trkpt>
      <trkpt lat="43.0124" lon="0.77448">
        <ele>441.781</ele>
        <time>2021-07-21T09:15:10Z</time>
      </trkpt>
      <trkpt lat="43.01234" lon="0.77433">
        <ele>441.691</ele>
        <time>2021-07-21T09:15:08Z</time>
      </trkpt>
      <trkpt lat="43.0123" lon="0.77425">
        <ele>441.942</ele>
        <time>2021-07-21T09:15:07Z</time>
      </trkpt>
      <trkpt lat="43.01222" lon="0.77406">
        <ele>442.527</ele>
        <time>2021-07-21T09:15:05Z</time>
      </trkpt>
      <trkpt lat="43.01213" lon="0.77385">
        <ele>443.413</ele>
        <time>2021-07-21T09:15:03Z</time>
      </trkpt>
      <trkpt lat="43.01208" lon="0.77374">
        <ele>444.535</ele>
        <time>2021-07-21T09:15:02Z</time>
      </trkpt>
      <trkpt lat="43.01202" lon="0.77363">
        <ele>445.891</ele>
        <time>2021-07-21T09:15:01Z</time>
      </trkpt>
      <trkpt lat="43.01192" lon="0.77341">
        <ele>447.63</ele>
        <time>2021-07-21T09:14:59Z</time>
      </trkpt>
      <trkpt lat="43.01182" lon="0.77323">
        <ele>449.441</ele>
        <time>2021-07-21T09:14:57Z</time>
      </trkpt>
      <trkpt lat="43.01174" lon="0.77311">
        <ele>450.41</ele>
        <time>2021-07-21T09:14:55Z</time>
      </trkpt>
      <trkpt lat="43.01168" lon="0.77303">
        <ele>450.908</ele>
        <time>2021-07-21T09:14:53Z</time>
      </trkpt>
      <trkpt lat="43.01163" lon="0.77297">
        <ele>451.31</ele>
        <time>2021-07-21T09:14:51Z</time>
      </trkpt>
      <trkpt lat="43.0116" lon="0.77292">
        <ele>451.855</ele>
        <time>2021-07-21T09:14:49Z</time>
      </trkpt>
      <trkpt lat="43.01157" lon="0.77285">
        <ele>452.034</ele>
        <time>2021-07-21T09:14:47Z</time>
      </trkpt>
      <trkpt lat="43.01153" lon="0.7728">
        <ele>452.116</ele>
        <time>2021-07-21T09:14:45Z</time>
      </trkpt>
      <trkpt lat="43.01149" lon="0.77274">
        <ele>452.391</ele>
        <time>2021-07-21T09:14:43Z</time>
      </trkpt>
      <trkpt lat="43.01145" lon="0.77268">
        <ele>452.547</ele>
        <time>2021-07-21T09:14:41Z</time>
      </trkpt>
      <trkpt lat="43.01141" lon="0.77261">
        <ele>452.879</ele>
        <time>2021-07-21T09:14:39Z</time>
      </trkpt>
      <trkpt lat="43.01136" lon="0.77254">
        <ele>452.795</ele>
        <time>2021-07-21T09:14:37Z</time>
      </trkpt>
      <trkpt lat="43.01131" lon="0.77247">
        <ele>452.574</ele>
        <time>2021-07-21T09:14:35Z</time>
      </trkpt>
      <trkpt lat="43.01126" lon="0.7724">
        <ele>452.265</ele>
        <time>2021-07-21T09:14:33Z</time>
      </trkpt>
      <trkpt lat="43.01121" lon="0.77233">
        <ele>451.884</ele>
        <time>2021-07-21T09:14:31Z</time>
      </trkpt>
      <trkpt lat="43.01117" lon="0.77227">
        <ele>451.208</ele>
        <time>2021-07-21T09:14:29Z</time>
      </trkpt>
      <trkpt lat="43.01112" lon="0.77222">
        <ele>450.72</ele>
        <time>2021-07-21T09:14:27Z</time>
      </trkpt>
      <trkpt lat="43.01106" lon="0.77217">
        <ele>450.528</ele>
        <time>2021-07-21T09:14:25Z</time>
      </trkpt>
      <trkpt lat="43.011" lon="0.7721">
        <ele>450.475</ele>
        <time>2021-07-21T09:14:23Z</time>
      </trkpt>
      <trkpt lat="43.01093" lon="0.77203">
        <ele>450.394</ele>
        <time>2021-07-21T09:14:21Z</time>
      </trkpt>
      <trkpt lat="43.0109" lon="0.77199">
        <ele>450.159</ele>
        <time>2021-07-21T09:14:20Z</time>
      </trkpt>
      <trkpt lat="43.01082" lon="0.77193">
        <ele>449.875</ele>
        <time>2021-07-21T09:14:18Z</time>
      </trkpt>
      <trkpt lat="43.01075" lon="0.77187">
        <ele>449.357</ele>
        <time>2021-07-21T09:14:16Z</time>
      </trkpt>
      <trkpt lat="43.01067" lon="0.77182">
        <ele>448.583</ele>
        <time>2021-07-21T09:14:14Z</time>
      </trkpt>
      <trkpt lat="43.01058" lon="0.77179">
        <ele>447.822</ele>
        <time>2021-07-21T09:14:12Z</time>
      </trkpt>
      <trkpt lat="43.01053" lon="0.77179">
        <ele>447.493</ele>
        <time>2021-07-21T09:14:11Z</time>
      </trkpt>
      <trkpt lat="43.01045" lon="0.77178">
        <ele>447.252</ele>
        <time>2021-07-21T09:14:09Z</time>
      </trkpt>
      <trkpt lat="43.0104" lon="0.77176">
        <ele>447.408</ele>
        <time>2021-07-21T09:14:08Z</time>
      </trkpt>
      <trkpt lat="43.01032" lon="0.77169">
        <ele>447.917</ele>
        <time>2021-07-21T09:14:06Z</time>
      </trkpt>
      <trkpt lat="43.01028" lon="0.77163">
        <ele>448.552</ele>
        <time>2021-07-21T09:14:05Z</time>
      </trkpt>
      <trkpt lat="43.01017" lon="0.77152">
        <ele>449.558</ele>
        <time>2021-07-21T09:14:03Z</time>
      </trkpt>
      <trkpt lat="43.01009" lon="0.77142">
        <ele>450.427</ele>
        <time>2021-07-21T09:14:01Z</time>
      </trkpt>
      <trkpt lat="43.01004" lon="0.77131">
        <ele>451.032</ele>
        <time>2021-07-21T09:13:59Z</time>
      </trkpt>
      <trkpt lat="43.01003" lon="0.77124">
        <ele>451.518</ele>
        <time>2021-07-21T09:13:58Z</time>
      </trkpt>
      <trkpt lat="43.01" lon="0.77112">
        <ele>452.21</ele>
        <time>2021-07-21T09:13:56Z</time>
      </trkpt>
      <trkpt lat="43.00997" lon="0.77104">
        <ele>452.816</ele>
        <time>2021-07-21T09:13:54Z</time>
      </trkpt>
      <trkpt lat="43.00993" lon="0.77095">
        <ele>453.335</ele>
        <time>2021-07-21T09:13:52Z</time>
      </trkpt>
      <trkpt lat="43.00989" lon="0.77087">
        <ele>453.696</ele>
        <time>2021-07-21T09:13:50Z</time>
      </trkpt>
      <trkpt lat="43.00986" lon="0.77077">
        <ele>454.025</ele>
        <time>2021-07-21T09:13:48Z</time>
      </trkpt>
      <trkpt lat="43.00983" lon="0.77069">
        <ele>454.608</ele>
        <time>2021-07-21T09:13:46Z</time>
      </trkpt>
      <trkpt lat="43.0098" lon="0.77062">
        <ele>455.017</ele>
        <time>2021-07-21T09:13:44Z</time>
      </trkpt>
      <trkpt lat="43.00979" lon="0.77055">
        <ele>455.107</ele>
        <time>2021-07-21T09:13:42Z</time>
      </trkpt>
      <trkpt lat="43.00976" lon="0.77049">
        <ele>455.284</ele>
        <time>2021-07-21T09:13:40Z</time>
      </trkpt>
      <trkpt lat="43.00973" lon="0.77039">
        <ele>455.33</ele>
        <time>2021-07-21T09:13:38Z</time>
      </trkpt>
      <trkpt lat="43.0097" lon="0.77033">
        <ele>455.565</ele>
        <time>2021-07-21T09:13:36Z</time>
      </trkpt>
      <trkpt lat="43.00965" lon="0.77018">
        <ele>455.951</ele>
        <time>2021-07-21T09:13:15Z</time>
      </trkpt>
      <trkpt lat="43.00962" lon="0.7701">
        <ele>455.853</ele>
        <time>2021-07-21T09:13:13Z</time>
      </trkpt>
      <trkpt lat="43.00959" lon="0.76999">
        <ele>455.339</ele>
        <time>2021-07-21T09:13:11Z</time>
      </trkpt>
      <trkpt lat="43.00955" lon="0.76989">
        <ele>454.858</ele>
        <time>2021-07-21T09:13:09Z</time>
      </trkpt>
      <trkpt lat="43.00954" lon="0.76979">
        <ele>453.779</ele>
        <time>2021-07-21T09:13:06Z</time>
      </trkpt>
      <trkpt lat="43.00954" lon="0.76973">
        <ele>452.878</ele>
        <time>2021-07-21T09:13:04Z</time>
      </trkpt>
      <trkpt lat="43.00956" lon="0.76964">
        <ele>451.708</ele>
        <time>2021-07-21T09:13:01Z</time>
      </trkpt>
      <trkpt lat="43.00957" lon="0.76958">
        <ele>451.015</ele>
        <time>2021-07-21T09:12:59Z</time>
      </trkpt>
      <trkpt lat="43.0096" lon="0.76951">
        <ele>450.687</ele>
        <time>2021-07-21T09:12:57Z</time>
      </trkpt>
      <trkpt lat="43.00962" lon="0.76945">
        <ele>450.517</ele>
        <time>2021-07-21T09:12:55Z</time>
      </trkpt>
      <trkpt lat="43.00965" lon="0.76939">
        <ele>450.387</ele>
        <time>2021-07-21T09:12:53Z</time>
      </trkpt>
      <trkpt lat="43.00967" lon="0.7693">
        <ele>449.952</ele>
        <time>2021-07-21T09:12:50Z</time>
      </trkpt>
      <trkpt lat="43.00968" lon="0.76924">
        <ele>449.648</ele>
        <time>2021-07-21T09:12:48Z</time>
      </trkpt>
      <trkpt lat="43.0097" lon="0.76917">
        <ele>449.41</ele>
        <time>2021-07-21T09:12:46Z</time>
      </trkpt>
      <trkpt lat="43.00971" lon="0.7691">
        <ele>449.486</ele>
        <time>2021-07-21T09:12:44Z</time>
      </trkpt>
      <trkpt lat="43.00973" lon="0.76903">
        <ele>449.485</ele>
        <time>2021-07-21T09:12:42Z</time>
      </trkpt>
      <trkpt lat="43.00975" lon="0.76896">
        <ele>449.576</ele>
        <time>2021-07-21T09:12:40Z</time>
      </trkpt>
      <trkpt lat="43.00976" lon="0.76889">
        <ele>449.935</ele>
        <time>2021-07-21T09:12:37Z</time>
      </trkpt>
      <trkpt lat="43.00979" lon="0.76879">
        <ele>451.108</ele>
        <time>2021-07-21T09:11:39Z</time>
      </trkpt>
      <trkpt lat="43.00977" lon="0.76871">
        <ele>453.117</ele>
        <time>2021-07-21T09:11:36Z</time>
      </trkpt>
      <trkpt lat="43.00973" lon="0.76873">
        <ele>455.125</ele>
        <time>2021-07-21T09:11:33Z</time>
      </trkpt>
      <trkpt lat="43.00969" lon="0.76882">
        <ele>456.883</ele>
        <time>2021-07-21T09:11:31Z</time>
      </trkpt>
      <trkpt lat="43.00961" lon="0.76895">
        <ele>458.966</ele>
        <time>2021-07-21T09:11:29Z</time>
      </trkpt>
      <trkpt lat="43.0095" lon="0.76914">
        <ele>461.061</ele>
        <time>2021-07-21T09:11:27Z</time>
      </trkpt>
      <trkpt lat="43.00945" lon="0.76923">
        <ele>462.687</ele>
        <time>2021-07-21T09:11:26Z</time>
      </trkpt>
      <trkpt lat="43.00935" lon="0.7694">
        <ele>464.649</ele>
        <time>2021-07-21T09:11:24Z</time>
      </trkpt>
      <trkpt lat="43.0093" lon="0.76948">
        <ele>466.195</ele>
        <time>2021-07-21T09:11:23Z</time>
      </trkpt>
      <trkpt lat="43.00926" lon="0.76956">
        <ele>467.724</ele>
        <time>2021-07-21T09:11:22Z</time>
      </trkpt>
      <trkpt lat="43.00921" lon="0.76963">
        <ele>469.635</ele>
        <time>2021-07-21T09:11:21Z</time>
      </trkpt>
      <trkpt lat="43.00912" lon="0.76974">
        <ele>471.934</ele>
        <time>2021-07-21T09:11:19Z</time>
      </trkpt>
      <trkpt lat="43.00902" lon="0.76981">
        <ele>473.808</ele>
        <time>2021-07-21T09:11:17Z</time>
      </trkpt>
      <trkpt lat="43.00898" lon="0.76984">
        <ele>474.826</ele>
        <time>2021-07-21T09:11:16Z</time>
      </trkpt>
      <trkpt lat="43.00893" lon="0.76987">
        <ele>475.433</ele>
        <time>2021-07-21T09:11:15Z</time>
      </trkpt>
      <trkpt lat="43.00885" lon="0.76993">
        <ele>475.678</ele>
        <time>2021-07-21T09:11:13Z</time>
      </trkpt>
      <trkpt lat="43.00876" lon="0.76996">
        <ele>475.037</ele>
        <time>2021-07-21T09:11:11Z</time>
      </trkpt>
      <trkpt lat="43.0087" lon="0.77">
        <ele>473.482</ele>
        <time>2021-07-21T09:11:09Z</time>
      </trkpt>
      <trkpt lat="43.00864" lon="0.77003">
        <ele>471.698</ele>
        <time>2021-07-21T09:11:07Z</time>
      </trkpt>
      <trkpt lat="43.00858" lon="0.77008">
        <ele>469.54</ele>
        <time>2021-07-21T09:11:04Z</time>
      </trkpt>
      <trkpt lat="43.00854" lon="0.77011">
        <ele>468.026</ele>
        <time>2021-07-21T09:11:02Z</time>
      </trkpt>
      <trkpt lat="43.00848" lon="0.7701">
        <ele>466.795</ele>
        <time>2021-07-21T09:10:59Z</time>
      </trkpt>
      <trkpt lat="43.00844" lon="0.77008">
        <ele>465.916</ele>
        <time>2021-07-21T09:10:57Z</time>
      </trkpt>
      <trkpt lat="43.0084" lon="0.77004">
        <ele>464.895</ele>
        <time>2021-07-21T09:10:55Z</time>
      </trkpt>
      <trkpt lat="43.00836" lon="0.77">
        <ele>463.608</ele>
        <time>2021-07-21T09:10:53Z</time>
      </trkpt>
      <trkpt lat="43.00831" lon="0.76996">
        <ele>462.326</ele>
        <time>2021-07-21T09:10:50Z</time>
      </trkpt>
      <trkpt lat="43.00827" lon="0.76993">
        <ele>461.56</ele>
        <time>2021-07-21T09:10:48Z</time>
      </trkpt>
      <trkpt lat="43.00823" lon="0.76987">
        <ele>460.886</ele>
        <time>2021-07-21T09:10:46Z</time>
      </trkpt>
      <trkpt lat="43.0082" lon="0.76982">
        <ele>460.392</ele>
        <time>2021-07-21T09:10:44Z</time>
      </trkpt>
      <trkpt lat="43.00814" lon="0.76978">
        <ele>459.827</ele>
        <time>2021-07-21T09:10:41Z</time>
      </trkpt>
      <trkpt lat="43.00811" lon="0.76971">
        <ele>459.743</ele>
        <time>2021-07-21T09:10:38Z</time>
      </trkpt>
      <trkpt lat="43.00813" lon="0.76964">
        <ele>459.715</ele>
        <time>2021-07-21T09:10:36Z</time>
      </trkpt>
      <trkpt lat="43.00817" lon="0.76957">
        <ele>459.951</ele>
        <time>2021-07-21T09:10:34Z</time>
      </trkpt>
      <trkpt lat="43.00821" lon="0.76949">
        <ele>460.33</ele>
        <time>2021-07-21T09:10:32Z</time>
      </trkpt>
      <trkpt lat="43.00827" lon="0.76941">
        <ele>460.651</ele>
        <time>2021-07-21T09:10:30Z</time>
      </trkpt>
      <trkpt lat="43.00832" lon="0.76932">
        <ele>460.94</ele>
        <time>2021-07-21T09:10:28Z</time>
      </trkpt>
      <trkpt lat="43.00837" lon="0.76924">
        <ele>461.308</ele>
        <time>2021-07-21T09:10:26Z</time>
      </trkpt>
      <trkpt lat="43.00843" lon="0.76915">
        <ele>461.517</ele>
        <time>2021-07-21T09:10:24Z</time>
      </trkpt>
      <trkpt lat="43.00849" lon="0.76908">
        <ele>461.37</ele>
        <time>2021-07-21T09:10:22Z</time>
      </trkpt>
      <trkpt lat="43.00853" lon="0.76902">
        <ele>460.738</ele>
        <time>2021-07-21T09:10:20Z</time>
      </trkpt>
      <trkpt lat="43.00857" lon="0.76896">
        <ele>459.937</ele>
        <time>2021-07-21T09:10:18Z</time>
      </trkpt>
      <trkpt lat="43.00861" lon="0.7689">
        <ele>459.082</ele>
        <time>2021-07-21T09:10:16Z</time>
      </trkpt>
      <trkpt lat="43.00864" lon="0.76884">
        <ele>458.498</ele>
        <time>2021-07-21T09:10:14Z</time>
      </trkpt>
      <trkpt lat="43.00867" lon="0.76878">
        <ele>457.61</ele>
        <time>2021-07-21T09:10:12Z</time>
      </trkpt>
      <trkpt lat="43.00869" lon="0.76872">
        <ele>456.996</ele>
        <time>2021-07-21T09:10:10Z</time>
      </trkpt>
      <trkpt lat="43.00871" lon="0.76865">
        <ele>456.035</ele>
        <time>2021-07-21T09:10:08Z</time>
      </trkpt>
      <trkpt lat="43.00871" lon="0.76858">
        <ele>455.086</ele>
        <time>2021-07-21T09:10:06Z</time>
      </trkpt>
      <trkpt lat="43.00868" lon="0.76851">
        <ele>453.825</ele>
        <time>2021-07-21T09:10:04Z</time>
      </trkpt>
      <trkpt lat="43.00864" lon="0.76845">
        <ele>453.108</ele>
        <time>2021-07-21T09:10:02Z</time>
      </trkpt>
      <trkpt lat="43.00858" lon="0.7684">
        <ele>452.217</ele>
        <time>2021-07-21T09:09:59Z</time>
      </trkpt>
      <trkpt lat="43.00854" lon="0.76836">
        <ele>451.625</ele>
        <time>2021-07-21T09:09:57Z</time>
      </trkpt>
      <trkpt lat="43.0085" lon="0.76832">
        <ele>451.183</ele>
        <time>2021-07-21T09:09:55Z</time>
      </trkpt>
      <trkpt lat="43.00846" lon="0.76827">
        <ele>450.56</ele>
        <time>2021-07-21T09:09:53Z</time>
      </trkpt>
      <trkpt lat="43.0084" lon="0.76821">
        <ele>449.865</ele>
        <time>2021-07-21T09:09:51Z</time>
      </trkpt>
      <trkpt lat="43.00834" lon="0.76816">
        <ele>448.431</ele>
        <time>2021-07-21T09:09:49Z</time>
      </trkpt>
      <trkpt lat="43.00828" lon="0.76811">
        <ele>446.933</ele>
        <time>2021-07-21T09:09:47Z</time>
      </trkpt>
      <trkpt lat="43.00822" lon="0.76807">
        <ele>445.829</ele>
        <time>2021-07-21T09:09:45Z</time>
      </trkpt>
      <trkpt lat="43.00818" lon="0.76802">
        <ele>444.848</ele>
        <time>2021-07-21T09:09:43Z</time>
      </trkpt>
      <trkpt lat="43.00813" lon="0.76796">
        <ele>444.319</ele>
        <time>2021-07-21T09:09:41Z</time>
      </trkpt>
      <trkpt lat="43.00809" lon="0.76787">
        <ele>444.288</ele>
        <time>2021-07-21T09:09:39Z</time>
      </trkpt>
      <trkpt lat="43.00809" lon="0.76775">
        <ele>444.608</ele>
        <time>2021-07-21T09:09:37Z</time>
      </trkpt>
      <trkpt lat="43.00809" lon="0.76769">
        <ele>444.911</ele>
        <time>2021-07-21T09:09:36Z</time>
      </trkpt>
      <trkpt lat="43.00809" lon="0.76756">
        <ele>445.265</ele>
        <time>2021-07-21T09:09:34Z</time>
      </trkpt>
      <trkpt lat="43.00805" lon="0.76745">
        <ele>445.715</ele>
        <time>2021-07-21T09:09:32Z</time>
      </trkpt>
      <trkpt lat="43.00802" lon="0.76739">
        <ele>446.037</ele>
        <time>2021-07-21T09:09:31Z</time>
      </trkpt>
      <trkpt lat="43.00794" lon="0.76727">
        <ele>446.442</ele>
        <time>2021-07-21T09:09:29Z</time>
      </trkpt>
      <trkpt lat="43.00785" lon="0.76715">
        <ele>447.158</ele>
        <time>2021-07-21T09:09:27Z</time>
      </trkpt>
      <trkpt lat="43.00781" lon="0.7671">
        <ele>447.89</ele>
        <time>2021-07-21T09:09:26Z</time>
      </trkpt>
      <trkpt lat="43.00777" lon="0.76704">
        <ele>448.666</ele>
        <time>2021-07-21T09:09:25Z</time>
      </trkpt>
      <trkpt lat="43.00769" lon="0.76691">
        <ele>449.675</ele>
        <time>2021-07-21T09:09:23Z</time>
      </trkpt>
      <trkpt lat="43.00765" lon="0.76685">
        <ele>450.116</ele>
        <time>2021-07-21T09:09:22Z</time>
      </trkpt>
      <trkpt lat="43.00757" lon="0.76674">
        <ele>450.595</ele>
        <time>2021-07-21T09:09:20Z</time>
      </trkpt>
      <trkpt lat="43.00754" lon="0.76669">
        <ele>450.608</ele>
        <time>2021-07-21T09:09:19Z</time>
      </trkpt>
      <trkpt lat="43.00747" lon="0.7666">
        <ele>450.626</ele>
        <time>2021-07-21T09:09:17Z</time>
      </trkpt>
      <trkpt lat="43.00742" lon="0.76652">
        <ele>450.442</ele>
        <time>2021-07-21T09:09:15Z</time>
      </trkpt>
      <trkpt lat="43.00737" lon="0.76643">
        <ele>450.087</ele>
        <time>2021-07-21T09:09:13Z</time>
      </trkpt>
      <trkpt lat="43.00732" lon="0.76634">
        <ele>449.637</ele>
        <time>2021-07-21T09:09:11Z</time>
      </trkpt>
      <trkpt lat="43.00725" lon="0.76628">
        <ele>449.342</ele>
        <time>2021-07-21T09:09:09Z</time>
      </trkpt>
      <trkpt lat="43.00717" lon="0.7663">
        <ele>449.588</ele>
        <time>2021-07-21T09:09:07Z</time>
      </trkpt>
      <trkpt lat="43.00707" lon="0.76637">
        <ele>450.08</ele>
        <time>2021-07-21T09:09:05Z</time>
      </trkpt>
      <trkpt lat="43.00701" lon="0.76642">
        <ele>450.426</ele>
        <time>2021-07-21T09:09:04Z</time>
      </trkpt>
      <trkpt lat="43.00688" lon="0.76652">
        <ele>450.955</ele>
        <time>2021-07-21T09:09:02Z</time>
      </trkpt>
      <trkpt lat="43.0068" lon="0.76658">
        <ele>451.236</ele>
        <time>2021-07-21T09:09:01Z</time>
      </trkpt>
      <trkpt lat="43.00666" lon="0.76667">
        <ele>451.845</ele>
        <time>2021-07-21T09:08:59Z</time>
      </trkpt>
      <trkpt lat="43.00659" lon="0.76671">
        <ele>452.108</ele>
        <time>2021-07-21T09:08:58Z</time>
      </trkpt>
      <trkpt lat="43.00644" lon="0.76676">
        <ele>452.526</ele>
        <time>2021-07-21T09:08:56Z</time>
      </trkpt>
      <trkpt lat="43.00637" lon="0.76678">
        <ele>453.042</ele>
        <time>2021-07-21T09:08:55Z</time>
      </trkpt>
      <trkpt lat="43.00622" lon="0.76684">
        <ele>453.687</ele>
        <time>2021-07-21T09:08:53Z</time>
      </trkpt>
      <trkpt lat="43.00608" lon="0.76688">
        <ele>454.336</ele>
        <time>2021-07-21T09:08:51Z</time>
      </trkpt>
      <trkpt lat="43.006" lon="0.76689">
        <ele>454.851</ele>
        <time>2021-07-21T09:08:50Z</time>
      </trkpt>
      <trkpt lat="43.00592" lon="0.76689">
        <ele>455.317</ele>
        <time>2021-07-21T09:08:49Z</time>
      </trkpt>
      <trkpt lat="43.00578" lon="0.76687">
        <ele>455.999</ele>
        <time>2021-07-21T09:08:47Z</time>
      </trkpt>
      <trkpt lat="43.00571" lon="0.76686">
        <ele>456.645</ele>
        <time>2021-07-21T09:08:46Z</time>
      </trkpt>
      <trkpt lat="43.00565" lon="0.76684">
        <ele>457.434</ele>
        <time>2021-07-21T09:08:45Z</time>
      </trkpt>
      <trkpt lat="43.00558" lon="0.76682">
        <ele>458.445</ele>
        <time>2021-07-21T09:08:44Z</time>
      </trkpt>
      <trkpt lat="43.00551" lon="0.76679">
        <ele>459.654</ele>
        <time>2021-07-21T09:08:43Z</time>
      </trkpt>
      <trkpt lat="43.00539" lon="0.76673">
        <ele>461.208</ele>
        <time>2021-07-21T09:08:41Z</time>
      </trkpt>
      <trkpt lat="43.00533" lon="0.76668">
        <ele>462.727</ele>
        <time>2021-07-21T09:08:40Z</time>
      </trkpt>
      <trkpt lat="43.00527" lon="0.76663">
        <ele>464.261</ele>
        <time>2021-07-21T09:08:39Z</time>
      </trkpt>
      <trkpt lat="43.00514" lon="0.76655">
        <ele>466.077</ele>
        <time>2021-07-21T09:08:37Z</time>
      </trkpt>
      <trkpt lat="43.00509" lon="0.76652">
        <ele>467.355</ele>
        <time>2021-07-21T09:08:36Z</time>
      </trkpt>
      <trkpt lat="43.00496" lon="0.76647">
        <ele>468.42</ele>
        <time>2021-07-21T09:08:34Z</time>
      </trkpt>
      <trkpt lat="43.0049" lon="0.76645">
        <ele>468.756</ele>
        <time>2021-07-21T09:08:33Z</time>
      </trkpt>
      <trkpt lat="43.00478" lon="0.76642">
        <ele>469.058</ele>
        <time>2021-07-21T09:08:31Z</time>
      </trkpt>
      <trkpt lat="43.00468" lon="0.76641">
        <ele>469.064</ele>
        <time>2021-07-21T09:08:29Z</time>
      </trkpt>
      <trkpt lat="43.00458" lon="0.76641">
        <ele>468.893</ele>
        <time>2021-07-21T09:08:27Z</time>
      </trkpt>
      <trkpt lat="43.00447" lon="0.76641">
        <ele>468.214</ele>
        <time>2021-07-21T09:08:25Z</time>
      </trkpt>
      <trkpt lat="43.00435" lon="0.76641">
        <ele>467.763</ele>
        <time>2021-07-21T09:08:23Z</time>
      </trkpt>
      <trkpt lat="43.00422" lon="0.7664">
        <ele>467.108</ele>
        <time>2021-07-21T09:08:21Z</time>
      </trkpt>
      <trkpt lat="43.0041" lon="0.76638">
        <ele>466.413</ele>
        <time>2021-07-21T09:08:19Z</time>
      </trkpt>
      <trkpt lat="43.00398" lon="0.76635">
        <ele>465.621</ele>
        <time>2021-07-21T09:08:17Z</time>
      </trkpt>
      <trkpt lat="43.00387" lon="0.7663">
        <ele>464.861</ele>
        <time>2021-07-21T09:08:15Z</time>
      </trkpt>
      <trkpt lat="43.00382" lon="0.76628">
        <ele>464.496</ele>
        <time>2021-07-21T09:08:14Z</time>
      </trkpt>
      <trkpt lat="43.00377" lon="0.76626">
        <ele>463.921</ele>
        <time>2021-07-21T09:08:13Z</time>
      </trkpt>
      <trkpt lat="43.0037" lon="0.76624">
        <ele>463.397</ele>
        <time>2021-07-21T09:08:11Z</time>
      </trkpt>
      <trkpt lat="43.00362" lon="0.76625">
        <ele>462.949</ele>
        <time>2021-07-21T09:08:09Z</time>
      </trkpt>
      <trkpt lat="43.00354" lon="0.76624">
        <ele>462.775</ele>
        <time>2021-07-21T09:08:07Z</time>
      </trkpt>
      <trkpt lat="43.00349" lon="0.76618">
        <ele>462.494</ele>
        <time>2021-07-21T09:08:05Z</time>
      </trkpt>
      <trkpt lat="43.00349" lon="0.76611">
        <ele>461.975</ele>
        <time>2021-07-21T09:08:03Z</time>
      </trkpt>
      <trkpt lat="43.00353" lon="0.76603">
        <ele>462.024</ele>
        <time>2021-07-21T09:08:01Z</time>
      </trkpt>
      <trkpt lat="43.00357" lon="0.76592">
        <ele>462.508</ele>
        <time>2021-07-21T09:07:59Z</time>
      </trkpt>
      <trkpt lat="43.00361" lon="0.76581">
        <ele>463.227</ele>
        <time>2021-07-21T09:07:57Z</time>
      </trkpt>
      <trkpt lat="43.00365" lon="0.7657">
        <ele>464.061</ele>
        <time>2021-07-21T09:07:55Z</time>
      </trkpt>
      <trkpt lat="43.00369" lon="0.76559">
        <ele>464.977</ele>
        <time>2021-07-21T09:07:53Z</time>
      </trkpt>
      <trkpt lat="43.00375" lon="0.76549">
        <ele>466.024</ele>
        <time>2021-07-21T09:07:51Z</time>
      </trkpt>
      <trkpt lat="43.0038" lon="0.76539">
        <ele>467.169</ele>
        <time>2021-07-21T09:07:49Z</time>
      </trkpt>
      <trkpt lat="43.00385" lon="0.7653">
        <ele>468.275</ele>
        <time>2021-07-21T09:07:47Z</time>
      </trkpt>
      <trkpt lat="43.00391" lon="0.76522">
        <ele>469.557</ele>
        <time>2021-07-21T09:07:45Z</time>
      </trkpt>
      <trkpt lat="43.00394" lon="0.76517">
        <ele>470.323</ele>
        <time>2021-07-21T09:07:44Z</time>
      </trkpt>
      <trkpt lat="43.00398" lon="0.76509">
        <ele>470.772</ele>
        <time>2021-07-21T09:07:42Z</time>
      </trkpt>
      <trkpt lat="43.00402" lon="0.76503">
        <ele>470.493</ele>
        <time>2021-07-21T09:07:40Z</time>
      </trkpt>
      <trkpt lat="43.00406" lon="0.76497">
        <ele>469.992</ele>
        <time>2021-07-21T09:07:38Z</time>
      </trkpt>
      <trkpt lat="43.00407" lon="0.76491">
        <ele>468.908</ele>
        <time>2021-07-21T09:07:36Z</time>
      </trkpt>
      <trkpt lat="43.00407" lon="0.76482">
        <ele>467.814</ele>
        <time>2021-07-21T09:07:33Z</time>
      </trkpt>
      <trkpt lat="43.00408" lon="0.76473">
        <ele>467.159</ele>
        <time>2021-07-21T09:07:30Z</time>
      </trkpt>
      <trkpt lat="43.0041" lon="0.76467">
        <ele>466.856</ele>
        <time>2021-07-21T09:07:28Z</time>
      </trkpt>
      <trkpt lat="43.00414" lon="0.76462">
        <ele>466.78</ele>
        <time>2021-07-21T09:07:26Z</time>
      </trkpt>
      <trkpt lat="43.00418" lon="0.76458">
        <ele>466.955</ele>
        <time>2021-07-21T09:07:24Z</time>
      </trkpt>
      <trkpt lat="43.00421" lon="0.76452">
        <ele>467.221</ele>
        <time>2021-07-21T09:07:22Z</time>
      </trkpt>
      <trkpt lat="43.00425" lon="0.76447">
        <ele>467.563</ele>
        <time>2021-07-21T09:07:20Z</time>
      </trkpt>
      <trkpt lat="43.00429" lon="0.76443">
        <ele>467.759</ele>
        <time>2021-07-21T09:07:18Z</time>
      </trkpt>
      <trkpt lat="43.00432" lon="0.76438">
        <ele>467.448</ele>
        <time>2021-07-21T09:07:16Z</time>
      </trkpt>
      <trkpt lat="43.00436" lon="0.76433">
        <ele>466.859</ele>
        <time>2021-07-21T09:07:14Z</time>
      </trkpt>
      <trkpt lat="43.0044" lon="0.76429">
        <ele>465.968</ele>
        <time>2021-07-21T09:07:12Z</time>
      </trkpt>
      <trkpt lat="43.00443" lon="0.76424">
        <ele>464.708</ele>
        <time>2021-07-21T09:07:10Z</time>
      </trkpt>
      <trkpt lat="43.00448" lon="0.7642">
        <ele>464.213</ele>
        <time>2021-07-21T09:07:08Z</time>
      </trkpt>
      <trkpt lat="43.00451" lon="0.76415">
        <ele>463.676</ele>
        <time>2021-07-21T09:07:06Z</time>
      </trkpt>
      <trkpt lat="43.00454" lon="0.76409">
        <ele>463.016</ele>
        <time>2021-07-21T09:07:04Z</time>
      </trkpt>
      <trkpt lat="43.00457" lon="0.76404">
        <ele>462.064</ele>
        <time>2021-07-21T09:07:02Z</time>
      </trkpt>
      <trkpt lat="43.00461" lon="0.76399">
        <ele>460.929</ele>
        <time>2021-07-21T09:07:00Z</time>
      </trkpt>
      <trkpt lat="43.00464" lon="0.76394">
        <ele>459.355</ele>
        <time>2021-07-21T09:06:58Z</time>
      </trkpt>
      <trkpt lat="43.00468" lon="0.7639">
        <ele>457.847</ele>
        <time>2021-07-21T09:06:56Z</time>
      </trkpt>
      <trkpt lat="43.00472" lon="0.76385">
        <ele>456.593</ele>
        <time>2021-07-21T09:06:54Z</time>
      </trkpt>
      <trkpt lat="43.00476" lon="0.76381">
        <ele>455.412</ele>
        <time>2021-07-21T09:06:52Z</time>
      </trkpt>
      <trkpt lat="43.00481" lon="0.76376">
        <ele>454.973</ele>
        <time>2021-07-21T09:06:50Z</time>
      </trkpt>
      <trkpt lat="43.00485" lon="0.76372">
        <ele>454.582</ele>
        <time>2021-07-21T09:06:48Z</time>
      </trkpt>
      <trkpt lat="43.00489" lon="0.76367">
        <ele>454.208</ele>
        <time>2021-07-21T09:06:46Z</time>
      </trkpt>
      <trkpt lat="43.00494" lon="0.76363">
        <ele>453.917</ele>
        <time>2021-07-21T09:06:44Z</time>
      </trkpt>
      <trkpt lat="43.00499" lon="0.76358">
        <ele>454.007</ele>
        <time>2021-07-21T09:06:42Z</time>
      </trkpt>
      <trkpt lat="43.00506" lon="0.76352">
        <ele>454.355</ele>
        <time>2021-07-21T09:06:40Z</time>
      </trkpt>
      <trkpt lat="43.00512" lon="0.76345">
        <ele>454.47</ele>
        <time>2021-07-21T09:06:38Z</time>
      </trkpt>
      <trkpt lat="43.00518" lon="0.76337">
        <ele>454.575</ele>
        <time>2021-07-21T09:06:36Z</time>
      </trkpt>
      <trkpt lat="43.00523" lon="0.76328">
        <ele>454.391</ele>
        <time>2021-07-21T09:06:34Z</time>
      </trkpt>
      <trkpt lat="43.00526" lon="0.76319">
        <ele>454.163</ele>
        <time>2021-07-21T09:06:32Z</time>
      </trkpt>
      <trkpt lat="43.0053" lon="0.7631">
        <ele>453.699</ele>
        <time>2021-07-21T09:06:30Z</time>
      </trkpt>
      <trkpt lat="43.00532" lon="0.76301">
        <ele>453.258</ele>
        <time>2021-07-21T09:06:28Z</time>
      </trkpt>
      <trkpt lat="43.00534" lon="0.76293">
        <ele>453.049</ele>
        <time>2021-07-21T09:06:26Z</time>
      </trkpt>
      <trkpt lat="43.00536" lon="0.76284">
        <ele>452.848</ele>
        <time>2021-07-21T09:06:24Z</time>
      </trkpt>
      <trkpt lat="43.00543" lon="0.76281">
        <ele>452.908</ele>
        <time>2021-07-21T09:06:22Z</time>
      </trkpt>
      <trkpt lat="43.00549" lon="0.7628">
        <ele>452.919</ele>
        <time>2021-07-21T09:06:20Z</time>
      </trkpt>
      <trkpt lat="43.00556" lon="0.7628">
        <ele>452.909</ele>
        <time>2021-07-21T09:06:18Z</time>
      </trkpt>
      <trkpt lat="43.00562" lon="0.76279">
        <ele>452.819</ele>
        <time>2021-07-21T09:06:16Z</time>
      </trkpt>
      <trkpt lat="43.00568" lon="0.76278">
        <ele>452.675</ele>
        <time>2021-07-21T09:06:14Z</time>
      </trkpt>
      <trkpt lat="43.00574" lon="0.76278">
        <ele>452.68</ele>
        <time>2021-07-21T09:06:12Z</time>
      </trkpt>
      <trkpt lat="43.00579" lon="0.76277">
        <ele>452.616</ele>
        <time>2021-07-21T09:06:10Z</time>
      </trkpt>
      <trkpt lat="43.00585" lon="0.76276">
        <ele>452.548</ele>
        <time>2021-07-21T09:06:07Z</time>
      </trkpt>
      <trkpt lat="43.00589" lon="0.76275">
        <ele>452.374</ele>
        <time>2021-07-21T09:06:05Z</time>
      </trkpt>
      <trkpt lat="43.00595" lon="0.76273">
        <ele>452.293</ele>
        <time>2021-07-21T09:06:03Z</time>
      </trkpt>
      <trkpt lat="43.006" lon="0.7627">
        <ele>452.114</ele>
        <time>2021-07-21T09:06:01Z</time>
      </trkpt>
      <trkpt lat="43.00605" lon="0.76266">
        <ele>451.963</ele>
        <time>2021-07-21T09:05:59Z</time>
      </trkpt>
      <trkpt lat="43.0061" lon="0.76261">
        <ele>451.208</ele>
        <time>2021-07-21T09:05:57Z</time>
      </trkpt>
      <trkpt lat="43.00614" lon="0.76255">
        <ele>450.424</ele>
        <time>2021-07-21T09:05:55Z</time>
      </trkpt>
      <trkpt lat="43.00619" lon="0.76249">
        <ele>449.404</ele>
        <time>2021-07-21T09:05:53Z</time>
      </trkpt>
      <trkpt lat="43.00622" lon="0.76244">
        <ele>448.169</ele>
        <time>2021-07-21T09:05:51Z</time>
      </trkpt>
      <trkpt lat="43.00627" lon="0.76238">
        <ele>446.984</ele>
        <time>2021-07-21T09:05:49Z</time>
      </trkpt>
      <trkpt lat="43.0063" lon="0.76232">
        <ele>445.819</ele>
        <time>2021-07-21T09:05:47Z</time>
      </trkpt>
      <trkpt lat="43.00634" lon="0.76226">
        <ele>445.095</ele>
        <time>2021-07-21T09:05:45Z</time>
      </trkpt>
      <trkpt lat="43.00637" lon="0.76219">
        <ele>444.677</ele>
        <time>2021-07-21T09:05:43Z</time>
      </trkpt>
      <trkpt lat="43.00641" lon="0.76211">
        <ele>444.323</ele>
        <time>2021-07-21T09:05:41Z</time>
      </trkpt>
      <trkpt lat="43.00644" lon="0.76203">
        <ele>444.292</ele>
        <time>2021-07-21T09:05:39Z</time>
      </trkpt>
      <trkpt lat="43.00648" lon="0.76194">
        <ele>444.213</ele>
        <time>2021-07-21T09:05:37Z</time>
      </trkpt>
      <trkpt lat="43.00653" lon="0.76186">
        <ele>444.282</ele>
        <time>2021-07-21T09:05:35Z</time>
      </trkpt>
      <trkpt lat="43.00657" lon="0.76177">
        <ele>444.108</ele>
        <time>2021-07-21T09:05:33Z</time>
      </trkpt>
      <trkpt lat="43.00661" lon="0.76168">
        <ele>444.117</ele>
        <time>2021-07-21T09:05:31Z</time>
      </trkpt>
      <trkpt lat="43.00664" lon="0.76159">
        <ele>444.107</ele>
        <time>2021-07-21T09:05:29Z</time>
      </trkpt>
      <trkpt lat="43.00667" lon="0.76149">
        <ele>444.155</ele>
        <time>2021-07-21T09:05:27Z</time>
      </trkpt>
      <trkpt lat="43.00669" lon="0.76139">
        <ele>444.14</ele>
        <time>2021-07-21T09:05:25Z</time>
      </trkpt>
      <trkpt lat="43.00671" lon="0.76129">
        <ele>444.075</ele>
        <time>2021-07-21T09:05:23Z</time>
      </trkpt>
      <trkpt lat="43.00673" lon="0.7612">
        <ele>443.941</ele>
        <time>2021-07-21T09:05:21Z</time>
      </trkpt>
      <trkpt lat="43.00675" lon="0.76111">
        <ele>443.823</ele>
        <time>2021-07-21T09:05:19Z</time>
      </trkpt>
      <trkpt lat="43.00676" lon="0.76101">
        <ele>443.759</ele>
        <time>2021-07-21T09:05:17Z</time>
      </trkpt>
      <trkpt lat="43.00678" lon="0.76092">
        <ele>443.678</ele>
        <time>2021-07-21T09:05:15Z</time>
      </trkpt>
      <trkpt lat="43.0068" lon="0.76082">
        <ele>443.429</ele>
        <time>2021-07-21T09:05:13Z</time>
      </trkpt>
      <trkpt lat="43.00682" lon="0.76072">
        <ele>443.348</ele>
        <time>2021-07-21T09:05:11Z</time>
      </trkpt>
      <trkpt lat="43.00683" lon="0.76061">
        <ele>443.208</ele>
        <time>2021-07-21T09:05:09Z</time>
      </trkpt>
      <trkpt lat="43.00685" lon="0.76051">
        <ele>443.103</ele>
        <time>2021-07-21T09:05:07Z</time>
      </trkpt>
      <trkpt lat="43.00686" lon="0.7604">
        <ele>443.121</ele>
        <time>2021-07-21T09:05:05Z</time>
      </trkpt>
      <trkpt lat="43.00688" lon="0.7603">
        <ele>443.011</ele>
        <time>2021-07-21T09:05:03Z</time>
      </trkpt>
      <trkpt lat="43.0069" lon="0.76019">
        <ele>443.081</ele>
        <time>2021-07-21T09:05:01Z</time>
      </trkpt>
      <trkpt lat="43.00692" lon="0.76009">
        <ele>443.086</ele>
        <time>2021-07-21T09:04:59Z</time>
      </trkpt>
      <trkpt lat="43.00695" lon="0.76">
        <ele>443.122</ele>
        <time>2021-07-21T09:04:57Z</time>
      </trkpt>
      <trkpt lat="43.00698" lon="0.75991">
        <ele>443.164</ele>
        <time>2021-07-21T09:04:55Z</time>
      </trkpt>
      <trkpt lat="43.00702" lon="0.75983">
        <ele>443.16</ele>
        <time>2021-07-21T09:04:53Z</time>
      </trkpt>
      <trkpt lat="43.00706" lon="0.75974">
        <ele>443.159</ele>
        <time>2021-07-21T09:04:51Z</time>
      </trkpt>
      <trkpt lat="43.00711" lon="0.75965">
        <ele>443.13</ele>
        <time>2021-07-21T09:04:49Z</time>
      </trkpt>
      <trkpt lat="43.00716" lon="0.75957">
        <ele>443.079</ele>
        <time>2021-07-21T09:04:47Z</time>
      </trkpt>
      <trkpt lat="43.00721" lon="0.75949">
        <ele>442.908</ele>
        <time>2021-07-21T09:04:45Z</time>
      </trkpt>
      <trkpt lat="43.00725" lon="0.75941">
        <ele>442.908</ele>
        <time>2021-07-21T09:04:43Z</time>
      </trkpt>
      <trkpt lat="43.0073" lon="0.75933">
        <ele>443.062</ele>
        <time>2021-07-21T09:04:41Z</time>
      </trkpt>
      <trkpt lat="43.00734" lon="0.75927">
        <ele>443.122</ele>
        <time>2021-07-21T09:04:39Z</time>
      </trkpt>
      <trkpt lat="43.00739" lon="0.7592">
        <ele>443.212</ele>
        <time>2021-07-21T09:04:37Z</time>
      </trkpt>
      <trkpt lat="43.00743" lon="0.75914">
        <ele>443.437</ele>
        <time>2021-07-21T09:04:35Z</time>
      </trkpt>
      <trkpt lat="43.00748" lon="0.75908">
        <ele>443.553</ele>
        <time>2021-07-21T09:04:33Z</time>
      </trkpt>
      <trkpt lat="43.00752" lon="0.75903">
        <ele>443.495</ele>
        <time>2021-07-21T09:04:31Z</time>
      </trkpt>
      <trkpt lat="43.00757" lon="0.75898">
        <ele>443.251</ele>
        <time>2021-07-21T09:04:29Z</time>
      </trkpt>
      <trkpt lat="43.00761" lon="0.75892">
        <ele>442.99</ele>
        <time>2021-07-21T09:04:27Z</time>
      </trkpt>
      <trkpt lat="43.00765" lon="0.75887">
        <ele>442.571</ele>
        <time>2021-07-21T09:04:25Z</time>
      </trkpt>
      <trkpt lat="43.0077" lon="0.75881">
        <ele>442.29</ele>
        <time>2021-07-21T09:04:23Z</time>
      </trkpt>
      <trkpt lat="43.00774" lon="0.75875">
        <ele>441.908</ele>
        <time>2021-07-21T09:04:21Z</time>
      </trkpt>
      <trkpt lat="43.00778" lon="0.7587">
        <ele>441.607</ele>
        <time>2021-07-21T09:04:19Z</time>
      </trkpt>
      <trkpt lat="43.00783" lon="0.75864">
        <ele>441.361</ele>
        <time>2021-07-21T09:04:17Z</time>
      </trkpt>
      <trkpt lat="43.00787" lon="0.75858">
        <ele>441.031</ele>
        <time>2021-07-21T09:04:15Z</time>
      </trkpt>
      <trkpt lat="43.00791" lon="0.75852">
        <ele>440.727</ele>
        <time>2021-07-21T09:04:13Z</time>
      </trkpt>
      <trkpt lat="43.00795" lon="0.75847">
        <ele>440.562</ele>
        <time>2021-07-21T09:04:11Z</time>
      </trkpt>
      <trkpt lat="43.008" lon="0.75841">
        <ele>440.448</ele>
        <time>2021-07-21T09:04:09Z</time>
      </trkpt>
      <trkpt lat="43.00804" lon="0.75835">
        <ele>440.43</ele>
        <time>2021-07-21T09:04:07Z</time>
      </trkpt>
      <trkpt lat="43.00809" lon="0.75829">
        <ele>440.436</ele>
        <time>2021-07-21T09:04:05Z</time>
      </trkpt>
      <trkpt lat="43.00812" lon="0.75823">
        <ele>440.395</ele>
        <time>2021-07-21T09:04:03Z</time>
      </trkpt>
      <trkpt lat="43.00816" lon="0.75816">
        <ele>440.096</ele>
        <time>2021-07-21T09:04:01Z</time>
      </trkpt>
      <trkpt lat="43.0082" lon="0.7581">
        <ele>439.595</ele>
        <time>2021-07-21T09:03:59Z</time>
      </trkpt>
      <trkpt lat="43.00824" lon="0.75803">
        <ele>438.908</ele>
        <time>2021-07-21T09:03:57Z</time>
      </trkpt>
      <trkpt lat="43.00829" lon="0.75797">
        <ele>438.426</ele>
        <time>2021-07-21T09:03:55Z</time>
      </trkpt>
      <trkpt lat="43.00833" lon="0.75791">
        <ele>438.06</ele>
        <time>2021-07-21T09:03:53Z</time>
      </trkpt>
      <trkpt lat="43.00838" lon="0.75785">
        <ele>437.686</ele>
        <time>2021-07-21T09:03:51Z</time>
      </trkpt>
      <trkpt lat="43.00842" lon="0.7578">
        <ele>437.285</ele>
        <time>2021-07-21T09:03:49Z</time>
      </trkpt>
      <trkpt lat="43.00848" lon="0.75775">
        <ele>436.71</ele>
        <time>2021-07-21T09:03:47Z</time>
      </trkpt>
      <trkpt lat="43.00853" lon="0.7577">
        <ele>436.326</ele>
        <time>2021-07-21T09:03:45Z</time>
      </trkpt>
      <trkpt lat="43.00858" lon="0.75767">
        <ele>436.158</ele>
        <time>2021-07-21T09:03:43Z</time>
      </trkpt>
      <trkpt lat="43.00864" lon="0.75762">
        <ele>435.844</ele>
        <time>2021-07-21T09:03:41Z</time>
      </trkpt>
      <trkpt lat="43.00869" lon="0.75758">
        <ele>435.453</ele>
        <time>2021-07-21T09:03:39Z</time>
      </trkpt>
      <trkpt lat="43.00873" lon="0.75752">
        <ele>435.034</ele>
        <time>2021-07-21T09:03:37Z</time>
      </trkpt>
      <trkpt lat="43.00878" lon="0.75746">
        <ele>434.723</ele>
        <time>2021-07-21T09:03:35Z</time>
      </trkpt>
      <trkpt lat="43.00881" lon="0.7574">
        <ele>434.508</ele>
        <time>2021-07-21T09:03:33Z</time>
      </trkpt>
      <trkpt lat="43.00885" lon="0.75733">
        <ele>434.319</ele>
        <time>2021-07-21T09:03:31Z</time>
      </trkpt>
      <trkpt lat="43.00889" lon="0.75727">
        <ele>434.181</ele>
        <time>2021-07-21T09:03:29Z</time>
      </trkpt>
      <trkpt lat="43.00892" lon="0.7572">
        <ele>434.067</ele>
        <time>2021-07-21T09:03:27Z</time>
      </trkpt>
      <trkpt lat="43.00896" lon="0.75714">
        <ele>434.17</ele>
        <time>2021-07-21T09:03:25Z</time>
      </trkpt>
      <trkpt lat="43.009" lon="0.75709">
        <ele>434.415</ele>
        <time>2021-07-21T09:03:23Z</time>
      </trkpt>
      <trkpt lat="43.00905" lon="0.75705">
        <ele>434.681</ele>
        <time>2021-07-21T09:03:21Z</time>
      </trkpt>
      <trkpt lat="43.00912" lon="0.75704">
        <ele>434.623</ele>
        <time>2021-07-21T09:03:19Z</time>
      </trkpt>
      <trkpt lat="43.00918" lon="0.75706">
        <ele>434.729</ele>
        <time>2021-07-21T09:03:17Z</time>
      </trkpt>
      <trkpt lat="43.00924" lon="0.75709">
        <ele>435.088</ele>
        <time>2021-07-21T09:03:15Z</time>
      </trkpt>
      <trkpt lat="43.0093" lon="0.75712">
        <ele>435.379</ele>
        <time>2021-07-21T09:03:13Z</time>
      </trkpt>
      <trkpt lat="43.00935" lon="0.75715">
        <ele>435.548</ele>
        <time>2021-07-21T09:03:11Z</time>
      </trkpt>
      <trkpt lat="43.0094" lon="0.75718">
        <ele>435.308</ele>
        <time>2021-07-21T09:03:09Z</time>
      </trkpt>
      <trkpt lat="43.00945" lon="0.75721">
        <ele>435.017</ele>
        <time>2021-07-21T09:03:07Z</time>
      </trkpt>
      <trkpt lat="43.00951" lon="0.75722">
        <ele>434.498</ele>
        <time>2021-07-21T09:03:05Z</time>
      </trkpt>
      <trkpt lat="43.00957" lon="0.75721">
        <ele>433.718</ele>
        <time>2021-07-21T09:03:03Z</time>
      </trkpt>
      <trkpt lat="43.00962" lon="0.75717">
        <ele>432.963</ele>
        <time>2021-07-21T09:03:01Z</time>
      </trkpt>
      <trkpt lat="43.00965" lon="0.75713">
        <ele>431.728</ele>
        <time>2021-07-21T09:02:59Z</time>
      </trkpt>
      <trkpt lat="43.00968" lon="0.75707">
        <ele>430.784</ele>
        <time>2021-07-21T09:02:57Z</time>
      </trkpt>
      <trkpt lat="43.0097" lon="0.757">
        <ele>429.456</ele>
        <time>2021-07-21T09:02:55Z</time>
      </trkpt>
      <trkpt lat="43.00971" lon="0.75694">
        <ele>428.442</ele>
        <time>2021-07-21T09:02:53Z</time>
      </trkpt>
      <trkpt lat="43.00973" lon="0.75688">
        <ele>427.711</ele>
        <time>2021-07-21T09:02:51Z</time>
      </trkpt>
      <trkpt lat="43.00976" lon="0.75681">
        <ele>427.182</ele>
        <time>2021-07-21T09:02:49Z</time>
      </trkpt>
      <trkpt lat="43.00978" lon="0.75674">
        <ele>426.631</ele>
        <time>2021-07-21T09:02:47Z</time>
      </trkpt>
      <trkpt lat="43.00981" lon="0.75667">
        <ele>426.108</ele>
        <time>2021-07-21T09:02:45Z</time>
      </trkpt>
      <trkpt lat="43.00983" lon="0.7566">
        <ele>425.611</ele>
        <time>2021-07-21T09:02:43Z</time>
      </trkpt>
      <trkpt lat="43.00985" lon="0.75653">
        <ele>425.047</ele>
        <time>2021-07-21T09:02:41Z</time>
      </trkpt>
      <trkpt lat="43.00986" lon="0.75646">
        <ele>424.645</ele>
        <time>2021-07-21T09:02:39Z</time>
      </trkpt>
      <trkpt lat="43.00988" lon="0.75638">
        <ele>424.181</ele>
        <time>2021-07-21T09:02:37Z</time>
      </trkpt>
      <trkpt lat="43.00989" lon="0.7563">
        <ele>423.656</ele>
        <time>2021-07-21T09:02:35Z</time>
      </trkpt>
      <trkpt lat="43.00991" lon="0.75622">
        <ele>423.162</ele>
        <time>2021-07-21T09:02:33Z</time>
      </trkpt>
      <trkpt lat="43.00993" lon="0.75615">
        <ele>422.674</ele>
        <time>2021-07-21T09:02:31Z</time>
      </trkpt>
      <trkpt lat="43.00995" lon="0.75609">
        <ele>422.28</ele>
        <time>2021-07-21T09:02:29Z</time>
      </trkpt>
      <trkpt lat="43.00996" lon="0.75602">
        <ele>422.199</ele>
        <time>2021-07-21T09:02:27Z</time>
      </trkpt>
      <trkpt lat="43.00998" lon="0.75594">
        <ele>422.13</ele>
        <time>2021-07-21T09:02:25Z</time>
      </trkpt>
      <trkpt lat="43.01001" lon="0.75585">
        <ele>422.039</ele>
        <time>2021-07-21T09:02:23Z</time>
      </trkpt>
      <trkpt lat="43.01003" lon="0.75575">
        <ele>421.908</ele>
        <time>2021-07-21T09:02:21Z</time>
      </trkpt>
      <trkpt lat="43.01006" lon="0.75567">
        <ele>421.82</ele>
        <time>2021-07-21T09:02:19Z</time>
      </trkpt>
      <trkpt lat="43.0101" lon="0.75559">
        <ele>421.5</ele>
        <time>2021-07-21T09:02:17Z</time>
      </trkpt>
      <trkpt lat="43.01014" lon="0.75552">
        <ele>421.229</ele>
        <time>2021-07-21T09:02:15Z</time>
      </trkpt>
      <trkpt lat="43.0102" lon="0.75546">
        <ele>420.926</ele>
        <time>2021-07-21T09:02:13Z</time>
      </trkpt>
      <trkpt lat="43.01025" lon="0.75542">
        <ele>420.861</ele>
        <time>2021-07-21T09:02:11Z</time>
      </trkpt>
      <trkpt lat="43.01031" lon="0.7554">
        <ele>420.727</ele>
        <time>2021-07-21T09:02:09Z</time>
      </trkpt>
      <trkpt lat="43.01038" lon="0.75539">
        <ele>420.589</ele>
        <time>2021-07-21T09:02:07Z</time>
      </trkpt>
      <trkpt lat="43.01045" lon="0.75536">
        <ele>420.315</ele>
        <time>2021-07-21T09:02:05Z</time>
      </trkpt>
      <trkpt lat="43.01052" lon="0.75535">
        <ele>420.444</ele>
        <time>2021-07-21T09:02:03Z</time>
      </trkpt>
      <trkpt lat="43.0106" lon="0.75537">
        <ele>420.535</ele>
        <time>2021-07-21T09:02:01Z</time>
      </trkpt>
      <trkpt lat="43.01066" lon="0.75541">
        <ele>420.544</ele>
        <time>2021-07-21T09:01:59Z</time>
      </trkpt>
      <trkpt lat="43.01073" lon="0.75546">
        <ele>420.408</ele>
        <time>2021-07-21T09:01:57Z</time>
      </trkpt>
      <trkpt lat="43.0108" lon="0.75551">
        <ele>420.425</ele>
        <time>2021-07-21T09:01:55Z</time>
      </trkpt>
      <trkpt lat="43.01086" lon="0.75556">
        <ele>420.605</ele>
        <time>2021-07-21T09:01:53Z</time>
      </trkpt>
      <trkpt lat="43.01093" lon="0.75561">
        <ele>420.679</ele>
        <time>2021-07-21T09:01:51Z</time>
      </trkpt>
      <trkpt lat="43.011" lon="0.75565">
        <ele>420.263</ele>
        <time>2021-07-21T09:01:49Z</time>
      </trkpt>
      <trkpt lat="43.01108" lon="0.75569">
        <ele>419.788</ele>
        <time>2021-07-21T09:01:47Z</time>
      </trkpt>
      <trkpt lat="43.01116" lon="0.75572">
        <ele>419.594</ele>
        <time>2021-07-21T09:01:45Z</time>
      </trkpt>
      <trkpt lat="43.01123" lon="0.75575">
        <ele>419.656</ele>
        <time>2021-07-21T09:01:43Z</time>
      </trkpt>
      <trkpt lat="43.01131" lon="0.75577">
        <ele>419.552</ele>
        <time>2021-07-21T09:01:41Z</time>
      </trkpt>
      <trkpt lat="43.01139" lon="0.75579">
        <ele>419.551</ele>
        <time>2021-07-21T09:01:39Z</time>
      </trkpt>
      <trkpt lat="43.01146" lon="0.7558">
        <ele>419.622</ele>
        <time>2021-07-21T09:01:37Z</time>
      </trkpt>
      <trkpt lat="43.01154" lon="0.75578">
        <ele>419.671</ele>
        <time>2021-07-21T09:01:35Z</time>
      </trkpt>
      <trkpt lat="43.01161" lon="0.75575">
        <ele>419.608</ele>
        <time>2021-07-21T09:01:33Z</time>
      </trkpt>
      <trkpt lat="43.01169" lon="0.75573">
        <ele>419.617</ele>
        <time>2021-07-21T09:01:31Z</time>
      </trkpt>
      <trkpt lat="43.01175" lon="0.75569">
        <ele>419.661</ele>
        <time>2021-07-21T09:01:29Z</time>
      </trkpt>
      <trkpt lat="43.01182" lon="0.75564">
        <ele>419.748</ele>
        <time>2021-07-21T09:01:27Z</time>
      </trkpt>
      <trkpt lat="43.01188" lon="0.75558">
        <ele>419.811</ele>
        <time>2021-07-21T09:01:25Z</time>
      </trkpt>
      <trkpt lat="43.01193" lon="0.75551">
        <ele>419.626</ele>
        <time>2021-07-21T09:01:23Z</time>
      </trkpt>
      <trkpt lat="43.01198" lon="0.75543">
        <ele>419.132</ele>
        <time>2021-07-21T09:01:21Z</time>
      </trkpt>
      <trkpt lat="43.01203" lon="0.75535">
        <ele>418.484</ele>
        <time>2021-07-21T09:01:19Z</time>
      </trkpt>
      <trkpt lat="43.01208" lon="0.75528">
        <ele>418.06</ele>
        <time>2021-07-21T09:01:17Z</time>
      </trkpt>
      <trkpt lat="43.01213" lon="0.7552">
        <ele>417.799</ele>
        <time>2021-07-21T09:01:15Z</time>
      </trkpt>
      <trkpt lat="43.01218" lon="0.75512">
        <ele>417.35</ele>
        <time>2021-07-21T09:01:13Z</time>
      </trkpt>
      <trkpt lat="43.01224" lon="0.75504">
        <ele>417.079</ele>
        <time>2021-07-21T09:01:11Z</time>
      </trkpt>
      <trkpt lat="43.01229" lon="0.75496">
        <ele>417.008</ele>
        <time>2021-07-21T09:01:09Z</time>
      </trkpt>
      <trkpt lat="43.01235" lon="0.75489">
        <ele>417.111</ele>
        <time>2021-07-21T09:01:07Z</time>
      </trkpt>
      <trkpt lat="43.01242" lon="0.75484">
        <ele>417.083</ele>
        <time>2021-07-21T09:01:05Z</time>
      </trkpt>
      <trkpt lat="43.01249" lon="0.7548">
        <ele>416.923</ele>
        <time>2021-07-21T09:01:03Z</time>
      </trkpt>
      <trkpt lat="43.01257" lon="0.75476">
        <ele>416.625</ele>
        <time>2021-07-21T09:01:01Z</time>
      </trkpt>
      <trkpt lat="43.01264" lon="0.75474">
        <ele>416.11</ele>
        <time>2021-07-21T09:00:59Z</time>
      </trkpt>
      <trkpt lat="43.01272" lon="0.75471">
        <ele>416.076</ele>
        <time>2021-07-21T09:00:57Z</time>
      </trkpt>
      <trkpt lat="43.01281" lon="0.7547">
        <ele>416.128</ele>
        <time>2021-07-21T09:00:55Z</time>
      </trkpt>
      <trkpt lat="43.01289" lon="0.75469">
        <ele>416.144</ele>
        <time>2021-07-21T09:00:53Z</time>
      </trkpt>
      <trkpt lat="43.01294" lon="0.75469">
        <ele>416.233</ele>
        <time>2021-07-21T09:00:52Z</time>
      </trkpt>
      <trkpt lat="43.01303" lon="0.7547">
        <ele>416.384</ele>
        <time>2021-07-21T09:00:50Z</time>
      </trkpt>
      <trkpt lat="43.01311" lon="0.75471">
        <ele>416.333</ele>
        <time>2021-07-21T09:00:48Z</time>
      </trkpt>
      <trkpt lat="43.01319" lon="0.75473">
        <ele>416.508</ele>
        <time>2021-07-21T09:00:46Z</time>
      </trkpt>
      <trkpt lat="43.01327" lon="0.75475">
        <ele>416.626</ele>
        <time>2021-07-21T09:00:44Z</time>
      </trkpt>
      <trkpt lat="43.01335" lon="0.75478">
        <ele>416.642</ele>
        <time>2021-07-21T09:00:42Z</time>
      </trkpt>
      <trkpt lat="43.01341" lon="0.75481">
        <ele>416.468</ele>
        <time>2021-07-21T09:00:40Z</time>
      </trkpt>
      <trkpt lat="43.01347" lon="0.75478">
        <ele>416.253</ele>
        <time>2021-07-21T09:00:37Z</time>
      </trkpt>
      <trkpt lat="43.01348" lon="0.7547">
        <ele>416.218</ele>
        <time>2021-07-21T09:00:35Z</time>
      </trkpt>
      <trkpt lat="43.0135" lon="0.75461">
        <ele>416.324</ele>
        <time>2021-07-21T09:00:33Z</time>
      </trkpt>
      <trkpt lat="43.01352" lon="0.75449">
        <ele>416.446</ele>
        <time>2021-07-21T09:00:31Z</time>
      </trkpt>
      <trkpt lat="43.01355" lon="0.75437">
        <ele>416.792</ele>
        <time>2021-07-21T09:00:29Z</time>
      </trkpt>
      <trkpt lat="43.01356" lon="0.75424">
        <ele>417.151</ele>
        <time>2021-07-21T09:00:27Z</time>
      </trkpt>
      <trkpt lat="43.01355" lon="0.75418">
        <ele>417.832</ele>
        <time>2021-07-21T09:00:26Z</time>
      </trkpt>
      <trkpt lat="43.01351" lon="0.75412">
        <ele>418.611</ele>
        <time>2021-07-21T09:00:25Z</time>
      </trkpt>
      <trkpt lat="43.01341" lon="0.75405">
        <ele>419.608</ele>
        <time>2021-07-21T09:00:23Z</time>
      </trkpt>
      <trkpt lat="43.0133" lon="0.754">
        <ele>420.516</ele>
        <time>2021-07-21T09:00:21Z</time>
      </trkpt>
      <trkpt lat="43.01324" lon="0.75396">
        <ele>421.288</ele>
        <time>2021-07-21T09:00:20Z</time>
      </trkpt>
      <trkpt lat="43.01318" lon="0.75392">
        <ele>421.946</ele>
        <time>2021-07-21T09:00:19Z</time>
      </trkpt>
      <trkpt lat="43.01307" lon="0.75383">
        <ele>422.89</ele>
        <time>2021-07-21T09:00:17Z</time>
      </trkpt>
      <trkpt lat="43.01302" lon="0.75378">
        <ele>423.155</ele>
        <time>2021-07-21T09:00:16Z</time>
      </trkpt>
      <trkpt lat="43.01292" lon="0.75367">
        <ele>423.391</ele>
        <time>2021-07-21T09:00:14Z</time>
      </trkpt>
      <trkpt lat="43.01287" lon="0.75363">
        <ele>423.633</ele>
        <time>2021-07-21T09:00:13Z</time>
      </trkpt>
      <trkpt lat="43.01278" lon="0.75356">
        <ele>424.079</ele>
        <time>2021-07-21T09:00:11Z</time>
      </trkpt>
      <trkpt lat="43.01273" lon="0.75353">
        <ele>424.258</ele>
        <time>2021-07-21T09:00:10Z</time>
      </trkpt>
      <trkpt lat="43.01264" lon="0.75345">
        <ele>424.519</ele>
        <time>2021-07-21T09:00:08Z</time>
      </trkpt>
      <trkpt lat="43.0126" lon="0.7534">
        <ele>424.968</ele>
        <time>2021-07-21T09:00:07Z</time>
      </trkpt>
      <trkpt lat="43.01255" lon="0.75335">
        <ele>425.308</ele>
        <time>2021-07-21T09:00:06Z</time>
      </trkpt>
      <trkpt lat="43.01247" lon="0.75323">
        <ele>426.111</ele>
        <time>2021-07-21T09:00:04Z</time>
      </trkpt>
      <trkpt lat="43.01239" lon="0.75312">
        <ele>426.965</ele>
        <time>2021-07-21T09:00:02Z</time>
      </trkpt>
      <trkpt lat="43.01235" lon="0.75307">
        <ele>427.315</ele>
        <time>2021-07-21T09:00:01Z</time>
      </trkpt>
      <trkpt lat="43.01225" lon="0.75299">
        <ele>427.515</ele>
        <time>2021-07-21T08:59:59Z</time>
      </trkpt>
      <trkpt lat="43.01219" lon="0.75296">
        <ele>427.79</ele>
        <time>2021-07-21T08:59:58Z</time>
      </trkpt>
      <trkpt lat="43.01213" lon="0.75292">
        <ele>427.736</ele>
        <time>2021-07-21T08:59:57Z</time>
      </trkpt>
      <trkpt lat="43.01203" lon="0.75285">
        <ele>427.358</ele>
        <time>2021-07-21T08:59:55Z</time>
      </trkpt>
      <trkpt lat="43.01194" lon="0.75278">
        <ele>426.764</ele>
        <time>2021-07-21T08:59:53Z</time>
      </trkpt>
      <trkpt lat="43.01189" lon="0.75274">
        <ele>426.483</ele>
        <time>2021-07-21T08:59:52Z</time>
      </trkpt>
      <trkpt lat="43.01184" lon="0.7527">
        <ele>426.434</ele>
        <time>2021-07-21T08:59:51Z</time>
      </trkpt>
      <trkpt lat="43.01178" lon="0.75265">
        <ele>426.523</ele>
        <time>2021-07-21T08:59:50Z</time>
      </trkpt>
      <trkpt lat="43.01173" lon="0.7526">
        <ele>426.908</ele>
        <time>2021-07-21T08:59:49Z</time>
      </trkpt>
      <trkpt lat="43.01164" lon="0.75249">
        <ele>427.519</ele>
        <time>2021-07-21T08:59:47Z</time>
      </trkpt>
      <trkpt lat="43.01158" lon="0.75242">
        <ele>427.881</ele>
        <time>2021-07-21T08:59:46Z</time>
      </trkpt>
      <trkpt lat="43.0115" lon="0.75228">
        <ele>428.167</ele>
        <time>2021-07-21T08:59:44Z</time>
      </trkpt>
      <trkpt lat="43.01146" lon="0.75221">
        <ele>428.675</ele>
        <time>2021-07-21T08:59:43Z</time>
      </trkpt>
      <trkpt lat="43.0114" lon="0.75204">
        <ele>429.36</ele>
        <time>2021-07-21T08:59:41Z</time>
      </trkpt>
      <trkpt lat="43.01131" lon="0.75187">
        <ele>429.986</ele>
        <time>2021-07-21T08:59:39Z</time>
      </trkpt>
      <trkpt lat="43.01125" lon="0.7518">
        <ele>430.288</ele>
        <time>2021-07-21T08:59:38Z</time>
      </trkpt>
      <trkpt lat="43.01119" lon="0.75173">
        <ele>430.594</ele>
        <time>2021-07-21T08:59:37Z</time>
      </trkpt>
      <trkpt lat="43.01106" lon="0.75162">
        <ele>431.033</ele>
        <time>2021-07-21T08:59:35Z</time>
      </trkpt>
      <trkpt lat="43.01099" lon="0.75157">
        <ele>431.424</ele>
        <time>2021-07-21T08:59:34Z</time>
      </trkpt>
      <trkpt lat="43.01091" lon="0.75152">
        <ele>431.853</ele>
        <time>2021-07-21T08:59:33Z</time>
      </trkpt>
      <trkpt lat="43.01084" lon="0.75148">
        <ele>432.208</ele>
        <time>2021-07-21T08:59:32Z</time>
      </trkpt>
      <trkpt lat="43.0107" lon="0.75143">
        <ele>432.721</ele>
        <time>2021-07-21T08:59:30Z</time>
      </trkpt>
      <trkpt lat="43.01064" lon="0.75142">
        <ele>433.129</ele>
        <time>2021-07-21T08:59:29Z</time>
      </trkpt>
      <trkpt lat="43.0105" lon="0.7514">
        <ele>433.466</ele>
        <time>2021-07-21T08:59:27Z</time>
      </trkpt>
      <trkpt lat="43.01043" lon="0.75141">
        <ele>433.974</ele>
        <time>2021-07-21T08:59:26Z</time>
      </trkpt>
      <trkpt lat="43.01036" lon="0.75143">
        <ele>434.529</ele>
        <time>2021-07-21T08:59:25Z</time>
      </trkpt>
      <trkpt lat="43.01022" lon="0.75146">
        <ele>435.345</ele>
        <time>2021-07-21T08:59:23Z</time>
      </trkpt>
      <trkpt lat="43.01008" lon="0.75148">
        <ele>436.277</ele>
        <time>2021-07-21T08:59:21Z</time>
      </trkpt>
      <trkpt lat="43.00995" lon="0.75148">
        <ele>437.123</ele>
        <time>2021-07-21T08:59:19Z</time>
      </trkpt>
      <trkpt lat="43.00982" lon="0.75146">
        <ele>438.072</ele>
        <time>2021-07-21T08:59:17Z</time>
      </trkpt>
      <trkpt lat="43.00975" lon="0.75146">
        <ele>438.873</ele>
        <time>2021-07-21T08:59:16Z</time>
      </trkpt>
      <trkpt lat="43.00962" lon="0.75145">
        <ele>439.772</ele>
        <time>2021-07-21T08:59:14Z</time>
      </trkpt>
      <trkpt lat="43.00955" lon="0.75145">
        <ele>440.508</ele>
        <time>2021-07-21T08:59:13Z</time>
      </trkpt>
      <trkpt lat="43.00943" lon="0.75145">
        <ele>441.517</ele>
        <time>2021-07-21T08:59:11Z</time>
      </trkpt>
      <trkpt lat="43.00929" lon="0.75144">
        <ele>442.452</ele>
        <time>2021-07-21T08:59:09Z</time>
      </trkpt>
      <trkpt lat="43.00922" lon="0.75143">
        <ele>443.458</ele>
        <time>2021-07-21T08:59:08Z</time>
      </trkpt>
      <trkpt lat="43.00909" lon="0.7514">
        <ele>444.75</ele>
        <time>2021-07-21T08:59:06Z</time>
      </trkpt>
      <trkpt lat="43.00902" lon="0.75139">
        <ele>445.965</ele>
        <time>2021-07-21T08:59:05Z</time>
      </trkpt>
      <trkpt lat="43.00889" lon="0.75134">
        <ele>447.291</ele>
        <time>2021-07-21T08:59:03Z</time>
      </trkpt>
      <trkpt lat="43.00883" lon="0.75131">
        <ele>448.513</ele>
        <time>2021-07-21T08:59:02Z</time>
      </trkpt>
      <trkpt lat="43.00872" lon="0.75122">
        <ele>449.919</ele>
        <time>2021-07-21T08:59:00Z</time>
      </trkpt>
      <trkpt lat="43.00867" lon="0.75118">
        <ele>450.698</ele>
        <time>2021-07-21T08:58:59Z</time>
      </trkpt>
      <trkpt lat="43.00861" lon="0.75113">
        <ele>451.089</ele>
        <time>2021-07-21T08:58:58Z</time>
      </trkpt>
      <trkpt lat="43.0085" lon="0.75106">
        <ele>451.328</ele>
        <time>2021-07-21T08:58:56Z</time>
      </trkpt>
      <trkpt lat="43.00844" lon="0.75103">
        <ele>451.608</ele>
        <time>2021-07-21T08:58:55Z</time>
      </trkpt>
      <trkpt lat="43.00834" lon="0.75099">
        <ele>451.911</ele>
        <time>2021-07-21T08:58:53Z</time>
      </trkpt>
      <trkpt lat="43.00829" lon="0.75097">
        <ele>452.065</ele>
        <time>2021-07-21T08:58:52Z</time>
      </trkpt>
      <trkpt lat="43.00825" lon="0.75094">
        <ele>452.215</ele>
        <time>2021-07-21T08:58:51Z</time>
      </trkpt>
      <trkpt lat="43.00814" lon="0.75089">
        <ele>452.426</ele>
        <time>2021-07-21T08:58:49Z</time>
      </trkpt>
      <trkpt lat="43.00803" lon="0.75082">
        <ele>452.671</ele>
        <time>2021-07-21T08:58:47Z</time>
      </trkpt>
      <trkpt lat="43.00798" lon="0.75079">
        <ele>452.447</ele>
        <time>2021-07-21T08:58:46Z</time>
      </trkpt>
      <trkpt lat="43.00789" lon="0.75071">
        <ele>451.979</ele>
        <time>2021-07-21T08:58:44Z</time>
      </trkpt>
      <trkpt lat="43.00779" lon="0.75061">
        <ele>451.765</ele>
        <time>2021-07-21T08:58:42Z</time>
      </trkpt>
      <trkpt lat="43.00775" lon="0.75056">
        <ele>451.984</ele>
        <time>2021-07-21T08:58:41Z</time>
      </trkpt>
      <trkpt lat="43.0077" lon="0.75051">
        <ele>452.145</ele>
        <time>2021-07-21T08:58:40Z</time>
      </trkpt>
      <trkpt lat="43.00761" lon="0.75045">
        <ele>452.434</ele>
        <time>2021-07-21T08:58:38Z</time>
      </trkpt>
      <trkpt lat="43.00757" lon="0.75043">
        <ele>452.908</ele>
        <time>2021-07-21T08:58:37Z</time>
      </trkpt>
      <trkpt lat="43.00748" lon="0.75037">
        <ele>453.813</ele>
        <time>2021-07-21T08:58:35Z</time>
      </trkpt>
      <trkpt lat="43.00738" lon="0.75031">
        <ele>455.085</ele>
        <time>2021-07-21T08:58:33Z</time>
      </trkpt>
      <trkpt lat="43.00733" lon="0.75027">
        <ele>456.473</ele>
        <time>2021-07-21T08:58:32Z</time>
      </trkpt>
      <trkpt lat="43.00722" lon="0.7502">
        <ele>458.334</ele>
        <time>2021-07-21T08:58:30Z</time>
      </trkpt>
      <trkpt lat="43.00717" lon="0.75016">
        <ele>460.139</ele>
        <time>2021-07-21T08:58:29Z</time>
      </trkpt>
      <trkpt lat="43.00705" lon="0.75007">
        <ele>462.115</ele>
        <time>2021-07-21T08:58:27Z</time>
      </trkpt>
      <trkpt lat="43.007" lon="0.75002">
        <ele>463.427</ele>
        <time>2021-07-21T08:58:26Z</time>
      </trkpt>
      <trkpt lat="43.00694" lon="0.74996">
        <ele>465.053</ele>
        <time>2021-07-21T08:58:25Z</time>
      </trkpt>
      <trkpt lat="43.00684" lon="0.74985">
        <ele>467.082</ele>
        <time>2021-07-21T08:58:23Z</time>
      </trkpt>
      <trkpt lat="43.00674" lon="0.74972">
        <ele>468.823</ele>
        <time>2021-07-21T08:58:21Z</time>
      </trkpt>
      <trkpt lat="43.00668" lon="0.74964">
        <ele>470.272</ele>
        <time>2021-07-21T08:58:20Z</time>
      </trkpt>
      <trkpt lat="43.00663" lon="0.74958">
        <ele>471.908</ele>
        <time>2021-07-21T08:58:19Z</time>
      </trkpt>
      <trkpt lat="43.00653" lon="0.74943">
        <ele>474.008</ele>
        <time>2021-07-21T08:58:17Z</time>
      </trkpt>
      <trkpt lat="43.00647" lon="0.74935">
        <ele>475.953</ele>
        <time>2021-07-21T08:58:16Z</time>
      </trkpt>
      <trkpt lat="43.00642" lon="0.74927">
        <ele>478.052</ele>
        <time>2021-07-21T08:58:15Z</time>
      </trkpt>
      <trkpt lat="43.00632" lon="0.74913">
        <ele>480.452</ele>
        <time>2021-07-21T08:58:13Z</time>
      </trkpt>
      <trkpt lat="43.00622" lon="0.74898">
        <ele>482.747</ele>
        <time>2021-07-21T08:58:11Z</time>
      </trkpt>
      <trkpt lat="43.00617" lon="0.74891">
        <ele>484.633</ele>
        <time>2021-07-21T08:58:10Z</time>
      </trkpt>
      <trkpt lat="43.0061" lon="0.74878">
        <ele>486.935</ele>
        <time>2021-07-21T08:58:08Z</time>
      </trkpt>
      <trkpt lat="43.00606" lon="0.74873">
        <ele>488.831</ele>
        <time>2021-07-21T08:58:07Z</time>
      </trkpt>
      <trkpt lat="43.00599" lon="0.74866">
        <ele>491.25</ele>
        <time>2021-07-21T08:58:05Z</time>
      </trkpt>
      <trkpt lat="43.00592" lon="0.74864">
        <ele>494.061</ele>
        <time>2021-07-21T08:58:03Z</time>
      </trkpt>
      <trkpt lat="43.00585" lon="0.74864">
        <ele>497.12</ele>
        <time>2021-07-21T08:58:01Z</time>
      </trkpt>
      <trkpt lat="43.00578" lon="0.74869">
        <ele>499.808</ele>
        <time>2021-07-21T08:57:59Z</time>
      </trkpt>
      <trkpt lat="43.00574" lon="0.74873">
        <ele>501.817</ele>
        <time>2021-07-21T08:57:58Z</time>
      </trkpt>
      <trkpt lat="43.00564" lon="0.74882">
        <ele>504.17</ele>
        <time>2021-07-21T08:57:56Z</time>
      </trkpt>
      <trkpt lat="43.00559" lon="0.74888">
        <ele>505.838</ele>
        <time>2021-07-21T08:57:55Z</time>
      </trkpt>
      <trkpt lat="43.00548" lon="0.74898">
        <ele>507.682</ele>
        <time>2021-07-21T08:57:53Z</time>
      </trkpt>
      <trkpt lat="43.00543" lon="0.74903">
        <ele>508.917</ele>
        <time>2021-07-21T08:57:52Z</time>
      </trkpt>
      <trkpt lat="43.00534" lon="0.74914">
        <ele>510.253</ele>
        <time>2021-07-21T08:57:50Z</time>
      </trkpt>
      <trkpt lat="43.0053" lon="0.74918">
        <ele>511.175</ele>
        <time>2021-07-21T08:57:49Z</time>
      </trkpt>
      <trkpt lat="43.0052" lon="0.74925">
        <ele>512.091</ele>
        <time>2021-07-21T08:57:47Z</time>
      </trkpt>
      <trkpt lat="43.00516" lon="0.74929">
        <ele>512.72</ele>
        <time>2021-07-21T08:57:46Z</time>
      </trkpt>
      <trkpt lat="43.00507" lon="0.74936">
        <ele>513.581</ele>
        <time>2021-07-21T08:57:44Z</time>
      </trkpt>
      <trkpt lat="43.00503" lon="0.74939">
        <ele>514.22</ele>
        <time>2021-07-21T08:57:43Z</time>
      </trkpt>
      <trkpt lat="43.00496" lon="0.74947">
        <ele>514.908</ele>
        <time>2021-07-21T08:57:41Z</time>
      </trkpt>
      <trkpt lat="43.00491" lon="0.74954">
        <ele>515.721</ele>
        <time>2021-07-21T08:57:39Z</time>
      </trkpt>
      <trkpt lat="43.00486" lon="0.74958">
        <ele>516.601</ele>
        <time>2021-07-21T08:57:37Z</time>
      </trkpt>
      <trkpt lat="43.00482" lon="0.74962">
        <ele>517.739</ele>
        <time>2021-07-21T08:56:01Z</time>
      </trkpt>
      <trkpt lat="43.00481" lon="0.74956">
        <ele>517.433</ele>
        <time>2021-07-21T08:55:59Z</time>
      </trkpt>
      <trkpt lat="43.00482" lon="0.74947">
        <ele>516.928</ele>
        <time>2021-07-21T08:55:57Z</time>
      </trkpt>
      <trkpt lat="43.00482" lon="0.74937">
        <ele>516.394</ele>
        <time>2021-07-21T08:55:55Z</time>
      </trkpt>
      <trkpt lat="43.00481" lon="0.74928">
        <ele>516.356</ele>
        <time>2021-07-21T08:55:53Z</time>
      </trkpt>
      <trkpt lat="43.00481" lon="0.74918">
        <ele>516.662</ele>
        <time>2021-07-21T08:55:51Z</time>
      </trkpt>
      <trkpt lat="43.00481" lon="0.74908">
        <ele>517.161</ele>
        <time>2021-07-21T08:55:49Z</time>
      </trkpt>
      <trkpt lat="43.00481" lon="0.74897">
        <ele>518.132</ele>
        <time>2021-07-21T08:55:47Z</time>
      </trkpt>
      <trkpt lat="43.00484" lon="0.74885">
        <ele>519.441</ele>
        <time>2021-07-21T08:55:45Z</time>
      </trkpt>
      <trkpt lat="43.00488" lon="0.74873">
        <ele>520.308</ele>
        <time>2021-07-21T08:55:43Z</time>
      </trkpt>
      <trkpt lat="43.00494" lon="0.74861">
        <ele>520.822</ele>
        <time>2021-07-21T08:55:41Z</time>
      </trkpt>
      <trkpt lat="43.005" lon="0.7485">
        <ele>520.902</ele>
        <time>2021-07-21T08:55:39Z</time>
      </trkpt>
      <trkpt lat="43.00506" lon="0.7484">
        <ele>521.049</ele>
        <time>2021-07-21T08:55:37Z</time>
      </trkpt>
      <trkpt lat="43.00507" lon="0.74833">
        <ele>521.052</ele>
        <time>2021-07-21T08:55:35Z</time>
      </trkpt>
      <trkpt lat="43.0051" lon="0.74828">
        <ele>521.167</ele>
        <time>2021-07-21T08:55:33Z</time>
      </trkpt>
      <trkpt lat="43.00514" lon="0.74821">
        <ele>521.343</ele>
        <time>2021-07-21T08:55:31Z</time>
      </trkpt>
      <trkpt lat="43.00519" lon="0.74815">
        <ele>521.235</ele>
        <time>2021-07-21T08:55:29Z</time>
      </trkpt>
      <trkpt lat="43.00524" lon="0.74807">
        <ele>521.361</ele>
        <time>2021-07-21T08:55:27Z</time>
      </trkpt>
      <trkpt lat="43.00529" lon="0.74796">
        <ele>521.12</ele>
        <time>2021-07-21T08:55:25Z</time>
      </trkpt>
      <trkpt lat="43.00532" lon="0.74788">
        <ele>520.611</ele>
        <time>2021-07-21T08:55:23Z</time>
      </trkpt>
      <trkpt lat="43.00537" lon="0.74781">
        <ele>519.74</ele>
        <time>2021-07-21T08:55:21Z</time>
      </trkpt>
      <trkpt lat="43.0054" lon="0.74774">
        <ele>518.308</ele>
        <time>2021-07-21T08:55:19Z</time>
      </trkpt>
      <trkpt lat="43.00543" lon="0.74766">
        <ele>517.521</ele>
        <time>2021-07-21T08:55:17Z</time>
      </trkpt>
      <trkpt lat="43.00545" lon="0.74759">
        <ele>517.201</ele>
        <time>2021-07-21T08:55:15Z</time>
      </trkpt>
      <trkpt lat="43.00545" lon="0.74752">
        <ele>517.639</ele>
        <time>2021-07-21T08:55:13Z</time>
      </trkpt>
      <trkpt lat="43.00548" lon="0.74745">
        <ele>518.65</ele>
        <time>2021-07-21T08:55:11Z</time>
      </trkpt>
      <trkpt lat="43.00553" lon="0.74736">
        <ele>519.645</ele>
        <time>2021-07-21T08:55:09Z</time>
      </trkpt>
      <trkpt lat="43.00557" lon="0.74733">
        <ele>520.791</ele>
        <time>2021-07-21T08:55:08Z</time>
      </trkpt>
      <trkpt lat="43.00567" lon="0.74724">
        <ele>522.173</ele>
        <time>2021-07-21T08:55:06Z</time>
      </trkpt>
      <trkpt lat="43.00578" lon="0.74714">
        <ele>523.639</ele>
        <time>2021-07-21T08:55:04Z</time>
      </trkpt>
      <trkpt lat="43.00584" lon="0.7471">
        <ele>524.718</ele>
        <time>2021-07-21T08:55:03Z</time>
      </trkpt>
      <trkpt lat="43.00594" lon="0.747">
        <ele>526.059</ele>
        <time>2021-07-21T08:55:01Z</time>
      </trkpt>
      <trkpt lat="43.00597" lon="0.74695">
        <ele>527.378</ele>
        <time>2021-07-21T08:55:00Z</time>
      </trkpt>
      <trkpt lat="43.00602" lon="0.74686">
        <ele>528.808</ele>
        <time>2021-07-21T08:54:58Z</time>
      </trkpt>
      <trkpt lat="43.00607" lon="0.74679">
        <ele>530.309</ele>
        <time>2021-07-21T08:54:56Z</time>
      </trkpt>
      <trkpt lat="43.00613" lon="0.74671">
        <ele>531.754</ele>
        <time>2021-07-21T08:54:54Z</time>
      </trkpt>
      <trkpt lat="43.0062" lon="0.74669">
        <ele>532.914</ele>
        <time>2021-07-21T08:54:52Z</time>
      </trkpt>
      <trkpt lat="43.00625" lon="0.74668">
        <ele>534.181</ele>
        <time>2021-07-21T08:54:51Z</time>
      </trkpt>
      <trkpt lat="43.00634" lon="0.74664">
        <ele>535.916</ele>
        <time>2021-07-21T08:54:49Z</time>
      </trkpt>
      <trkpt lat="43.00638" lon="0.74657">
        <ele>537.932</ele>
        <time>2021-07-21T08:54:46Z</time>
      </trkpt>
      <trkpt lat="43.00633" lon="0.74653">
        <ele>540.394</ele>
        <time>2021-07-21T08:54:42Z</time>
      </trkpt>
      <trkpt lat="43.00633" lon="0.74647">
        <ele>543.57</ele>
        <time>2021-07-21T08:54:40Z</time>
      </trkpt>
      <trkpt lat="43.00635" lon="0.74638">
        <ele>547.269</ele>
        <time>2021-07-21T08:54:38Z</time>
      </trkpt>
      <trkpt lat="43.00638" lon="0.74631">
        <ele>550.83</ele>
        <time>2021-07-21T08:54:36Z</time>
      </trkpt>
      <trkpt lat="43.00641" lon="0.74627">
        <ele>554.599</ele>
        <time>2021-07-21T08:54:34Z</time>
      </trkpt>
      <trkpt lat="43.00646" lon="0.74624">
        <ele>558.508</ele>
        <time>2021-07-21T08:54:32Z</time>
      </trkpt>
      <trkpt lat="43.0065" lon="0.74619">
        <ele>562.505</ele>
        <time>2021-07-21T08:54:29Z</time>
      </trkpt>
      <trkpt lat="43.00654" lon="0.74612">
        <ele>566.441</ele>
        <time>2021-07-21T08:54:27Z</time>
      </trkpt>
      <trkpt lat="43.00659" lon="0.74607">
        <ele>570.421</ele>
        <time>2021-07-21T08:54:25Z</time>
      </trkpt>
      <trkpt lat="43.00658" lon="0.74597">
        <ele>574.48</ele>
        <time>2021-07-21T08:54:13Z</time>
      </trkpt>
      <trkpt lat="43.00662" lon="0.74592">
        <ele>578.015</ele>
        <time>2021-07-21T08:54:10Z</time>
      </trkpt>
      <trkpt lat="43.00667" lon="0.74588">
        <ele>580.721</ele>
        <time>2021-07-21T08:54:07Z</time>
      </trkpt>
      <trkpt lat="43.00671" lon="0.74586">
        <ele>582.093</ele>
        <time>2021-07-21T08:54:05Z</time>
      </trkpt>
      <trkpt lat="43.00677" lon="0.74583">
        <ele>582.739</ele>
        <time>2021-07-21T08:54:03Z</time>
      </trkpt>
      <trkpt lat="43.00683" lon="0.74578">
        <ele>582.928</ele>
        <time>2021-07-21T08:54:01Z</time>
      </trkpt>
      <trkpt lat="43.00685" lon="0.7457">
        <ele>582.499</ele>
        <time>2021-07-21T08:53:59Z</time>
      </trkpt>
      <trkpt lat="43.00682" lon="0.74563">
        <ele>581.268</ele>
        <time>2021-07-21T08:53:57Z</time>
      </trkpt>
      <trkpt lat="43.00676" lon="0.74558">
        <ele>579.908</ele>
        <time>2021-07-21T08:53:55Z</time>
      </trkpt>
      <trkpt lat="43.00673" lon="0.74554">
        <ele>578.805</ele>
        <time>2021-07-21T08:53:53Z</time>
      </trkpt>
      <trkpt lat="43.00667" lon="0.7455">
        <ele>577.832</ele>
        <time>2021-07-21T08:53:51Z</time>
      </trkpt>
      <trkpt lat="43.00658" lon="0.74546">
        <ele>577.412</ele>
        <time>2021-07-21T08:53:49Z</time>
      </trkpt>
      <trkpt lat="43.00653" lon="0.74544">
        <ele>577.478</ele>
        <time>2021-07-21T08:53:48Z</time>
      </trkpt>
      <trkpt lat="43.00645" lon="0.74541">
        <ele>577.783</ele>
        <time>2021-07-21T08:53:46Z</time>
      </trkpt>
      <trkpt lat="43.00638" lon="0.74541">
        <ele>578.229</ele>
        <time>2021-07-21T08:53:44Z</time>
      </trkpt>
      <trkpt lat="43.00632" lon="0.74544">
        <ele>578.841</ele>
        <time>2021-07-21T08:53:42Z</time>
      </trkpt>
      <trkpt lat="43.00627" lon="0.74546">
        <ele>579.387</ele>
        <time>2021-07-21T08:53:40Z</time>
      </trkpt>
      <trkpt lat="43.00621" lon="0.74547">
        <ele>579.546</ele>
        <time>2021-07-21T08:53:38Z</time>
      </trkpt>
      <trkpt lat="43.00615" lon="0.74544">
        <ele>579.897</ele>
        <time>2021-07-21T08:53:35Z</time>
      </trkpt>
      <trkpt lat="43.0061" lon="0.74541">
        <ele>580.246</ele>
        <time>2021-07-21T08:53:32Z</time>
      </trkpt>
      <trkpt lat="43.00606" lon="0.74536">
        <ele>580.808</ele>
        <time>2021-07-21T08:53:30Z</time>
      </trkpt>
      <trkpt lat="43.00602" lon="0.74531">
        <ele>581.724</ele>
        <time>2021-07-21T08:53:28Z</time>
      </trkpt>
      <trkpt lat="43.00596" lon="0.74527">
        <ele>583.131</ele>
        <time>2021-07-21T08:53:26Z</time>
      </trkpt>
      <trkpt lat="43.0059" lon="0.74525">
        <ele>585.296</ele>
        <time>2021-07-21T08:53:24Z</time>
      </trkpt>
      <trkpt lat="43.00587" lon="0.74519">
        <ele>588.144</ele>
        <time>2021-07-21T08:53:21Z</time>
      </trkpt>
      <trkpt lat="43.00591" lon="0.74509">
        <ele>590.819</ele>
        <time>2021-07-21T08:53:19Z</time>
      </trkpt>
      <trkpt lat="43.00597" lon="0.74497">
        <ele>593.295</ele>
        <time>2021-07-21T08:53:17Z</time>
      </trkpt>
      <trkpt lat="43.00599" lon="0.74492">
        <ele>594.997</ele>
        <time>2021-07-21T08:53:16Z</time>
      </trkpt>
      <trkpt lat="43.00604" lon="0.74482">
        <ele>596.523</ele>
        <time>2021-07-21T08:53:14Z</time>
      </trkpt>
      <trkpt lat="43.00604" lon="0.74473">
        <ele>598.262</ele>
        <time>2021-07-21T08:53:12Z</time>
      </trkpt>
      <trkpt lat="43.00599" lon="0.74465">
        <ele>599.933</ele>
        <time>2021-07-21T08:53:10Z</time>
      </trkpt>
      <trkpt lat="43.00594" lon="0.74455">
        <ele>601.742</ele>
        <time>2021-07-21T08:53:08Z</time>
      </trkpt>
      <trkpt lat="43.00587" lon="0.74446">
        <ele>603.308</ele>
        <time>2021-07-21T08:53:06Z</time>
      </trkpt>
      <trkpt lat="43.00579" lon="0.7444">
        <ele>605.223</ele>
        <time>2021-07-21T08:53:04Z</time>
      </trkpt>
      <trkpt lat="43.00569" lon="0.74438">
        <ele>607.003</ele>
        <time>2021-07-21T08:53:02Z</time>
      </trkpt>
      <trkpt lat="43.0056" lon="0.74434">
        <ele>608.359</ele>
        <time>2021-07-21T08:53:00Z</time>
      </trkpt>
      <trkpt lat="43.00554" lon="0.74433">
        <ele>609.158</ele>
        <time>2021-07-21T08:52:59Z</time>
      </trkpt>
      <trkpt lat="43.00543" lon="0.74434">
        <ele>610.063</ele>
        <time>2021-07-21T08:52:57Z</time>
      </trkpt>
      <trkpt lat="43.00533" lon="0.74434">
        <ele>610.669</ele>
        <time>2021-07-21T08:52:55Z</time>
      </trkpt>
      <trkpt lat="43.00524" lon="0.74439">
        <ele>610.911</ele>
        <time>2021-07-21T08:52:53Z</time>
      </trkpt>
      <trkpt lat="43.00519" lon="0.74442">
        <ele>610.897</ele>
        <time>2021-07-21T08:52:52Z</time>
      </trkpt>
      <trkpt lat="43.00514" lon="0.74446">
        <ele>610.786</ele>
        <time>2021-07-21T08:52:51Z</time>
      </trkpt>
      <trkpt lat="43.00501" lon="0.74454">
        <ele>610.567</ele>
        <time>2021-07-21T08:52:49Z</time>
      </trkpt>
      <trkpt lat="43.00487" lon="0.7446">
        <ele>610.176</ele>
        <time>2021-07-21T08:52:47Z</time>
      </trkpt>
      <trkpt lat="43.00474" lon="0.74464">
        <ele>609.308</ele>
        <time>2021-07-21T08:52:45Z</time>
      </trkpt>
      <trkpt lat="43.00469" lon="0.74467">
        <ele>608.723</ele>
        <time>2021-07-21T08:52:44Z</time>
      </trkpt>
      <trkpt lat="43.00465" lon="0.7447">
        <ele>608.149</ele>
        <time>2021-07-21T08:52:43Z</time>
      </trkpt>
      <trkpt lat="43.00461" lon="0.74473">
        <ele>607.695</ele>
        <time>2021-07-21T08:52:42Z</time>
      </trkpt>
      <trkpt lat="43.00454" lon="0.74478">
        <ele>607.055</ele>
        <time>2021-07-21T08:52:40Z</time>
      </trkpt>
      <trkpt lat="43.0045" lon="0.74482">
        <ele>606.54</ele>
        <time>2021-07-21T08:52:37Z</time>
      </trkpt>
      <trkpt lat="43.00439" lon="0.74489">
        <ele>605.946</ele>
        <time>2021-07-21T08:51:54Z</time>
      </trkpt>
      <trkpt lat="43.00434" lon="0.74491">
        <ele>605.728</ele>
        <time>2021-07-21T08:51:50Z</time>
      </trkpt>
      <trkpt lat="43.00427" lon="0.74494">
        <ele>606.074</ele>
        <time>2021-07-21T08:51:48Z</time>
      </trkpt>
      <trkpt lat="43.00421" lon="0.74497">
        <ele>606.793</ele>
        <time>2021-07-21T08:51:47Z</time>
      </trkpt>
      <trkpt lat="43.00409" lon="0.74504">
        <ele>607.684</ele>
        <time>2021-07-21T08:51:45Z</time>
      </trkpt>
      <trkpt lat="43.00404" lon="0.74505">
        <ele>608.413</ele>
        <time>2021-07-21T08:51:44Z</time>
      </trkpt>
      <trkpt lat="43.00392" lon="0.74502">
        <ele>609.608</ele>
        <time>2021-07-21T08:51:42Z</time>
      </trkpt>
      <trkpt lat="43.00385" lon="0.745">
        <ele>610.613</ele>
        <time>2021-07-21T08:51:41Z</time>
      </trkpt>
      <trkpt lat="43.00379" lon="0.74497">
        <ele>611.621</ele>
        <time>2021-07-21T08:51:40Z</time>
      </trkpt>
      <trkpt lat="43.00368" lon="0.74493">
        <ele>612.561</ele>
        <time>2021-07-21T08:51:38Z</time>
      </trkpt>
      <trkpt lat="43.00357" lon="0.74486">
        <ele>613.193</ele>
        <time>2021-07-21T08:51:36Z</time>
      </trkpt>
      <trkpt lat="43.00349" lon="0.74477">
        <ele>613.428</ele>
        <time>2021-07-21T08:51:34Z</time>
      </trkpt>
      <trkpt lat="43.00345" lon="0.74473">
        <ele>613.584</ele>
        <time>2021-07-21T08:51:33Z</time>
      </trkpt>
      <trkpt lat="43.00338" lon="0.74468">
        <ele>613.646</ele>
        <time>2021-07-21T08:51:31Z</time>
      </trkpt>
      <trkpt lat="43.00333" lon="0.74468">
        <ele>614.022</ele>
        <time>2021-07-21T08:51:29Z</time>
      </trkpt>
      <trkpt lat="43.00328" lon="0.74468">
        <ele>614.581</ele>
        <time>2021-07-21T08:51:26Z</time>
      </trkpt>
      <trkpt lat="43.00321" lon="0.74466">
        <ele>615.352</ele>
        <time>2021-07-21T08:50:31Z</time>
      </trkpt>
      <trkpt lat="43.00317" lon="0.74471">
        <ele>614.521</ele>
        <time>2021-07-21T08:50:27Z</time>
      </trkpt>
      <trkpt lat="43.00313" lon="0.74474">
        <ele>613.908</ele>
        <time>2021-07-21T08:50:22Z</time>
      </trkpt>
      <trkpt lat="43.00308" lon="0.74478">
        <ele>613.609</ele>
        <time>2021-07-21T08:50:18Z</time>
      </trkpt>
      <trkpt lat="43.00305" lon="0.74484">
        <ele>613.681</ele>
        <time>2021-07-21T08:50:14Z</time>
      </trkpt>
      <trkpt lat="43.003" lon="0.74488">
        <ele>613.641</ele>
        <time>2021-07-21T08:50:10Z</time>
      </trkpt>
      <trkpt lat="43.00297" lon="0.74494">
        <ele>613.793</ele>
        <time>2021-07-21T08:50:06Z</time>
      </trkpt>
      <trkpt lat="43.00293" lon="0.74498">
        <ele>613.428</ele>
        <time>2021-07-21T08:50:02Z</time>
      </trkpt>
      <trkpt lat="43.00287" lon="0.74501">
        <ele>612.944</ele>
        <time>2021-07-21T08:49:58Z</time>
      </trkpt>
      <trkpt lat="43.00282" lon="0.74501">
        <ele>612.656</ele>
        <time>2021-07-21T08:49:52Z</time>
      </trkpt>
      <trkpt lat="43.00278" lon="0.74503">
        <ele>611.922</ele>
        <time>2021-07-21T08:49:47Z</time>
      </trkpt>
      <trkpt lat="43.00272" lon="0.74504">
        <ele>611.041</ele>
        <time>2021-07-21T08:49:44Z</time>
      </trkpt>
      <trkpt lat="43.00267" lon="0.74505">
        <ele>610.072</ele>
        <time>2021-07-21T08:49:41Z</time>
      </trkpt>
      <trkpt lat="43.00262" lon="0.74507">
        <ele>608.891</ele>
        <time>2021-07-21T08:49:38Z</time>
      </trkpt>
      <trkpt lat="43.00262" lon="0.74502">
        <ele>606.1</ele>
      </trkpt>
      <trkpt lat="43.00261" lon="0.74502">
        <ele>606</ele>
      </trkpt>
      <trkpt lat="43.00248" lon="0.74506">
        <ele>604.7</ele>
      </trkpt>
      <trkpt lat="43.0024" lon="0.74506">
        <ele>604.2</ele>
      </trkpt>
      <trkpt lat="43.00234" lon="0.74503">
        <ele>604.1</ele>
      </trkpt>
      <trkpt lat="43.00229" lon="0.74498">
        <ele>604.3</ele>
      </trkpt>
      <trkpt lat="43.00221" lon="0.7449">
        <ele>605.3</ele>
      </trkpt>
      <trkpt lat="43.00216" lon="0.74485">
        <ele>605.8</ele>
      </trkpt>
      <trkpt lat="43.0021" lon="0.74482">
        <ele>606</ele>
      </trkpt>
      <trkpt lat="43.00198" lon="0.74477">
        <ele>606.2</ele>
      </trkpt>
      <trkpt lat="43.00187" lon="0.74474">
        <ele>606.3</ele>
      </trkpt>
      <trkpt lat="43.0018" lon="0.74474">
        <ele>605.9</ele>
      </trkpt>
      <trkpt lat="43.00173" lon="0.74477">
        <ele>605.1</ele>
      </trkpt>
      <trkpt lat="43.00166" lon="0.74481">
        <ele>604.3</ele>
      </trkpt>
      <trkpt lat="43.0016" lon="0.74487">
        <ele>603.9</ele>
      </trkpt>
      <trkpt lat="43.00134" lon="0.74504">
        <ele>604.2</ele>
      </trkpt>
      <trkpt lat="43.00124" lon="0.7451">
        <ele>604.8</ele>
      </trkpt>
      <trkpt lat="43.00112" lon="0.74516">
        <ele>605.7</ele>
      </trkpt>
      <trkpt lat="43.001" lon="0.74524">
        <ele>606.6</ele>
      </trkpt>
      <trkpt lat="43.00093" lon="0.7453">
        <ele>607.1</ele>
      </trkpt>
      <trkpt lat="43.00092" lon="0.7453">
        <ele>607.2</ele>
      </trkpt>
    </trkseg>
  </trk>
</gpx>